<?xml version='1.0' encoding='UTF-8'?><gpx version="1.1" creator="JPX - https://github.com/jenetics/jpx" xmlns="http://www.topografix.com/GPX/1/1"><trk><trkseg><trkpt lat="42.387502308966354" lon="14.195975618797338"><ele>239.0</ele><time>2026-03-30T07:41:00.009Z</time></trkpt><trkpt lat="42.38756454867627" lon="14.196009598362744"><ele>238.99999999999997</ele><time>2026-03-30T07:41:01.009Z</time></trkpt><trkpt lat="42.387639143606286" lon="14.196031145193436"><ele>238.99999999999997</ele><time>2026-03-30T07:41:02.009Z</time></trkpt><trkpt lat="42.387736095455445" lon="14.196075255722063"><ele>239.0</ele><time>2026-03-30T07:41:03.009Z</time></trkpt><trkpt lat="42.38783743211543" lon="14.196133643797165"><ele>239.0</ele><time>2026-03-30T07:41:04.009Z</time></trkpt><trkpt lat="42.387945348584914" lon="14.196206200211144"><ele>239.25</ele><time>2026-03-30T07:41:05.009Z</time></trkpt><trkpt lat="42.38806764897731" lon="14.196262654600197"><ele>239.5</ele><time>2026-03-30T07:41:06.009Z</time></trkpt><trkpt lat="42.388194237263384" lon="14.196320362180355"><ele>239.75</ele><time>2026-03-30T07:41:07.009Z</time></trkpt><trkpt lat="42.38830399549282" lon="14.196385985530473"><ele>240.0</ele><time>2026-03-30T07:41:08.009Z</time></trkpt><trkpt lat="42.388404106156955" lon="14.196445367800436"><ele>239.4</ele><time>2026-03-30T07:41:09.009Z</time></trkpt><trkpt lat="42.38850593123276" lon="14.196505619761007"><ele>238.8</ele><time>2026-03-30T07:41:10.009Z</time></trkpt><trkpt lat="42.38859931062964" lon="14.196558074351184"><ele>238.2</ele><time>2026-03-30T07:41:11.009Z</time></trkpt><trkpt lat="42.388687305375484" lon="14.196600341145942"><ele>237.6</ele><time>2026-03-30T07:41:12.009Z</time></trkpt><trkpt lat="42.388764779443754" lon="14.196644888837271"><ele>237.0</ele><time>2026-03-30T07:41:13.009Z</time></trkpt><trkpt lat="42.38882517241832" lon="14.196699391315708"><ele>237.0</ele><time>2026-03-30T07:41:14.009Z</time></trkpt><trkpt lat="42.38891236283242" lon="14.196783829657152"><ele>237.0</ele><time>2026-03-30T07:41:16.009Z</time></trkpt><trkpt lat="42.3889633562723" lon="14.196865106247685"><ele>237.0</ele><time>2026-03-30T07:41:18.009Z</time></trkpt><trkpt lat="42.38891199330502" lon="14.196971106924085"><ele>237.0</ele><time>2026-03-30T07:41:19.009Z</time></trkpt><trkpt lat="42.38885939235983" lon="14.197072391560123"><ele>237.0</ele><time>2026-03-30T07:41:21.009Z</time></trkpt><trkpt lat="42.38879036718001" lon="14.197154880585801"><ele>237.0</ele><time>2026-03-30T07:41:23.01Z</time></trkpt><trkpt lat="42.388736557761476" lon="14.19729539216584"><ele>237.0</ele><time>2026-03-30T07:41:25.01Z</time></trkpt><trkpt lat="42.38868901926398" lon="14.19735585070512"><ele>237.0</ele><time>2026-03-30T07:41:26.01Z</time></trkpt><trkpt lat="42.38864241906748" lon="14.197482811413499"><ele>237.0</ele><time>2026-03-30T07:41:28.01Z</time></trkpt><trkpt lat="42.388589480809216" lon="14.197581674665582"><ele>237.0</ele><time>2026-03-30T07:41:30.01Z</time></trkpt><trkpt lat="42.38855183340197" lon="14.197652447487231"><ele>237.0</ele><time>2026-03-30T07:41:31.01Z</time></trkpt><trkpt lat="42.38850857069912" lon="14.197724069575061"><ele>236.39999999999998</ele><time>2026-03-30T07:41:32.01Z</time></trkpt><trkpt lat="42.388451076666215" lon="14.197810386153789"><ele>235.79999999999998</ele><time>2026-03-30T07:41:34.01Z</time></trkpt><trkpt lat="42.38837776812204" lon="14.197959073631488"><ele>235.2</ele><time>2026-03-30T07:41:36.01Z</time></trkpt><trkpt lat="42.38832518134518" lon="14.198056569040013"><ele>234.6</ele><time>2026-03-30T07:41:37.01Z</time></trkpt><trkpt lat="42.38826198770818" lon="14.198133153735878"><ele>234.0</ele><time>2026-03-30T07:41:38.01Z</time></trkpt><trkpt lat="42.38822141925248" lon="14.198229441728438"><ele>233.2</ele><time>2026-03-30T07:41:39.01Z</time></trkpt><trkpt lat="42.388169384635255" lon="14.198297115129048"><ele>232.39999999999998</ele><time>2026-03-30T07:41:40.01Z</time></trkpt><trkpt lat="42.38813214613213" lon="14.198370144118314"><ele>231.6</ele><time>2026-03-30T07:41:41.01Z</time></trkpt><trkpt lat="42.38804717164179" lon="14.198488328137552"><ele>230.8</ele><time>2026-03-30T07:41:43.01Z</time></trkpt><trkpt lat="42.38798361312956" lon="14.198620854791217"><ele>230.0</ele><time>2026-03-30T07:41:45.01Z</time></trkpt><trkpt lat="42.38790476865949" lon="14.198736634608185"><ele>229.0</ele><time>2026-03-30T07:41:47.01Z</time></trkpt><trkpt lat="42.3878512244329" lon="14.198830854131721"><ele>228.0</ele><time>2026-03-30T07:41:49.01Z</time></trkpt><trkpt lat="42.38783582722133" lon="14.198921618548408"><ele>227.0</ele><time>2026-03-30T07:41:54.01Z</time></trkpt><trkpt lat="42.38778594937569" lon="14.199003812815539"><ele>226.0</ele><time>2026-03-30T07:41:56.01Z</time></trkpt><trkpt lat="42.38772938742401" lon="14.199059480415082"><ele>225.0</ele><time>2026-03-30T07:42:00.01Z</time></trkpt><trkpt lat="42.38758561115083" lon="14.198980619153758"><ele>225.00000000000003</ele><time>2026-03-30T07:42:01.01Z</time></trkpt><trkpt lat="42.387490110338014" lon="14.198966644802981"><ele>225.0</ele><time>2026-03-30T07:42:03.009Z</time></trkpt><trkpt lat="42.38740097912698" lon="14.198934280568146"><ele>225.00000000000003</ele><time>2026-03-30T07:42:05.01Z</time></trkpt><trkpt lat="42.387353433311745" lon="14.199002201184419"><ele>225.00000000000003</ele><time>2026-03-30T07:42:09.009Z</time></trkpt><trkpt lat="42.38737096527483" lon="14.199087308332237"><ele>225.0</ele><time>2026-03-30T07:42:11.01Z</time></trkpt><trkpt lat="42.387381535042984" lon="14.199172253575265"><ele>225.00000000000003</ele><time>2026-03-30T07:42:12.01Z</time></trkpt><trkpt lat="42.38741529912114" lon="14.199244198863786"><ele>225.00000000000003</ele><time>2026-03-30T07:42:13.01Z</time></trkpt><trkpt lat="42.387469916730254" lon="14.19942277756602"><ele>224.0</ele><time>2026-03-30T07:42:15.009Z</time></trkpt><trkpt lat="42.38750750427562" lon="14.199517285279791"><ele>223.0</ele><time>2026-03-30T07:42:16.009Z</time></trkpt><trkpt lat="42.38755027832378" lon="14.199607743638374"><ele>222.0</ele><time>2026-03-30T07:42:17.009Z</time></trkpt><trkpt lat="42.38758570700335" lon="14.199701464326967"><ele>221.0</ele><time>2026-03-30T07:42:18.009Z</time></trkpt><trkpt lat="42.38760507066053" lon="14.199815966000767"><ele>220.0</ele><time>2026-03-30T07:42:19.009Z</time></trkpt><trkpt lat="42.38762709527257" lon="14.199923908909154"><ele>219.0</ele><time>2026-03-30T07:42:20.009Z</time></trkpt><trkpt lat="42.38763002311995" lon="14.200053112301152"><ele>216.79999999999998</ele><time>2026-03-30T07:42:21.009Z</time></trkpt><trkpt lat="42.3876192631416" lon="14.200181516462797"><ele>214.59999999999997</ele><time>2026-03-30T07:42:22.009Z</time></trkpt><trkpt lat="42.38764225664037" lon="14.200325801510946"><ele>212.4</ele><time>2026-03-30T07:42:24.009Z</time></trkpt><trkpt lat="42.38763157896856" lon="14.200445775328495"><ele>210.2</ele><time>2026-03-30T07:42:26.009Z</time></trkpt><trkpt lat="42.38765644850199" lon="14.200536773706162"><ele>208.0</ele><time>2026-03-30T07:42:28.009Z</time></trkpt><trkpt lat="42.38776375233371" lon="14.200621380964765"><ele>207.99999999999997</ele><time>2026-03-30T07:42:30.009Z</time></trkpt><trkpt lat="42.38783209898412" lon="14.200650221307052"><ele>208.0</ele><time>2026-03-30T07:42:31.009Z</time></trkpt><trkpt lat="42.38789753183883" lon="14.200702501108337"><ele>208.0</ele><time>2026-03-30T07:42:32.009Z</time></trkpt><trkpt lat="42.387988191574614" lon="14.200720019988509"><ele>208.0</ele><time>2026-03-30T07:42:33.009Z</time></trkpt><trkpt lat="42.38807478935405" lon="14.200738500811248"><ele>207.99999999999997</ele><time>2026-03-30T07:42:34.009Z</time></trkpt><trkpt lat="42.3881565667821" lon="14.20077505505999"><ele>208.0</ele><time>2026-03-30T07:42:35.009Z</time></trkpt><trkpt lat="42.38824196319591" lon="14.200857912552063"><ele>207.16666666666666</ele><time>2026-03-30T07:42:36.009Z</time></trkpt><trkpt lat="42.38832606691224" lon="14.20092980166752"><ele>206.33333333333331</ele><time>2026-03-30T07:42:37.009Z</time></trkpt><trkpt lat="42.38840565641719" lon="14.200993517773743"><ele>205.5</ele><time>2026-03-30T07:42:38.009Z</time></trkpt><trkpt lat="42.38847816052248" lon="14.201058242067818"><ele>204.66666666666669</ele><time>2026-03-30T07:42:39.009Z</time></trkpt><trkpt lat="42.38854654420681" lon="14.201098872727952"><ele>203.83333333333334</ele><time>2026-03-30T07:42:40.009Z</time></trkpt><trkpt lat="42.38861599384808" lon="14.201162461727488"><ele>203.0</ele><time>2026-03-30T07:42:41.009Z</time></trkpt><trkpt lat="42.38867458199626" lon="14.201239444518466"><ele>203.00000000000003</ele><time>2026-03-30T07:42:42.009Z</time></trkpt><trkpt lat="42.38871290422468" lon="14.201323639073093"><ele>203.0</ele><time>2026-03-30T07:42:43.009Z</time></trkpt><trkpt lat="42.38874099260792" lon="14.201424759368203"><ele>203.0</ele><time>2026-03-30T07:42:44.01Z</time></trkpt><trkpt lat="42.38875347146408" lon="14.201520710825813"><ele>203.0</ele><time>2026-03-30T07:42:45.01Z</time></trkpt><trkpt lat="42.388792597844784" lon="14.201611481081676"><ele>203.00000000000003</ele><time>2026-03-30T07:42:46.01Z</time></trkpt><trkpt lat="42.38885600373561" lon="14.20170515116487"><ele>203.0</ele><time>2026-03-30T07:42:47.01Z</time></trkpt><trkpt lat="42.388943558734304" lon="14.20178949559314"><ele>201.60000000000002</ele><time>2026-03-30T07:42:48.01Z</time></trkpt><trkpt lat="42.38899652521633" lon="14.201878425649934"><ele>200.20000000000002</ele><time>2026-03-30T07:42:49.01Z</time></trkpt><trkpt lat="42.38904798313343" lon="14.201968644895203"><ele>198.8</ele><time>2026-03-30T07:42:50.01Z</time></trkpt><trkpt lat="42.38910068372837" lon="14.202076863004141"><ele>197.4</ele><time>2026-03-30T07:42:51.01Z</time></trkpt><trkpt lat="42.389165735604514" lon="14.202183659657821"><ele>196.0</ele><time>2026-03-30T07:42:52.01Z</time></trkpt><trkpt lat="42.38921620315175" lon="14.202286368263296"><ele>196.4</ele><time>2026-03-30T07:42:53.01Z</time></trkpt><trkpt lat="42.38926351391747" lon="14.202393740098742"><ele>196.8</ele><time>2026-03-30T07:42:54.01Z</time></trkpt><trkpt lat="42.38930840863323" lon="14.202513563527967"><ele>197.20000000000002</ele><time>2026-03-30T07:42:55.01Z</time></trkpt><trkpt lat="42.389353563587335" lon="14.202612393379734"><ele>197.60000000000002</ele><time>2026-03-30T07:42:56.01Z</time></trkpt><trkpt lat="42.38939415316451" lon="14.202696937495677"><ele>198.0</ele><time>2026-03-30T07:42:57.01Z</time></trkpt><trkpt lat="42.38944098951419" lon="14.202814656894315"><ele>198.0</ele><time>2026-03-30T07:42:58.01Z</time></trkpt><trkpt lat="42.38947782942929" lon="14.202927700496708"><ele>198.0</ele><time>2026-03-30T07:42:59.01Z</time></trkpt><trkpt lat="42.389506888367606" lon="14.203039464421643"><ele>198.0</ele><time>2026-03-30T07:43:00.01Z</time></trkpt><trkpt lat="42.38950756962919" lon="14.203138589310646"><ele>198.0</ele><time>2026-03-30T07:43:01.01Z</time></trkpt><trkpt lat="42.38953119951525" lon="14.20323015465245"><ele>198.0</ele><time>2026-03-30T07:43:02.01Z</time></trkpt><trkpt lat="42.38955442655701" lon="14.203330226325871"><ele>198.0</ele><time>2026-03-30T07:43:03.01Z</time></trkpt><trkpt lat="42.38959575197197" lon="14.203475938664694"><ele>200.0</ele><time>2026-03-30T07:43:05.01Z</time></trkpt><trkpt lat="42.38966417204121" lon="14.203600205027243"><ele>202.0</ele><time>2026-03-30T07:43:07.01Z</time></trkpt><trkpt lat="42.38970322567214" lon="14.203670595461022"><ele>204.0</ele><time>2026-03-30T07:43:08.01Z</time></trkpt><trkpt lat="42.38975397690883" lon="14.203763636966492"><ele>206.0</ele><time>2026-03-30T07:43:10.01Z</time></trkpt><trkpt lat="42.38979237700765" lon="14.203831437929033"><ele>208.0</ele><time>2026-03-30T07:43:12.01Z</time></trkpt><trkpt lat="42.389873954876876" lon="14.203880440744049"><ele>210.0</ele><time>2026-03-30T07:43:15.01Z</time></trkpt><trkpt lat="42.389930819626564" lon="14.203776297530492"><ele>205.0</ele><time>2026-03-30T07:43:19.01Z</time></trkpt><trkpt lat="42.38992647634895" lon="14.203644777317864"><ele>200.0</ele><time>2026-03-30T07:43:21.01Z</time></trkpt><trkpt lat="42.389877691204305" lon="14.203500340457659"><ele>195.0</ele><time>2026-03-30T07:43:23.01Z</time></trkpt><trkpt lat="42.389782420217344" lon="14.203414512386104"><ele>190.0</ele><time>2026-03-30T07:43:25.01Z</time></trkpt><trkpt lat="42.38972198344907" lon="14.203363978683269"><ele>185.0</ele><time>2026-03-30T07:43:26.01Z</time></trkpt><trkpt lat="42.3896935438101" lon="14.203269108640537"><ele>185.0</ele><time>2026-03-30T07:43:28.01Z</time></trkpt><trkpt lat="42.38972763021838" lon="14.203166956795434"><ele>185.0</ele><time>2026-03-30T07:43:30.01Z</time></trkpt><trkpt lat="42.38977733456641" lon="14.20304703676365"><ele>185.0</ele><time>2026-03-30T07:43:32.01Z</time></trkpt><trkpt lat="42.38978727098947" lon="14.20294129207869"><ele>185.0</ele><time>2026-03-30T07:43:35.01Z</time></trkpt><trkpt lat="42.38979926840939" lon="14.202857473624894"><ele>185.0</ele><time>2026-03-30T07:43:37.01Z</time></trkpt><trkpt lat="42.389729330012614" lon="14.202841814327913"><ele>185.0</ele><time>2026-03-30T07:43:40.01Z</time></trkpt><trkpt lat="42.389692030873945" lon="14.202978091393309"><ele>185.0</ele><time>2026-03-30T07:43:42.01Z</time></trkpt><trkpt lat="42.38965978339579" lon="14.203077632491848"><ele>185.0</ele><time>2026-03-30T07:43:44.01Z</time></trkpt><trkpt lat="42.38969422735937" lon="14.203282042044817"><ele>185.0</ele><time>2026-03-30T07:44:06.011Z</time></trkpt><trkpt lat="42.389731797489006" lon="14.203364802726206"><ele>185.0</ele><time>2026-03-30T07:44:07.011Z</time></trkpt><trkpt lat="42.38975753501601" lon="14.20344534205286"><ele>185.0</ele><time>2026-03-30T07:44:08.01Z</time></trkpt><trkpt lat="42.38978230543085" lon="14.20353370875281"><ele>185.0</ele><time>2026-03-30T07:44:09.009Z</time></trkpt><trkpt lat="42.38982454568176" lon="14.20362437778297"><ele>185.0</ele><time>2026-03-30T07:44:10.009Z</time></trkpt><trkpt lat="42.389855470578304" lon="14.20374795749115"><ele>185.0</ele><time>2026-03-30T07:44:12.009Z</time></trkpt><trkpt lat="42.389878486360665" lon="14.203845221123002"><ele>185.0</ele><time>2026-03-30T07:44:14.01Z</time></trkpt><trkpt lat="42.38990016383708" lon="14.203955471354844"><ele>185.0</ele><time>2026-03-30T07:44:16.009Z</time></trkpt><trkpt lat="42.38996114304768" lon="14.204082645994163"><ele>185.0</ele><time>2026-03-30T07:44:18.01Z</time></trkpt><trkpt lat="42.39000223140993" lon="14.204215375455053"><ele>185.0</ele><time>2026-03-30T07:44:20.01Z</time></trkpt><trkpt lat="42.3900400607577" lon="14.204316015500616"><ele>185.0</ele><time>2026-03-30T07:44:21.01Z</time></trkpt><trkpt lat="42.3900662797161" lon="14.204447066984349"><ele>185.0</ele><time>2026-03-30T07:44:22.01Z</time></trkpt><trkpt lat="42.39007073234718" lon="14.204537737466488"><ele>185.0</ele><time>2026-03-30T07:44:23.01Z</time></trkpt><trkpt lat="42.39011140674226" lon="14.20470925536675"><ele>185.0</ele><time>2026-03-30T07:44:25.01Z</time></trkpt><trkpt lat="42.39015021282632" lon="14.20480325833836"><ele>184.16666666666666</ele><time>2026-03-30T07:44:26.01Z</time></trkpt><trkpt lat="42.39020242431195" lon="14.204898115162534"><ele>183.33333333333331</ele><time>2026-03-30T07:44:27.01Z</time></trkpt><trkpt lat="42.39024198579495" lon="14.204998127930681"><ele>182.5</ele><time>2026-03-30T07:44:28.01Z</time></trkpt><trkpt lat="42.390276572792416" lon="14.205077543561986"><ele>181.66666666666666</ele><time>2026-03-30T07:44:29.01Z</time></trkpt><trkpt lat="42.390286420752574" lon="14.205168660351877"><ele>180.83333333333334</ele><time>2026-03-30T07:44:31.01Z</time></trkpt><trkpt lat="42.3902277409565" lon="14.205221096602445"><ele>180.0</ele><time>2026-03-30T07:44:33.01Z</time></trkpt><trkpt lat="42.390101166127245" lon="14.205247989003624"><ele>180.0</ele><time>2026-03-30T07:44:35.01Z</time></trkpt><trkpt lat="42.390025896899516" lon="14.205284672467847"><ele>180.0</ele><time>2026-03-30T07:44:36.01Z</time></trkpt><trkpt lat="42.3899543133502" lon="14.205330673137697"><ele>180.0</ele><time>2026-03-30T07:44:37.01Z</time></trkpt><trkpt lat="42.38987567605912" lon="14.205379577136444"><ele>180.0</ele><time>2026-03-30T07:44:38.01Z</time></trkpt><trkpt lat="42.38981881381313" lon="14.205434557530266"><ele>180.0</ele><time>2026-03-30T07:44:39.011Z</time></trkpt><trkpt lat="42.389763948132035" lon="14.205503883325624"><ele>180.0</ele><time>2026-03-30T07:44:40.011Z</time></trkpt><trkpt lat="42.38970159050787" lon="14.205573215101868"><ele>181.5</ele><time>2026-03-30T07:44:41.011Z</time></trkpt><trkpt lat="42.3896285071561" lon="14.205618358992682"><ele>183.0</ele><time>2026-03-30T07:44:42.011Z</time></trkpt><trkpt lat="42.389563281573054" lon="14.205654909157667"><ele>184.5</ele><time>2026-03-30T07:44:43.011Z</time></trkpt><trkpt lat="42.38949060586791" lon="14.205695993351052"><ele>186.0</ele><time>2026-03-30T07:44:44.011Z</time></trkpt><trkpt lat="42.389426066724624" lon="14.20574056606498"><ele>187.5</ele><time>2026-03-30T07:44:45.011Z</time></trkpt><trkpt lat="42.38935453809025" lon="14.205761410817257"><ele>189.0</ele><time>2026-03-30T07:44:46.011Z</time></trkpt><trkpt lat="42.38927796592118" lon="14.205754835479336"><ele>189.0</ele><time>2026-03-30T07:44:48.011Z</time></trkpt><trkpt lat="42.38920815235981" lon="14.20571557201718"><ele>189.0</ele><time>2026-03-30T07:44:50.011Z</time></trkpt><trkpt lat="42.38913966801958" lon="14.205690270615573"><ele>189.0</ele><time>2026-03-30T07:44:51.011Z</time></trkpt><trkpt lat="42.38904086929265" lon="14.20567652132135"><ele>189.0</ele><time>2026-03-30T07:44:52.011Z</time></trkpt><trkpt lat="42.38895535780472" lon="14.205675624065941"><ele>189.0</ele><time>2026-03-30T07:44:53.011Z</time></trkpt><trkpt lat="42.38883169753891" lon="14.205709805961094"><ele>189.39999999999998</ele><time>2026-03-30T07:44:55.011Z</time></trkpt><trkpt lat="42.388757985495545" lon="14.205735244184897"><ele>189.8</ele><time>2026-03-30T07:44:56.011Z</time></trkpt><trkpt lat="42.388664542419384" lon="14.205727334134126"><ele>190.2</ele><time>2026-03-30T07:44:57.011Z</time></trkpt><trkpt lat="42.38857341294187" lon="14.205696525124068"><ele>190.60000000000002</ele><time>2026-03-30T07:44:58.011Z</time></trkpt><trkpt lat="42.38847151225621" lon="14.205660434398187"><ele>191.0</ele><time>2026-03-30T07:44:59.011Z</time></trkpt><trkpt lat="42.38835928017959" lon="14.205635003516473"><ele>191.5</ele><time>2026-03-30T07:45:00.011Z</time></trkpt><trkpt lat="42.38826946699384" lon="14.205605072895233"><ele>192.0</ele><time>2026-03-30T07:45:01.011Z</time></trkpt><trkpt lat="42.38817997989541" lon="14.205566891705248"><ele>192.5</ele><time>2026-03-30T07:45:02.011Z</time></trkpt><trkpt lat="42.38808457634517" lon="14.205529902152989"><ele>193.0</ele><time>2026-03-30T07:45:03.011Z</time></trkpt><trkpt lat="42.38800705091532" lon="14.205509370525657"><ele>193.50000000000003</ele><time>2026-03-30T07:45:04.011Z</time></trkpt><trkpt lat="42.38792827788461" lon="14.20551229021904"><ele>194.0</ele><time>2026-03-30T07:45:05.011Z</time></trkpt><trkpt lat="42.387832337595796" lon="14.205520502749806"><ele>194.00000000000003</ele><time>2026-03-30T07:45:07.011Z</time></trkpt><trkpt lat="42.387770068796065" lon="14.205446977002389"><ele>194.0</ele><time>2026-03-30T07:45:08.011Z</time></trkpt><trkpt lat="42.387710342764755" lon="14.205366446277985"><ele>194.0</ele><time>2026-03-30T07:45:09.011Z</time></trkpt><trkpt lat="42.38764974973193" lon="14.205316807873967"><ele>194.0</ele><time>2026-03-30T07:45:10.011Z</time></trkpt><trkpt lat="42.38758470957602" lon="14.205239457137878"><ele>194.00000000000003</ele><time>2026-03-30T07:45:11.011Z</time></trkpt><trkpt lat="42.387518077230176" lon="14.20515607066365"><ele>194.0</ele><time>2026-03-30T07:45:12.011Z</time></trkpt><trkpt lat="42.38747692627261" lon="14.205056027247467"><ele>194.00000000000003</ele><time>2026-03-30T07:45:13.011Z</time></trkpt><trkpt lat="42.38743655185185" lon="14.204963535268366"><ele>194.0</ele><time>2026-03-30T07:45:14.011Z</time></trkpt><trkpt lat="42.38737600425241" lon="14.204883330596804"><ele>194.0</ele><time>2026-03-30T07:45:15.011Z</time></trkpt><trkpt lat="42.387307375987554" lon="14.204789094539715"><ele>194.0</ele><time>2026-03-30T07:45:16.011Z</time></trkpt><trkpt lat="42.38722622060977" lon="14.204702890373625"><ele>194.00000000000003</ele><time>2026-03-30T07:45:17.011Z</time></trkpt><trkpt lat="42.38716540449706" lon="14.204634310144762"><ele>194.0</ele><time>2026-03-30T07:45:18.011Z</time></trkpt><trkpt lat="42.387108153606555" lon="14.20455835261551"><ele>195.6</ele><time>2026-03-30T07:45:19.011Z</time></trkpt><trkpt lat="42.38704271155947" lon="14.204471389411795"><ele>197.2</ele><time>2026-03-30T07:45:20.011Z</time></trkpt><trkpt lat="42.38697447433001" lon="14.204378065044109"><ele>198.79999999999998</ele><time>2026-03-30T07:45:21.011Z</time></trkpt><trkpt lat="42.38690907564321" lon="14.204277345734987"><ele>200.39999999999998</ele><time>2026-03-30T07:45:22.011Z</time></trkpt><trkpt lat="42.3868276223268" lon="14.20415104697044"><ele>202.0</ele><time>2026-03-30T07:45:24.011Z</time></trkpt><trkpt lat="42.38678086917897" lon="14.20406310680257"><ele>201.99999999999997</ele><time>2026-03-30T07:45:25.011Z</time></trkpt><trkpt lat="42.38673018701553" lon="14.20397966236211"><ele>202.0</ele><time>2026-03-30T07:45:26.011Z</time></trkpt><trkpt lat="42.38668855471407" lon="14.20387884597712"><ele>202.0</ele><time>2026-03-30T07:45:27.011Z</time></trkpt><trkpt lat="42.38663763445176" lon="14.203770371872821"><ele>202.0</ele><time>2026-03-30T07:45:28.011Z</time></trkpt><trkpt lat="42.386579756971656" lon="14.203677634560712"><ele>201.99999999999997</ele><time>2026-03-30T07:45:29.011Z</time></trkpt><trkpt lat="42.386523141083515" lon="14.203599956720623"><ele>202.0</ele><time>2026-03-30T07:45:30.011Z</time></trkpt><trkpt lat="42.38647297014453" lon="14.203515732425718"><ele>201.99999999999997</ele><time>2026-03-30T07:45:31.011Z</time></trkpt><trkpt lat="42.38641880190696" lon="14.203432665030116"><ele>202.0</ele><time>2026-03-30T07:45:32.011Z</time></trkpt><trkpt lat="42.3863630805532" lon="14.203351424228913"><ele>202.0</ele><time>2026-03-30T07:45:33.011Z</time></trkpt><trkpt lat="42.38631653533477" lon="14.203288373673692"><ele>202.0</ele><time>2026-03-30T07:45:34.011Z</time></trkpt><trkpt lat="42.38628385982718" lon="14.203209745691598"><ele>201.99999999999997</ele><time>2026-03-30T07:45:35.011Z</time></trkpt><trkpt lat="42.38625554785675" lon="14.203058916945942"><ele>202.0</ele><time>2026-03-30T07:45:37.011Z</time></trkpt><trkpt lat="42.38623025598359" lon="14.202963509835834"><ele>203.33333333333331</ele><time>2026-03-30T07:45:39.011Z</time></trkpt><trkpt lat="42.38621846821622" lon="14.20283889968184"><ele>204.66666666666666</ele><time>2026-03-30T07:45:41.011Z</time></trkpt><trkpt lat="42.38622738200791" lon="14.202705782963834"><ele>206.0</ele><time>2026-03-30T07:45:43.011Z</time></trkpt><trkpt lat="42.38619339149542" lon="14.202614163274934"><ele>207.33333333333331</ele><time>2026-03-30T07:45:45.011Z</time></trkpt><trkpt lat="42.38616652710659" lon="14.202523471189867"><ele>208.66666666666666</ele><time>2026-03-30T07:45:48.011Z</time></trkpt><trkpt lat="42.38611340551617" lon="14.202405073461907"><ele>210.0</ele><time>2026-03-30T07:45:50.011Z</time></trkpt><trkpt lat="42.386043377423825" lon="14.202332976963296"><ele>210.6</ele><time>2026-03-30T07:45:52.011Z</time></trkpt><trkpt lat="42.385963590719804" lon="14.20226160856284"><ele>211.2</ele><time>2026-03-30T07:45:54.011Z</time></trkpt><trkpt lat="42.38588872605164" lon="14.202174078829621"><ele>211.8</ele><time>2026-03-30T07:45:56.011Z</time></trkpt><trkpt lat="42.38581959551753" lon="14.202099966355439"><ele>212.4</ele><time>2026-03-30T07:45:58.011Z</time></trkpt><trkpt lat="42.38576174319732" lon="14.202029659453988"><ele>213.0</ele><time>2026-03-30T07:46:00.012Z</time></trkpt><trkpt lat="42.38568938670736" lon="14.20195513413079"><ele>213.0</ele><time>2026-03-30T07:46:03.012Z</time></trkpt><trkpt lat="42.38561433432938" lon="14.201933461210382"><ele>213.0</ele><time>2026-03-30T07:46:08.012Z</time></trkpt><trkpt lat="42.385555826959575" lon="14.20200445550346"><ele>213.0</ele><time>2026-03-30T07:46:10.012Z</time></trkpt><trkpt lat="42.385632560890194" lon="14.202133493056673"><ele>213.0</ele><time>2026-03-30T07:46:15.01Z</time></trkpt><trkpt lat="42.38570174476529" lon="14.202201563210956"><ele>213.0</ele><time>2026-03-30T07:46:16.01Z</time></trkpt><trkpt lat="42.385763482762265" lon="14.20225819726019"><ele>213.0</ele><time>2026-03-30T07:46:17.01Z</time></trkpt><trkpt lat="42.385828669915796" lon="14.202304807990547"><ele>212.4</ele><time>2026-03-30T07:46:18.011Z</time></trkpt><trkpt lat="42.38589659933542" lon="14.202388160767637"><ele>211.8</ele><time>2026-03-30T07:46:20.01Z</time></trkpt><trkpt lat="42.38597499455976" lon="14.202487652972485"><ele>211.2</ele><time>2026-03-30T07:46:22.011Z</time></trkpt><trkpt lat="42.386060587703994" lon="14.202584294172514"><ele>210.6</ele><time>2026-03-30T07:46:24.01Z</time></trkpt><trkpt lat="42.38610124327561" lon="14.202651900707378"><ele>210.0</ele><time>2026-03-30T07:46:25.01Z</time></trkpt><trkpt lat="42.38615200064887" lon="14.202792939129752"><ele>210.0</ele><time>2026-03-30T07:46:27.01Z</time></trkpt><trkpt lat="42.3861905119994" lon="14.202891803551733"><ele>210.0</ele><time>2026-03-30T07:46:28.01Z</time></trkpt><trkpt lat="42.386240955745286" lon="14.20301749416879"><ele>210.0</ele><time>2026-03-30T07:46:29.01Z</time></trkpt><trkpt lat="42.386277206548165" lon="14.203118323078828"><ele>210.0</ele><time>2026-03-30T07:46:30.01Z</time></trkpt><trkpt lat="42.386295710680464" lon="14.20320128980909"><ele>210.0</ele><time>2026-03-30T07:46:31.01Z</time></trkpt><trkpt lat="42.386320444969385" lon="14.203284476424958"><ele>210.0</ele><time>2026-03-30T07:46:32.01Z</time></trkpt><trkpt lat="42.38639609455255" lon="14.203404478015718"><ele>208.4</ele><time>2026-03-30T07:46:34.01Z</time></trkpt><trkpt lat="42.38649478485337" lon="14.203510858642295"><ele>206.8</ele><time>2026-03-30T07:46:36.01Z</time></trkpt><trkpt lat="42.38656928100631" lon="14.203636075783006"><ele>205.2</ele><time>2026-03-30T07:46:38.01Z</time></trkpt><trkpt lat="42.386627701744615" lon="14.203746070409085"><ele>203.6</ele><time>2026-03-30T07:46:40.01Z</time></trkpt><trkpt lat="42.386675928351245" lon="14.203825721231208"><ele>202.0</ele><time>2026-03-30T07:46:42.01Z</time></trkpt><trkpt lat="42.38671355501902" lon="14.203908153022045"><ele>202.0</ele><time>2026-03-30T07:46:44.01Z</time></trkpt><trkpt lat="42.38675747843435" lon="14.204014044660875"><ele>202.0</ele><time>2026-03-30T07:46:46.01Z</time></trkpt><trkpt lat="42.386809629056465" lon="14.204135380800105"><ele>202.0</ele><time>2026-03-30T07:46:48.01Z</time></trkpt><trkpt lat="42.38686233340087" lon="14.204210221095451"><ele>202.0</ele><time>2026-03-30T07:46:50.01Z</time></trkpt><trkpt lat="42.38693865376065" lon="14.20426691139563"><ele>202.0</ele><time>2026-03-30T07:46:54.01Z</time></trkpt><trkpt lat="42.38703079565264" lon="14.204177224255137"><ele>201.99999999999997</ele><time>2026-03-30T07:46:56.01Z</time></trkpt><trkpt lat="42.38708590626131" lon="14.204094175803057"><ele>202.0</ele><time>2026-03-30T07:46:57.01Z</time></trkpt><trkpt lat="42.38712558029811" lon="14.204025845227845"><ele>202.0</ele><time>2026-03-30T07:46:58.01Z</time></trkpt><trkpt lat="42.38710559442211" lon="14.203916675489111"><ele>202.0</ele><time>2026-03-30T07:47:00.01Z</time></trkpt><trkpt lat="42.3870951971257" lon="14.203822501897623"><ele>201.99999999999997</ele><time>2026-03-30T07:47:01.01Z</time></trkpt><trkpt lat="42.38712919801213" lon="14.20373668097324"><ele>202.0</ele><time>2026-03-30T07:47:03.01Z</time></trkpt><trkpt lat="42.387200311613825" lon="14.20363568236451"><ele>201.99999999999997</ele><time>2026-03-30T07:47:05.01Z</time></trkpt><trkpt lat="42.38722217554067" lon="14.203553286161773"><ele>202.0</ele><time>2026-03-30T07:47:07.01Z</time></trkpt><trkpt lat="42.38715456918099" lon="14.203562449772791"><ele>202.0</ele><time>2026-03-30T07:47:14.01Z</time></trkpt><trkpt lat="42.38714936061128" lon="14.203680367192263"><ele>202.0</ele><time>2026-03-30T07:47:17.01Z</time></trkpt><trkpt lat="42.387157660691216" lon="14.203826685740097"><ele>201.99999999999997</ele><time>2026-03-30T07:47:20.01Z</time></trkpt><trkpt lat="42.38716228041079" lon="14.203942569577114"><ele>202.0</ele><time>2026-03-30T07:47:22.01Z</time></trkpt><trkpt lat="42.38715802640715" lon="14.204054626162351"><ele>201.99999999999997</ele><time>2026-03-30T07:47:24.01Z</time></trkpt><trkpt lat="42.38709603070865" lon="14.204172880472782"><ele>202.0</ele><time>2026-03-30T07:47:26.011Z</time></trkpt><trkpt lat="42.387045675073885" lon="14.204228347957592"><ele>202.0</ele><time>2026-03-30T07:47:27.011Z</time></trkpt><trkpt lat="42.38699515957054" lon="14.204325846779977"><ele>202.0</ele><time>2026-03-30T07:47:29.011Z</time></trkpt><trkpt lat="42.38702799279382" lon="14.204448879965323"><ele>201.99999999999997</ele><time>2026-03-30T07:47:33.011Z</time></trkpt><trkpt lat="42.38710311799513" lon="14.20452071392505"><ele>202.0</ele><time>2026-03-30T07:47:35.011Z</time></trkpt><trkpt lat="42.387167971961425" lon="14.204617724445761"><ele>201.6</ele><time>2026-03-30T07:47:37.011Z</time></trkpt><trkpt lat="42.38725787913195" lon="14.204737193454337"><ele>201.2</ele><time>2026-03-30T07:47:39.011Z</time></trkpt><trkpt lat="42.387307898880586" lon="14.204816034219007"><ele>200.8</ele><time>2026-03-30T07:47:40.011Z</time></trkpt><trkpt lat="42.387365535073506" lon="14.204899824255927"><ele>200.4</ele><time>2026-03-30T07:47:41.011Z</time></trkpt><trkpt lat="42.38743353915662" lon="14.205007603455224"><ele>200.0</ele><time>2026-03-30T07:47:43.011Z</time></trkpt><trkpt lat="42.38746855535647" lon="14.20509620114196"><ele>199.00000000000003</ele><time>2026-03-30T07:47:45.011Z</time></trkpt><trkpt lat="42.38752271843862" lon="14.205182555665633"><ele>198.0</ele><time>2026-03-30T07:47:47.011Z</time></trkpt><trkpt lat="42.38759625448044" lon="14.205256660364478"><ele>197.0</ele><time>2026-03-30T07:47:49.011Z</time></trkpt><trkpt lat="42.38764879443988" lon="14.205344647152113"><ele>196.0</ele><time>2026-03-30T07:47:51.011Z</time></trkpt><trkpt lat="42.38773974196433" lon="14.205431242410642"><ele>195.00000000000003</ele><time>2026-03-30T07:47:53.011Z</time></trkpt><trkpt lat="42.38779624842703" lon="14.205490653834142"><ele>194.0</ele><time>2026-03-30T07:47:54.011Z</time></trkpt><trkpt lat="42.38786531017564" lon="14.20551393581206"><ele>194.0</ele><time>2026-03-30T07:47:56.011Z</time></trkpt><trkpt lat="42.387939788892375" lon="14.20550791262499"><ele>194.0</ele><time>2026-03-30T07:47:58.011Z</time></trkpt><trkpt lat="42.38803190681516" lon="14.20552361829301"><ele>194.0</ele><time>2026-03-30T07:48:00.011Z</time></trkpt><trkpt lat="42.38813753307617" lon="14.205548346172932"><ele>194.0</ele><time>2026-03-30T07:48:02.011Z</time></trkpt><trkpt lat="42.388243264725865" lon="14.205596493031457"><ele>194.0</ele><time>2026-03-30T07:48:04.011Z</time></trkpt><trkpt lat="42.38838805165894" lon="14.20564199461676"><ele>193.50000000000003</ele><time>2026-03-30T07:48:06.011Z</time></trkpt><trkpt lat="42.38845934257137" lon="14.205673091568482"><ele>193.0</ele><time>2026-03-30T07:48:07.011Z</time></trkpt><trkpt lat="42.38853387484929" lon="14.20569434643554"><ele>192.5</ele><time>2026-03-30T07:48:08.011Z</time></trkpt><trkpt lat="42.38862926551309" lon="14.205712977913661"><ele>192.0</ele><time>2026-03-30T07:48:09.011Z</time></trkpt><trkpt lat="42.38870267829233" lon="14.205734152428033"><ele>191.5</ele><time>2026-03-30T07:48:10.011Z</time></trkpt><trkpt lat="42.38882587913112" lon="14.20574215111238"><ele>191.0</ele><time>2026-03-30T07:48:12.011Z</time></trkpt><trkpt lat="42.38893683735278" lon="14.205705736756084"><ele>190.60000000000002</ele><time>2026-03-30T07:48:14.011Z</time></trkpt><trkpt lat="42.38903572014653" lon="14.205705145616676"><ele>190.2</ele><time>2026-03-30T07:48:16.011Z</time></trkpt><trkpt lat="42.38916847637991" lon="14.205751579582554"><ele>189.8</ele><time>2026-03-30T07:48:18.011Z</time></trkpt><trkpt lat="42.389235344993196" lon="14.205759598655005"><ele>189.39999999999998</ele><time>2026-03-30T07:48:19.011Z</time></trkpt><trkpt lat="42.38929907679343" lon="14.205757954912274"><ele>189.0</ele><time>2026-03-30T07:48:20.011Z</time></trkpt><trkpt lat="42.38939852499721" lon="14.205730032133914"><ele>189.0</ele><time>2026-03-30T07:48:22.011Z</time></trkpt><trkpt lat="42.38946437014076" lon="14.205695083993898"><ele>189.0</ele><time>2026-03-30T07:48:23.011Z</time></trkpt><trkpt lat="42.38953772731033" lon="14.20565525686853"><ele>189.0</ele><time>2026-03-30T07:48:24.01Z</time></trkpt><trkpt lat="42.389619505514105" lon="14.205605124244611"><ele>189.0</ele><time>2026-03-30T07:48:25.01Z</time></trkpt><trkpt lat="42.38969108985183" lon="14.205552803410948"><ele>189.0</ele><time>2026-03-30T07:48:26.011Z</time></trkpt><trkpt lat="42.38974942273764" lon="14.205506357338193"><ele>189.0</ele><time>2026-03-30T07:48:27.011Z</time></trkpt><trkpt lat="42.389811773539584" lon="14.20544062199443"><ele>187.5</ele><time>2026-03-30T07:48:29.011Z</time></trkpt><trkpt lat="42.38985765003709" lon="14.205378689964306"><ele>186.0</ele><time>2026-03-30T07:48:31.011Z</time></trkpt><trkpt lat="42.38991971789034" lon="14.205341160478266"><ele>184.5</ele><time>2026-03-30T07:48:33.011Z</time></trkpt><trkpt lat="42.390015561703024" lon="14.205280474643681"><ele>183.0</ele><time>2026-03-30T07:48:35.011Z</time></trkpt><trkpt lat="42.390133184502126" lon="14.205230531627407"><ele>181.5</ele><time>2026-03-30T07:48:37.011Z</time></trkpt><trkpt lat="42.39019536525168" lon="14.20521016990958"><ele>180.0</ele><time>2026-03-30T07:48:38.011Z</time></trkpt><trkpt lat="42.390262562661874" lon="14.205173269118651"><ele>180.0</ele><time>2026-03-30T07:48:40.011Z</time></trkpt><trkpt lat="42.39022696172203" lon="14.205055288044965"><ele>180.0</ele><time>2026-03-30T07:48:42.011Z</time></trkpt><trkpt lat="42.39017358432319" lon="14.204974945022473"><ele>180.0</ele><time>2026-03-30T07:48:44.011Z</time></trkpt><trkpt lat="42.3901267374157" lon="14.20486307550428"><ele>180.0</ele><time>2026-03-30T07:48:47.011Z</time></trkpt><trkpt lat="42.390074449847354" lon="14.204734778421216"><ele>180.0</ele><time>2026-03-30T07:48:49.011Z</time></trkpt><trkpt lat="42.390034018308" lon="14.204591749612215"><ele>180.83333333333334</ele><time>2026-03-30T07:48:51.011Z</time></trkpt><trkpt lat="42.39002224142288" lon="14.204506659765226"><ele>181.66666666666666</ele><time>2026-03-30T07:48:52.011Z</time></trkpt><trkpt lat="42.390016757115376" lon="14.204336291263761"><ele>182.5</ele><time>2026-03-30T07:48:54.011Z</time></trkpt><trkpt lat="42.38999186572758" lon="14.204232685247188"><ele>183.33333333333331</ele><time>2026-03-30T07:48:55.011Z</time></trkpt><trkpt lat="42.3899598464558" lon="14.204156456353218"><ele>184.16666666666666</ele><time>2026-03-30T07:48:56.011Z</time></trkpt><trkpt lat="42.389937064043444" lon="14.20407171844557"><ele>185.0</ele><time>2026-03-30T07:48:57.011Z</time></trkpt><trkpt lat="42.38987373107307" lon="14.203975602205807"><ele>185.0</ele><time>2026-03-30T07:48:59.011Z</time></trkpt><trkpt lat="42.389825822430325" lon="14.203866381129885"><ele>185.0</ele><time>2026-03-30T07:49:03.011Z</time></trkpt><trkpt lat="42.38976949516" lon="14.203794715559265"><ele>185.0</ele><time>2026-03-30T07:49:04.011Z</time></trkpt><trkpt lat="42.389726144880754" lon="14.203723067047163"><ele>185.0</ele><time>2026-03-30T07:49:05.011Z</time></trkpt><trkpt lat="42.38968906565986" lon="14.203648962546303"><ele>185.0</ele><time>2026-03-30T07:49:06.011Z</time></trkpt><trkpt lat="42.38966059674099" lon="14.203565049593402"><ele>185.0</ele><time>2026-03-30T07:49:07.011Z</time></trkpt><trkpt lat="42.38960946765437" lon="14.203460560293578"><ele>187.16666666666666</ele><time>2026-03-30T07:49:08.011Z</time></trkpt><trkpt lat="42.38956826078664" lon="14.20333368646583"><ele>189.33333333333331</ele><time>2026-03-30T07:49:09.011Z</time></trkpt><trkpt lat="42.38955468153361" lon="14.203227525095489"><ele>191.5</ele><time>2026-03-30T07:49:10.011Z</time></trkpt><trkpt lat="42.389534634753545" lon="14.203136954914909"><ele>193.66666666666666</ele><time>2026-03-30T07:49:11.011Z</time></trkpt><trkpt lat="42.38951115197517" lon="14.203046474619502"><ele>195.83333333333334</ele><time>2026-03-30T07:49:12.011Z</time></trkpt><trkpt lat="42.389479484364614" lon="14.202898850532458"><ele>198.0</ele><time>2026-03-30T07:49:14.011Z</time></trkpt><trkpt lat="42.38944338412136" lon="14.202787285126915"><ele>198.0</ele><time>2026-03-30T07:49:16.011Z</time></trkpt><trkpt lat="42.389422453155085" lon="14.202672940894088"><ele>198.0</ele><time>2026-03-30T07:49:18.011Z</time></trkpt><trkpt lat="42.38938661562563" lon="14.202593899050097"><ele>198.0</ele><time>2026-03-30T07:49:29.011Z</time></trkpt><trkpt lat="42.389348244920754" lon="14.202521479727228"><ele>198.0</ele><time>2026-03-30T07:49:30.011Z</time></trkpt><trkpt lat="42.38929074819697" lon="14.202419463626853"><ele>198.0</ele><time>2026-03-30T07:49:31.011Z</time></trkpt><trkpt lat="42.38923428827087" lon="14.202307427262141"><ele>198.0</ele><time>2026-03-30T07:49:32.011Z</time></trkpt><trkpt lat="42.38920136495131" lon="14.202204690542684"><ele>197.66666666666666</ele><time>2026-03-30T07:49:33.011Z</time></trkpt><trkpt lat="42.38916210679242" lon="14.202132238076478"><ele>197.33333333333331</ele><time>2026-03-30T07:49:34.011Z</time></trkpt><trkpt lat="42.38910686909031" lon="14.20206941956977"><ele>197.0</ele><time>2026-03-30T07:49:35.011Z</time></trkpt><trkpt lat="42.38904729529721" lon="14.201957704405071"><ele>196.66666666666666</ele><time>2026-03-30T07:49:37.011Z</time></trkpt><trkpt lat="42.38904339366012" lon="14.202088678734304"><ele>196.33333333333331</ele><time>2026-03-30T07:49:42.011Z</time></trkpt><trkpt lat="42.38907486351568" lon="14.202181369954346"><ele>196.0</ele><time>2026-03-30T07:49:43.011Z</time></trkpt><trkpt lat="42.389100234841365" lon="14.202274691258367"><ele>196.28571428571428</ele><time>2026-03-30T07:49:46.011Z</time></trkpt><trkpt lat="42.389023360447204" lon="14.202369526718364"><ele>196.57142857142856</ele><time>2026-03-30T07:49:54.012Z</time></trkpt><trkpt lat="42.388988700955146" lon="14.202441716773516"><ele>196.85714285714286</ele><time>2026-03-30T07:49:56.012Z</time></trkpt><trkpt lat="42.3889252317773" lon="14.202445871217545"><ele>197.14285714285714</ele><time>2026-03-30T07:50:08.012Z</time></trkpt><trkpt lat="42.38887772105057" lon="14.202515549515828"><ele>197.42857142857142</ele><time>2026-03-30T07:50:12.012Z</time></trkpt><trkpt lat="42.38880724119822" lon="14.202545240189739"><ele>197.71428571428572</ele><time>2026-03-30T07:50:27.011Z</time></trkpt><trkpt lat="42.38875596261295" lon="14.202597856313833"><ele>198.0</ele><time>2026-03-30T07:50:30.011Z</time></trkpt><trkpt lat="42.38871624601684" lon="14.202529474507656"><ele>199.5</ele><time>2026-03-30T07:50:36.011Z</time></trkpt><trkpt lat="42.388678939013474" lon="14.20243862530278"><ele>201.0</ele><time>2026-03-30T07:50:40.011Z</time></trkpt><trkpt lat="42.38860788328779" lon="14.2023667569771"><ele>202.5</ele><time>2026-03-30T07:50:43.011Z</time></trkpt><trkpt lat="42.38853896811017" lon="14.202296783844973"><ele>204.0</ele><time>2026-03-30T07:50:45.011Z</time></trkpt><trkpt lat="42.388493932730285" lon="14.20220944611926"><ele>205.5</ele><time>2026-03-30T07:50:47.011Z</time></trkpt><trkpt lat="42.388443754876526" lon="14.202118791823743"><ele>207.0</ele><time>2026-03-30T07:50:50.011Z</time></trkpt><trkpt lat="42.38850076663299" lon="14.202220419081556"><ele>207.0</ele><time>2026-03-30T07:51:22.011Z</time></trkpt><trkpt lat="42.388557026038264" lon="14.202285161354348"><ele>207.0</ele><time>2026-03-30T07:51:24.011Z</time></trkpt><trkpt lat="42.38859864500457" lon="14.202373466481891"><ele>207.0</ele><time>2026-03-30T07:53:37.012Z</time></trkpt><trkpt lat="42.3886478188466" lon="14.202428459158682"><ele>207.0</ele><time>2026-03-30T07:53:40.012Z</time></trkpt><trkpt lat="42.38869210052737" lon="14.202509746675705"><ele>207.0</ele><time>2026-03-30T07:53:51.013Z</time></trkpt><trkpt lat="42.38873135625341" lon="14.202587013950762"><ele>207.0</ele><time>2026-03-30T07:53:57.013Z</time></trkpt><trkpt lat="42.388862943108116" lon="14.202556781622489"><ele>205.2</ele><time>2026-03-30T07:54:06.013Z</time></trkpt><trkpt lat="42.389053295251" lon="14.2025786222474"><ele>203.39999999999998</ele><time>2026-03-30T07:54:14.013Z</time></trkpt><trkpt lat="42.38912169057728" lon="14.202621283081424"><ele>201.60000000000002</ele><time>2026-03-30T07:54:23.013Z</time></trkpt><trkpt lat="42.38917411839795" lon="14.202560914474384"><ele>199.8</ele><time>2026-03-30T07:54:28.013Z</time></trkpt><trkpt lat="42.38912141293099" lon="14.202473761349315"><ele>198.0</ele><time>2026-03-30T07:54:44.012Z</time></trkpt><trkpt lat="42.38909238876913" lon="14.20239303670301"><ele>197.66666666666666</ele><time>2026-03-30T07:54:48.011Z</time></trkpt><trkpt lat="42.38906432132431" lon="14.202292647412472"><ele>197.33333333333331</ele><time>2026-03-30T07:54:56.012Z</time></trkpt><trkpt lat="42.389075326562654" lon="14.202193424862363"><ele>197.0</ele><time>2026-03-30T07:55:02.012Z</time></trkpt><trkpt lat="42.389048848593006" lon="14.202086667663773"><ele>196.66666666666666</ele><time>2026-03-30T07:55:04.012Z</time></trkpt><trkpt lat="42.38901731082191" lon="14.20200441203429"><ele>196.33333333333331</ele><time>2026-03-30T07:55:06.012Z</time></trkpt><trkpt lat="42.38909157189394" lon="14.202047595530617"><ele>196.0</ele><time>2026-03-30T07:55:11.012Z</time></trkpt><trkpt lat="42.38912902981501" lon="14.202124091854095"><ele>196.0</ele><time>2026-03-30T07:55:12.012Z</time></trkpt><trkpt lat="42.38917492966953" lon="14.202226934315778"><ele>196.0</ele><time>2026-03-30T07:55:13.012Z</time></trkpt><trkpt lat="42.389238169920674" lon="14.202346612305327"><ele>196.0</ele><time>2026-03-30T07:55:14.012Z</time></trkpt><trkpt lat="42.38928808194158" lon="14.202453086007184"><ele>196.0</ele><time>2026-03-30T07:55:15.012Z</time></trkpt><trkpt lat="42.38934383251492" lon="14.202576176634773"><ele>196.0</ele><time>2026-03-30T07:55:16.012Z</time></trkpt><trkpt lat="42.38939360960064" lon="14.202681154373543"><ele>196.4</ele><time>2026-03-30T07:55:17.012Z</time></trkpt><trkpt lat="42.38943204701626" lon="14.202796268975932"><ele>196.8</ele><time>2026-03-30T07:55:18.012Z</time></trkpt><trkpt lat="42.38946689327042" lon="14.202902771952868"><ele>197.20000000000002</ele><time>2026-03-30T07:55:19.012Z</time></trkpt><trkpt lat="42.3894996011495" lon="14.203032046939411"><ele>197.60000000000002</ele><time>2026-03-30T07:55:20.012Z</time></trkpt><trkpt lat="42.389515277084364" lon="14.203164573031207"><ele>198.0</ele><time>2026-03-30T07:55:21.012Z</time></trkpt><trkpt lat="42.38954337612923" lon="14.203304808567662"><ele>200.4</ele><time>2026-03-30T07:55:22.012Z</time></trkpt><trkpt lat="42.38956427827255" lon="14.203447771229637"><ele>202.8</ele><time>2026-03-30T07:55:23.012Z</time></trkpt><trkpt lat="42.38965274084259" lon="14.203589226603873"><ele>205.2</ele><time>2026-03-30T07:55:25.012Z</time></trkpt><trkpt lat="42.389697784166295" lon="14.203681132687848"><ele>207.6</ele><time>2026-03-30T07:55:26.012Z</time></trkpt><trkpt lat="42.38973997723859" lon="14.203762140865242"><ele>210.0</ele><time>2026-03-30T07:55:27.012Z</time></trkpt><trkpt lat="42.38981230163803" lon="14.203874268270111"><ele>205.83333333333334</ele><time>2026-03-30T07:55:29.012Z</time></trkpt><trkpt lat="42.38986630268138" lon="14.203925647572479"><ele>201.66666666666666</ele><time>2026-03-30T07:55:30.012Z</time></trkpt><trkpt lat="42.389920445521746" lon="14.203992772156562"><ele>197.5</ele><time>2026-03-30T07:55:31.012Z</time></trkpt><trkpt lat="42.3899524976501" lon="14.204067866285293"><ele>193.33333333333331</ele><time>2026-03-30T07:55:32.012Z</time></trkpt><trkpt lat="42.3899989458773" lon="14.204231392206564"><ele>189.16666666666666</ele><time>2026-03-30T07:55:34.012Z</time></trkpt><trkpt lat="42.39001891492397" lon="14.204324515914548"><ele>185.0</ele><time>2026-03-30T07:55:35.012Z</time></trkpt><trkpt lat="42.39003105978858" lon="14.20442407072343"><ele>185.0</ele><time>2026-03-30T07:55:36.012Z</time></trkpt><trkpt lat="42.390049976075765" lon="14.204534423695938"><ele>185.0</ele><time>2026-03-30T07:55:37.012Z</time></trkpt><trkpt lat="42.390072611908856" lon="14.204644065572884"><ele>185.0</ele><time>2026-03-30T07:55:38.012Z</time></trkpt><trkpt lat="42.39009100498428" lon="14.204758125078104"><ele>185.0</ele><time>2026-03-30T07:55:39.012Z</time></trkpt><trkpt lat="42.39013724094125" lon="14.204856406743112"><ele>185.0</ele><time>2026-03-30T07:55:40.012Z</time></trkpt><trkpt lat="42.3901868514195" lon="14.204948675747437"><ele>185.0</ele><time>2026-03-30T07:55:41.012Z</time></trkpt><trkpt lat="42.39023117080761" lon="14.205036733207486"><ele>184.0</ele><time>2026-03-30T07:55:42.012Z</time></trkpt><trkpt lat="42.39027592728781" lon="14.205164513291608"><ele>183.0</ele><time>2026-03-30T07:55:44.012Z</time></trkpt><trkpt lat="42.390299748770126" lon="14.205280432588202"><ele>182.0</ele><time>2026-03-30T07:55:46.012Z</time></trkpt><trkpt lat="42.39040969187176" lon="14.205308150512042"><ele>181.0</ele><time>2026-03-30T07:55:48.012Z</time></trkpt><trkpt lat="42.39048303381677" lon="14.205330010428654"><ele>180.0</ele><time>2026-03-30T07:55:50.012Z</time></trkpt><trkpt lat="42.390520631751826" lon="14.205420124357449"><ele>180.5</ele><time>2026-03-30T07:55:52.012Z</time></trkpt><trkpt lat="42.39063593953282" lon="14.205519074273354"><ele>181.0</ele><time>2026-03-30T07:55:54.012Z</time></trkpt><trkpt lat="42.39075613047537" lon="14.205579651777896"><ele>181.5</ele><time>2026-03-30T07:55:56.012Z</time></trkpt><trkpt lat="42.390845863751" lon="14.205626482538191"><ele>182.0</ele><time>2026-03-30T07:56:01.012Z</time></trkpt><trkpt lat="42.39094254871578" lon="14.20566909684255"><ele>182.0</ele><time>2026-03-30T07:56:03.013Z</time></trkpt><trkpt lat="42.3910416176834" lon="14.205687044542296"><ele>182.0</ele><time>2026-03-30T07:56:05.013Z</time></trkpt><trkpt lat="42.39110821357929" lon="14.205704459094552"><ele>182.0</ele><time>2026-03-30T07:56:06.013Z</time></trkpt><trkpt lat="42.39119534431815" lon="14.20575460112438"><ele>182.0</ele><time>2026-03-30T07:56:08.013Z</time></trkpt><trkpt lat="42.39125605120319" lon="14.205828227388098"><ele>182.0</ele><time>2026-03-30T07:56:09.013Z</time></trkpt><trkpt lat="42.39130967605603" lon="14.205902306511327"><ele>182.0</ele><time>2026-03-30T07:56:10.013Z</time></trkpt><trkpt lat="42.39135675727975" lon="14.20598645820335"><ele>179.6</ele><time>2026-03-30T07:56:11.013Z</time></trkpt><trkpt lat="42.39148727429424" lon="14.206027924343422"><ele>177.2</ele><time>2026-03-30T07:56:13.013Z</time></trkpt><trkpt lat="42.39158788253036" lon="14.20610536067203"><ele>174.8</ele><time>2026-03-30T07:56:15.013Z</time></trkpt><trkpt lat="42.39164405455943" lon="14.206245776657555"><ele>172.4</ele><time>2026-03-30T07:56:17.013Z</time></trkpt><trkpt lat="42.39167739480979" lon="14.206323880446092"><ele>170.0</ele><time>2026-03-30T07:56:18.013Z</time></trkpt><trkpt lat="42.39171953690467" lon="14.20642169645559"><ele>171.33333333333331</ele><time>2026-03-30T07:56:19.013Z</time></trkpt><trkpt lat="42.391762544747415" lon="14.206499078886221"><ele>172.66666666666666</ele><time>2026-03-30T07:56:20.013Z</time></trkpt><trkpt lat="42.391841784412215" lon="14.206596495399541"><ele>174.0</ele><time>2026-03-30T07:56:22.013Z</time></trkpt><trkpt lat="42.39190279909069" lon="14.206661221539614"><ele>175.33333333333334</ele><time>2026-03-30T07:56:24.013Z</time></trkpt><trkpt lat="42.39196191108209" lon="14.206742831930864"><ele>176.66666666666669</ele><time>2026-03-30T07:56:27.013Z</time></trkpt><trkpt lat="42.392028095043614" lon="14.206820299440482"><ele>178.0</ele><time>2026-03-30T07:56:28.013Z</time></trkpt><trkpt lat="42.39208904677527" lon="14.206892887966257"><ele>178.0</ele><time>2026-03-30T07:56:29.013Z</time></trkpt><trkpt lat="42.39214103661109" lon="14.206946701141472"><ele>178.0</ele><time>2026-03-30T07:56:30.013Z</time></trkpt><trkpt lat="42.39222817443264" lon="14.207063853115386"><ele>178.0</ele><time>2026-03-30T07:56:32.013Z</time></trkpt><trkpt lat="42.392301491181115" lon="14.207189699215602"><ele>178.0</ele><time>2026-03-30T07:56:34.013Z</time></trkpt><trkpt lat="42.39236837683152" lon="14.207311360310912"><ele>178.0</ele><time>2026-03-30T07:56:36.013Z</time></trkpt><trkpt lat="42.39240381761968" lon="14.207395367456513"><ele>176.60000000000002</ele><time>2026-03-30T07:56:37.013Z</time></trkpt><trkpt lat="42.3924442535997" lon="14.207467592027948"><ele>175.20000000000002</ele><time>2026-03-30T07:56:38.013Z</time></trkpt><trkpt lat="42.39248967281858" lon="14.207543375342647"><ele>173.8</ele><time>2026-03-30T07:56:39.013Z</time></trkpt><trkpt lat="42.3925382534323" lon="14.207613697662971"><ele>172.4</ele><time>2026-03-30T07:56:40.013Z</time></trkpt><trkpt lat="42.39262031174711" lon="14.207721548937986"><ele>171.0</ele><time>2026-03-30T07:56:42.013Z</time></trkpt><trkpt lat="42.392693198609834" lon="14.207860865400912"><ele>171.0</ele><time>2026-03-30T07:56:44.012Z</time></trkpt><trkpt lat="42.392728544016975" lon="14.207934651224582"><ele>171.0</ele><time>2026-03-30T07:56:45.011Z</time></trkpt><trkpt lat="42.39277294366543" lon="14.208012753979672"><ele>171.0</ele><time>2026-03-30T07:56:46.011Z</time></trkpt><trkpt lat="42.392837703081405" lon="14.208131765232242"><ele>171.0</ele><time>2026-03-30T07:56:48.011Z</time></trkpt><trkpt lat="42.392873554407046" lon="14.20821703849303"><ele>171.0</ele><time>2026-03-30T07:56:49.011Z</time></trkpt><trkpt lat="42.392922129315465" lon="14.208296968542452"><ele>171.0</ele><time>2026-03-30T07:56:50.012Z</time></trkpt><trkpt lat="42.392976932534395" lon="14.208366341959891"><ele>169.4</ele><time>2026-03-30T07:56:51.012Z</time></trkpt><trkpt lat="42.39305373683101" lon="14.208490480095742"><ele>167.8</ele><time>2026-03-30T07:56:53.012Z</time></trkpt><trkpt lat="42.39310806350549" lon="14.208606083139221"><ele>166.20000000000002</ele><time>2026-03-30T07:56:55.011Z</time></trkpt><trkpt lat="42.39317949730638" lon="14.20869676630767"><ele>164.60000000000002</ele><time>2026-03-30T07:56:57.012Z</time></trkpt><trkpt lat="42.39324263703024" lon="14.208754666187138"><ele>163.0</ele><time>2026-03-30T07:57:00.012Z</time></trkpt><trkpt lat="42.39332191198653" lon="14.208829780787346"><ele>163.0</ele><time>2026-03-30T07:57:03.012Z</time></trkpt><trkpt lat="42.393413100299654" lon="14.208926675023122"><ele>163.0</ele><time>2026-03-30T07:57:05.012Z</time></trkpt><trkpt lat="42.393468788082366" lon="14.208970638652287"><ele>163.0</ele><time>2026-03-30T07:57:06.012Z</time></trkpt><trkpt lat="42.39355584743485" lon="14.209083228406598"><ele>163.0</ele><time>2026-03-30T07:57:08.012Z</time></trkpt><trkpt lat="42.39361197370158" lon="14.209164131727205"><ele>163.0</ele><time>2026-03-30T07:57:10.012Z</time></trkpt><trkpt lat="42.39367249319199" lon="14.209256754313962"><ele>162.4</ele><time>2026-03-30T07:57:12.012Z</time></trkpt><trkpt lat="42.39370640561088" lon="14.209366130860179"><ele>161.8</ele><time>2026-03-30T07:57:14.012Z</time></trkpt><trkpt lat="42.39373723544442" lon="14.209502880586584"><ele>161.2</ele><time>2026-03-30T07:57:16.012Z</time></trkpt><trkpt lat="42.39376936846377" lon="14.209637344959548"><ele>160.6</ele><time>2026-03-30T07:57:18.012Z</time></trkpt><trkpt lat="42.393788398429024" lon="14.20972672378584"><ele>160.0</ele><time>2026-03-30T07:57:19.012Z</time></trkpt><trkpt lat="42.39384590161395" lon="14.209856281456902"><ele>160.0</ele><time>2026-03-30T07:57:21.012Z</time></trkpt><trkpt lat="42.393888260259324" lon="14.209960050382456"><ele>160.0</ele><time>2026-03-30T07:57:22.012Z</time></trkpt><trkpt lat="42.393947343741914" lon="14.210046456109357"><ele>160.0</ele><time>2026-03-30T07:57:23.012Z</time></trkpt><trkpt lat="42.393996252158445" lon="14.210100674456475"><ele>160.0</ele><time>2026-03-30T07:57:24.012Z</time></trkpt><trkpt lat="42.394087071416195" lon="14.210227490120952"><ele>160.0</ele><time>2026-03-30T07:57:26.012Z</time></trkpt><trkpt lat="42.39413526332974" lon="14.210307474984505"><ele>160.0</ele><time>2026-03-30T07:57:27.012Z</time></trkpt><trkpt lat="42.394180987272485" lon="14.21037270742667"><ele>160.0</ele><time>2026-03-30T07:57:28.012Z</time></trkpt><trkpt lat="42.394228019419266" lon="14.210433104368128"><ele>160.0</ele><time>2026-03-30T07:57:29.012Z</time></trkpt><trkpt lat="42.39430439005844" lon="14.210541656886297"><ele>160.0</ele><time>2026-03-30T07:57:31.012Z</time></trkpt><trkpt lat="42.39437660732014" lon="14.210672459549794"><ele>160.0</ele><time>2026-03-30T07:57:33.012Z</time></trkpt><trkpt lat="42.394460877323276" lon="14.210759199247356"><ele>160.0</ele><time>2026-03-30T07:57:35.013Z</time></trkpt><trkpt lat="42.39453626674269" lon="14.210877220891085"><ele>159.16666666666669</ele><time>2026-03-30T07:57:37.013Z</time></trkpt><trkpt lat="42.39458049153874" lon="14.210961827465683"><ele>158.33333333333334</ele><time>2026-03-30T07:57:38.013Z</time></trkpt><trkpt lat="42.39464253757514" lon="14.211057870099618"><ele>157.5</ele><time>2026-03-30T07:57:39.013Z</time></trkpt><trkpt lat="42.394689723710705" lon="14.211135751617041"><ele>156.66666666666666</ele><time>2026-03-30T07:57:40.013Z</time></trkpt><trkpt lat="42.394767317324295" lon="14.211250068662888"><ele>155.83333333333331</ele><time>2026-03-30T07:57:42.013Z</time></trkpt><trkpt lat="42.39481672934616" lon="14.21131744057147"><ele>155.0</ele><time>2026-03-30T07:57:44.013Z</time></trkpt><trkpt lat="42.39488499817323" lon="14.21137946636591"><ele>155.0</ele><time>2026-03-30T07:57:48.013Z</time></trkpt><trkpt lat="42.39494025869492" lon="14.21142200336842"><ele>155.0</ele><time>2026-03-30T07:58:07.013Z</time></trkpt><trkpt lat="42.39499845514503" lon="14.211456992626166"><ele>155.0</ele><time>2026-03-30T07:58:08.013Z</time></trkpt><trkpt lat="42.3950907202045" lon="14.211475382011859"><ele>155.0</ele><time>2026-03-30T07:58:10.013Z</time></trkpt><trkpt lat="42.39516820773484" lon="14.211474765448903"><ele>155.0</ele><time>2026-03-30T07:58:12.013Z</time></trkpt><trkpt lat="42.39524741242583" lon="14.211488883691299"><ele>155.0</ele><time>2026-03-30T07:58:14.013Z</time></trkpt><trkpt lat="42.39531856547909" lon="14.211523791529293"><ele>155.16666666666666</ele><time>2026-03-30T07:58:16.013Z</time></trkpt><trkpt lat="42.39538639268663" lon="14.211597433938286"><ele>155.33333333333331</ele><time>2026-03-30T07:58:18.013Z</time></trkpt><trkpt lat="42.39545359107674" lon="14.211692660021447"><ele>155.5</ele><time>2026-03-30T07:58:20.013Z</time></trkpt><trkpt lat="42.39552379856984" lon="14.211783076646597"><ele>155.66666666666666</ele><time>2026-03-30T07:58:22.013Z</time></trkpt><trkpt lat="42.39557215933094" lon="14.211855424694365"><ele>155.83333333333334</ele><time>2026-03-30T07:58:24.013Z</time></trkpt><trkpt lat="42.395616893542595" lon="14.211928101645643"><ele>156.0</ele><time>2026-03-30T07:58:26.013Z</time></trkpt><trkpt lat="42.3956671919274" lon="14.212023793802352"><ele>156.0</ele><time>2026-03-30T07:58:29.013Z</time></trkpt><trkpt lat="42.3957119207026" lon="14.212083989903554"><ele>156.0</ele><time>2026-03-30T07:58:32.013Z</time></trkpt><trkpt lat="42.39576506803509" lon="14.212143399653927"><ele>156.0</ele><time>2026-03-30T07:58:39.013Z</time></trkpt><trkpt lat="42.395811390490735" lon="14.212230305341354"><ele>156.0</ele><time>2026-03-30T07:58:42.013Z</time></trkpt><trkpt lat="42.39587305124026" lon="14.212325461452117"><ele>156.0</ele><time>2026-03-30T07:58:45.013Z</time></trkpt><trkpt lat="42.395914566782174" lon="14.212405553526919"><ele>156.0</ele><time>2026-03-30T07:58:46.013Z</time></trkpt><trkpt lat="42.39597677428586" lon="14.21251609891263"><ele>156.2857142857143</ele><time>2026-03-30T07:58:48.013Z</time></trkpt><trkpt lat="42.396020460962625" lon="14.212600176556974"><ele>156.57142857142856</ele><time>2026-03-30T07:58:50.012Z</time></trkpt><trkpt lat="42.39606736819084" lon="14.212670560637992"><ele>156.85714285714286</ele><time>2026-03-30T07:58:52.012Z</time></trkpt><trkpt lat="42.396102460535744" lon="14.212757393878578"><ele>157.14285714285717</ele><time>2026-03-30T07:58:55.012Z</time></trkpt><trkpt lat="42.3961261987626" lon="14.212843339998187"><ele>157.42857142857144</ele><time>2026-03-30T07:58:58.011Z</time></trkpt><trkpt lat="42.396127849990954" lon="14.212956524928432"><ele>157.71428571428572</ele><time>2026-03-30T07:59:01.012Z</time></trkpt><trkpt lat="42.39617102710875" lon="14.213028299176452"><ele>158.0</ele><time>2026-03-30T07:59:29.011Z</time></trkpt><trkpt lat="42.39615424588333" lon="14.21293817361055"><ele>158.0</ele><time>2026-03-30T07:59:35.011Z</time></trkpt><trkpt lat="42.39617571712259" lon="14.212842038222675"><ele>158.0</ele><time>2026-03-30T08:00:01.012Z</time></trkpt><trkpt lat="42.396149476998204" lon="14.212763749777304"><ele>158.0</ele><time>2026-03-30T08:00:39.012Z</time></trkpt><trkpt lat="42.3961046335511" lon="14.21265862827602"><ele>158.0</ele><time>2026-03-30T08:00:42.012Z</time></trkpt><trkpt lat="42.39603882444864" lon="14.21256581565577"><ele>158.0</ele><time>2026-03-30T08:00:45.012Z</time></trkpt><trkpt lat="42.39597228659388" lon="14.21243067207923"><ele>158.0</ele><time>2026-03-30T08:00:47.012Z</time></trkpt><trkpt lat="42.39590910764471" lon="14.212337179238268"><ele>157.6</ele><time>2026-03-30T08:00:49.012Z</time></trkpt><trkpt lat="42.39584900976758" lon="14.212225107104219"><ele>157.20000000000002</ele><time>2026-03-30T08:00:51.012Z</time></trkpt><trkpt lat="42.39576872010753" lon="14.212104751922128"><ele>156.8</ele><time>2026-03-30T08:00:53.012Z</time></trkpt><trkpt lat="42.3957014072442" lon="14.212021922071782"><ele>156.4</ele><time>2026-03-30T08:00:55.012Z</time></trkpt><trkpt lat="42.39561526974973" lon="14.211907278256215"><ele>156.0</ele><time>2026-03-30T08:00:57.012Z</time></trkpt><trkpt lat="42.395568811397894" lon="14.211823654694319"><ele>156.0</ele><time>2026-03-30T08:00:58.012Z</time></trkpt><trkpt lat="42.39551938144596" lon="14.211753984517543"><ele>156.0</ele><time>2026-03-30T08:00:59.012Z</time></trkpt><trkpt lat="42.39546067446704" lon="14.211681479715395"><ele>156.0</ele><time>2026-03-30T08:01:00.012Z</time></trkpt><trkpt lat="42.395403333178756" lon="14.211613977944047"><ele>156.0</ele><time>2026-03-30T08:01:01.012Z</time></trkpt><trkpt lat="42.39534894819488" lon="14.211550890650548"><ele>156.0</ele><time>2026-03-30T08:01:02.012Z</time></trkpt><trkpt lat="42.3952788129606" lon="14.211472793082631"><ele>156.0</ele><time>2026-03-30T08:01:04.012Z</time></trkpt><trkpt lat="42.39522582651256" lon="14.211405055036026"><ele>155.83333333333334</ele><time>2026-03-30T08:01:06.012Z</time></trkpt><trkpt lat="42.3951745373733" lon="14.211336931315074"><ele>155.66666666666666</ele><time>2026-03-30T08:01:08.012Z</time></trkpt><trkpt lat="42.39519872427083" lon="14.211242067140002"><ele>155.5</ele><time>2026-03-30T08:01:10.012Z</time></trkpt><trkpt lat="42.39526656662126" lon="14.211162657040923"><ele>155.33333333333331</ele><time>2026-03-30T08:01:12.012Z</time></trkpt><trkpt lat="42.39533655159133" lon="14.211073548574525"><ele>155.16666666666666</ele><time>2026-03-30T08:01:14.012Z</time></trkpt><trkpt lat="42.39538720128922" lon="14.211015819323713"><ele>155.0</ele><time>2026-03-30T08:01:16.012Z</time></trkpt><trkpt lat="42.39545100639694" lon="14.211061694974585"><ele>156.5</ele><time>2026-03-30T08:01:17.012Z</time></trkpt><trkpt lat="42.395516616464384" lon="14.211130505906384"><ele>158.0</ele><time>2026-03-30T08:01:18.012Z</time></trkpt><trkpt lat="42.39557221570707" lon="14.211182928664892"><ele>159.5</ele><time>2026-03-30T08:01:20.012Z</time></trkpt><trkpt lat="42.395656122971985" lon="14.211198587699798"><ele>161.0</ele><time>2026-03-30T08:01:23.012Z</time></trkpt><trkpt lat="42.39572664900497" lon="14.211123590178401"><ele>162.5</ele><time>2026-03-30T08:01:25.012Z</time></trkpt><trkpt lat="42.3957824598743" lon="14.211055739032133"><ele>164.0</ele><time>2026-03-30T08:01:26.012Z</time></trkpt><trkpt lat="42.39582295126356" lon="14.21098816514808"><ele>164.0</ele><time>2026-03-30T08:01:27.012Z</time></trkpt><trkpt lat="42.39588948059946" lon="14.210901825367204"><ele>164.0</ele><time>2026-03-30T08:01:28.012Z</time></trkpt><trkpt lat="42.39592854639065" lon="14.210818846082724"><ele>164.0</ele><time>2026-03-30T08:01:29.012Z</time></trkpt><trkpt lat="42.39597903344178" lon="14.210718982504956"><ele>164.0</ele><time>2026-03-30T08:01:31.012Z</time></trkpt><trkpt lat="42.39597689251036" lon="14.210598932563164"><ele>164.0</ele><time>2026-03-30T08:01:34.012Z</time></trkpt><trkpt lat="42.39595302614367" lon="14.210444707742052"><ele>166.0</ele><time>2026-03-30T08:01:36.012Z</time></trkpt><trkpt lat="42.39594947747091" lon="14.210359243738495"><ele>168.0</ele><time>2026-03-30T08:01:37.012Z</time></trkpt><trkpt lat="42.39593646404485" lon="14.210275249689838"><ele>170.0</ele><time>2026-03-30T08:01:38.012Z</time></trkpt><trkpt lat="42.39593105857444" lon="14.21016922378205"><ele>172.0</ele><time>2026-03-30T08:01:40.012Z</time></trkpt><trkpt lat="42.39599822330424" lon="14.210276892534424"><ele>174.0</ele><time>2026-03-30T08:02:43.013Z</time></trkpt><trkpt lat="42.396034709451605" lon="14.210397305915931"><ele>176.0</ele><time>2026-03-30T08:02:45.013Z</time></trkpt><trkpt lat="42.39605085174098" lon="14.210516364379425"><ele>176.0</ele><time>2026-03-30T08:02:47.013Z</time></trkpt><trkpt lat="42.39605846431175" lon="14.210609533884242"><ele>176.0</ele><time>2026-03-30T08:02:49.013Z</time></trkpt><trkpt lat="42.39607148238892" lon="14.210708745006157"><ele>176.0</ele><time>2026-03-30T08:02:51.013Z</time></trkpt><trkpt lat="42.39609327282879" lon="14.210827800533668"><ele>176.0</ele><time>2026-03-30T08:02:53.013Z</time></trkpt><trkpt lat="42.39612576240017" lon="14.210938845291063"><ele>176.0</ele><time>2026-03-30T08:02:55.013Z</time></trkpt><trkpt lat="42.39617974302293" lon="14.211033208542144"><ele>176.0</ele><time>2026-03-30T08:02:57.013Z</time></trkpt><trkpt lat="42.39620619594037" lon="14.211112250266765"><ele>174.5</ele><time>2026-03-30T08:02:58.013Z</time></trkpt><trkpt lat="42.39622836793522" lon="14.211236707117031"><ele>173.0</ele><time>2026-03-30T08:03:00.013Z</time></trkpt><trkpt lat="42.396258636682184" lon="14.211331930664077"><ele>171.5</ele><time>2026-03-30T08:03:02.012Z</time></trkpt><trkpt lat="42.396312333083834" lon="14.211435885553403"><ele>170.0</ele><time>2026-03-30T08:03:04.012Z</time></trkpt><trkpt lat="42.396319808986554" lon="14.211522281892318"><ele>168.5</ele><time>2026-03-30T08:03:23.012Z</time></trkpt><trkpt lat="42.3963508951863" lon="14.211608471020218"><ele>167.0</ele><time>2026-03-30T08:03:26.012Z</time></trkpt><trkpt lat="42.39637568499612" lon="14.211710075734572"><ele>167.0</ele><time>2026-03-30T08:03:29.012Z</time></trkpt><trkpt lat="42.396404666301486" lon="14.21179849883422"><ele>167.0</ele><time>2026-03-30T08:03:33.012Z</time></trkpt><trkpt lat="42.39644102534449" lon="14.211904519872874"><ele>167.0</ele><time>2026-03-30T08:03:35.012Z</time></trkpt><trkpt lat="42.39647119203703" lon="14.212029742884141"><ele>167.0</ele><time>2026-03-30T08:03:37.012Z</time></trkpt><trkpt lat="42.39651754008305" lon="14.212112820250367"><ele>167.0</ele><time>2026-03-30T08:03:39.012Z</time></trkpt><trkpt lat="42.396564631155385" lon="14.212220920907251"><ele>167.0</ele><time>2026-03-30T08:03:42.012Z</time></trkpt><trkpt lat="42.39662250248957" lon="14.21231154985137"><ele>165.0</ele><time>2026-03-30T08:03:44.012Z</time></trkpt><trkpt lat="42.39666846788787" lon="14.212396577490175"><ele>163.0</ele><time>2026-03-30T08:03:46.012Z</time></trkpt><trkpt lat="42.39672742538844" lon="14.212463138894355"><ele>161.0</ele><time>2026-03-30T08:03:48.012Z</time></trkpt><trkpt lat="42.39678291311305" lon="14.21259461040884"><ele>159.0</ele><time>2026-03-30T08:03:50.012Z</time></trkpt><trkpt lat="42.39682436429361" lon="14.212681105369748"><ele>157.0</ele><time>2026-03-30T08:03:52.012Z</time></trkpt><trkpt lat="42.39686062490986" lon="14.212773533539885"><ele>155.0</ele><time>2026-03-30T08:03:54.012Z</time></trkpt><trkpt lat="42.39688197070386" lon="14.212867184591206"><ele>155.0</ele><time>2026-03-30T08:03:57.012Z</time></trkpt><trkpt lat="42.396904470585085" lon="14.212964381918983"><ele>155.0</ele><time>2026-03-30T08:03:59.012Z</time></trkpt><trkpt lat="42.396941034678534" lon="14.21309676595771"><ele>155.0</ele><time>2026-03-30T08:04:01.012Z</time></trkpt><trkpt lat="42.396967687750305" lon="14.213197349923657"><ele>155.0</ele><time>2026-03-30T08:04:03.012Z</time></trkpt><trkpt lat="42.396987088983806" lon="14.213317836476692"><ele>155.0</ele><time>2026-03-30T08:04:05.012Z</time></trkpt><trkpt lat="42.39700430544306" lon="14.213463396924478"><ele>155.66666666666666</ele><time>2026-03-30T08:04:07.012Z</time></trkpt><trkpt lat="42.39701978541045" lon="14.213569904074191"><ele>156.33333333333331</ele><time>2026-03-30T08:04:09.012Z</time></trkpt><trkpt lat="42.396984792482925" lon="14.213652789947627"><ele>157.0</ele><time>2026-03-30T08:04:13.012Z</time></trkpt><trkpt lat="42.39696496685101" lon="14.213780018991335"><ele>157.66666666666666</ele><time>2026-03-30T08:04:16.013Z</time></trkpt><trkpt lat="42.396966033525594" lon="14.213907920396085"><ele>158.33333333333334</ele><time>2026-03-30T08:04:18.013Z</time></trkpt><trkpt lat="42.39697021555575" lon="14.21399999685442"><ele>159.0</ele><time>2026-03-30T08:04:19.013Z</time></trkpt><trkpt lat="42.39696850717601" lon="14.214119941371559"><ele>159.0</ele><time>2026-03-30T08:04:20.013Z</time></trkpt><trkpt lat="42.39697194866693" lon="14.214227747099978"><ele>159.0</ele><time>2026-03-30T08:04:21.013Z</time></trkpt><trkpt lat="42.39698149519228" lon="14.21434075506002"><ele>159.0</ele><time>2026-03-30T08:04:22.013Z</time></trkpt><trkpt lat="42.39701307600997" lon="14.214450456253546"><ele>159.0</ele><time>2026-03-30T08:04:23.013Z</time></trkpt><trkpt lat="42.397048868710165" lon="14.214572834332719"><ele>159.0</ele><time>2026-03-30T08:04:24.013Z</time></trkpt><trkpt lat="42.39705709420776" lon="14.214684650279265"><ele>159.0</ele><time>2026-03-30T08:04:25.013Z</time></trkpt><trkpt lat="42.39704731561853" lon="14.214795107449635"><ele>161.0</ele><time>2026-03-30T08:04:26.013Z</time></trkpt><trkpt lat="42.39703580707891" lon="14.214896929429617"><ele>163.0</ele><time>2026-03-30T08:04:27.013Z</time></trkpt><trkpt lat="42.3970239140299" lon="14.215020556858743"><ele>165.0</ele><time>2026-03-30T08:04:28.013Z</time></trkpt><trkpt lat="42.39699849429419" lon="14.215128175889962"><ele>167.0</ele><time>2026-03-30T08:04:29.013Z</time></trkpt><trkpt lat="42.39701880289798" lon="14.215238682081386"><ele>169.0</ele><time>2026-03-30T08:04:30.013Z</time></trkpt><trkpt lat="42.39704611294173" lon="14.215343975240824"><ele>171.0</ele><time>2026-03-30T08:04:31.013Z</time></trkpt><trkpt lat="42.397060149586544" lon="14.215443500059322"><ele>171.0</ele><time>2026-03-30T08:04:32.013Z</time></trkpt><trkpt lat="42.397073468568955" lon="14.215587601485405"><ele>171.0</ele><time>2026-03-30T08:04:33.013Z</time></trkpt><trkpt lat="42.39707435231007" lon="14.21571143578577"><ele>171.0</ele><time>2026-03-30T08:04:34.013Z</time></trkpt><trkpt lat="42.3970634677042" lon="14.215821786434253"><ele>171.0</ele><time>2026-03-30T08:04:35.013Z</time></trkpt><trkpt lat="42.397057286900925" lon="14.215964806570298"><ele>171.0</ele><time>2026-03-30T08:04:36.013Z</time></trkpt><trkpt lat="42.397034157449035" lon="14.216116746415828"><ele>173.83333333333334</ele><time>2026-03-30T08:04:37.013Z</time></trkpt><trkpt lat="42.3970145084303" lon="14.216257092935926"><ele>176.66666666666666</ele><time>2026-03-30T08:04:38.013Z</time></trkpt><trkpt lat="42.396989996893076" lon="14.216377823289964"><ele>179.5</ele><time>2026-03-30T08:04:39.013Z</time></trkpt><trkpt lat="42.39697773672979" lon="14.216478281266157"><ele>182.33333333333331</ele><time>2026-03-30T08:04:40.013Z</time></trkpt><trkpt lat="42.396981855965336" lon="14.216566546751158"><ele>185.16666666666666</ele><time>2026-03-30T08:04:41.013Z</time></trkpt><trkpt lat="42.39699051403167" lon="14.216658294380633"><ele>188.0</ele><time>2026-03-30T08:04:43.013Z</time></trkpt><trkpt lat="42.39701335723228" lon="14.216801811337088"><ele>189.33333333333331</ele><time>2026-03-30T08:04:45.013Z</time></trkpt><trkpt lat="42.39700561900045" lon="14.216895679056945"><ele>190.66666666666666</ele><time>2026-03-30T08:04:46.013Z</time></trkpt><trkpt lat="42.39697291767155" lon="14.216990573530222"><ele>192.0</ele><time>2026-03-30T08:04:47.013Z</time></trkpt><trkpt lat="42.396932967398314" lon="14.217065434950943"><ele>193.33333333333331</ele><time>2026-03-30T08:04:48.013Z</time></trkpt><trkpt lat="42.396892832838304" lon="14.217137756141696"><ele>194.66666666666666</ele><time>2026-03-30T08:04:49.013Z</time></trkpt><trkpt lat="42.396820826540925" lon="14.217275917735979"><ele>196.0</ele><time>2026-03-30T08:04:51.013Z</time></trkpt><trkpt lat="42.396771286921336" lon="14.217353200397243"><ele>196.57142857142858</ele><time>2026-03-30T08:04:52.013Z</time></trkpt><trkpt lat="42.39672744304606" lon="14.217442843510232"><ele>197.14285714285714</ele><time>2026-03-30T08:04:53.013Z</time></trkpt><trkpt lat="42.396677524194146" lon="14.217516238232726"><ele>197.71428571428572</ele><time>2026-03-30T08:04:54.013Z</time></trkpt><trkpt lat="42.39663723878459" lon="14.217591625441221"><ele>198.28571428571428</ele><time>2026-03-30T08:04:55.013Z</time></trkpt><trkpt lat="42.39659792406191" lon="14.217667309028263"><ele>198.85714285714286</ele><time>2026-03-30T08:04:56.013Z</time></trkpt><trkpt lat="42.39655913365308" lon="14.217734700727057"><ele>199.42857142857144</ele><time>2026-03-30T08:04:57.013Z</time></trkpt><trkpt lat="42.39651858925991" lon="14.217818178689123"><ele>200.0</ele><time>2026-03-30T08:04:58.013Z</time></trkpt><trkpt lat="42.39647931059679" lon="14.217886718193796"><ele>200.00000000000003</ele><time>2026-03-30T08:04:59.013Z</time></trkpt><trkpt lat="42.396441196393354" lon="14.217955958287446"><ele>200.0</ele><time>2026-03-30T08:05:00.013Z</time></trkpt><trkpt lat="42.39636514394564" lon="14.218044115139602"><ele>200.0</ele><time>2026-03-30T08:05:02.013Z</time></trkpt><trkpt lat="42.39635087985955" lon="14.2181357871243"><ele>200.0</ele><time>2026-03-30T08:05:10.011Z</time></trkpt><trkpt lat="42.39640144179772" lon="14.218228505133759"><ele>200.00000000000003</ele><time>2026-03-30T08:05:12.011Z</time></trkpt><trkpt lat="42.39645242436968" lon="14.218283774396884"><ele>200.0</ele><time>2026-03-30T08:05:13.011Z</time></trkpt><trkpt lat="42.39650145180925" lon="14.218350858841333"><ele>200.6</ele><time>2026-03-30T08:05:14.011Z</time></trkpt><trkpt lat="42.396569636407705" lon="14.218422916311047"><ele>201.2</ele><time>2026-03-30T08:05:15.011Z</time></trkpt><trkpt lat="42.39665729136028" lon="14.218523558285522"><ele>201.8</ele><time>2026-03-30T08:05:16.011Z</time></trkpt><trkpt lat="42.39673815359282" lon="14.21860313483504"><ele>202.4</ele><time>2026-03-30T08:05:17.011Z</time></trkpt><trkpt lat="42.39679686659184" lon="14.218683398752049"><ele>203.0</ele><time>2026-03-30T08:05:18.012Z</time></trkpt><trkpt lat="42.39684804567435" lon="14.218756974287707"><ele>203.00000000000003</ele><time>2026-03-30T08:05:19.012Z</time></trkpt><trkpt lat="42.39690033470098" lon="14.218806936434655"><ele>203.0</ele><time>2026-03-30T08:05:20.012Z</time></trkpt><trkpt lat="42.39695736018961" lon="14.218862015846236"><ele>203.0</ele><time>2026-03-30T08:05:21.011Z</time></trkpt><trkpt lat="42.397017455944294" lon="14.218928225278665"><ele>203.0</ele><time>2026-03-30T08:05:22.011Z</time></trkpt><trkpt lat="42.39707850020882" lon="14.219005090349937"><ele>203.00000000000003</ele><time>2026-03-30T08:05:23.011Z</time></trkpt><trkpt lat="42.39714417406359" lon="14.219082015919248"><ele>203.0</ele><time>2026-03-30T08:05:24.011Z</time></trkpt><trkpt lat="42.39721404663553" lon="14.2191605339756"><ele>203.0</ele><time>2026-03-30T08:05:25.011Z</time></trkpt><trkpt lat="42.39728481007212" lon="14.219246113198926"><ele>203.0</ele><time>2026-03-30T08:05:26.011Z</time></trkpt><trkpt lat="42.39735471758889" lon="14.219335674797485"><ele>203.0</ele><time>2026-03-30T08:05:27.012Z</time></trkpt><trkpt lat="42.39741429987072" lon="14.219433388171593"><ele>203.0</ele><time>2026-03-30T08:05:28.012Z</time></trkpt><trkpt lat="42.3974714116605" lon="14.219540143029228"><ele>203.0</ele><time>2026-03-30T08:05:29.012Z</time></trkpt><trkpt lat="42.397532911291606" lon="14.219649569048562"><ele>203.0</ele><time>2026-03-30T08:05:30.012Z</time></trkpt><trkpt lat="42.39758774545237" lon="14.219753934025947"><ele>203.0</ele><time>2026-03-30T08:05:31.012Z</time></trkpt><trkpt lat="42.39763461088466" lon="14.219858898246963"><ele>203.0</ele><time>2026-03-30T08:05:32.012Z</time></trkpt><trkpt lat="42.39768634125061" lon="14.219968600110104"><ele>203.0</ele><time>2026-03-30T08:05:33.012Z</time></trkpt><trkpt lat="42.39773411345672" lon="14.220071460568535"><ele>203.0</ele><time>2026-03-30T08:05:34.012Z</time></trkpt><trkpt lat="42.39778396552065" lon="14.22017641706696"><ele>202.83333333333334</ele><time>2026-03-30T08:05:35.012Z</time></trkpt><trkpt lat="42.397835786895364" lon="14.220281811119282"><ele>202.66666666666669</ele><time>2026-03-30T08:05:36.012Z</time></trkpt><trkpt lat="42.39788607374172" lon="14.22038524640581"><ele>202.5</ele><time>2026-03-30T08:05:37.012Z</time></trkpt><trkpt lat="42.3979378419946" lon="14.220486495138456"><ele>202.33333333333331</ele><time>2026-03-30T08:05:38.012Z</time></trkpt><trkpt lat="42.3979843360745" lon="14.22058398867355"><ele>202.16666666666666</ele><time>2026-03-30T08:05:39.012Z</time></trkpt><trkpt lat="42.39802991913168" lon="14.220677558216464"><ele>202.0</ele><time>2026-03-30T08:05:40.012Z</time></trkpt><trkpt lat="42.398076661739104" lon="14.220774147134646"><ele>201.39999999999998</ele><time>2026-03-30T08:05:41.012Z</time></trkpt><trkpt lat="42.39812558756225" lon="14.220875373402109"><ele>200.79999999999998</ele><time>2026-03-30T08:05:42.012Z</time></trkpt><trkpt lat="42.39817517683326" lon="14.22098005010523"><ele>200.2</ele><time>2026-03-30T08:05:43.012Z</time></trkpt><trkpt lat="42.39822055269615" lon="14.221080083871021"><ele>199.6</ele><time>2026-03-30T08:05:44.012Z</time></trkpt><trkpt lat="42.39827006832321" lon="14.221182198382275"><ele>199.0</ele><time>2026-03-30T08:05:45.012Z</time></trkpt><trkpt lat="42.398321298337315" lon="14.221292790091319"><ele>199.0</ele><time>2026-03-30T08:05:46.012Z</time></trkpt><trkpt lat="42.398384720931034" lon="14.22140567363297"><ele>199.0</ele><time>2026-03-30T08:05:47.012Z</time></trkpt><trkpt lat="42.398453501437054" lon="14.221531284188584"><ele>199.0</ele><time>2026-03-30T08:05:48.012Z</time></trkpt><trkpt lat="42.3985274825788" lon="14.221662858908767"><ele>199.0</ele><time>2026-03-30T08:05:49.012Z</time></trkpt><trkpt lat="42.39860357186965" lon="14.221800160540202"><ele>198.25</ele><time>2026-03-30T08:05:50.012Z</time></trkpt><trkpt lat="42.398686266804354" lon="14.221931761583983"><ele>197.5</ele><time>2026-03-30T08:05:51.012Z</time></trkpt><trkpt lat="42.39877327246715" lon="14.2220586837034"><ele>196.75</ele><time>2026-03-30T08:05:52.012Z</time></trkpt><trkpt lat="42.39886837827302" lon="14.222176484290301"><ele>196.0</ele><time>2026-03-30T08:05:53.012Z</time></trkpt><trkpt lat="42.39896886791336" lon="14.222294974499839"><ele>195.5</ele><time>2026-03-30T08:05:54.012Z</time></trkpt><trkpt lat="42.39906779700938" lon="14.222409138974317"><ele>195.0</ele><time>2026-03-30T08:05:55.012Z</time></trkpt><trkpt lat="42.39916620062824" lon="14.22251659001786"><ele>194.5</ele><time>2026-03-30T08:05:56.012Z</time></trkpt><trkpt lat="42.39925899250259" lon="14.222623225279385"><ele>194.0</ele><time>2026-03-30T08:05:57.012Z</time></trkpt><trkpt lat="42.39935390996949" lon="14.222733618765435"><ele>194.0</ele><time>2026-03-30T08:05:58.012Z</time></trkpt><trkpt lat="42.39945546957028" lon="14.222837234806123"><ele>194.0</ele><time>2026-03-30T08:05:59.012Z</time></trkpt><trkpt lat="42.39954803208344" lon="14.222942614369511"><ele>194.0</ele><time>2026-03-30T08:06:00.012Z</time></trkpt><trkpt lat="42.39963931141369" lon="14.223051178773789"><ele>194.0</ele><time>2026-03-30T08:06:01.012Z</time></trkpt><trkpt lat="42.39972537954847" lon="14.223154589172706"><ele>194.0</ele><time>2026-03-30T08:06:02.012Z</time></trkpt><trkpt lat="42.399806451122934" lon="14.223252054514928"><ele>194.0</ele><time>2026-03-30T08:06:03.012Z</time></trkpt><trkpt lat="42.39988321514855" lon="14.223340554407681"><ele>194.0</ele><time>2026-03-30T08:06:04.012Z</time></trkpt><trkpt lat="42.39995031301898" lon="14.223409273528242"><ele>194.0</ele><time>2026-03-30T08:06:05.012Z</time></trkpt><trkpt lat="42.40000322617961" lon="14.223467418271385"><ele>194.0</ele><time>2026-03-30T08:06:06.012Z</time></trkpt><trkpt lat="42.400083040370404" lon="14.223568858173717"><ele>194.00000000000003</ele><time>2026-03-30T08:06:08.012Z</time></trkpt><trkpt lat="42.40013260199132" lon="14.223633619103344"><ele>194.0</ele><time>2026-03-30T08:06:09.012Z</time></trkpt><trkpt lat="42.400181776107694" lon="14.22370509586977"><ele>194.0</ele><time>2026-03-30T08:06:10.012Z</time></trkpt><trkpt lat="42.4002320770233" lon="14.223785742781152"><ele>194.0</ele><time>2026-03-30T08:06:11.012Z</time></trkpt><trkpt lat="42.40028164936521" lon="14.223873555267163"><ele>194.00000000000003</ele><time>2026-03-30T08:06:12.012Z</time></trkpt><trkpt lat="42.40033200002062" lon="14.223967363161684"><ele>194.0</ele><time>2026-03-30T08:06:13.012Z</time></trkpt><trkpt lat="42.40037652472807" lon="14.224056388773684"><ele>193.6</ele><time>2026-03-30T08:06:14.012Z</time></trkpt><trkpt lat="42.400419088762064" lon="14.22413876841451"><ele>193.2</ele><time>2026-03-30T08:06:15.012Z</time></trkpt><trkpt lat="42.40045799567641" lon="14.224214251263845"><ele>192.79999999999998</ele><time>2026-03-30T08:06:16.012Z</time></trkpt><trkpt lat="42.40052843270681" lon="14.22434404747282"><ele>192.39999999999998</ele><time>2026-03-30T08:06:18.012Z</time></trkpt><trkpt lat="42.40056602432831" lon="14.224446016847255"><ele>192.0</ele><time>2026-03-30T08:06:20.012Z</time></trkpt><trkpt lat="42.400789062705414" lon="14.224292653393936"><ele>192.0</ele><time>2026-03-30T08:06:23.012Z</time></trkpt><trkpt lat="42.400869088887355" lon="14.224213251650719"><ele>192.0</ele><time>2026-03-30T08:06:24.012Z</time></trkpt><trkpt lat="42.400941565745384" lon="14.224150844867268"><ele>192.0</ele><time>2026-03-30T08:06:25.012Z</time></trkpt><trkpt lat="42.40102266311261" lon="14.224090804084916"><ele>192.0</ele><time>2026-03-30T08:06:26.012Z</time></trkpt><trkpt lat="42.40109118197357" lon="14.224042311085773"><ele>192.0</ele><time>2026-03-30T08:06:27.012Z</time></trkpt><trkpt lat="42.40116442291874" lon="14.223981568942264"><ele>192.0</ele><time>2026-03-30T08:06:28.012Z</time></trkpt><trkpt lat="42.40123275050483" lon="14.223931300920146"><ele>191.5</ele><time>2026-03-30T08:06:29.012Z</time></trkpt><trkpt lat="42.40132282083063" lon="14.22387927676445"><ele>191.0</ele><time>2026-03-30T08:06:30.012Z</time></trkpt><trkpt lat="42.401402502463526" lon="14.223828326327775"><ele>190.5</ele><time>2026-03-30T08:06:31.012Z</time></trkpt><trkpt lat="42.40147187668146" lon="14.223780850404811"><ele>190.0</ele><time>2026-03-30T08:06:32.012Z</time></trkpt><trkpt lat="42.40155353008949" lon="14.223735371948441"><ele>189.5</ele><time>2026-03-30T08:06:33.012Z</time></trkpt><trkpt lat="42.40163936340711" lon="14.223691661881594"><ele>189.0</ele><time>2026-03-30T08:06:34.012Z</time></trkpt><trkpt lat="42.40172787263664" lon="14.223645529995204"><ele>187.39999999999998</ele><time>2026-03-30T08:06:35.012Z</time></trkpt><trkpt lat="42.40182325700974" lon="14.22358673716164"><ele>185.8</ele><time>2026-03-30T08:06:36.012Z</time></trkpt><trkpt lat="42.40191542032377" lon="14.22352524376781"><ele>184.2</ele><time>2026-03-30T08:06:37.012Z</time></trkpt><trkpt lat="42.40200619086695" lon="14.2234669154109"><ele>182.60000000000002</ele><time>2026-03-30T08:06:38.012Z</time></trkpt><trkpt lat="42.40207477150551" lon="14.223429015936043"><ele>181.0</ele><time>2026-03-30T08:06:39.012Z</time></trkpt><trkpt lat="42.40217259243797" lon="14.223389995524506"><ele>178.66666666666669</ele><time>2026-03-30T08:06:41.012Z</time></trkpt><trkpt lat="42.402256718167756" lon="14.22343582193439"><ele>176.33333333333334</ele><time>2026-03-30T08:06:43.012Z</time></trkpt><trkpt lat="42.402340191467786" lon="14.22351132903034"><ele>174.0</ele><time>2026-03-30T08:06:45.012Z</time></trkpt><trkpt lat="42.402389512695265" lon="14.22356528717971"><ele>171.66666666666666</ele><time>2026-03-30T08:06:47.013Z</time></trkpt><trkpt lat="42.40245238146608" lon="14.223606249947354"><ele>169.33333333333331</ele><time>2026-03-30T08:06:52.013Z</time></trkpt><trkpt lat="42.40253250647744" lon="14.22368597595606"><ele>167.0</ele><time>2026-03-30T08:07:15.011Z</time></trkpt><trkpt lat="42.402630276594" lon="14.223792411070491"><ele>167.0</ele><time>2026-03-30T08:07:17.011Z</time></trkpt><trkpt lat="42.402739699777364" lon="14.223865373609716"><ele>167.0</ele><time>2026-03-30T08:07:19.011Z</time></trkpt><trkpt lat="42.40285603213273" lon="14.223885858637795"><ele>167.0</ele><time>2026-03-30T08:07:21.011Z</time></trkpt><trkpt lat="42.40292022619757" lon="14.223895185542787"><ele>167.0</ele><time>2026-03-30T08:07:22.011Z</time></trkpt><trkpt lat="42.40302387389174" lon="14.223921070484401"><ele>167.0</ele><time>2026-03-30T08:07:24.01Z</time></trkpt><trkpt lat="42.40313369070469" lon="14.224061448069525"><ele>166.0</ele><time>2026-03-30T08:07:26.011Z</time></trkpt><trkpt lat="42.40317676651565" lon="14.224179380034032"><ele>165.0</ele><time>2026-03-30T08:07:27.011Z</time></trkpt><trkpt lat="42.40322339466499" lon="14.22428073115271"><ele>164.0</ele><time>2026-03-30T08:07:28.011Z</time></trkpt><trkpt lat="42.40327077692566" lon="14.22438417017146"><ele>163.0</ele><time>2026-03-30T08:07:29.011Z</time></trkpt><trkpt lat="42.40331085446848" lon="14.224473541987086"><ele>162.0</ele><time>2026-03-30T08:07:30.011Z</time></trkpt><trkpt lat="42.40336423862166" lon="14.224553287956866"><ele>161.0</ele><time>2026-03-30T08:07:31.011Z</time></trkpt><trkpt lat="42.40342136757661" lon="14.224634192937916"><ele>161.0</ele><time>2026-03-30T08:07:32.011Z</time></trkpt><trkpt lat="42.403457883470836" lon="14.224723557076073"><ele>161.0</ele><time>2026-03-30T08:07:33.011Z</time></trkpt><trkpt lat="42.40348213564228" lon="14.224834469786886"><ele>161.0</ele><time>2026-03-30T08:07:34.011Z</time></trkpt><trkpt lat="42.403500958581205" lon="14.224950918808036"><ele>161.0</ele><time>2026-03-30T08:07:35.011Z</time></trkpt><trkpt lat="42.403512709037194" lon="14.225053881064625"><ele>161.0</ele><time>2026-03-30T08:07:36.011Z</time></trkpt><trkpt lat="42.40351937027863" lon="14.22515564761064"><ele>161.0</ele><time>2026-03-30T08:07:37.011Z</time></trkpt><trkpt lat="42.4035297883329" lon="14.225274236850963"><ele>163.0</ele><time>2026-03-30T08:07:38.011Z</time></trkpt><trkpt lat="42.40356956078447" lon="14.225386332109714"><ele>165.0</ele><time>2026-03-30T08:07:39.011Z</time></trkpt><trkpt lat="42.40361588395389" lon="14.225512518944516"><ele>167.0</ele><time>2026-03-30T08:07:40.011Z</time></trkpt><trkpt lat="42.40366564371353" lon="14.225649912958072"><ele>169.0</ele><time>2026-03-30T08:07:41.011Z</time></trkpt><trkpt lat="42.40370892338328" lon="14.225772034415586"><ele>171.0</ele><time>2026-03-30T08:07:42.011Z</time></trkpt><trkpt lat="42.4037418638005" lon="14.22587804439294"><ele>171.5</ele><time>2026-03-30T08:07:43.011Z</time></trkpt><trkpt lat="42.4037825480983" lon="14.225969250881484"><ele>172.0</ele><time>2026-03-30T08:07:44.011Z</time></trkpt><trkpt lat="42.4038322458475" lon="14.226052234048915"><ele>172.5</ele><time>2026-03-30T08:07:45.011Z</time></trkpt><trkpt lat="42.403898341402986" lon="14.226142493112151"><ele>173.0</ele><time>2026-03-30T08:07:46.011Z</time></trkpt><trkpt lat="42.40396065087596" lon="14.226233100920691"><ele>173.5</ele><time>2026-03-30T08:07:47.011Z</time></trkpt><trkpt lat="42.404026097533354" lon="14.226307310524117"><ele>174.0</ele><time>2026-03-30T08:07:48.011Z</time></trkpt><trkpt lat="42.40409498091713" lon="14.226358101337253"><ele>170.6</ele><time>2026-03-30T08:07:49.011Z</time></trkpt><trkpt lat="42.4041583640953" lon="14.226393470275374"><ele>167.2</ele><time>2026-03-30T08:07:50.011Z</time></trkpt><trkpt lat="42.404230361979806" lon="14.226430989404294"><ele>163.79999999999998</ele><time>2026-03-30T08:07:51.011Z</time></trkpt><trkpt lat="42.40432121947318" lon="14.22655234561439"><ele>160.39999999999998</ele><time>2026-03-30T08:07:53.011Z</time></trkpt><trkpt lat="42.4043405019023" lon="14.226688526188902"><ele>157.0</ele><time>2026-03-30T08:07:54.011Z</time></trkpt><trkpt lat="42.404348073932255" lon="14.22683685534274"><ele>157.0</ele><time>2026-03-30T08:07:55.011Z</time></trkpt><trkpt lat="42.40437500474624" lon="14.226944584121679"><ele>157.0</ele><time>2026-03-30T08:07:56.011Z</time></trkpt><trkpt lat="42.40439176318516" lon="14.227055819520151"><ele>157.0</ele><time>2026-03-30T08:07:57.011Z</time></trkpt><trkpt lat="42.404430824376654" lon="14.22715899458085"><ele>157.0</ele><time>2026-03-30T08:07:58.011Z</time></trkpt><trkpt lat="42.40450654267785" lon="14.227268167938119"><ele>157.0</ele><time>2026-03-30T08:07:59.011Z</time></trkpt><trkpt lat="42.40457476328319" lon="14.22737875912612"><ele>155.25</ele><time>2026-03-30T08:08:00.011Z</time></trkpt><trkpt lat="42.404649529408275" lon="14.227525051157293"><ele>153.5</ele><time>2026-03-30T08:08:01.011Z</time></trkpt><trkpt lat="42.404695872506096" lon="14.227660172979384"><ele>151.75</ele><time>2026-03-30T08:08:02.011Z</time></trkpt><trkpt lat="42.404739879072" lon="14.22780828080748"><ele>150.0</ele><time>2026-03-30T08:08:03.011Z</time></trkpt><trkpt lat="42.404787880451586" lon="14.227953265983357"><ele>150.0</ele><time>2026-03-30T08:08:04.011Z</time></trkpt><trkpt lat="42.40483388342336" lon="14.22807324700234"><ele>150.0</ele><time>2026-03-30T08:08:05.011Z</time></trkpt><trkpt lat="42.40486034717949" lon="14.228151889663426"><ele>150.0</ele><time>2026-03-30T08:08:06.011Z</time></trkpt><trkpt lat="42.40491805533253" lon="14.22819825904109"><ele>150.0</ele><time>2026-03-30T08:08:09.011Z</time></trkpt><trkpt lat="42.405011029089955" lon="14.228238020741944"><ele>150.0</ele><time>2026-03-30T08:08:11.011Z</time></trkpt><trkpt lat="42.40506908445835" lon="14.228296886217878"><ele>150.0</ele><time>2026-03-30T08:08:12.011Z</time></trkpt><trkpt lat="42.405133989689446" lon="14.228388585457601"><ele>148.83333333333334</ele><time>2026-03-30T08:08:13.011Z</time></trkpt><trkpt lat="42.40521237128056" lon="14.228460526571649"><ele>147.66666666666666</ele><time>2026-03-30T08:08:14.011Z</time></trkpt><trkpt lat="42.40527486659722" lon="14.228526364814783"><ele>146.5</ele><time>2026-03-30T08:08:15.011Z</time></trkpt><trkpt lat="42.40533208403627" lon="14.22860934503226"><ele>145.33333333333331</ele><time>2026-03-30T08:08:16.011Z</time></trkpt><trkpt lat="42.40539628248432" lon="14.228681475270314"><ele>144.16666666666666</ele><time>2026-03-30T08:08:17.011Z</time></trkpt><trkpt lat="42.40545836503845" lon="14.228729452444558"><ele>143.0</ele><time>2026-03-30T08:08:18.011Z</time></trkpt><trkpt lat="42.405535314806095" lon="14.228762837992267"><ele>143.0</ele><time>2026-03-30T08:08:19.011Z</time></trkpt><trkpt lat="42.405601673470024" lon="14.228793004272188"><ele>143.0</ele><time>2026-03-30T08:08:20.011Z</time></trkpt><trkpt lat="42.40566729727532" lon="14.228841468681852"><ele>143.0</ele><time>2026-03-30T08:08:21.011Z</time></trkpt><trkpt lat="42.40572052692478" lon="14.228897082239527"><ele>143.0</ele><time>2026-03-30T08:08:22.011Z</time></trkpt><trkpt lat="42.40577364536533" lon="14.228948819457404"><ele>143.0</ele><time>2026-03-30T08:08:23.012Z</time></trkpt><trkpt lat="42.40590796361803" lon="14.229001256018284"><ele>143.0</ele><time>2026-03-30T08:08:25.012Z</time></trkpt><trkpt lat="42.40601282085318" lon="14.22902231032214"><ele>141.33333333333331</ele><time>2026-03-30T08:08:26.012Z</time></trkpt><trkpt lat="42.40609204095585" lon="14.229058386877146"><ele>139.66666666666666</ele><time>2026-03-30T08:08:27.012Z</time></trkpt><trkpt lat="42.40616326553163" lon="14.22910839387274"><ele>138.0</ele><time>2026-03-30T08:08:28.012Z</time></trkpt><trkpt lat="42.406218797710416" lon="14.229164551703095"><ele>136.33333333333334</ele><time>2026-03-30T08:08:29.012Z</time></trkpt><trkpt lat="42.4062768651811" lon="14.22920573714784"><ele>134.66666666666669</ele><time>2026-03-30T08:08:30.012Z</time></trkpt><trkpt lat="42.40641532685506" lon="14.229269362669458"><ele>133.0</ele><time>2026-03-30T08:08:32.012Z</time></trkpt><trkpt lat="42.40649791283084" lon="14.229384127768112"><ele>133.0</ele><time>2026-03-30T08:08:34.012Z</time></trkpt><trkpt lat="42.406531361934526" lon="14.22947913381888"><ele>133.0</ele><time>2026-03-30T08:08:35.012Z</time></trkpt><trkpt lat="42.406577425173275" lon="14.22958030843341"><ele>133.0</ele><time>2026-03-30T08:08:36.012Z</time></trkpt><trkpt lat="42.40662096841406" lon="14.229682730362239"><ele>133.0</ele><time>2026-03-30T08:08:37.012Z</time></trkpt><trkpt lat="42.406679918206315" lon="14.229742911082734"><ele>133.0</ele><time>2026-03-30T08:08:38.012Z</time></trkpt><trkpt lat="42.40673454024157" lon="14.229796966597023"><ele>133.0</ele><time>2026-03-30T08:08:39.012Z</time></trkpt><trkpt lat="42.40681251468379" lon="14.229842006655524"><ele>137.25</ele><time>2026-03-30T08:08:40.012Z</time></trkpt><trkpt lat="42.40688254668627" lon="14.229918563536629"><ele>141.5</ele><time>2026-03-30T08:08:41.012Z</time></trkpt><trkpt lat="42.406966057794655" lon="14.230051310713618"><ele>145.75</ele><time>2026-03-30T08:08:42.012Z</time></trkpt><trkpt lat="42.40703926048795" lon="14.230209117558383"><ele>150.0</ele><time>2026-03-30T08:08:43.012Z</time></trkpt><trkpt lat="42.407115615301116" lon="14.23032940255695"><ele>146.5</ele><time>2026-03-30T08:08:44.012Z</time></trkpt><trkpt lat="42.40720090971293" lon="14.230436005357504"><ele>143.0</ele><time>2026-03-30T08:08:45.012Z</time></trkpt><trkpt lat="42.407274848970864" lon="14.230541918897622"><ele>139.5</ele><time>2026-03-30T08:08:46.012Z</time></trkpt><trkpt lat="42.40733842559507" lon="14.230680129261287"><ele>136.0</ele><time>2026-03-30T08:08:47.012Z</time></trkpt><trkpt lat="42.40740405286862" lon="14.230815312375855"><ele>136.0</ele><time>2026-03-30T08:08:48.012Z</time></trkpt><trkpt lat="42.40745829253646" lon="14.23092134695489"><ele>136.0</ele><time>2026-03-30T08:08:49.012Z</time></trkpt><trkpt lat="42.40748062125667" lon="14.231005840986372"><ele>136.0</ele><time>2026-03-30T08:08:51.012Z</time></trkpt><trkpt lat="42.40752949666534" lon="14.23107569237212"><ele>136.0</ele><time>2026-03-30T08:08:55.012Z</time></trkpt><trkpt lat="42.407589996832606" lon="14.231027814854349"><ele>136.0</ele><time>2026-03-30T08:08:58.012Z</time></trkpt><trkpt lat="42.407667239048244" lon="14.230968558715231"><ele>136.0</ele><time>2026-03-30T08:09:01.012Z</time></trkpt><trkpt lat="42.40773232087039" lon="14.2309342395172"><ele>136.0</ele><time>2026-03-30T08:09:03.012Z</time></trkpt><trkpt lat="42.40780269964476" lon="14.230877274785362"><ele>136.0</ele><time>2026-03-30T08:09:05.012Z</time></trkpt><trkpt lat="42.40789397251743" lon="14.230780328638012"><ele>136.0</ele><time>2026-03-30T08:09:07.012Z</time></trkpt><trkpt lat="42.40797464938452" lon="14.230686748534861"><ele>136.0</ele><time>2026-03-30T08:09:09.012Z</time></trkpt><trkpt lat="42.40802019037751" lon="14.230622018025072"><ele>136.0</ele><time>2026-03-30T08:09:10.012Z</time></trkpt><trkpt lat="42.40808211960315" lon="14.230555680860839"><ele>136.0</ele><time>2026-03-30T08:09:11.012Z</time></trkpt><trkpt lat="42.40814634288623" lon="14.230488487685822"><ele>130.5</ele><time>2026-03-30T08:09:12.012Z</time></trkpt><trkpt lat="42.408201150644324" lon="14.230442616428896"><ele>125.0</ele><time>2026-03-30T08:09:13.012Z</time></trkpt><trkpt lat="42.40827586348532" lon="14.2304003979277"><ele>119.5</ele><time>2026-03-30T08:09:15.012Z</time></trkpt><trkpt lat="42.408361073202215" lon="14.230412870940512"><ele>114.0</ele><time>2026-03-30T08:09:17.012Z</time></trkpt><trkpt lat="42.4084091022268" lon="14.230490655852094"><ele>108.50000000000001</ele><time>2026-03-30T08:09:19.012Z</time></trkpt><trkpt lat="42.40846157422311" lon="14.230557094903046"><ele>103.0</ele><time>2026-03-30T08:09:22.01Z</time></trkpt><trkpt lat="42.4084949856312" lon="14.23045538321358"><ele>103.0</ele><time>2026-03-30T08:09:25.01Z</time></trkpt><trkpt lat="42.4083866019247" lon="14.230405584325679"><ele>103.0</ele><time>2026-03-30T08:09:28.011Z</time></trkpt><trkpt lat="42.40829796266452" lon="14.23041953989176"><ele>103.0</ele><time>2026-03-30T08:09:29.01Z</time></trkpt><trkpt lat="42.40822223667836" lon="14.230474927547773"><ele>103.0</ele><time>2026-03-30T08:09:30.01Z</time></trkpt><trkpt lat="42.40814034714874" lon="14.23053864234108"><ele>103.0</ele><time>2026-03-30T08:09:31.01Z</time></trkpt><trkpt lat="42.40806859571279" lon="14.230617392092542"><ele>104.2</ele><time>2026-03-30T08:09:32.01Z</time></trkpt><trkpt lat="42.40799768619562" lon="14.230709289522157"><ele>105.4</ele><time>2026-03-30T08:09:33.01Z</time></trkpt><trkpt lat="42.40790893246905" lon="14.230799682419036"><ele>106.60000000000001</ele><time>2026-03-30T08:09:34.01Z</time></trkpt><trkpt lat="42.40782271055476" lon="14.23087373284565"><ele>107.80000000000001</ele><time>2026-03-30T08:09:35.01Z</time></trkpt><trkpt lat="42.40774328864895" lon="14.230949865924398"><ele>109.0</ele><time>2026-03-30T08:09:36.01Z</time></trkpt><trkpt lat="42.407673414938095" lon="14.231029102559654"><ele>113.50000000000001</ele><time>2026-03-30T08:09:37.01Z</time></trkpt><trkpt lat="42.40762303102227" lon="14.23110846148829"><ele>118.0</ele><time>2026-03-30T08:09:38.01Z</time></trkpt><trkpt lat="42.407572308329144" lon="14.231159108784352"><ele>122.5</ele><time>2026-03-30T08:09:39.01Z</time></trkpt><trkpt lat="42.40753432517336" lon="14.23106534205716"><ele>127.0</ele><time>2026-03-30T08:09:42.01Z</time></trkpt><trkpt lat="42.407512061072985" lon="14.231199818091508"><ele>131.5</ele><time>2026-03-30T08:09:48.01Z</time></trkpt><trkpt lat="42.407520873547696" lon="14.231292466054862"><ele>136.0</ele><time>2026-03-30T08:09:49.01Z</time></trkpt><trkpt lat="42.407557027457116" lon="14.231384582276718"><ele>136.0</ele><time>2026-03-30T08:09:50.01Z</time></trkpt><trkpt lat="42.40761368849616" lon="14.231468965921032"><ele>136.0</ele><time>2026-03-30T08:09:51.01Z</time></trkpt><trkpt lat="42.40768028946807" lon="14.231565145486805"><ele>136.0</ele><time>2026-03-30T08:09:52.01Z</time></trkpt><trkpt lat="42.40774875331872" lon="14.231679898241415"><ele>136.0</ele><time>2026-03-30T08:09:53.01Z</time></trkpt><trkpt lat="42.40779720208948" lon="14.23175432641234"><ele>136.0</ele><time>2026-03-30T08:09:54.01Z</time></trkpt><trkpt lat="42.40788382049571" lon="14.231867018338207"><ele>133.2</ele><time>2026-03-30T08:09:56.01Z</time></trkpt><trkpt lat="42.40799939673585" lon="14.231913932254933"><ele>130.39999999999998</ele><time>2026-03-30T08:09:58.01Z</time></trkpt><trkpt lat="42.40808850926233" lon="14.231930724360563"><ele>127.6</ele><time>2026-03-30T08:10:00.01Z</time></trkpt><trkpt lat="42.408178200187855" lon="14.232053241141482"><ele>124.8</ele><time>2026-03-30T08:10:02.01Z</time></trkpt><trkpt lat="42.40821849145477" lon="14.232168245306864"><ele>122.0</ele><time>2026-03-30T08:10:03.01Z</time></trkpt><trkpt lat="42.40827109175261" lon="14.232296118126461"><ele>124.49999999999999</ele><time>2026-03-30T08:10:04.01Z</time></trkpt><trkpt lat="42.40832854866627" lon="14.232397839447628"><ele>127.0</ele><time>2026-03-30T08:10:05.01Z</time></trkpt><trkpt lat="42.40837408092739" lon="14.232482594206742"><ele>129.5</ele><time>2026-03-30T08:10:06.01Z</time></trkpt><trkpt lat="42.40840799064854" lon="14.232556246383469"><ele>132.0</ele><time>2026-03-30T08:10:07.01Z</time></trkpt><trkpt lat="42.40843841589153" lon="14.232665268452145"><ele>134.5</ele><time>2026-03-30T08:10:08.01Z</time></trkpt><trkpt lat="42.40845221752487" lon="14.232809286039046"><ele>137.0</ele><time>2026-03-30T08:10:09.01Z</time></trkpt><trkpt lat="42.40845209098695" lon="14.232940785768772"><ele>137.0</ele><time>2026-03-30T08:10:10.01Z</time></trkpt><trkpt lat="42.40846530069951" lon="14.233048029307078"><ele>137.0</ele><time>2026-03-30T08:10:11.011Z</time></trkpt><trkpt lat="42.40847901006106" lon="14.233132017081843"><ele>137.0</ele><time>2026-03-30T08:10:12.011Z</time></trkpt><trkpt lat="42.40854270314176" lon="14.233321616716765"><ele>137.0</ele><time>2026-03-30T08:10:14.011Z</time></trkpt><trkpt lat="42.40862520993098" lon="14.233463118551589"><ele>137.0</ele><time>2026-03-30T08:10:15.011Z</time></trkpt><trkpt lat="42.40868015749289" lon="14.233586136489413"><ele>139.6</ele><time>2026-03-30T08:10:16.011Z</time></trkpt><trkpt lat="42.40873041218084" lon="14.23367421264541"><ele>142.2</ele><time>2026-03-30T08:10:17.011Z</time></trkpt><trkpt lat="42.408782303619326" lon="14.23375366039287"><ele>144.8</ele><time>2026-03-30T08:10:18.011Z</time></trkpt><trkpt lat="42.408836011827574" lon="14.23383347952822"><ele>147.4</ele><time>2026-03-30T08:10:19.011Z</time></trkpt><trkpt lat="42.40895220651477" lon="14.23392038981958"><ele>150.0</ele><time>2026-03-30T08:10:21.011Z</time></trkpt><trkpt lat="42.40903251021681" lon="14.233960396257158"><ele>146.4</ele><time>2026-03-30T08:10:22.011Z</time></trkpt><trkpt lat="42.40908976802793" lon="14.234040666081768"><ele>142.8</ele><time>2026-03-30T08:10:23.011Z</time></trkpt><trkpt lat="42.409151399353455" lon="14.234108382661132"><ele>139.2</ele><time>2026-03-30T08:10:24.011Z</time></trkpt><trkpt lat="42.40920981916248" lon="14.234182167030538"><ele>135.6</ele><time>2026-03-30T08:10:25.011Z</time></trkpt><trkpt lat="42.40927953143754" lon="14.234265159384872"><ele>132.0</ele><time>2026-03-30T08:10:26.011Z</time></trkpt><trkpt lat="42.40935946799932" lon="14.234395457934593"><ele>132.0</ele><time>2026-03-30T08:10:27.011Z</time></trkpt><trkpt lat="42.40943350702182" lon="14.234557572737295"><ele>132.0</ele><time>2026-03-30T08:10:28.011Z</time></trkpt><trkpt lat="42.409494403953005" lon="14.234705716440379"><ele>132.0</ele><time>2026-03-30T08:10:29.011Z</time></trkpt><trkpt lat="42.40955971117937" lon="14.234804498156882"><ele>132.0</ele><time>2026-03-30T08:10:30.011Z</time></trkpt><trkpt lat="42.40962648166067" lon="14.234899847331022"><ele>130.33333333333334</ele><time>2026-03-30T08:10:31.011Z</time></trkpt><trkpt lat="42.40969912545673" lon="14.234987314021124"><ele>128.66666666666666</ele><time>2026-03-30T08:10:32.011Z</time></trkpt><trkpt lat="42.409763404086284" lon="14.235066497636646"><ele>127.0</ele><time>2026-03-30T08:10:33.011Z</time></trkpt><trkpt lat="42.40979579906059" lon="14.235171633959425"><ele>125.33333333333333</ele><time>2026-03-30T08:10:35.011Z</time></trkpt><trkpt lat="42.40971627413117" lon="14.23518332837357"><ele>123.66666666666666</ele><time>2026-03-30T08:10:38.011Z</time></trkpt><trkpt lat="42.40964452518005" lon="14.235127177815196"><ele>122.0</ele><time>2026-03-30T08:10:40.011Z</time></trkpt><trkpt lat="42.40958819773679" lon="14.23507568082602"><ele>124.0</ele><time>2026-03-30T08:10:41.011Z</time></trkpt><trkpt lat="42.409534280599" lon="14.235013106604363"><ele>125.99999999999999</ele><time>2026-03-30T08:10:42.011Z</time></trkpt><trkpt lat="42.40946779644385" lon="14.234953723452668"><ele>127.99999999999999</ele><time>2026-03-30T08:10:43.011Z</time></trkpt><trkpt lat="42.40936655856345" lon="14.234873686710184"><ele>130.0</ele><time>2026-03-30T08:10:44.011Z</time></trkpt><trkpt lat="42.40925148583366" lon="14.234783737121424"><ele>132.0</ele><time>2026-03-30T08:10:45.011Z</time></trkpt><trkpt lat="42.40914950039443" lon="14.234709239328925"><ele>132.0</ele><time>2026-03-30T08:10:46.011Z</time></trkpt><trkpt lat="42.40907722640256" lon="14.234692733131297"><ele>132.0</ele><time>2026-03-30T08:10:48.011Z</time></trkpt><trkpt lat="42.40906765528593" lon="14.234781580838762"><ele>132.0</ele><time>2026-03-30T08:10:50.011Z</time></trkpt><trkpt lat="42.409075191854996" lon="14.234866708254579"><ele>132.0</ele><time>2026-03-30T08:10:51.011Z</time></trkpt><trkpt lat="42.409095641302386" lon="14.234957995814089"><ele>132.0</ele><time>2026-03-30T08:10:52.011Z</time></trkpt><trkpt lat="42.40915509554318" lon="14.235033398916404"><ele>132.0</ele><time>2026-03-30T08:10:53.011Z</time></trkpt><trkpt lat="42.409221058937774" lon="14.235097920102017"><ele>132.0</ele><time>2026-03-30T08:10:54.011Z</time></trkpt><trkpt lat="42.409287006210086" lon="14.235155670293231"><ele>135.2</ele><time>2026-03-30T08:10:55.011Z</time></trkpt><trkpt lat="42.40935517588805" lon="14.23525542808088"><ele>138.39999999999998</ele><time>2026-03-30T08:10:56.011Z</time></trkpt><trkpt lat="42.40942243579616" lon="14.235371051002016"><ele>141.60000000000002</ele><time>2026-03-30T08:10:57.011Z</time></trkpt><trkpt lat="42.40950321873942" lon="14.235480689998129"><ele>144.8</ele><time>2026-03-30T08:10:58.011Z</time></trkpt><trkpt lat="42.409582343280064" lon="14.235586789452286"><ele>148.0</ele><time>2026-03-30T08:10:59.011Z</time></trkpt><trkpt lat="42.409664505699396" lon="14.235702899009267"><ele>148.0</ele><time>2026-03-30T08:11:00.011Z</time></trkpt><trkpt lat="42.4097371593411" lon="14.23580034446426"><ele>148.0</ele><time>2026-03-30T08:11:01.011Z</time></trkpt><trkpt lat="42.40981311217799" lon="14.235899601975643"><ele>148.0</ele><time>2026-03-30T08:11:02.011Z</time></trkpt><trkpt lat="42.40989745019779" lon="14.23601136692176"><ele>148.0</ele><time>2026-03-30T08:11:03.011Z</time></trkpt><trkpt lat="42.409972845366305" lon="14.236084882757268"><ele>148.0</ele><time>2026-03-30T08:11:04.011Z</time></trkpt><trkpt lat="42.41005445377985" lon="14.236164798101674"><ele>148.0</ele><time>2026-03-30T08:11:05.011Z</time></trkpt><trkpt lat="42.410121583890344" lon="14.236242644909508"><ele>148.0</ele><time>2026-03-30T08:11:06.011Z</time></trkpt><trkpt lat="42.41019088735382" lon="14.236329464223227"><ele>148.0</ele><time>2026-03-30T08:11:07.011Z</time></trkpt><trkpt lat="42.41023845466911" lon="14.236423693732352"><ele>148.0</ele><time>2026-03-30T08:11:08.011Z</time></trkpt><trkpt lat="42.41029268346023" lon="14.236530581795453"><ele>148.0</ele><time>2026-03-30T08:11:09.011Z</time></trkpt><trkpt lat="42.41034138060739" lon="14.236651012674074"><ele>148.83333333333334</ele><time>2026-03-30T08:11:10.011Z</time></trkpt><trkpt lat="42.41037959663588" lon="14.23678907095298"><ele>149.66666666666669</ele><time>2026-03-30T08:11:11.011Z</time></trkpt><trkpt lat="42.41040926088842" lon="14.23691640450821"><ele>150.5</ele><time>2026-03-30T08:11:12.011Z</time></trkpt><trkpt lat="42.4104385086964" lon="14.237008911721464"><ele>151.33333333333334</ele><time>2026-03-30T08:11:13.011Z</time></trkpt><trkpt lat="42.41047404820988" lon="14.237079705949787"><ele>152.16666666666666</ele><time>2026-03-30T08:11:14.011Z</time></trkpt><trkpt lat="42.41052360294969" lon="14.237152777698707"><ele>153.0</ele><time>2026-03-30T08:11:15.011Z</time></trkpt><trkpt lat="42.4105912578909" lon="14.237230639659181"><ele>151.16666666666666</ele><time>2026-03-30T08:11:16.011Z</time></trkpt><trkpt lat="42.410643100507535" lon="14.237337371446083"><ele>149.33333333333334</ele><time>2026-03-30T08:11:17.011Z</time></trkpt><trkpt lat="42.410691646831204" lon="14.237421408271647"><ele>147.5</ele><time>2026-03-30T08:11:18.011Z</time></trkpt><trkpt lat="42.410742915561556" lon="14.23750661707618"><ele>145.66666666666669</ele><time>2026-03-30T08:11:19.011Z</time></trkpt><trkpt lat="42.41079375959893" lon="14.237615438326523"><ele>143.83333333333334</ele><time>2026-03-30T08:11:20.011Z</time></trkpt><trkpt lat="42.41083469898669" lon="14.237719618575953"><ele>142.0</ele><time>2026-03-30T08:11:21.011Z</time></trkpt><trkpt lat="42.410866828069665" lon="14.237840983048459"><ele>142.0</ele><time>2026-03-30T08:11:22.011Z</time></trkpt><trkpt lat="42.41091287152151" lon="14.237995382252755"><ele>142.0</ele><time>2026-03-30T08:11:23.011Z</time></trkpt><trkpt lat="42.410957330322226" lon="14.238150017592078"><ele>142.0</ele><time>2026-03-30T08:11:24.011Z</time></trkpt><trkpt lat="42.411027702621126" lon="14.238307347821516"><ele>142.0</ele><time>2026-03-30T08:11:25.011Z</time></trkpt><trkpt lat="42.411100564368724" lon="14.238459583356846"><ele>142.0</ele><time>2026-03-30T08:11:26.01Z</time></trkpt><trkpt lat="42.41118677179281" lon="14.238612673647918"><ele>142.0</ele><time>2026-03-30T08:11:27.01Z</time></trkpt><trkpt lat="42.41125815342708" lon="14.238743534856372"><ele>142.0</ele><time>2026-03-30T08:11:28.01Z</time></trkpt><trkpt lat="42.41131639614915" lon="14.238871983056113"><ele>142.0</ele><time>2026-03-30T08:11:29.01Z</time></trkpt><trkpt lat="42.411365248346314" lon="14.239022436841667"><ele>137.0</ele><time>2026-03-30T08:11:30.01Z</time></trkpt><trkpt lat="42.41141420117837" lon="14.239154532657901"><ele>132.0</ele><time>2026-03-30T08:11:31.01Z</time></trkpt><trkpt lat="42.411467116833904" lon="14.239277284607384"><ele>126.99999999999999</ele><time>2026-03-30T08:11:32.01Z</time></trkpt><trkpt lat="42.411514241102246" lon="14.239397721392757"><ele>122.0</ele><time>2026-03-30T08:11:33.01Z</time></trkpt><trkpt lat="42.41156360752184" lon="14.239541176537333"><ele>117.0</ele><time>2026-03-30T08:11:34.01Z</time></trkpt><trkpt lat="42.41160661361581" lon="14.23968380310813"><ele>117.0</ele><time>2026-03-30T08:11:35.01Z</time></trkpt><trkpt lat="42.411625430403994" lon="14.239769926008817"><ele>116.99999999999999</ele><time>2026-03-30T08:11:36.01Z</time></trkpt><trkpt lat="42.41167997727464" lon="14.239888102759187"><ele>116.99999999999999</ele><time>2026-03-30T08:11:38.01Z</time></trkpt><trkpt lat="42.41172964983665" lon="14.239979798111314"><ele>117.0</ele><time>2026-03-30T08:11:39.009Z</time></trkpt><trkpt lat="42.41177587310205" lon="14.240099623051648"><ele>117.0</ele><time>2026-03-30T08:11:40.009Z</time></trkpt><trkpt lat="42.411822345302454" lon="14.240217940201724"><ele>118.6</ele><time>2026-03-30T08:11:41.009Z</time></trkpt><trkpt lat="42.41186605503478" lon="14.240315890919625"><ele>120.19999999999999</ele><time>2026-03-30T08:11:42.009Z</time></trkpt><trkpt lat="42.411913376390174" lon="14.240436986760987"><ele>121.8</ele><time>2026-03-30T08:11:44.009Z</time></trkpt><trkpt lat="42.41199162473014" lon="14.240436682063114"><ele>123.4</ele><time>2026-03-30T08:11:47.009Z</time></trkpt><trkpt lat="42.41206102585958" lon="14.240508502743994"><ele>125.0</ele><time>2026-03-30T08:11:48.009Z</time></trkpt><trkpt lat="42.412161319276116" lon="14.24061266960776"><ele>123.6</ele><time>2026-03-30T08:11:49.009Z</time></trkpt><trkpt lat="42.412238380131406" lon="14.240709586345341"><ele>122.2</ele><time>2026-03-30T08:11:50.009Z</time></trkpt><trkpt lat="42.412312938223835" lon="14.24081448951683"><ele>120.80000000000001</ele><time>2026-03-30T08:11:51.009Z</time></trkpt><trkpt lat="42.4123917140553" lon="14.240917264021016"><ele>119.4</ele><time>2026-03-30T08:11:52.009Z</time></trkpt><trkpt lat="42.41246637309884" lon="14.241017848496078"><ele>118.0</ele><time>2026-03-30T08:11:53.009Z</time></trkpt><trkpt lat="42.412527607418475" lon="14.241094848461955"><ele>118.0</ele><time>2026-03-30T08:11:54.009Z</time></trkpt><trkpt lat="42.41258004827516" lon="14.241175865951194"><ele>118.00000000000001</ele><time>2026-03-30T08:11:55.009Z</time></trkpt><trkpt lat="42.41263412912541" lon="14.24127527505421"><ele>118.00000000000001</ele><time>2026-03-30T08:11:56.009Z</time></trkpt><trkpt lat="42.41267867580927" lon="14.24139557388469"><ele>118.0</ele><time>2026-03-30T08:11:57.009Z</time></trkpt><trkpt lat="42.41272067623916" lon="14.241531005592613"><ele>118.0</ele><time>2026-03-30T08:11:58.009Z</time></trkpt><trkpt lat="42.41276021271848" lon="14.241670898508678"><ele>116.80000000000001</ele><time>2026-03-30T08:11:59.009Z</time></trkpt><trkpt lat="42.4127989775173" lon="14.241794812174486"><ele>115.60000000000001</ele><time>2026-03-30T08:12:00.009Z</time></trkpt><trkpt lat="42.412838893710706" lon="14.241932425631749"><ele>114.39999999999999</ele><time>2026-03-30T08:12:01.009Z</time></trkpt><trkpt lat="42.41288199338623" lon="14.242070595474338"><ele>113.19999999999999</ele><time>2026-03-30T08:12:02.009Z</time></trkpt><trkpt lat="42.412938239088966" lon="14.242211888845155"><ele>112.0</ele><time>2026-03-30T08:12:03.009Z</time></trkpt><trkpt lat="42.41299909182233" lon="14.242368873979109"><ele>112.0</ele><time>2026-03-30T08:12:04.009Z</time></trkpt><trkpt lat="42.41304259874114" lon="14.242492151274753"><ele>111.99999999999999</ele><time>2026-03-30T08:12:05.009Z</time></trkpt><trkpt lat="42.41307013451207" lon="14.242608537412282"><ele>111.99999999999999</ele><time>2026-03-30T08:12:06.009Z</time></trkpt><trkpt lat="42.413086882193724" lon="14.242748155715692"><ele>112.0</ele><time>2026-03-30T08:12:07.01Z</time></trkpt><trkpt lat="42.41308133376194" lon="14.24289645259514"><ele>112.0</ele><time>2026-03-30T08:12:08.01Z</time></trkpt><trkpt lat="42.41307133096889" lon="14.243056442382684"><ele>113.0</ele><time>2026-03-30T08:12:09.01Z</time></trkpt><trkpt lat="42.41306337268996" lon="14.243195830125556"><ele>113.99999999999999</ele><time>2026-03-30T08:12:10.01Z</time></trkpt><trkpt lat="42.41307422657172" lon="14.24334414774562"><ele>114.99999999999999</ele><time>2026-03-30T08:12:11.01Z</time></trkpt><trkpt lat="42.41309208868738" lon="14.243512418015307"><ele>116.0</ele><time>2026-03-30T08:12:12.01Z</time></trkpt><trkpt lat="42.41312829071009" lon="14.243639507503048"><ele>117.0</ele><time>2026-03-30T08:12:13.01Z</time></trkpt><trkpt lat="42.413159966822185" lon="14.243747357655673"><ele>117.0</ele><time>2026-03-30T08:12:14.01Z</time></trkpt><trkpt lat="42.413202643276485" lon="14.243833556253902"><ele>117.00000000000001</ele><time>2026-03-30T08:12:15.01Z</time></trkpt><trkpt lat="42.41324040664457" lon="14.243905642987558"><ele>117.0</ele><time>2026-03-30T08:12:16.01Z</time></trkpt><trkpt lat="42.41328232945829" lon="14.24398026515828"><ele>117.0</ele><time>2026-03-30T08:12:17.01Z</time></trkpt><trkpt lat="42.41332948318881" lon="14.244064784109229"><ele>117.00000000000001</ele><time>2026-03-30T08:12:18.01Z</time></trkpt><trkpt lat="42.41335642920539" lon="14.244160472457112"><ele>117.0</ele><time>2026-03-30T08:12:19.01Z</time></trkpt><trkpt lat="42.413395272454544" lon="14.24425906194388"><ele>117.0</ele><time>2026-03-30T08:12:20.01Z</time></trkpt><trkpt lat="42.41342666047197" lon="14.244345503488429"><ele>117.66666666666667</ele><time>2026-03-30T08:12:21.01Z</time></trkpt><trkpt lat="42.413455455363206" lon="14.24442454837501"><ele>118.33333333333334</ele><time>2026-03-30T08:12:22.01Z</time></trkpt><trkpt lat="42.41350832199599" lon="14.244580511073096"><ele>119.0</ele><time>2026-03-30T08:12:24.01Z</time></trkpt><trkpt lat="42.4135209144609" lon="14.24466453322067"><ele>119.66666666666667</ele><time>2026-03-30T08:12:25.01Z</time></trkpt><trkpt lat="42.413525283222874" lon="14.244750661704805"><ele>120.33333333333334</ele><time>2026-03-30T08:12:26.01Z</time></trkpt><trkpt lat="42.413520577014935" lon="14.244846180263218"><ele>121.0</ele><time>2026-03-30T08:12:27.01Z</time></trkpt><trkpt lat="42.413529436905925" lon="14.244980448657586"><ele>121.00000000000001</ele><time>2026-03-30T08:12:29.01Z</time></trkpt><trkpt lat="42.41353988390379" lon="14.245098520141322"><ele>121.0</ele><time>2026-03-30T08:12:31.01Z</time></trkpt><trkpt lat="42.41359930849302" lon="14.245268527446722"><ele>121.0</ele><time>2026-03-30T08:12:33.01Z</time></trkpt><trkpt lat="42.41363901565183" lon="14.245345844866964"><ele>121.0</ele><time>2026-03-30T08:12:34.01Z</time></trkpt><trkpt lat="42.41368285325793" lon="14.24542690646668"><ele>121.00000000000001</ele><time>2026-03-30T08:12:35.01Z</time></trkpt><trkpt lat="42.41371204703579" lon="14.245518422569656"><ele>121.0</ele><time>2026-03-30T08:12:36.01Z</time></trkpt><trkpt lat="42.41374209702819" lon="14.245630888582689"><ele>120.16666666666667</ele><time>2026-03-30T08:12:37.01Z</time></trkpt><trkpt lat="42.41376822982982" lon="14.245745766648852"><ele>119.33333333333334</ele><time>2026-03-30T08:12:38.01Z</time></trkpt><trkpt lat="42.413787294754215" lon="14.245856085879058"><ele>118.5</ele><time>2026-03-30T08:12:39.01Z</time></trkpt><trkpt lat="42.413779147742126" lon="14.245963390546475"><ele>117.66666666666666</ele><time>2026-03-30T08:12:40.01Z</time></trkpt><trkpt lat="42.41377099228973" lon="14.246067991160638"><ele>116.83333333333333</ele><time>2026-03-30T08:12:42.01Z</time></trkpt><trkpt lat="42.41377916248819" lon="14.246157880464878"><ele>116.0</ele><time>2026-03-30T08:12:54.01Z</time></trkpt><trkpt lat="42.41378575898838" lon="14.246245219576238"><ele>115.99999999999999</ele><time>2026-03-30T08:12:56.01Z</time></trkpt><trkpt lat="42.41375990505734" lon="14.246348245365098"><ele>116.0</ele><time>2026-03-30T08:12:58.01Z</time></trkpt><trkpt lat="42.41372739165392" lon="14.246432512228173"><ele>116.0</ele><time>2026-03-30T08:12:59.01Z</time></trkpt><trkpt lat="42.413692464682796" lon="14.246577762943174"><ele>116.0</ele><time>2026-03-30T08:13:01.01Z</time></trkpt><trkpt lat="42.41366046945464" lon="14.246655654573562"><ele>115.99999999999999</ele><time>2026-03-30T08:13:04.01Z</time></trkpt><trkpt lat="42.413708101874484" lon="14.246723888388098"><ele>116.0</ele><time>2026-03-30T08:13:07.01Z</time></trkpt><trkpt lat="42.413772931390255" lon="14.24673317214829"><ele>112.66666666666666</ele><time>2026-03-30T08:13:09.01Z</time></trkpt><trkpt lat="42.413841299906025" lon="14.246750811586125"><ele>109.33333333333333</ele><time>2026-03-30T08:13:10.01Z</time></trkpt><trkpt lat="42.41391798674517" lon="14.246827740447776"><ele>106.0</ele><time>2026-03-30T08:13:12.01Z</time></trkpt><trkpt lat="42.4140124779969" lon="14.246930268726782"><ele>102.66666666666666</ele><time>2026-03-30T08:13:14.01Z</time></trkpt><trkpt lat="42.41407791713965" lon="14.246950062853823"><ele>99.33333333333333</ele><time>2026-03-30T08:13:15.01Z</time></trkpt><trkpt lat="42.41415417159249" lon="14.246956863730487"><ele>96.0</ele><time>2026-03-30T08:13:16.01Z</time></trkpt><trkpt lat="42.41423930589818" lon="14.24696070700452"><ele>96.0</ele><time>2026-03-30T08:13:17.01Z</time></trkpt><trkpt lat="42.41434067638498" lon="14.246939964099363"><ele>96.0</ele><time>2026-03-30T08:13:18.01Z</time></trkpt><trkpt lat="42.4144424769388" lon="14.24689460345432"><ele>96.0</ele><time>2026-03-30T08:13:19.01Z</time></trkpt><trkpt lat="42.41452415729366" lon="14.246862496160885"><ele>96.0</ele><time>2026-03-30T08:13:20.01Z</time></trkpt><trkpt lat="42.414597729229456" lon="14.246832852338809"><ele>96.0</ele><time>2026-03-30T08:13:21.01Z</time></trkpt><trkpt lat="42.41466817572396" lon="14.246812279670145"><ele>96.0</ele><time>2026-03-30T08:13:22.01Z</time></trkpt><trkpt lat="42.414741874871396" lon="14.246784549984849"><ele>93.57142857142857</ele><time>2026-03-30T08:13:23.01Z</time></trkpt><trkpt lat="42.414820968114725" lon="14.24676047398848"><ele>91.14285714285714</ele><time>2026-03-30T08:13:24.01Z</time></trkpt><trkpt lat="42.414895214764584" lon="14.24673917803234"><ele>88.71428571428572</ele><time>2026-03-30T08:13:25.01Z</time></trkpt><trkpt lat="42.41496693378715" lon="14.246716627439056"><ele>86.28571428571428</ele><time>2026-03-30T08:13:26.01Z</time></trkpt><trkpt lat="42.41503114048528" lon="14.246702452986762"><ele>83.85714285714286</ele><time>2026-03-30T08:13:27.011Z</time></trkpt><trkpt lat="42.41509356154561" lon="14.246688837676823"><ele>81.42857142857143</ele><time>2026-03-30T08:13:28.011Z</time></trkpt><trkpt lat="42.415172344153845" lon="14.24667158108916"><ele>79.0</ele><time>2026-03-30T08:13:30.011Z</time></trkpt><trkpt lat="42.415278990979395" lon="14.246640773580568"><ele>79.0</ele><time>2026-03-30T08:13:32.01Z</time></trkpt><trkpt lat="42.41534212612452" lon="14.246631739114633"><ele>79.0</ele><time>2026-03-30T08:13:33.009Z</time></trkpt><trkpt lat="42.41540734720939" lon="14.246612094888443"><ele>79.0</ele><time>2026-03-30T08:13:34.009Z</time></trkpt><trkpt lat="42.415474271666724" lon="14.246598188260021"><ele>79.0</ele><time>2026-03-30T08:13:35.01Z</time></trkpt><trkpt lat="42.41553935454366" lon="14.246578612721848"><ele>79.0</ele><time>2026-03-30T08:13:36.009Z</time></trkpt><trkpt lat="42.41560333248781" lon="14.246568687221098"><ele>79.0</ele><time>2026-03-30T08:13:37.009Z</time></trkpt><trkpt lat="42.41572606656471" lon="14.24654268317058"><ele>74.4</ele><time>2026-03-30T08:13:39.009Z</time></trkpt><trkpt lat="42.415814117129834" lon="14.246513163445904"><ele>69.80000000000001</ele><time>2026-03-30T08:13:41.009Z</time></trkpt><trkpt lat="42.415920544383916" lon="14.246483977800084"><ele>65.19999999999999</ele><time>2026-03-30T08:13:43.009Z</time></trkpt><trkpt lat="42.41602682461772" lon="14.246459432237009"><ele>60.599999999999994</ele><time>2026-03-30T08:13:45.009Z</time></trkpt><trkpt lat="42.41611160692107" lon="14.24642450982748"><ele>56.0</ele><time>2026-03-30T08:13:47.009Z</time></trkpt><trkpt lat="42.416188048804855" lon="14.246461558601307"><ele>56.0</ele><time>2026-03-30T08:13:51.009Z</time></trkpt><trkpt lat="42.416211131455725" lon="14.246598202959216"><ele>55.99999999999999</ele><time>2026-03-30T08:13:54.009Z</time></trkpt><trkpt lat="42.416214549786304" lon="14.246683484959942"><ele>55.99999999999999</ele><time>2026-03-30T08:13:55.009Z</time></trkpt><trkpt lat="42.416226703273324" lon="14.246774729662542"><ele>56.0</ele><time>2026-03-30T08:13:56.009Z</time></trkpt><trkpt lat="42.416263077962476" lon="14.246918364951965"><ele>56.0</ele><time>2026-03-30T08:13:58.009Z</time></trkpt><trkpt lat="42.41628224811158" lon="14.247058672708702"><ele>56.00000000000001</ele><time>2026-03-30T08:14:08.01Z</time></trkpt><trkpt lat="42.41627854325602" lon="14.247218643485814"><ele>56.0</ele><time>2026-03-30T08:14:10.01Z</time></trkpt><trkpt lat="42.41627519238887" lon="14.24731558157558"><ele>56.0</ele><time>2026-03-30T08:14:11.01Z</time></trkpt><trkpt lat="42.41627243041238" lon="14.24741450623028"><ele>56.0</ele><time>2026-03-30T08:14:12.01Z</time></trkpt><trkpt lat="42.41626662778041" lon="14.247529575619705"><ele>56.00000000000001</ele><time>2026-03-30T08:14:13.01Z</time></trkpt><trkpt lat="42.41627052104982" lon="14.247632029158012"><ele>56.0</ele><time>2026-03-30T08:14:14.01Z</time></trkpt><trkpt lat="42.41627066639629" lon="14.24774020900157"><ele>56.16666666666667</ele><time>2026-03-30T08:14:15.01Z</time></trkpt><trkpt lat="42.41627276215034" lon="14.247834082627124"><ele>56.333333333333336</ele><time>2026-03-30T08:14:16.01Z</time></trkpt><trkpt lat="42.41628422006317" lon="14.247927331411988"><ele>56.5</ele><time>2026-03-30T08:14:18.01Z</time></trkpt><trkpt lat="42.416344611073455" lon="14.247984343544974"><ele>56.66666666666667</ele><time>2026-03-30T08:14:22.01Z</time></trkpt><trkpt lat="42.416421244114005" lon="14.247896599606372"><ele>56.833333333333336</ele><time>2026-03-30T08:14:28.01Z</time></trkpt><trkpt lat="42.41648825607926" lon="14.247793228997665"><ele>57.0</ele><time>2026-03-30T08:14:30.01Z</time></trkpt><trkpt lat="42.41660624636259" lon="14.24778755415712"><ele>54.2</ele><time>2026-03-30T08:14:33.01Z</time></trkpt><trkpt lat="42.41672149294293" lon="14.247800827994805"><ele>51.400000000000006</ele><time>2026-03-30T08:14:35.01Z</time></trkpt><trkpt lat="42.41680640795763" lon="14.247831951424098"><ele>48.599999999999994</ele><time>2026-03-30T08:14:36.01Z</time></trkpt><trkpt lat="42.41691022579273" lon="14.247864767598474"><ele>45.8</ele><time>2026-03-30T08:14:37.01Z</time></trkpt><trkpt lat="42.41701128577995" lon="14.247888237826427"><ele>43.0</ele><time>2026-03-30T08:14:38.01Z</time></trkpt><trkpt lat="42.41708991423792" lon="14.2479085966176"><ele>45.2</ele><time>2026-03-30T08:14:39.01Z</time></trkpt><trkpt lat="42.41719912628734" lon="14.247947272772464"><ele>47.4</ele><time>2026-03-30T08:14:41.01Z</time></trkpt><trkpt lat="42.417291959062275" lon="14.247967513891304"><ele>49.60000000000001</ele><time>2026-03-30T08:14:43.01Z</time></trkpt><trkpt lat="42.417412841914555" lon="14.247983391322993"><ele>51.800000000000004</ele><time>2026-03-30T08:14:45.01Z</time></trkpt><trkpt lat="42.41748008548654" lon="14.247983357409748"><ele>54.0</ele><time>2026-03-30T08:14:47.01Z</time></trkpt><trkpt lat="42.4175599286978" lon="14.24792012313692"><ele>54.0</ele><time>2026-03-30T08:14:49.01Z</time></trkpt><trkpt lat="42.417532113384254" lon="14.247833050533552"><ele>54.0</ele><time>2026-03-30T08:14:51.01Z</time></trkpt><trkpt lat="42.417488591241856" lon="14.24792283802658"><ele>54.0</ele><time>2026-03-30T08:14:57.01Z</time></trkpt><trkpt lat="42.41743643914632" lon="14.248008445514595"><ele>54.0</ele><time>2026-03-30T08:14:59.01Z</time></trkpt><trkpt lat="42.41736228764754" lon="14.247976003699375"><ele>54.0</ele><time>2026-03-30T08:15:02.01Z</time></trkpt><trkpt lat="42.41728231925684" lon="14.247980027817894"><ele>54.0</ele><time>2026-03-30T08:15:05.01Z</time></trkpt><trkpt lat="42.417168945670895" lon="14.247940614160555"><ele>51.25</ele><time>2026-03-30T08:15:08.01Z</time></trkpt><trkpt lat="42.41703425061188" lon="14.247906908408833"><ele>48.5</ele><time>2026-03-30T08:15:10.01Z</time></trkpt><trkpt lat="42.41695464863084" lon="14.24787484864856"><ele>45.75</ele><time>2026-03-30T08:15:11.01Z</time></trkpt><trkpt lat="42.41683944153554" lon="14.24784221502204"><ele>43.0</ele><time>2026-03-30T08:15:13.01Z</time></trkpt><trkpt lat="42.416727460734975" lon="14.247796660355597"><ele>43.0</ele><time>2026-03-30T08:15:15.01Z</time></trkpt><trkpt lat="42.41662242200917" lon="14.24778277389364"><ele>43.0</ele><time>2026-03-30T08:15:17.01Z</time></trkpt><trkpt lat="42.41655244538404" lon="14.247786646798675"><ele>43.0</ele><time>2026-03-30T08:15:18.01Z</time></trkpt><trkpt lat="42.416475218667095" lon="14.247854386451305"><ele>43.0</ele><time>2026-03-30T08:15:20.011Z</time></trkpt><trkpt lat="42.41642252851206" lon="14.24794637096456"><ele>43.0</ele><time>2026-03-30T08:15:21.011Z</time></trkpt><trkpt lat="42.416363047597" lon="14.248052768350112"><ele>45.2</ele><time>2026-03-30T08:15:22.011Z</time></trkpt><trkpt lat="42.41628502182075" lon="14.248151365530594"><ele>47.4</ele><time>2026-03-30T08:15:23.011Z</time></trkpt><trkpt lat="42.416202167587215" lon="14.248253385751795"><ele>49.60000000000001</ele><time>2026-03-30T08:15:24.011Z</time></trkpt><trkpt lat="42.41613500547758" lon="14.248333934673731"><ele>51.800000000000004</ele><time>2026-03-30T08:15:25.011Z</time></trkpt><trkpt lat="42.41606254507445" lon="14.248423583523431"><ele>54.0</ele><time>2026-03-30T08:15:26.011Z</time></trkpt><trkpt lat="42.41600395346536" lon="14.24850987353197"><ele>54.0</ele><time>2026-03-30T08:15:27.011Z</time></trkpt><trkpt lat="42.41595094636161" lon="14.248566392643841"><ele>54.0</ele><time>2026-03-30T08:15:28.011Z</time></trkpt><trkpt lat="42.41589476276303" lon="14.248635017520655"><ele>54.0</ele><time>2026-03-30T08:15:29.011Z</time></trkpt><trkpt lat="42.415818223257496" lon="14.248714996382303"><ele>54.0</ele><time>2026-03-30T08:15:30.011Z</time></trkpt><trkpt lat="42.41573833127374" lon="14.248791548499806"><ele>54.0</ele><time>2026-03-30T08:15:31.011Z</time></trkpt><trkpt lat="42.415654369213435" lon="14.24887393861584"><ele>54.0</ele><time>2026-03-30T08:15:32.011Z</time></trkpt><trkpt lat="42.415573829454864" lon="14.248949017396484"><ele>59.5</ele><time>2026-03-30T08:15:33.011Z</time></trkpt><trkpt lat="42.415478097516875" lon="14.249053899376285"><ele>65.0</ele><time>2026-03-30T08:15:34.011Z</time></trkpt><trkpt lat="42.41538865560709" lon="14.249166973818618"><ele>70.5</ele><time>2026-03-30T08:15:35.011Z</time></trkpt><trkpt lat="42.41532205602459" lon="14.249296061307588"><ele>76.0</ele><time>2026-03-30T08:15:36.011Z</time></trkpt><trkpt lat="42.41527813544534" lon="14.249402909180855"><ele>76.0</ele><time>2026-03-30T08:15:37.011Z</time></trkpt><trkpt lat="42.41522027764789" lon="14.249499967850086"><ele>76.0</ele><time>2026-03-30T08:15:38.009Z</time></trkpt><trkpt lat="42.415163857565965" lon="14.249566196067903"><ele>76.0</ele><time>2026-03-30T08:15:39.009Z</time></trkpt><trkpt lat="42.41508902166982" lon="14.249631672313821"><ele>76.0</ele><time>2026-03-30T08:15:40.009Z</time></trkpt><trkpt lat="42.415014457843725" lon="14.24971154413206"><ele>76.0</ele><time>2026-03-30T08:15:41.009Z</time></trkpt><trkpt lat="42.414925615273084" lon="14.249773161178993"><ele>74.2</ele><time>2026-03-30T08:15:42.008Z</time></trkpt><trkpt lat="42.41483670762626" lon="14.249835815590636"><ele>72.39999999999999</ele><time>2026-03-30T08:15:43.008Z</time></trkpt><trkpt lat="42.41475584001258" lon="14.249906912124306"><ele>70.6</ele><time>2026-03-30T08:15:44.009Z</time></trkpt><trkpt lat="42.41467268965775" lon="14.24998667020365"><ele>68.8</ele><time>2026-03-30T08:15:45.009Z</time></trkpt><trkpt lat="42.41456655741619" lon="14.250069983322405"><ele>67.0</ele><time>2026-03-30T08:15:46.009Z</time></trkpt><trkpt lat="42.41447901420734" lon="14.250159277211546"><ele>70.8</ele><time>2026-03-30T08:15:47.009Z</time></trkpt><trkpt lat="42.414411680170716" lon="14.250235359013509"><ele>74.6</ele><time>2026-03-30T08:15:48.009Z</time></trkpt><trkpt lat="42.41435254843762" lon="14.250286978953845"><ele>78.39999999999999</ele><time>2026-03-30T08:15:49.009Z</time></trkpt><trkpt lat="42.41424204011139" lon="14.250263329761204"><ele>82.2</ele><time>2026-03-30T08:15:51.009Z</time></trkpt><trkpt lat="42.41419773900236" lon="14.250169264889779"><ele>86.0</ele><time>2026-03-30T08:15:52.009Z</time></trkpt><trkpt lat="42.41413610234083" lon="14.250034385114748"><ele>86.0</ele><time>2026-03-30T08:15:53.009Z</time></trkpt><trkpt lat="42.414056557485964" lon="14.249919583559"><ele>86.0</ele><time>2026-03-30T08:15:54.009Z</time></trkpt><trkpt lat="42.41397236673036" lon="14.249859379427074"><ele>86.0</ele><time>2026-03-30T08:15:55.009Z</time></trkpt><trkpt lat="42.413889503787516" lon="14.249802436599149"><ele>86.0</ele><time>2026-03-30T08:15:56.009Z</time></trkpt><trkpt lat="42.41379724839152" lon="14.249761098213472"><ele>86.0</ele><time>2026-03-30T08:15:57.009Z</time></trkpt><trkpt lat="42.4137231756744" lon="14.249749747562802"><ele>86.6</ele><time>2026-03-30T08:15:58.009Z</time></trkpt><trkpt lat="42.41364643127535" lon="14.249755927959598"><ele>87.19999999999999</ele><time>2026-03-30T08:15:59.009Z</time></trkpt><trkpt lat="42.413557998305976" lon="14.249760194428069"><ele>87.80000000000001</ele><time>2026-03-30T08:16:00.009Z</time></trkpt><trkpt lat="42.41348612865238" lon="14.249772073380035"><ele>88.4</ele><time>2026-03-30T08:16:01.009Z</time></trkpt><trkpt lat="42.413357658743905" lon="14.249816673848105"><ele>89.0</ele><time>2026-03-30T08:16:03.009Z</time></trkpt><trkpt lat="42.41327831002017" lon="14.249856581871105"><ele>89.0</ele><time>2026-03-30T08:16:05.009Z</time></trkpt><trkpt lat="42.413209440562426" lon="14.249898581318243"><ele>89.0</ele><time>2026-03-30T08:16:09.009Z</time></trkpt><trkpt lat="42.413193886831934" lon="14.250086320023858"><ele>89.0</ele><time>2026-03-30T08:16:12.009Z</time></trkpt><trkpt lat="42.41321157623209" lon="14.250250689295724"><ele>89.0</ele><time>2026-03-30T08:16:13.009Z</time></trkpt><trkpt lat="42.41322445586099" lon="14.250418937240685"><ele>89.0</ele><time>2026-03-30T08:16:14.009Z</time></trkpt><trkpt lat="42.41323226611504" lon="14.250588735681315"><ele>89.0</ele><time>2026-03-30T08:16:15.009Z</time></trkpt><trkpt lat="42.413230774894494" lon="14.250735044436377"><ele>89.0</ele><time>2026-03-30T08:16:16.009Z</time></trkpt><trkpt lat="42.413227306220925" lon="14.250869988675653"><ele>89.0</ele><time>2026-03-30T08:16:17.009Z</time></trkpt><trkpt lat="42.4132152723895" lon="14.251005744089706"><ele>89.0</ele><time>2026-03-30T08:16:18.009Z</time></trkpt><trkpt lat="42.413217424318326" lon="14.251128051135732"><ele>87.2</ele><time>2026-03-30T08:16:19.009Z</time></trkpt><trkpt lat="42.41322623828399" lon="14.251252974060767"><ele>85.4</ele><time>2026-03-30T08:16:20.009Z</time></trkpt><trkpt lat="42.41324462800114" lon="14.25138032073299"><ele>83.6</ele><time>2026-03-30T08:16:21.009Z</time></trkpt><trkpt lat="42.413260766243475" lon="14.25150362923773"><ele>81.8</ele><time>2026-03-30T08:16:22.009Z</time></trkpt><trkpt lat="42.413263856982475" lon="14.251624776842398"><ele>80.0</ele><time>2026-03-30T08:16:23.009Z</time></trkpt><trkpt lat="42.413247708545214" lon="14.251746343067785"><ele>78.5</ele><time>2026-03-30T08:16:24.009Z</time></trkpt><trkpt lat="42.41325588660618" lon="14.251848172027742"><ele>77.0</ele><time>2026-03-30T08:16:25.009Z</time></trkpt><trkpt lat="42.413291311992225" lon="14.251997228950472"><ele>75.5</ele><time>2026-03-30T08:16:27.009Z</time></trkpt><trkpt lat="42.41329070322935" lon="14.252089006004796"><ele>74.0</ele><time>2026-03-30T08:16:30.009Z</time></trkpt><trkpt lat="42.4133640476047" lon="14.252162565415441"><ele>72.5</ele><time>2026-03-30T08:16:33.009Z</time></trkpt><trkpt lat="42.41337520218408" lon="14.25225620987308"><ele>71.0</ele><time>2026-03-30T08:16:35.009Z</time></trkpt><trkpt lat="42.41332093079609" lon="14.252404673006994"><ele>68.39999999999999</ele><time>2026-03-30T08:16:37.009Z</time></trkpt><trkpt lat="42.41340547571017" lon="14.252503112472827"><ele>65.8</ele><time>2026-03-30T08:16:39.009Z</time></trkpt><trkpt lat="42.41344887435102" lon="14.252578449133019"><ele>63.199999999999996</ele><time>2026-03-30T08:16:40.009Z</time></trkpt><trkpt lat="42.41347869054254" lon="14.252715832755035"><ele>60.599999999999994</ele><time>2026-03-30T08:16:42.009Z</time></trkpt><trkpt lat="42.413495985578614" lon="14.252856999529193"><ele>58.0</ele><time>2026-03-30T08:16:44.009Z</time></trkpt><trkpt lat="42.41352492717609" lon="14.25294490964609"><ele>57.99999999999999</ele><time>2026-03-30T08:16:45.009Z</time></trkpt><trkpt lat="42.41354606601888" lon="14.253094072969896"><ele>58.0</ele><time>2026-03-30T08:16:47.01Z</time></trkpt><trkpt lat="42.41356216185133" lon="14.253231713493479"><ele>58.0</ele><time>2026-03-30T08:16:49.009Z</time></trkpt><trkpt lat="42.41356446003424" lon="14.253322544442788"><ele>58.0</ele><time>2026-03-30T08:16:51.009Z</time></trkpt><trkpt lat="42.413555145670806" lon="14.253458939140906"><ele>57.99999999999999</ele><time>2026-03-30T08:16:53.008Z</time></trkpt><trkpt lat="42.41351908114681" lon="14.253530267700704"><ele>58.0</ele><time>2026-03-30T08:16:55.008Z</time></trkpt><trkpt lat="42.413476927036506" lon="14.253633205906535"><ele>54.8</ele><time>2026-03-30T08:16:57.007Z</time></trkpt><trkpt lat="42.41345325524688" lon="14.253771618359112"><ele>51.599999999999994</ele><time>2026-03-30T08:16:59.007Z</time></trkpt><trkpt lat="42.41348827734752" lon="14.253877932446148"><ele>48.400000000000006</ele><time>2026-03-30T08:17:02.006Z</time></trkpt><trkpt lat="42.41353055296983" lon="14.253989361381516"><ele>45.2</ele><time>2026-03-30T08:17:04.006Z</time></trkpt><trkpt lat="42.413529727281386" lon="14.254122241107689"><ele>42.0</ele><time>2026-03-30T08:17:08.005Z</time></trkpt><trkpt lat="42.4134711541923" lon="14.254212918742295"><ele>39.800000000000004</ele><time>2026-03-30T08:17:09.005Z</time></trkpt><trkpt lat="42.41339081922865" lon="14.254306034721724"><ele>37.6</ele><time>2026-03-30T08:17:10.005Z</time></trkpt><trkpt lat="42.413328309549115" lon="14.25440649060415"><ele>35.400000000000006</ele><time>2026-03-30T08:17:11.005Z</time></trkpt><trkpt lat="42.413275213256775" lon="14.254497614006693"><ele>33.2</ele><time>2026-03-30T08:17:12.005Z</time></trkpt><trkpt lat="42.413228578159895" lon="14.254578902881697"><ele>31.0</ele><time>2026-03-30T08:17:13.005Z</time></trkpt><trkpt lat="42.413161310489855" lon="14.25472348624531"><ele>30.333333333333336</ele><time>2026-03-30T08:17:15.005Z</time></trkpt><trkpt lat="42.413101831079565" lon="14.254851817981724"><ele>29.666666666666668</ele><time>2026-03-30T08:17:17.005Z</time></trkpt><trkpt lat="42.413054084774586" lon="14.254980404663115"><ele>29.0</ele><time>2026-03-30T08:17:19.005Z</time></trkpt><trkpt lat="42.4130231402126" lon="14.255065217393504"><ele>28.333333333333336</ele><time>2026-03-30T08:17:20.004Z</time></trkpt><trkpt lat="42.41298877739776" lon="14.255151082517504"><ele>27.666666666666668</ele><time>2026-03-30T08:17:21.004Z</time></trkpt><trkpt lat="42.41295703186094" lon="14.25522567855611"><ele>27.0</ele><time>2026-03-30T08:17:22.004Z</time></trkpt><trkpt lat="42.412911481840915" lon="14.255358285316685"><ele>29.0</ele><time>2026-03-30T08:17:24.004Z</time></trkpt><trkpt lat="42.41286558369586" lon="14.255491801286837"><ele>31.0</ele><time>2026-03-30T08:17:26.004Z</time></trkpt><trkpt lat="42.41283184059991" lon="14.255569545906848"><ele>33.0</ele><time>2026-03-30T08:17:27.004Z</time></trkpt><trkpt lat="42.41279149647198" lon="14.255677722480542"><ele>35.0</ele><time>2026-03-30T08:17:28.004Z</time></trkpt><trkpt lat="42.4127573143932" lon="14.255785735862418"><ele>37.0</ele><time>2026-03-30T08:17:29.004Z</time></trkpt><trkpt lat="42.412719153704586" lon="14.255896136807685"><ele>39.0</ele><time>2026-03-30T08:17:30.004Z</time></trkpt><trkpt lat="42.41268348650738" lon="14.256013059431314"><ele>39.6</ele><time>2026-03-30T08:17:31.004Z</time></trkpt><trkpt lat="42.41264342225077" lon="14.256131292056386"><ele>40.2</ele><time>2026-03-30T08:17:32.004Z</time></trkpt><trkpt lat="42.41259576487584" lon="14.256256172520573"><ele>40.800000000000004</ele><time>2026-03-30T08:17:33.004Z</time></trkpt><trkpt lat="42.41254777659416" lon="14.256386066807938"><ele>41.4</ele><time>2026-03-30T08:17:34.004Z</time></trkpt><trkpt lat="42.412496658980494" lon="14.25652159252066"><ele>42.0</ele><time>2026-03-30T08:17:35.004Z</time></trkpt><trkpt lat="42.41242694836937" lon="14.256664432368316"><ele>40.0</ele><time>2026-03-30T08:17:36.004Z</time></trkpt><trkpt lat="42.41237579388599" lon="14.25682210659704"><ele>38.0</ele><time>2026-03-30T08:17:37.004Z</time></trkpt><trkpt lat="42.41233552125914" lon="14.25697571532298"><ele>36.0</ele><time>2026-03-30T08:17:38.004Z</time></trkpt><trkpt lat="42.4123108342565" lon="14.25714029399857"><ele>34.0</ele><time>2026-03-30T08:17:39.004Z</time></trkpt><trkpt lat="42.412305761755924" lon="14.257302140119858"><ele>31.5</ele><time>2026-03-30T08:17:40.004Z</time></trkpt><trkpt lat="42.412315114512715" lon="14.257461190357223"><ele>29.0</ele><time>2026-03-30T08:17:41.004Z</time></trkpt><trkpt lat="42.41232762148332" lon="14.25762416220571"><ele>26.5</ele><time>2026-03-30T08:17:42.004Z</time></trkpt><trkpt lat="42.412331568373894" lon="14.257777646988087"><ele>24.0</ele><time>2026-03-30T08:17:43.004Z</time></trkpt><trkpt lat="42.41233955428781" lon="14.257928256492532"><ele>24.0</ele><time>2026-03-30T08:17:44.002Z</time></trkpt><trkpt lat="42.41234818426666" lon="14.258068602734925"><ele>24.0</ele><time>2026-03-30T08:17:45.002Z</time></trkpt><trkpt lat="42.412363206261794" lon="14.258199076338892"><ele>24.0</ele><time>2026-03-30T08:17:46.002Z</time></trkpt><trkpt lat="42.41238350452972" lon="14.258356650730802"><ele>24.0</ele><time>2026-03-30T08:17:47.002Z</time></trkpt><trkpt lat="42.412422813250565" lon="14.258520745407946"><ele>24.0</ele><time>2026-03-30T08:17:48.001Z</time></trkpt><trkpt lat="42.41245263422245" lon="14.258661722613056"><ele>23.6</ele><time>2026-03-30T08:17:49.001Z</time></trkpt><trkpt lat="42.41246717966254" lon="14.258793360881223"><ele>23.2</ele><time>2026-03-30T08:17:50.002Z</time></trkpt><trkpt lat="42.41247966616514" lon="14.258915092364031"><ele>22.8</ele><time>2026-03-30T08:17:51.002Z</time></trkpt><trkpt lat="42.412468477617075" lon="14.25903529931186"><ele>22.400000000000002</ele><time>2026-03-30T08:17:52.002Z</time></trkpt><trkpt lat="42.41244150343313" lon="14.259155480956348"><ele>22.0</ele><time>2026-03-30T08:17:53.002Z</time></trkpt><trkpt lat="42.41242269545036" lon="14.259301192093224"><ele>21.5</ele><time>2026-03-30T08:17:54.001Z</time></trkpt><trkpt lat="42.41241542248601" lon="14.259435919894269"><ele>21.0</ele><time>2026-03-30T08:17:55.001Z</time></trkpt><trkpt lat="42.412406618029934" lon="14.259540539259195"><ele>20.5</ele><time>2026-03-30T08:17:56.002Z</time></trkpt><trkpt lat="42.41240308916662" lon="14.259637464696672"><ele>20.0</ele><time>2026-03-30T08:17:57.001Z</time></trkpt><trkpt lat="42.41239759579699" lon="14.259722815092509"><ele>19.5</ele><time>2026-03-30T08:17:58.001Z</time></trkpt><trkpt lat="42.41239039232055" lon="14.259849133921767"><ele>19.0</ele><time>2026-03-30T08:18:00.001Z</time></trkpt><trkpt lat="42.412261530094376" lon="14.259908121380796"><ele>18.5</ele><time>2026-03-30T08:18:04.001Z</time></trkpt><trkpt lat="42.41215860485037" lon="14.259850587374032"><ele>18.0</ele><time>2026-03-30T08:18:05.001Z</time></trkpt><trkpt lat="42.41202522405761" lon="14.259785118774987"><ele>17.5</ele><time>2026-03-30T08:18:06.001Z</time></trkpt><trkpt lat="42.411890171284945" lon="14.25973154847999"><ele>17.0</ele><time>2026-03-30T08:18:07.001Z</time></trkpt><trkpt lat="42.411758179851" lon="14.259684891291213"><ele>19.0</ele><time>2026-03-30T08:18:08.001Z</time></trkpt><trkpt lat="42.41163327555912" lon="14.259637994709383"><ele>21.0</ele><time>2026-03-30T08:18:09.001Z</time></trkpt><trkpt lat="42.411520436338925" lon="14.25960337049394"><ele>23.0</ele><time>2026-03-30T08:18:10.001Z</time></trkpt><trkpt lat="42.41140931047908" lon="14.259579276789644"><ele>25.0</ele><time>2026-03-30T08:18:11.001Z</time></trkpt><trkpt lat="42.41130322969713" lon="14.259547568805294"><ele>25.75</ele><time>2026-03-30T08:18:12.001Z</time></trkpt><trkpt lat="42.411185952636814" lon="14.259517246787615"><ele>26.5</ele><time>2026-03-30T08:18:13.001Z</time></trkpt><trkpt lat="42.411069033145004" lon="14.259486786198687"><ele>27.25</ele><time>2026-03-30T08:18:14.001Z</time></trkpt><trkpt lat="42.410947944321116" lon="14.259460153143262"><ele>28.0</ele><time>2026-03-30T08:18:15.001Z</time></trkpt><trkpt lat="42.41082651048385" lon="14.25943288995196"><ele>28.000000000000004</ele><time>2026-03-30T08:18:16.001Z</time></trkpt><trkpt lat="42.41072128148802" lon="14.259408103504304"><ele>28.0</ele><time>2026-03-30T08:18:17.001Z</time></trkpt><trkpt lat="42.41063194930587" lon="14.259384507288386"><ele>28.0</ele><time>2026-03-30T08:18:18.001Z</time></trkpt><trkpt lat="42.41056530593636" lon="14.259370521695558"><ele>28.0</ele><time>2026-03-30T08:18:19.001Z</time></trkpt><trkpt lat="42.41048615929765" lon="14.25933030586958"><ele>28.000000000000004</ele><time>2026-03-30T08:18:21.001Z</time></trkpt><trkpt lat="42.41042347491044" lon="14.259358314710076"><ele>28.0</ele><time>2026-03-30T08:18:26.001Z</time></trkpt><trkpt lat="42.41035836700311" lon="14.259798455097632"><ele>25.0</ele><time>2026-03-30T08:18:27.001Z</time></trkpt></trkseg><trkseg><trkpt lat="42.41039178747281" lon="14.259874267421319"><ele>25.000000000000004</ele><time>2026-03-30T08:30:53.002Z</time></trkpt><trkpt lat="42.41042314683987" lon="14.259797359972493"><ele>25.0</ele><time>2026-03-30T08:30:54.002Z</time></trkpt><trkpt lat="42.41044359756465" lon="14.259701335735324"><ele>25.0</ele><time>2026-03-30T08:30:55.002Z</time></trkpt><trkpt lat="42.41046433728952" lon="14.259571995183794"><ele>25.0</ele><time>2026-03-30T08:30:57.002Z</time></trkpt><trkpt lat="42.41041869510151" lon="14.2595092908031"><ele>25.000000000000004</ele><time>2026-03-30T08:30:58.002Z</time></trkpt><trkpt lat="42.41043034256097" lon="14.259411142177067"><ele>25.0</ele><time>2026-03-30T08:31:01.002Z</time></trkpt><trkpt lat="42.41055914228335" lon="14.259431249804253"><ele>25.75</ele><time>2026-03-30T08:31:12.002Z</time></trkpt><trkpt lat="42.410650413162095" lon="14.259464952990697"><ele>26.5</ele><time>2026-03-30T08:31:13.002Z</time></trkpt><trkpt lat="42.41075545764776" lon="14.259494764364687"><ele>27.25</ele><time>2026-03-30T08:31:14.002Z</time></trkpt><trkpt lat="42.41089708377993" lon="14.259532560245827"><ele>28.0</ele><time>2026-03-30T08:31:15.002Z</time></trkpt><trkpt lat="42.41103676215488" lon="14.259569815380296"><ele>28.0</ele><time>2026-03-30T08:31:16.002Z</time></trkpt><trkpt lat="42.411159948126446" lon="14.259600641853275"><ele>28.0</ele><time>2026-03-30T08:31:17.002Z</time></trkpt><trkpt lat="42.41127298126962" lon="14.259633627955875"><ele>28.0</ele><time>2026-03-30T08:31:18.002Z</time></trkpt><trkpt lat="42.41138517036675" lon="14.259666286650825"><ele>28.0</ele><time>2026-03-30T08:31:19.002Z</time></trkpt><trkpt lat="42.41149794261149" lon="14.259700868266533"><ele>27.25</ele><time>2026-03-30T08:31:20.002Z</time></trkpt><trkpt lat="42.41161213406056" lon="14.25973908017526"><ele>26.5</ele><time>2026-03-30T08:31:21.002Z</time></trkpt><trkpt lat="42.41173043067503" lon="14.259769736144365"><ele>25.75</ele><time>2026-03-30T08:31:22.002Z</time></trkpt><trkpt lat="42.41184178077912" lon="14.259803974283766"><ele>25.0</ele><time>2026-03-30T08:31:23.002Z</time></trkpt><trkpt lat="42.41194597912886" lon="14.259844480140837"><ele>23.666666666666668</ele><time>2026-03-30T08:31:24.002Z</time></trkpt><trkpt lat="42.41204733387433" lon="14.259879326459467"><ele>22.333333333333336</ele><time>2026-03-30T08:31:25.002Z</time></trkpt><trkpt lat="42.412129177499935" lon="14.25991537931502"><ele>21.0</ele><time>2026-03-30T08:31:26.002Z</time></trkpt><trkpt lat="42.41220948260469" lon="14.259951702952646"><ele>19.666666666666668</ele><time>2026-03-30T08:31:27.002Z</time></trkpt><trkpt lat="42.4122726821303" lon="14.259981766715056"><ele>18.333333333333336</ele><time>2026-03-30T08:31:28.002Z</time></trkpt><trkpt lat="42.412358202718295" lon="14.259992409384582"><ele>17.0</ele><time>2026-03-30T08:31:30.002Z</time></trkpt><trkpt lat="42.41244395092666" lon="14.259846745335881"><ele>17.5</ele><time>2026-03-30T08:31:32.002Z</time></trkpt><trkpt lat="42.41244869777616" lon="14.259703426455435"><ele>18.0</ele><time>2026-03-30T08:31:33.002Z</time></trkpt><trkpt lat="42.41243934887371" lon="14.259472984979432"><ele>18.5</ele><time>2026-03-30T08:31:34.002Z</time></trkpt><trkpt lat="42.41246296103006" lon="14.259285138901179"><ele>19.0</ele><time>2026-03-30T08:31:35.002Z</time></trkpt><trkpt lat="42.412481945912155" lon="14.259106149231927"><ele>19.0</ele><time>2026-03-30T08:31:36.002Z</time></trkpt><trkpt lat="42.41249193334715" lon="14.258956244246823"><ele>19.0</ele><time>2026-03-30T08:31:37.002Z</time></trkpt><trkpt lat="42.4125025458143" lon="14.25883706335424"><ele>19.0</ele><time>2026-03-30T08:31:38.002Z</time></trkpt><trkpt lat="42.41250280074255" lon="14.25873894113179"><ele>19.0</ele><time>2026-03-30T08:31:39.002Z</time></trkpt><trkpt lat="42.41249140888567" lon="14.258640699390332"><ele>19.0</ele><time>2026-03-30T08:31:40.002Z</time></trkpt><trkpt lat="42.41247452328676" lon="14.258531371253207"><ele>19.0</ele><time>2026-03-30T08:31:41.002Z</time></trkpt><trkpt lat="42.41245778525303" lon="14.258430853734675"><ele>19.5</ele><time>2026-03-30T08:31:42.002Z</time></trkpt><trkpt lat="42.412430606064966" lon="14.25832333917086"><ele>20.0</ele><time>2026-03-30T08:31:43.002Z</time></trkpt><trkpt lat="42.41241159295061" lon="14.258206625151209"><ele>20.5</ele><time>2026-03-30T08:31:44.002Z</time></trkpt><trkpt lat="42.412393424279365" lon="14.258080947962183"><ele>21.0</ele><time>2026-03-30T08:31:45.002Z</time></trkpt><trkpt lat="42.41238380975922" lon="14.25796334784295"><ele>21.5</ele><time>2026-03-30T08:31:46.002Z</time></trkpt><trkpt lat="42.41237153640067" lon="14.257846274957483"><ele>22.0</ele><time>2026-03-30T08:31:47.002Z</time></trkpt><trkpt lat="42.412365332165706" lon="14.257725489147498"><ele>22.333333333333332</ele><time>2026-03-30T08:31:48.002Z</time></trkpt><trkpt lat="42.41236086499906" lon="14.257617685192534"><ele>22.666666666666664</ele><time>2026-03-30T08:31:49.002Z</time></trkpt><trkpt lat="42.4123576158517" lon="14.257499029097476"><ele>23.0</ele><time>2026-03-30T08:31:50.002Z</time></trkpt><trkpt lat="42.41235927266021" lon="14.257377796182963"><ele>23.333333333333332</ele><time>2026-03-30T08:31:51.002Z</time></trkpt><trkpt lat="42.412356797263655" lon="14.257253770992854"><ele>23.666666666666668</ele><time>2026-03-30T08:31:52.002Z</time></trkpt><trkpt lat="42.41236507014495" lon="14.257119774531924"><ele>24.0</ele><time>2026-03-30T08:31:53.002Z</time></trkpt><trkpt lat="42.41238813150462" lon="14.256991016331225"><ele>26.0</ele><time>2026-03-30T08:31:54.002Z</time></trkpt><trkpt lat="42.41241871206081" lon="14.256865878464673"><ele>28.0</ele><time>2026-03-30T08:31:55.002Z</time></trkpt><trkpt lat="42.41245123606472" lon="14.2567439957556"><ele>30.0</ele><time>2026-03-30T08:31:56.002Z</time></trkpt><trkpt lat="42.41249086542052" lon="14.256616149163726"><ele>32.0</ele><time>2026-03-30T08:31:57.002Z</time></trkpt><trkpt lat="42.41253869790392" lon="14.256497162557663"><ele>34.0</ele><time>2026-03-30T08:31:58.001Z</time></trkpt><trkpt lat="42.41258804293503" lon="14.256377933597046"><ele>35.6</ele><time>2026-03-30T08:31:59Z</time></trkpt><trkpt lat="42.41263832781823" lon="14.256258625163989"><ele>37.2</ele><time>2026-03-30T08:32:00Z</time></trkpt><trkpt lat="42.412685159545845" lon="14.25613501463122"><ele>38.800000000000004</ele><time>2026-03-30T08:32:01.001Z</time></trkpt><trkpt lat="42.41272909578474" lon="14.256008234846272"><ele>40.4</ele><time>2026-03-30T08:32:02.001Z</time></trkpt><trkpt lat="42.412769150605996" lon="14.255879797324807"><ele>42.0</ele><time>2026-03-30T08:32:03.001Z</time></trkpt><trkpt lat="42.412808972264614" lon="14.255768081823843"><ele>42.0</ele><time>2026-03-30T08:32:04.001Z</time></trkpt><trkpt lat="42.41284885493952" lon="14.255654982116715"><ele>42.0</ele><time>2026-03-30T08:32:05.001Z</time></trkpt><trkpt lat="42.41288324247462" lon="14.255546876387884"><ele>42.0</ele><time>2026-03-30T08:32:06.001Z</time></trkpt><trkpt lat="42.41292092094348" lon="14.255440370957011"><ele>42.0</ele><time>2026-03-30T08:32:07.001Z</time></trkpt><trkpt lat="42.41295757941604" lon="14.255334219552742"><ele>42.0</ele><time>2026-03-30T08:32:08Z</time></trkpt><trkpt lat="42.41299314168882" lon="14.255230045017438"><ele>42.0</ele><time>2026-03-30T08:32:09Z</time></trkpt><trkpt lat="42.41302754239778" lon="14.255132673914646"><ele>40.166666666666664</ele><time>2026-03-30T08:32:10.001Z</time></trkpt><trkpt lat="42.41306559360843" lon="14.25504394389253"><ele>38.333333333333336</ele><time>2026-03-30T08:32:11Z</time></trkpt><trkpt lat="42.413098452907754" lon="14.25496980242586"><ele>36.5</ele><time>2026-03-30T08:32:12Z</time></trkpt><trkpt lat="42.41312897817876" lon="14.254882849461984"><ele>34.66666666666667</ele><time>2026-03-30T08:32:15Z</time></trkpt><trkpt lat="42.41316156098248" lon="14.25479569044825"><ele>32.833333333333336</ele><time>2026-03-30T08:32:18Z</time></trkpt><trkpt lat="42.41322175097573" lon="14.25468419932488"><ele>31.0</ele><time>2026-03-30T08:32:20Z</time></trkpt><trkpt lat="42.41324800087403" lon="14.254591103862971"><ele>37.0</ele><time>2026-03-30T08:32:22Z</time></trkpt><trkpt lat="42.41288936845969" lon="14.254201124327624"><ele>37.0</ele><time>2026-03-30T08:32:23Z</time></trkpt><trkpt lat="42.4128263834295" lon="14.254117175356193"><ele>37.0</ele><time>2026-03-30T08:32:24Z</time></trkpt><trkpt lat="42.41276713741615" lon="14.254032951070963"><ele>37.0</ele><time>2026-03-30T08:32:25Z</time></trkpt><trkpt lat="42.41271705565637" lon="14.253949149127973"><ele>37.0</ele><time>2026-03-30T08:32:26Z</time></trkpt><trkpt lat="42.412683266855595" lon="14.253835918360124"><ele>37.0</ele><time>2026-03-30T08:32:27Z</time></trkpt><trkpt lat="42.41264052687472" lon="14.253713053527447"><ele>37.0</ele><time>2026-03-30T08:32:28Z</time></trkpt><trkpt lat="42.41258973035815" lon="14.25359770825895"><ele>37.333333333333336</ele><time>2026-03-30T08:32:29Z</time></trkpt><trkpt lat="42.412525094980694" lon="14.25349008200892"><ele>37.66666666666667</ele><time>2026-03-30T08:32:30Z</time></trkpt><trkpt lat="42.41248009553811" lon="14.253398490311108"><ele>38.0</ele><time>2026-03-30T08:32:31Z</time></trkpt><trkpt lat="42.41244144188261" lon="14.253330952385738"><ele>38.333333333333336</ele><time>2026-03-30T08:32:32Z</time></trkpt><trkpt lat="42.41238813590356" lon="14.253244120986016"><ele>38.666666666666664</ele><time>2026-03-30T08:32:34Z</time></trkpt><trkpt lat="42.412352070635784" lon="14.253171841390671"><ele>39.0</ele><time>2026-03-30T08:32:36Z</time></trkpt><trkpt lat="42.41229326937347" lon="14.253093575206035"><ele>40.8</ele><time>2026-03-30T08:32:39.001Z</time></trkpt><trkpt lat="42.41223468456887" lon="14.253041369379208"><ele>42.599999999999994</ele><time>2026-03-30T08:32:41.001Z</time></trkpt><trkpt lat="42.41212115708765" lon="14.253036165010785"><ele>44.4</ele><time>2026-03-30T08:32:43.001Z</time></trkpt><trkpt lat="42.41204811191567" lon="14.25301093379771"><ele>46.199999999999996</ele><time>2026-03-30T08:32:44.001Z</time></trkpt><trkpt lat="42.411967623222836" lon="14.252950873064414"><ele>48.0</ele><time>2026-03-30T08:32:45.001Z</time></trkpt><trkpt lat="42.411916329097295" lon="14.252832166627448"><ele>48.0</ele><time>2026-03-30T08:32:46.001Z</time></trkpt><trkpt lat="42.411879338656426" lon="14.252669163526381"><ele>48.0</ele><time>2026-03-30T08:32:47.001Z</time></trkpt><trkpt lat="42.41183045460787" lon="14.252524967365254"><ele>48.0</ele><time>2026-03-30T08:32:48.001Z</time></trkpt><trkpt lat="42.41176598726299" lon="14.252386741704694"><ele>48.0</ele><time>2026-03-30T08:32:49.001Z</time></trkpt><trkpt lat="42.41170915427711" lon="14.2522658178045"><ele>47.5</ele><time>2026-03-30T08:32:50.001Z</time></trkpt><trkpt lat="42.411670742580576" lon="14.252168615942434"><ele>47.0</ele><time>2026-03-30T08:32:52.001Z</time></trkpt><trkpt lat="42.41162947940465" lon="14.252088758369547"><ele>46.5</ele><time>2026-03-30T08:32:54.001Z</time></trkpt><trkpt lat="42.41159506246583" lon="14.251982581530195"><ele>46.0</ele><time>2026-03-30T08:32:56.001Z</time></trkpt><trkpt lat="42.411697761555075" lon="14.251952911547468"><ele>45.5</ele><time>2026-03-30T08:33:17.001Z</time></trkpt><trkpt lat="42.411782236519166" lon="14.251911075865117"><ele>45.0</ele><time>2026-03-30T08:33:19.001Z</time></trkpt><trkpt lat="42.41183787279871" lon="14.251864959387802"><ele>45.0</ele><time>2026-03-30T08:33:22.001Z</time></trkpt><trkpt lat="42.411948335431084" lon="14.251806119139134"><ele>45.0</ele><time>2026-03-30T08:33:25.001Z</time></trkpt><trkpt lat="42.41205004916215" lon="14.25174772901955"><ele>45.0</ele><time>2026-03-30T08:33:27.001Z</time></trkpt><trkpt lat="42.41212553780291" lon="14.251698683782154"><ele>45.0</ele><time>2026-03-30T08:33:29.001Z</time></trkpt><trkpt lat="42.4121800055076" lon="14.251584769545616"><ele>45.0</ele><time>2026-03-30T08:33:32.001Z</time></trkpt><trkpt lat="42.41218914572952" lon="14.25149889536827"><ele>48.5</ele><time>2026-03-30T08:33:33.001Z</time></trkpt><trkpt lat="42.41220505299107" lon="14.251397983150317"><ele>52.0</ele><time>2026-03-30T08:33:34.001Z</time></trkpt><trkpt lat="42.41221374667289" lon="14.25130032244026"><ele>55.5</ele><time>2026-03-30T08:33:35.001Z</time></trkpt><trkpt lat="42.41222682362907" lon="14.251163690118187"><ele>59.0</ele><time>2026-03-30T08:33:36.001Z</time></trkpt><trkpt lat="42.412246732290555" lon="14.25102384081524"><ele>62.5</ele><time>2026-03-30T08:33:37.001Z</time></trkpt><trkpt lat="42.41225555781751" lon="14.250915092838813"><ele>66.0</ele><time>2026-03-30T08:33:38.001Z</time></trkpt><trkpt lat="42.4122655135702" lon="14.250789952235387"><ele>66.0</ele><time>2026-03-30T08:33:39.001Z</time></trkpt><trkpt lat="42.412280771557924" lon="14.250680065188615"><ele>66.0</ele><time>2026-03-30T08:33:40.001Z</time></trkpt><trkpt lat="42.412296213555905" lon="14.250546474526676"><ele>66.0</ele><time>2026-03-30T08:33:42.001Z</time></trkpt><trkpt lat="42.412371283832506" lon="14.250538929224629"><ele>66.0</ele><time>2026-03-30T08:33:44.001Z</time></trkpt><trkpt lat="42.41244044859233" lon="14.250646574516583"><ele>66.0</ele><time>2026-03-30T08:33:46.001Z</time></trkpt><trkpt lat="42.41250963176115" lon="14.250761669958594"><ele>66.0</ele><time>2026-03-30T08:33:48.001Z</time></trkpt><trkpt lat="42.412570966701615" lon="14.250823643458764"><ele>66.0</ele><time>2026-03-30T08:33:50.001Z</time></trkpt><trkpt lat="42.412632382405775" lon="14.250849864396434"><ele>66.0</ele><time>2026-03-30T08:33:52.001Z</time></trkpt><trkpt lat="42.412712817103746" lon="14.25082064702079"><ele>66.0</ele><time>2026-03-30T08:33:54.001Z</time></trkpt><trkpt lat="42.412801065052015" lon="14.250784227643045"><ele>66.0</ele><time>2026-03-30T08:33:57.001Z</time></trkpt><trkpt lat="42.41289165959154" lon="14.2507290270762"><ele>66.0</ele><time>2026-03-30T08:33:59.001Z</time></trkpt><trkpt lat="42.412955332003605" lon="14.250667761176697"><ele>70.6</ele><time>2026-03-30T08:34:01.001Z</time></trkpt><trkpt lat="42.41308217676638" lon="14.250621666329645"><ele>75.19999999999999</ele><time>2026-03-30T08:34:03.001Z</time></trkpt><trkpt lat="42.41314599856834" lon="14.250598496106885"><ele>79.80000000000001</ele><time>2026-03-30T08:34:04Z</time></trkpt><trkpt lat="42.41324392864589" lon="14.250543665804667"><ele>84.4</ele><time>2026-03-30T08:34:09.999Z</time></trkpt><trkpt lat="42.413254560967374" lon="14.250399103301278"><ele>89.0</ele><time>2026-03-30T08:34:12Z</time></trkpt><trkpt lat="42.41324651190867" lon="14.250294444382085"><ele>89.0</ele><time>2026-03-30T08:34:13Z</time></trkpt><trkpt lat="42.41323067460241" lon="14.25015807452374"><ele>89.0</ele><time>2026-03-30T08:34:14Z</time></trkpt><trkpt lat="42.41321154880133" lon="14.250026476869389"><ele>89.0</ele><time>2026-03-30T08:34:15Z</time></trkpt><trkpt lat="42.413194576602834" lon="14.24993660186589"><ele>89.0</ele><time>2026-03-30T08:34:16Z</time></trkpt><trkpt lat="42.4133189408018" lon="14.249848811671463"><ele>89.0</ele><time>2026-03-30T08:34:18.999Z</time></trkpt><trkpt lat="42.41341198696956" lon="14.249831287406334"><ele>89.0</ele><time>2026-03-30T08:34:19.999Z</time></trkpt><trkpt lat="42.413499654469135" lon="14.249799332272126"><ele>89.0</ele><time>2026-03-30T08:34:20.999Z</time></trkpt><trkpt lat="42.4135668582571" lon="14.249770682443218"><ele>89.0</ele><time>2026-03-30T08:34:21.999Z</time></trkpt><trkpt lat="42.413687420699226" lon="14.249773158407624"><ele>89.0</ele><time>2026-03-30T08:34:23.999Z</time></trkpt><trkpt lat="42.41380431175363" lon="14.249796531607434"><ele>89.0</ele><time>2026-03-30T08:34:25.999Z</time></trkpt><trkpt lat="42.413888451360066" lon="14.249824920740743"><ele>88.5</ele><time>2026-03-30T08:34:26.999Z</time></trkpt><trkpt lat="42.41396243431515" lon="14.24986385042896"><ele>88.0</ele><time>2026-03-30T08:34:27.999Z</time></trkpt><trkpt lat="42.41403378096093" lon="14.24993159030769"><ele>87.5</ele><time>2026-03-30T08:34:28.999Z</time></trkpt><trkpt lat="42.41410541693827" lon="14.250004853916847"><ele>87.0</ele><time>2026-03-30T08:34:29.999Z</time></trkpt><trkpt lat="42.41415414068059" lon="14.250065585497046"><ele>86.5</ele><time>2026-03-30T08:34:30.999Z</time></trkpt><trkpt lat="42.41421538811258" lon="14.25018466605927"><ele>86.0</ele><time>2026-03-30T08:34:32.999Z</time></trkpt><trkpt lat="42.41426275681811" lon="14.250269425919326"><ele>86.0</ele><time>2026-03-30T08:34:34.999Z</time></trkpt><trkpt lat="42.41434552639901" lon="14.250288976608472"><ele>86.0</ele><time>2026-03-30T08:34:36.999Z</time></trkpt><trkpt lat="42.41442144505974" lon="14.250216251759557"><ele>86.0</ele><time>2026-03-30T08:34:38.999Z</time></trkpt><trkpt lat="42.41448653712115" lon="14.250150059503314"><ele>86.0</ele><time>2026-03-30T08:34:39.999Z</time></trkpt><trkpt lat="42.41454184246096" lon="14.250090833938666"><ele>86.0</ele><time>2026-03-30T08:34:40.999Z</time></trkpt><trkpt lat="42.41459997651301" lon="14.250025590328244"><ele>86.0</ele><time>2026-03-30T08:34:41.999Z</time></trkpt><trkpt lat="42.41466676341138" lon="14.249960790238497"><ele>84.0</ele><time>2026-03-30T08:34:42.999Z</time></trkpt><trkpt lat="42.414754425703464" lon="14.249884782626724"><ele>82.0</ele><time>2026-03-30T08:34:43.999Z</time></trkpt><trkpt lat="42.41483318397828" lon="14.249813266946932"><ele>80.0</ele><time>2026-03-30T08:34:44.999Z</time></trkpt><trkpt lat="42.41489614020312" lon="14.249760086527282"><ele>78.0</ele><time>2026-03-30T08:34:45.999Z</time></trkpt><trkpt lat="42.41497907880459" lon="14.24969544985244"><ele>76.0</ele><time>2026-03-30T08:34:46.999Z</time></trkpt><trkpt lat="42.415054386329274" lon="14.249652425088527"><ele>76.0</ele><time>2026-03-30T08:34:47.999Z</time></trkpt><trkpt lat="42.41515475395791" lon="14.249561730124649"><ele>76.0</ele><time>2026-03-30T08:34:49.999Z</time></trkpt><trkpt lat="42.4152091463991" lon="14.24948243240629"><ele>76.0</ele><time>2026-03-30T08:34:50.999Z</time></trkpt><trkpt lat="42.41526460420535" lon="14.249404085521443"><ele>76.0</ele><time>2026-03-30T08:34:51.999Z</time></trkpt><trkpt lat="42.415312810412914" lon="14.249327437415442"><ele>76.0</ele><time>2026-03-30T08:34:52.999Z</time></trkpt><trkpt lat="42.4153589353354" lon="14.249244003497797"><ele>76.0</ele><time>2026-03-30T08:34:54Z</time></trkpt><trkpt lat="42.41539586949193" lon="14.249147851950744"><ele>76.0</ele><time>2026-03-30T08:34:55Z</time></trkpt><trkpt lat="42.41546546764083" lon="14.249060422536509"><ele>76.0</ele><time>2026-03-30T08:34:56Z</time></trkpt><trkpt lat="42.41552727454715" lon="14.248980246812538"><ele>76.0</ele><time>2026-03-30T08:34:57Z</time></trkpt><trkpt lat="42.415598259331446" lon="14.248918280688407"><ele>76.0</ele><time>2026-03-30T08:34:58Z</time></trkpt><trkpt lat="42.4156609209727" lon="14.248860615911289"><ele>76.0</ele><time>2026-03-30T08:34:59Z</time></trkpt><trkpt lat="42.41577594335782" lon="14.248755684613432"><ele>72.33333333333333</ele><time>2026-03-30T08:35:01Z</time></trkpt><trkpt lat="42.415839933883206" lon="14.248685031130442"><ele>68.66666666666666</ele><time>2026-03-30T08:35:02Z</time></trkpt><trkpt lat="42.41590293784337" lon="14.248612339191848"><ele>65.0</ele><time>2026-03-30T08:35:03Z</time></trkpt><trkpt lat="42.415963368840885" lon="14.248541977740723"><ele>61.33333333333333</ele><time>2026-03-30T08:35:04Z</time></trkpt><trkpt lat="42.41602619817213" lon="14.248464841022393"><ele>57.666666666666664</ele><time>2026-03-30T08:35:05Z</time></trkpt><trkpt lat="42.41608843819795" lon="14.248392292918817"><ele>54.0</ele><time>2026-03-30T08:35:06Z</time></trkpt><trkpt lat="42.416141816821934" lon="14.24832027727813"><ele>54.0</ele><time>2026-03-30T08:35:07Z</time></trkpt><trkpt lat="42.416191073950294" lon="14.248250591261517"><ele>54.0</ele><time>2026-03-30T08:35:08Z</time></trkpt><trkpt lat="42.416239490067944" lon="14.248187815927489"><ele>54.0</ele><time>2026-03-30T08:35:09Z</time></trkpt><trkpt lat="42.41629473324641" lon="14.24810666205684"><ele>54.0</ele><time>2026-03-30T08:35:10Z</time></trkpt><trkpt lat="42.41635086884044" lon="14.2480284956084"><ele>54.0</ele><time>2026-03-30T08:35:11Z</time></trkpt><trkpt lat="42.41640807991827" lon="14.247939589878845"><ele>54.0</ele><time>2026-03-30T08:35:12Z</time></trkpt><trkpt lat="42.416454782339976" lon="14.2478703858739"><ele>52.166666666666664</ele><time>2026-03-30T08:35:13Z</time></trkpt><trkpt lat="42.41652583966349" lon="14.24780502603268"><ele>50.333333333333336</ele><time>2026-03-30T08:35:15Z</time></trkpt><trkpt lat="42.416641322368164" lon="14.247816254214547"><ele>48.5</ele><time>2026-03-30T08:35:17Z</time></trkpt><trkpt lat="42.41674358617068" lon="14.247823994818143"><ele>46.66666666666667</ele><time>2026-03-30T08:35:18Z</time></trkpt><trkpt lat="42.416812558200725" lon="14.247846819134256"><ele>44.833333333333336</ele><time>2026-03-30T08:35:19Z</time></trkpt><trkpt lat="42.41687956326785" lon="14.247873541792409"><ele>43.0</ele><time>2026-03-30T08:35:20Z</time></trkpt><trkpt lat="42.41695466414623" lon="14.247883894872446"><ele>43.0</ele><time>2026-03-30T08:35:22Z</time></trkpt><trkpt lat="42.417085710069244" lon="14.24790472527077"><ele>43.0</ele><time>2026-03-30T08:35:24Z</time></trkpt><trkpt lat="42.41716451833246" lon="14.247920842894242"><ele>43.0</ele><time>2026-03-30T08:35:25Z</time></trkpt><trkpt lat="42.41722570833318" lon="14.247979535286776"><ele>43.0</ele><time>2026-03-30T08:35:27Z</time></trkpt><trkpt lat="42.4172120195287" lon="14.248161565667992"><ele>43.0</ele><time>2026-03-30T08:35:29Z</time></trkpt><trkpt lat="42.4172098867031" lon="14.248273228150378"><ele>44.66666666666667</ele><time>2026-03-30T08:35:30Z</time></trkpt><trkpt lat="42.4172545590446" lon="14.248395376463328"><ele>46.333333333333336</ele><time>2026-03-30T08:35:32Z</time></trkpt><trkpt lat="42.41728919827371" lon="14.248468207922757"><ele>48.0</ele><time>2026-03-30T08:35:33Z</time></trkpt><trkpt lat="42.41735385945519" lon="14.248532855786312"><ele>49.66666666666667</ele><time>2026-03-30T08:35:34Z</time></trkpt><trkpt lat="42.41743916148732" lon="14.248575144265638"><ele>51.333333333333336</ele><time>2026-03-30T08:35:35Z</time></trkpt><trkpt lat="42.417532841372235" lon="14.248609850506085"><ele>53.0</ele><time>2026-03-30T08:35:36Z</time></trkpt><trkpt lat="42.41761108319734" lon="14.248626352375933"><ele>53.0</ele><time>2026-03-30T08:35:37Z</time></trkpt><trkpt lat="42.4176873113768" lon="14.248670512957752"><ele>53.0</ele><time>2026-03-30T08:35:38Z</time></trkpt><trkpt lat="42.41775567510617" lon="14.248700568392964"><ele>53.0</ele><time>2026-03-30T08:35:40Z</time></trkpt><trkpt lat="42.417787733165774" lon="14.24857890778013"><ele>53.0</ele><time>2026-03-30T08:35:49Z</time></trkpt><trkpt lat="42.417760622874006" lon="14.248455731977275"><ele>53.0</ele><time>2026-03-30T08:36:10.998Z</time></trkpt><trkpt lat="42.41767882605519" lon="14.248356744003457"><ele>53.0</ele><time>2026-03-30T08:36:12.998Z</time></trkpt><trkpt lat="42.41767140471777" lon="14.248232962426755"><ele>53.0</ele><time>2026-03-30T08:36:14.998Z</time></trkpt><trkpt lat="42.4177034552107" lon="14.248096833036147"><ele>53.0</ele><time>2026-03-30T08:36:16.998Z</time></trkpt><trkpt lat="42.417710747084506" lon="14.247996209061617"><ele>53.0</ele><time>2026-03-30T08:36:17.998Z</time></trkpt><trkpt lat="42.41772600632653" lon="14.247875631594196"><ele>53.0</ele><time>2026-03-30T08:36:18.998Z</time></trkpt><trkpt lat="42.41774457310267" lon="14.247750784765493"><ele>53.2</ele><time>2026-03-30T08:36:19.998Z</time></trkpt><trkpt lat="42.41775781822425" lon="14.247627947590345"><ele>53.4</ele><time>2026-03-30T08:36:20.998Z</time></trkpt><trkpt lat="42.41777988799896" lon="14.24746889332408"><ele>53.60000000000001</ele><time>2026-03-30T08:36:22.998Z</time></trkpt><trkpt lat="42.41780526161129" lon="14.247338936684754"><ele>53.800000000000004</ele><time>2026-03-30T08:36:24.998Z</time></trkpt><trkpt lat="42.41782434697836" lon="14.2472555826483"><ele>54.0</ele><time>2026-03-30T08:36:27.998Z</time></trkpt><trkpt lat="42.41778912460019" lon="14.247379535200318"><ele>54.0</ele><time>2026-03-30T08:36:47.998Z</time></trkpt><trkpt lat="42.417778066031076" lon="14.24749990024128"><ele>54.0</ele><time>2026-03-30T08:36:50.998Z</time></trkpt><trkpt lat="42.41776142796613" lon="14.24761719473249"><ele>54.0</ele><time>2026-03-30T08:36:53.998Z</time></trkpt><trkpt lat="42.417745176117414" lon="14.247733644396074"><ele>54.0</ele><time>2026-03-30T08:36:56.998Z</time></trkpt><trkpt lat="42.417721663253445" lon="14.247850434326265"><ele>54.0</ele><time>2026-03-30T08:36:59.998Z</time></trkpt><trkpt lat="42.41770446980189" lon="14.247969668579467"><ele>54.0</ele><time>2026-03-30T08:37:02.998Z</time></trkpt><trkpt lat="42.41770022067156" lon="14.248078952086727"><ele>53.800000000000004</ele><time>2026-03-30T08:37:04.998Z</time></trkpt><trkpt lat="42.417681874004856" lon="14.248226944605173"><ele>53.60000000000001</ele><time>2026-03-30T08:37:06.998Z</time></trkpt><trkpt lat="42.41767335834937" lon="14.248350896828297"><ele>53.4</ele><time>2026-03-30T08:37:08.998Z</time></trkpt><trkpt lat="42.41773452264369" lon="14.248420772244001"><ele>53.2</ele><time>2026-03-30T08:37:10.998Z</time></trkpt><trkpt lat="42.4177979836325" lon="14.248529861738602"><ele>53.0</ele><time>2026-03-30T08:37:12.998Z</time></trkpt><trkpt lat="42.41779209636866" lon="14.248674480160783"><ele>53.00000000000001</ele><time>2026-03-30T08:37:14.998Z</time></trkpt><trkpt lat="42.417813409025335" lon="14.248756836782729"><ele>53.0</ele><time>2026-03-30T08:37:15.998Z</time></trkpt><trkpt lat="42.41786158223995" lon="14.248829712672494"><ele>53.0</ele><time>2026-03-30T08:37:16.998Z</time></trkpt><trkpt lat="42.417965337942" lon="14.248875584229074"><ele>53.0</ele><time>2026-03-30T08:37:18.998Z</time></trkpt><trkpt lat="42.418033290090285" lon="14.248882230053376"><ele>53.00000000000001</ele><time>2026-03-30T08:37:19.998Z</time></trkpt><trkpt lat="42.418129523689515" lon="14.248889960585199"><ele>53.0</ele><time>2026-03-30T08:37:21.998Z</time></trkpt><trkpt lat="42.41823178809916" lon="14.248909477514989"><ele>56.75</ele><time>2026-03-30T08:37:23.998Z</time></trkpt><trkpt lat="42.4183267534731" lon="14.248924447023638"><ele>60.5</ele><time>2026-03-30T08:37:25.998Z</time></trkpt><trkpt lat="42.418390132862775" lon="14.248950825884847"><ele>64.25</ele><time>2026-03-30T08:37:26.998Z</time></trkpt><trkpt lat="42.41860875402175" lon="14.248987998040334"><ele>68.0</ele><time>2026-03-30T08:37:27.998Z</time></trkpt><trkpt lat="42.41877719548434" lon="14.249033347700712"><ele>71.2</ele><time>2026-03-30T08:37:28.998Z</time></trkpt><trkpt lat="42.418899671331495" lon="14.249086866789193"><ele>74.4</ele><time>2026-03-30T08:37:29.998Z</time></trkpt><trkpt lat="42.419008707256104" lon="14.249122747315509"><ele>77.60000000000001</ele><time>2026-03-30T08:37:30.998Z</time></trkpt><trkpt lat="42.419103928262814" lon="14.249149145905282"><ele>80.8</ele><time>2026-03-30T08:37:31.998Z</time></trkpt><trkpt lat="42.419184027396895" lon="14.249165611800256"><ele>84.0</ele><time>2026-03-30T08:37:32.998Z</time></trkpt><trkpt lat="42.41927147574216" lon="14.249191303814017"><ele>84.0</ele><time>2026-03-30T08:37:33.998Z</time></trkpt><trkpt lat="42.41934584912129" lon="14.249219486576274"><ele>84.0</ele><time>2026-03-30T08:37:34.998Z</time></trkpt><trkpt lat="42.419420321251145" lon="14.249240976131661"><ele>84.0</ele><time>2026-03-30T08:37:35.998Z</time></trkpt><trkpt lat="42.419490331998524" lon="14.249261223583908"><ele>84.0</ele><time>2026-03-30T08:37:36.998Z</time></trkpt><trkpt lat="42.41954695451249" lon="14.249307512353523"><ele>84.0</ele><time>2026-03-30T08:37:37.998Z</time></trkpt><trkpt lat="42.419632550524454" lon="14.249347773564962"><ele>84.0</ele><time>2026-03-30T08:37:39.998Z</time></trkpt><trkpt lat="42.41971739553759" lon="14.249295060479765"><ele>86.5</ele><time>2026-03-30T08:37:42.998Z</time></trkpt><trkpt lat="42.419787368937904" lon="14.249234073747536"><ele>89.0</ele><time>2026-03-30T08:37:43.998Z</time></trkpt><trkpt lat="42.41985140196927" lon="14.249146920740433"><ele>91.5</ele><time>2026-03-30T08:37:44.998Z</time></trkpt><trkpt lat="42.419917221543564" lon="14.249069074035827"><ele>94.0</ele><time>2026-03-30T08:37:45.998Z</time></trkpt><trkpt lat="42.419986949185606" lon="14.24901191289793"><ele>96.5</ele><time>2026-03-30T08:37:46.998Z</time></trkpt><trkpt lat="42.42007454283039" lon="14.24893664522989"><ele>99.0</ele><time>2026-03-30T08:37:48.998Z</time></trkpt><trkpt lat="42.42014141719681" lon="14.248869233388023"><ele>100.2</ele><time>2026-03-30T08:37:50.998Z</time></trkpt><trkpt lat="42.4201690297794" lon="14.248726015305143"><ele>101.4</ele><time>2026-03-30T08:37:58.999Z</time></trkpt><trkpt lat="42.42012839672439" lon="14.248560777665999"><ele>102.6</ele><time>2026-03-30T08:38:00.999Z</time></trkpt><trkpt lat="42.42010666942646" lon="14.2484664658165"><ele>103.8</ele><time>2026-03-30T08:38:01.999Z</time></trkpt><trkpt lat="42.42009301906361" lon="14.248352526318802"><ele>105.0</ele><time>2026-03-30T08:38:02.999Z</time></trkpt><trkpt lat="42.42007817817473" lon="14.248217381105748"><ele>106.2</ele><time>2026-03-30T08:38:03.999Z</time></trkpt><trkpt lat="42.42005666907625" lon="14.248090337465777"><ele>107.4</ele><time>2026-03-30T08:38:04.999Z</time></trkpt><trkpt lat="42.4200257783937" lon="14.247969259940525"><ele>108.6</ele><time>2026-03-30T08:38:05.999Z</time></trkpt><trkpt lat="42.42000347659601" lon="14.247843917732668"><ele>109.8</ele><time>2026-03-30T08:38:06.999Z</time></trkpt><trkpt lat="42.41998425508204" lon="14.247714881779492"><ele>111.0</ele><time>2026-03-30T08:38:07.999Z</time></trkpt><trkpt lat="42.41996614154434" lon="14.247587818014901"><ele>111.0</ele><time>2026-03-30T08:38:08.999Z</time></trkpt><trkpt lat="42.419950426474806" lon="14.247463708882723"><ele>111.0</ele><time>2026-03-30T08:38:09.999Z</time></trkpt><trkpt lat="42.41993612439862" lon="14.247347172764135"><ele>111.0</ele><time>2026-03-30T08:38:10.999Z</time></trkpt><trkpt lat="42.41992667289873" lon="14.247230643126317"><ele>111.0</ele><time>2026-03-30T08:38:11.999Z</time></trkpt><trkpt lat="42.41991737372272" lon="14.247107724254269"><ele>111.0</ele><time>2026-03-30T08:38:12.999Z</time></trkpt><trkpt lat="42.41991593240621" lon="14.24697431503741"><ele>111.5</ele><time>2026-03-30T08:38:13.999Z</time></trkpt><trkpt lat="42.41992257605389" lon="14.246853494538989"><ele>112.0</ele><time>2026-03-30T08:38:14.999Z</time></trkpt><trkpt lat="42.419931621811884" lon="14.246754845706405"><ele>112.5</ele><time>2026-03-30T08:38:15.996Z</time></trkpt><trkpt lat="42.41995910324055" lon="14.246654371264885"><ele>113.0</ele><time>2026-03-30T08:38:17.996Z</time></trkpt><trkpt lat="42.41989665287601" lon="14.246554564688026"><ele>113.5</ele><time>2026-03-30T08:38:18.996Z</time></trkpt><trkpt lat="42.41982651160454" lon="14.24645575139272"><ele>114.0</ele><time>2026-03-30T08:38:19.996Z</time></trkpt><trkpt lat="42.41978907150154" lon="14.246318735821452"><ele>114.0</ele><time>2026-03-30T08:38:20.996Z</time></trkpt><trkpt lat="42.41974090303433" lon="14.246172996883615"><ele>114.0</ele><time>2026-03-30T08:38:21.996Z</time></trkpt><trkpt lat="42.419710049163356" lon="14.246025306544313"><ele>114.0</ele><time>2026-03-30T08:38:22.996Z</time></trkpt><trkpt lat="42.41969490403435" lon="14.24586519693094"><ele>114.0</ele><time>2026-03-30T08:38:23.996Z</time></trkpt><trkpt lat="42.419658380117184" lon="14.245731959557308"><ele>111.4</ele><time>2026-03-30T08:38:24.996Z</time></trkpt><trkpt lat="42.419619223172354" lon="14.245589431976864"><ele>108.80000000000001</ele><time>2026-03-30T08:38:25.996Z</time></trkpt><trkpt lat="42.41957022473192" lon="14.245449338580299"><ele>106.19999999999999</ele><time>2026-03-30T08:38:26.996Z</time></trkpt><trkpt lat="42.419536785137005" lon="14.245315217466064"><ele>103.6</ele><time>2026-03-30T08:38:27.996Z</time></trkpt><trkpt lat="42.41950331220687" lon="14.245181655391386"><ele>101.0</ele><time>2026-03-30T08:38:28.996Z</time></trkpt><trkpt lat="42.41946706544426" lon="14.245047770768249"><ele>100.99999999999999</ele><time>2026-03-30T08:38:29.996Z</time></trkpt><trkpt lat="42.419425341441595" lon="14.244929290678957"><ele>101.0</ele><time>2026-03-30T08:38:30.996Z</time></trkpt><trkpt lat="42.419393198724876" lon="14.244813425199471"><ele>101.0</ele><time>2026-03-30T08:38:31.996Z</time></trkpt><trkpt lat="42.41938164643987" lon="14.244692357689962"><ele>101.0</ele><time>2026-03-30T08:38:32.996Z</time></trkpt><trkpt lat="42.41935520188799" lon="14.244592974584876"><ele>100.99999999999999</ele><time>2026-03-30T08:38:33.997Z</time></trkpt><trkpt lat="42.41931960952765" lon="14.244512972006444"><ele>101.0</ele><time>2026-03-30T08:38:34.997Z</time></trkpt><trkpt lat="42.41926539831705" lon="14.244465256830065"><ele>102.49999999999999</ele><time>2026-03-30T08:38:35.997Z</time></trkpt><trkpt lat="42.4191756109197" lon="14.244486322557934"><ele>104.0</ele><time>2026-03-30T08:38:36.997Z</time></trkpt><trkpt lat="42.419105191685944" lon="14.24456472057062"><ele>105.5</ele><time>2026-03-30T08:38:37.997Z</time></trkpt><trkpt lat="42.41904749261842" lon="14.24464182463981"><ele>107.0</ele><time>2026-03-30T08:38:38.997Z</time></trkpt><trkpt lat="42.419013100369355" lon="14.244727321221028"><ele>108.49999999999999</ele><time>2026-03-30T08:38:39.997Z</time></trkpt><trkpt lat="42.41895410610173" lon="14.244762793923954"><ele>110.0</ele><time>2026-03-30T08:38:43.997Z</time></trkpt><trkpt lat="42.41894007052905" lon="14.244569338541224"><ele>110.0</ele><time>2026-03-30T08:38:46.997Z</time></trkpt><trkpt lat="42.41893281023631" lon="14.24448144150897"><ele>110.0</ele><time>2026-03-30T08:38:47.997Z</time></trkpt><trkpt lat="42.418912450853" lon="14.24435438582647"><ele>110.0</ele><time>2026-03-30T08:38:49.997Z</time></trkpt><trkpt lat="42.41889954600321" lon="14.244247044182433"><ele>110.0</ele><time>2026-03-30T08:38:52.997Z</time></trkpt><trkpt lat="42.41865597763243" lon="14.244246616777053"><ele>109.99999999999999</ele><time>2026-03-30T08:38:53.997Z</time></trkpt><trkpt lat="42.4185752255797" lon="14.244199851370508"><ele>110.0</ele><time>2026-03-30T08:38:54.997Z</time></trkpt><trkpt lat="42.41850121026118" lon="14.244164802575776"><ele>110.0</ele><time>2026-03-30T08:38:55.997Z</time></trkpt><trkpt lat="42.4184071655789" lon="14.244128627419734"><ele>110.0</ele><time>2026-03-30T08:38:57.997Z</time></trkpt><trkpt lat="42.41833583652258" lon="14.244093086833884"><ele>109.99999999999999</ele><time>2026-03-30T08:38:59.997Z</time></trkpt><trkpt lat="42.41829150499315" lon="14.24401000998073"><ele>110.0</ele><time>2026-03-30T08:39:01.997Z</time></trkpt><trkpt lat="42.41824179633053" lon="14.243878473256649"><ele>110.0</ele><time>2026-03-30T08:39:03.997Z</time></trkpt><trkpt lat="42.41821816986436" lon="14.243788661699408"><ele>110.0</ele><time>2026-03-30T08:39:04.997Z</time></trkpt><trkpt lat="42.41813909654862" lon="14.243666170020218"><ele>110.0</ele><time>2026-03-30T08:39:06.997Z</time></trkpt><trkpt lat="42.41806990007315" lon="14.243591962128242"><ele>110.0</ele><time>2026-03-30T08:39:08.997Z</time></trkpt><trkpt lat="42.41793785291626" lon="14.243567932750596"><ele>110.0</ele><time>2026-03-30T08:39:10.997Z</time></trkpt><trkpt lat="42.41785165934092" lon="14.243596431948513"><ele>106.99999999999999</ele><time>2026-03-30T08:39:11.997Z</time></trkpt><trkpt lat="42.417775078906544" lon="14.243613356657113"><ele>104.0</ele><time>2026-03-30T08:39:12.997Z</time></trkpt><trkpt lat="42.417665499207686" lon="14.243610302245944"><ele>101.0</ele><time>2026-03-30T08:39:13.997Z</time></trkpt><trkpt lat="42.41758987867982" lon="14.243614613885258"><ele>98.0</ele><time>2026-03-30T08:39:15.997Z</time></trkpt><trkpt lat="42.417539848135505" lon="14.243711122777773"><ele>95.0</ele><time>2026-03-30T08:39:19.997Z</time></trkpt><trkpt lat="42.417516047160866" lon="14.243817140019768"><ele>92.0</ele><time>2026-03-30T08:39:21.997Z</time></trkpt><trkpt lat="42.41745149057168" lon="14.243891076812286"><ele>92.0</ele><time>2026-03-30T08:39:23.997Z</time></trkpt><trkpt lat="42.417386132022905" lon="14.243928635536085"><ele>92.0</ele><time>2026-03-30T08:39:25.997Z</time></trkpt><trkpt lat="42.417318332704646" lon="14.24395085352687"><ele>92.0</ele><time>2026-03-30T08:39:27.997Z</time></trkpt><trkpt lat="42.417270090302" lon="14.244007390256796"><ele>92.0</ele><time>2026-03-30T08:39:33.997Z</time></trkpt><trkpt lat="42.41718476809046" lon="14.244088676938489"><ele>92.0</ele><time>2026-03-30T08:39:35.997Z</time></trkpt><trkpt lat="42.417119366707254" lon="14.244150480914639"><ele>92.0</ele><time>2026-03-30T08:39:36.997Z</time></trkpt><trkpt lat="42.41703367746179" lon="14.244175945355495"><ele>89.83333333333334</ele><time>2026-03-30T08:39:37.997Z</time></trkpt><trkpt lat="42.416971433549264" lon="14.244215446765903"><ele>87.66666666666667</ele><time>2026-03-30T08:39:39.997Z</time></trkpt><trkpt lat="42.41690587197481" lon="14.244169370408198"><ele>85.5</ele><time>2026-03-30T08:39:42.997Z</time></trkpt><trkpt lat="42.416862101434106" lon="14.2440752220327"><ele>83.33333333333333</ele><time>2026-03-30T08:39:45.997Z</time></trkpt><trkpt lat="42.4168035246404" lon="14.243933409834062"><ele>81.16666666666666</ele><time>2026-03-30T08:39:47.997Z</time></trkpt><trkpt lat="42.41676920369444" lon="14.243846435546327"><ele>79.0</ele><time>2026-03-30T08:39:48.997Z</time></trkpt><trkpt lat="42.41673126544296" lon="14.243763706340268"><ele>79.0</ele><time>2026-03-30T08:39:49.997Z</time></trkpt><trkpt lat="42.41668866228929" lon="14.243678778008356"><ele>79.0</ele><time>2026-03-30T08:39:50.997Z</time></trkpt><trkpt lat="42.41664329321812" lon="14.243601878913221"><ele>79.0</ele><time>2026-03-30T08:39:51.997Z</time></trkpt><trkpt lat="42.416590951225096" lon="14.243549364953637"><ele>79.0</ele><time>2026-03-30T08:39:52.997Z</time></trkpt><trkpt lat="42.41653290400129" lon="14.24350072536843"><ele>79.0</ele><time>2026-03-30T08:39:53.997Z</time></trkpt><trkpt lat="42.41644525325569" lon="14.243424858928622"><ele>79.0</ele><time>2026-03-30T08:39:55.997Z</time></trkpt><trkpt lat="42.416384108949956" lon="14.243389715646172"><ele>76.16666666666666</ele><time>2026-03-30T08:39:56.997Z</time></trkpt><trkpt lat="42.41631699733205" lon="14.243350780574223"><ele>73.33333333333333</ele><time>2026-03-30T08:39:57.997Z</time></trkpt><trkpt lat="42.41623461394647" lon="14.243313572580604"><ele>70.5</ele><time>2026-03-30T08:39:58.997Z</time></trkpt><trkpt lat="42.41615577976801" lon="14.243281105934088"><ele>67.66666666666667</ele><time>2026-03-30T08:39:59.997Z</time></trkpt><trkpt lat="42.416094172385506" lon="14.24324622261196"><ele>64.83333333333334</ele><time>2026-03-30T08:40:00.997Z</time></trkpt><trkpt lat="42.41603283089941" lon="14.243199625630517"><ele>62.0</ele><time>2026-03-30T08:40:01.997Z</time></trkpt><trkpt lat="42.415942510288296" lon="14.243172390509875"><ele>62.0</ele><time>2026-03-30T08:40:03.997Z</time></trkpt><trkpt lat="42.41584926383484" lon="14.243196561742163"><ele>62.0</ele><time>2026-03-30T08:40:05.997Z</time></trkpt><trkpt lat="42.415757346397605" lon="14.243201172868437"><ele>62.0</ele><time>2026-03-30T08:40:07.997Z</time></trkpt><trkpt lat="42.41566168439336" lon="14.243078726544612"><ele>62.0</ele><time>2026-03-30T08:40:09.997Z</time></trkpt><trkpt lat="42.41561581105744" lon="14.242990223209773"><ele>62.0</ele><time>2026-03-30T08:40:10.997Z</time></trkpt><trkpt lat="42.41557617983365" lon="14.242890090464817"><ele>61.2</ele><time>2026-03-30T08:40:11.996Z</time></trkpt><trkpt lat="42.41553305320872" lon="14.2427728565062"><ele>60.400000000000006</ele><time>2026-03-30T08:40:12.996Z</time></trkpt><trkpt lat="42.415496462580485" lon="14.242637790054214"><ele>59.599999999999994</ele><time>2026-03-30T08:40:13.996Z</time></trkpt><trkpt lat="42.4154680659836" lon="14.242526743376368"><ele>58.8</ele><time>2026-03-30T08:40:14.996Z</time></trkpt><trkpt lat="42.41545190559883" lon="14.242420613295776"><ele>58.0</ele><time>2026-03-30T08:40:15.995Z</time></trkpt><trkpt lat="42.41542102273901" lon="14.24229291947934"><ele>59.8</ele><time>2026-03-30T08:40:16.995Z</time></trkpt><trkpt lat="42.415366563813095" lon="14.242147367581907"><ele>61.599999999999994</ele><time>2026-03-30T08:40:17.995Z</time></trkpt><trkpt lat="42.41531181440485" lon="14.242021335451426"><ele>63.400000000000006</ele><time>2026-03-30T08:40:18.995Z</time></trkpt><trkpt lat="42.41525612882063" lon="14.24191708595219"><ele>65.2</ele><time>2026-03-30T08:40:19.995Z</time></trkpt><trkpt lat="42.415195594832" lon="14.241831949581272"><ele>67.0</ele><time>2026-03-30T08:40:20.995Z</time></trkpt><trkpt lat="42.41511494189865" lon="14.241752869217658"><ele>67.0</ele><time>2026-03-30T08:40:21.991Z</time></trkpt><trkpt lat="42.41502296226583" lon="14.241663735290004"><ele>67.0</ele><time>2026-03-30T08:40:22.99Z</time></trkpt><trkpt lat="42.41494539780296" lon="14.241572858641824"><ele>67.0</ele><time>2026-03-30T08:40:23.99Z</time></trkpt><trkpt lat="42.414879246068075" lon="14.241479362832786"><ele>67.0</ele><time>2026-03-30T08:40:24.991Z</time></trkpt><trkpt lat="42.41482508369532" lon="14.24140610287597"><ele>67.0</ele><time>2026-03-30T08:40:25.99Z</time></trkpt><trkpt lat="42.414771038560026" lon="14.241334435068223"><ele>66.8</ele><time>2026-03-30T08:40:26.99Z</time></trkpt><trkpt lat="42.41471640687188" lon="14.241271094908972"><ele>66.6</ele><time>2026-03-30T08:40:28.99Z</time></trkpt><trkpt lat="42.41466964486128" lon="14.241132189107399"><ele>66.39999999999999</ele><time>2026-03-30T08:40:30.99Z</time></trkpt><trkpt lat="42.41464129416618" lon="14.241010422582992"><ele>66.2</ele><time>2026-03-30T08:40:31.989Z</time></trkpt><trkpt lat="42.41461462097841" lon="14.240879972441663"><ele>66.0</ele><time>2026-03-30T08:40:32.989Z</time></trkpt><trkpt lat="42.4145993330327" lon="14.24075653089373"><ele>66.0</ele><time>2026-03-30T08:40:33.99Z</time></trkpt><trkpt lat="42.41455826442927" lon="14.240662332061266"><ele>66.0</ele><time>2026-03-30T08:40:34.989Z</time></trkpt><trkpt lat="42.41451237531355" lon="14.240575406723517"><ele>66.0</ele><time>2026-03-30T08:40:35.989Z</time></trkpt><trkpt lat="42.41445760758709" lon="14.240518264456929"><ele>66.0</ele><time>2026-03-30T08:40:36.989Z</time></trkpt><trkpt lat="42.41440417444103" lon="14.240443308407102"><ele>66.0</ele><time>2026-03-30T08:40:37.989Z</time></trkpt><trkpt lat="42.414358005968204" lon="14.240336996975726"><ele>66.0</ele><time>2026-03-30T08:40:38.989Z</time></trkpt><trkpt lat="42.414287424902355" lon="14.240216833439543"><ele>67.33333333333333</ele><time>2026-03-30T08:40:39.989Z</time></trkpt><trkpt lat="42.41423862469708" lon="14.24013294150375"><ele>68.66666666666667</ele><time>2026-03-30T08:40:40.989Z</time></trkpt><trkpt lat="42.41420377738124" lon="14.240052413721386"><ele>70.0</ele><time>2026-03-30T08:40:41.989Z</time></trkpt><trkpt lat="42.41418849048412" lon="14.239908803979938"><ele>71.33333333333334</ele><time>2026-03-30T08:40:43.989Z</time></trkpt><trkpt lat="42.41421057049533" lon="14.239766003877424"><ele>72.66666666666667</ele><time>2026-03-30T08:40:45.989Z</time></trkpt><trkpt lat="42.41421335671453" lon="14.239670328064484"><ele>74.0</ele><time>2026-03-30T08:40:46.989Z</time></trkpt><trkpt lat="42.41420328175832" lon="14.23952598163091"><ele>75.4</ele><time>2026-03-30T08:40:48.989Z</time></trkpt><trkpt lat="42.41411987672716" lon="14.239457205990025"><ele>76.80000000000001</ele><time>2026-03-30T08:40:50.989Z</time></trkpt><trkpt lat="42.41403747500774" lon="14.239333653910796"><ele>78.19999999999999</ele><time>2026-03-30T08:40:52.989Z</time></trkpt><trkpt lat="42.4139806821466" lon="14.239253341636966"><ele>79.6</ele><time>2026-03-30T08:40:53.989Z</time></trkpt><trkpt lat="42.41394609206833" lon="14.239161752142635"><ele>81.0</ele><time>2026-03-30T08:40:54.989Z</time></trkpt><trkpt lat="42.41393502112991" lon="14.239046177769515"><ele>82.0</ele><time>2026-03-30T08:40:55.989Z</time></trkpt><trkpt lat="42.413935794316664" lon="14.238921007323151"><ele>83.0</ele><time>2026-03-30T08:40:56.989Z</time></trkpt><trkpt lat="42.413931918182946" lon="14.238802433327587"><ele>84.0</ele><time>2026-03-30T08:40:57.989Z</time></trkpt><trkpt lat="42.413906211225736" lon="14.238678340999186"><ele>85.0</ele><time>2026-03-30T08:40:59.989Z</time></trkpt><trkpt lat="42.41391643881475" lon="14.23855149215255"><ele>86.0</ele><time>2026-03-30T08:41:01.989Z</time></trkpt><trkpt lat="42.41393699240844" lon="14.238387139845"><ele>86.0</ele><time>2026-03-30T08:41:03.989Z</time></trkpt><trkpt lat="42.413955939403806" lon="14.23828868336"><ele>86.0</ele><time>2026-03-30T08:41:04.989Z</time></trkpt><trkpt lat="42.413934639240495" lon="14.238199059425325"><ele>86.0</ele><time>2026-03-30T08:41:05.989Z</time></trkpt><trkpt lat="42.413887721585986" lon="14.238076595595722"><ele>86.0</ele><time>2026-03-30T08:41:07.989Z</time></trkpt><trkpt lat="42.41386054306352" lon="14.23799883304462"><ele>86.0</ele><time>2026-03-30T08:41:08.989Z</time></trkpt><trkpt lat="42.413830845630386" lon="14.237896704832133"><ele>86.0</ele><time>2026-03-30T08:41:09.989Z</time></trkpt><trkpt lat="42.41380543500735" lon="14.237780418752541"><ele>84.0</ele><time>2026-03-30T08:41:10.989Z</time></trkpt><trkpt lat="42.41376754063693" lon="14.237676398645796"><ele>82.0</ele><time>2026-03-30T08:41:11.989Z</time></trkpt><trkpt lat="42.413758086038484" lon="14.237588410421973"><ele>80.0</ele><time>2026-03-30T08:41:12.989Z</time></trkpt><trkpt lat="42.41372458122105" lon="14.237455977259286"><ele>78.0</ele><time>2026-03-30T08:41:14.989Z</time></trkpt><trkpt lat="42.41367923790912" lon="14.23736974134997"><ele>76.0</ele><time>2026-03-30T08:41:16.989Z</time></trkpt><trkpt lat="42.413620937906316" lon="14.237220322365044"><ele>76.0</ele><time>2026-03-30T08:41:18.989Z</time></trkpt><trkpt lat="42.41357709459683" lon="14.237131963477454"><ele>76.0</ele><time>2026-03-30T08:41:19.989Z</time></trkpt><trkpt lat="42.41353698175872" lon="14.237052760116589"><ele>76.0</ele><time>2026-03-30T08:41:20.989Z</time></trkpt><trkpt lat="42.413501168115246" lon="14.236970310230365"><ele>76.0</ele><time>2026-03-30T08:41:21.989Z</time></trkpt><trkpt lat="42.41346051807258" lon="14.236881682973264"><ele>76.0</ele><time>2026-03-30T08:41:22.989Z</time></trkpt><trkpt lat="42.413414410656856" lon="14.236788021791945"><ele>76.0</ele><time>2026-03-30T08:41:23.989Z</time></trkpt><trkpt lat="42.41336052110251" lon="14.236702066194542"><ele>76.0</ele><time>2026-03-30T08:41:24.989Z</time></trkpt><trkpt lat="42.41331866754351" lon="14.23662995726624"><ele>76.0</ele><time>2026-03-30T08:41:25.989Z</time></trkpt><trkpt lat="42.4132404137572" lon="14.23652534841575"><ele>76.0</ele><time>2026-03-30T08:41:27.989Z</time></trkpt><trkpt lat="42.41314392409666" lon="14.23644420737519"><ele>76.0</ele><time>2026-03-30T08:41:29.989Z</time></trkpt><trkpt lat="42.41309601626785" lon="14.236374588563548"><ele>76.0</ele><time>2026-03-30T08:41:30.989Z</time></trkpt><trkpt lat="42.41304966678161" lon="14.23628493513341"><ele>76.0</ele><time>2026-03-30T08:41:31.989Z</time></trkpt><trkpt lat="42.41302353392942" lon="14.236201347155237"><ele>75.8</ele><time>2026-03-30T08:41:32.989Z</time></trkpt><trkpt lat="42.41295828959384" lon="14.236063543671923"><ele>75.6</ele><time>2026-03-30T08:41:34.989Z</time></trkpt><trkpt lat="42.412894041050514" lon="14.235933090062312"><ele>75.4</ele><time>2026-03-30T08:41:36.989Z</time></trkpt><trkpt lat="42.41285446068519" lon="14.235827111595817"><ele>75.2</ele><time>2026-03-30T08:41:38.989Z</time></trkpt><trkpt lat="42.41281896631445" lon="14.23570837634388"><ele>75.0</ele><time>2026-03-30T08:41:40.989Z</time></trkpt><trkpt lat="42.41279633991051" lon="14.235621267573846"><ele>75.66666666666667</ele><time>2026-03-30T08:41:41.989Z</time></trkpt><trkpt lat="42.41277198137153" lon="14.23547740265203"><ele>76.33333333333333</ele><time>2026-03-30T08:41:43.989Z</time></trkpt><trkpt lat="42.4127619242021" lon="14.235386794020116"><ele>77.0</ele><time>2026-03-30T08:41:46.989Z</time></trkpt><trkpt lat="42.41271182413182" lon="14.235322138141468"><ele>77.66666666666666</ele><time>2026-03-30T08:41:50.989Z</time></trkpt><trkpt lat="42.41264898360414" lon="14.235280804845281"><ele>78.33333333333333</ele><time>2026-03-30T08:41:57.989Z</time></trkpt><trkpt lat="42.412588355310284" lon="14.235189676038818"><ele>79.0</ele><time>2026-03-30T08:41:59.989Z</time></trkpt><trkpt lat="42.41252534217775" lon="14.235098765168134"><ele>79.0</ele><time>2026-03-30T08:42:01.989Z</time></trkpt><trkpt lat="42.41245917822236" lon="14.234998564140712"><ele>79.0</ele><time>2026-03-30T08:42:03.989Z</time></trkpt><trkpt lat="42.4123950949798" lon="14.234909892193288"><ele>79.0</ele><time>2026-03-30T08:42:06.989Z</time></trkpt><trkpt lat="42.41232928537386" lon="14.234861465715555"><ele>79.0</ele><time>2026-03-30T08:42:11.989Z</time></trkpt><trkpt lat="42.41229938293392" lon="14.234786368709528"><ele>79.0</ele><time>2026-03-30T08:42:13.989Z</time></trkpt><trkpt lat="42.412264066980775" lon="14.234703133349935"><ele>79.0</ele><time>2026-03-30T08:42:15.989Z</time></trkpt><trkpt lat="42.41223710120598" lon="14.234621039301686"><ele>78.625</ele><time>2026-03-30T08:42:17.989Z</time></trkpt><trkpt lat="42.412205449703045" lon="14.234541536445828"><ele>78.25</ele><time>2026-03-30T08:42:19.989Z</time></trkpt><trkpt lat="42.41215599555019" lon="14.234476416352239"><ele>77.875</ele><time>2026-03-30T08:42:28.986Z</time></trkpt><trkpt lat="42.41207048380633" lon="14.234464040029309"><ele>77.5</ele><time>2026-03-30T08:42:32.986Z</time></trkpt><trkpt lat="42.412004981014974" lon="14.234462274090141"><ele>77.125</ele><time>2026-03-30T08:42:36.986Z</time></trkpt><trkpt lat="42.41202538380912" lon="14.23447164319001"><ele>76.75</ele><time>2026-03-30T08:47:42.983Z</time></trkpt><trkpt lat="42.411957224182665" lon="14.234430799656687"><ele>76.375</ele><time>2026-03-30T08:47:44.983Z</time></trkpt><trkpt lat="42.411896466554545" lon="14.234405350024119"><ele>76.0</ele><time>2026-03-30T08:47:46.983Z</time></trkpt><trkpt lat="42.4118402663103" lon="14.234345640772977"><ele>76.0</ele><time>2026-03-30T08:47:48.983Z</time></trkpt><trkpt lat="42.41180106548616" lon="14.234243746439052"><ele>76.0</ele><time>2026-03-30T08:47:50.983Z</time></trkpt><trkpt lat="42.41175136157546" lon="14.234185306946296"><ele>76.0</ele><time>2026-03-30T08:47:52.983Z</time></trkpt><trkpt lat="42.41169685465092" lon="14.234105085436735"><ele>76.0</ele><time>2026-03-30T08:47:55.983Z</time></trkpt><trkpt lat="42.41170961663201" lon="14.234010791535557"><ele>76.0</ele><time>2026-03-30T08:47:59.983Z</time></trkpt><trkpt lat="42.411726888031" lon="14.233908903502979"><ele>76.0</ele><time>2026-03-30T08:48:02.983Z</time></trkpt><trkpt lat="42.41175519475411" lon="14.23381406792347"><ele>76.83333333333333</ele><time>2026-03-30T08:48:05.983Z</time></trkpt><trkpt lat="42.411817973744604" lon="14.233752049990095"><ele>77.66666666666666</ele><time>2026-03-30T08:48:08.983Z</time></trkpt><trkpt lat="42.411869296619564" lon="14.233679488041856"><ele>78.5</ele><time>2026-03-30T08:48:11.983Z</time></trkpt><trkpt lat="42.41194919175688" lon="14.23363857005539"><ele>79.33333333333333</ele><time>2026-03-30T08:48:14.983Z</time></trkpt><trkpt lat="42.41188519607921" lon="14.233651943098215"><ele>80.16666666666667</ele><time>2026-03-30T08:49:09.981Z</time></trkpt><trkpt lat="42.41182760319204" lon="14.23373164806888"><ele>81.0</ele><time>2026-03-30T08:49:12.981Z</time></trkpt><trkpt lat="42.41175870530084" lon="14.233796751416927"><ele>81.0</ele><time>2026-03-30T08:49:15.981Z</time></trkpt><trkpt lat="42.41171091349752" lon="14.233865044715998"><ele>81.0</ele><time>2026-03-30T08:49:20.981Z</time></trkpt><trkpt lat="42.411720298665806" lon="14.233974899295598"><ele>81.0</ele><time>2026-03-30T08:49:29.981Z</time></trkpt><trkpt lat="42.41169947368427" lon="14.234066771330074"><ele>81.0</ele><time>2026-03-30T08:49:33.981Z</time></trkpt><trkpt lat="42.411721488242705" lon="14.234189727828767"><ele>81.0</ele><time>2026-03-30T08:52:20.98Z</time></trkpt><trkpt lat="42.41178568874054" lon="14.234246047513661"><ele>81.0</ele><time>2026-03-30T08:52:22.98Z</time></trkpt><trkpt lat="42.41182135093024" lon="14.234329168890659"><ele>80.16666666666667</ele><time>2026-03-30T08:52:24.98Z</time></trkpt><trkpt lat="42.41187463247769" lon="14.234403800548254"><ele>79.33333333333333</ele><time>2026-03-30T08:52:26.98Z</time></trkpt><trkpt lat="42.41196775698922" lon="14.234449260618632"><ele>78.5</ele><time>2026-03-30T08:52:28.98Z</time></trkpt><trkpt lat="42.41204485480408" lon="14.234455153386627"><ele>77.66666666666666</ele><time>2026-03-30T08:52:31.98Z</time></trkpt><trkpt lat="42.4121164429166" lon="14.234458124797218"><ele>76.83333333333333</ele><time>2026-03-30T08:52:33.98Z</time></trkpt><trkpt lat="42.41218983665367" lon="14.234365240076642"><ele>76.0</ele><time>2026-03-30T08:52:36.981Z</time></trkpt><trkpt lat="42.41224920174206" lon="14.234332635287172"><ele>76.5</ele><time>2026-03-30T08:52:39.981Z</time></trkpt><trkpt lat="42.41224842391726" lon="14.234450512819654"><ele>77.0</ele><time>2026-03-30T08:52:44.981Z</time></trkpt><trkpt lat="42.412187727500005" lon="14.234496728404178"><ele>77.5</ele><time>2026-03-30T08:52:47.981Z</time></trkpt><trkpt lat="42.41220660852364" lon="14.234586078763819"><ele>78.0</ele><time>2026-03-30T08:52:53.981Z</time></trkpt><trkpt lat="42.41226430820111" lon="14.234746976911072"><ele>78.5</ele><time>2026-03-30T08:52:55.981Z</time></trkpt><trkpt lat="42.41230896928619" lon="14.234854245058731"><ele>79.0</ele><time>2026-03-30T08:52:57.981Z</time></trkpt><trkpt lat="42.412376837794206" lon="14.234918846610544"><ele>79.0</ele><time>2026-03-30T08:53:00.979Z</time></trkpt><trkpt lat="42.41244458024049" lon="14.235000356339384"><ele>79.0</ele><time>2026-03-30T08:53:02.979Z</time></trkpt><trkpt lat="42.412515005179856" lon="14.235127815333811"><ele>79.0</ele><time>2026-03-30T08:53:04.979Z</time></trkpt><trkpt lat="42.412560504986274" lon="14.235192115744255"><ele>79.0</ele><time>2026-03-30T08:53:05.979Z</time></trkpt><trkpt lat="42.41263049249208" lon="14.235296878206393"><ele>79.0</ele><time>2026-03-30T08:53:07.979Z</time></trkpt><trkpt lat="42.412711335434814" lon="14.23534903250107"><ele>79.0</ele><time>2026-03-30T08:53:10.978Z</time></trkpt><trkpt lat="42.41278601311956" lon="14.235363647956245"><ele>79.0</ele><time>2026-03-30T08:53:14.979Z</time></trkpt><trkpt lat="42.41291100740411" lon="14.23529895044535"><ele>79.0</ele><time>2026-03-30T08:53:16.979Z</time></trkpt><trkpt lat="42.412997870985926" lon="14.23524977182302"><ele>79.0</ele><time>2026-03-30T08:53:17.979Z</time></trkpt><trkpt lat="42.413079005254815" lon="14.235202801260439"><ele>79.0</ele><time>2026-03-30T08:53:18.979Z</time></trkpt><trkpt lat="42.413159230436825" lon="14.235194406829844"><ele>82.0</ele><time>2026-03-30T08:53:20.979Z</time></trkpt><trkpt lat="42.41324417425022" lon="14.235234659474195"><ele>85.0</ele><time>2026-03-30T08:53:22.979Z</time></trkpt><trkpt lat="42.41330673962093" lon="14.235272748587207"><ele>88.0</ele><time>2026-03-30T08:53:23.979Z</time></trkpt><trkpt lat="42.41337367502223" lon="14.235331803975402"><ele>91.0</ele><time>2026-03-30T08:53:24.979Z</time></trkpt><trkpt lat="42.41343942923519" lon="14.235386885610769"><ele>94.00000000000001</ele><time>2026-03-30T08:53:25.979Z</time></trkpt><trkpt lat="42.413496083490266" lon="14.235469461353905"><ele>97.0</ele><time>2026-03-30T08:53:26.979Z</time></trkpt><trkpt lat="42.41355417495099" lon="14.235556976456408"><ele>97.00000000000001</ele><time>2026-03-30T08:53:28.979Z</time></trkpt><trkpt lat="42.413613646052866" lon="14.235611610737513"><ele>97.0</ele><time>2026-03-30T08:53:31.979Z</time></trkpt><trkpt lat="42.41368146815968" lon="14.23561560717554"><ele>97.0</ele><time>2026-03-30T08:53:33.979Z</time></trkpt><trkpt lat="42.413764912330464" lon="14.235629939757809"><ele>97.0</ele><time>2026-03-30T08:53:35.979Z</time></trkpt><trkpt lat="42.413833832280794" lon="14.235608282610071"><ele>97.00000000000001</ele><time>2026-03-30T08:53:38.979Z</time></trkpt><trkpt lat="42.413758166984195" lon="14.235593860874486"><ele>97.0</ele><time>2026-03-30T08:53:49.979Z</time></trkpt><trkpt lat="42.41365895005536" lon="14.23562242956596"><ele>97.00000000000001</ele><time>2026-03-30T08:53:51.979Z</time></trkpt><trkpt lat="42.41356809714694" lon="14.235576278590086"><ele>97.0</ele><time>2026-03-30T08:53:53.979Z</time></trkpt><trkpt lat="42.41351850545852" lon="14.235518538926888"><ele>97.0</ele><time>2026-03-30T08:53:54.979Z</time></trkpt><trkpt lat="42.41347263363498" lon="14.235441694093618"><ele>97.0</ele><time>2026-03-30T08:53:55.979Z</time></trkpt><trkpt lat="42.41342708859368" lon="14.235379538831829"><ele>97.00000000000001</ele><time>2026-03-30T08:53:56.979Z</time></trkpt><trkpt lat="42.41333948478911" lon="14.235305197898791"><ele>97.0</ele><time>2026-03-30T08:53:58.979Z</time></trkpt><trkpt lat="42.4132373809738" lon="14.23526105100323"><ele>97.00000000000001</ele><time>2026-03-30T08:54:00.979Z</time></trkpt><trkpt lat="42.413157166701204" lon="14.235235168585572"><ele>97.0</ele><time>2026-03-30T08:54:02.979Z</time></trkpt><trkpt lat="42.41307933419367" lon="14.235250807177046"><ele>97.0</ele><time>2026-03-30T08:54:04.979Z</time></trkpt><trkpt lat="42.41300747038338" lon="14.23528514504704"><ele>97.0</ele><time>2026-03-30T08:54:05.979Z</time></trkpt><trkpt lat="42.41291708064676" lon="14.235326657028537"><ele>97.00000000000001</ele><time>2026-03-30T08:54:06.979Z</time></trkpt><trkpt lat="42.41283241409933" lon="14.235363868686935"><ele>97.0</ele><time>2026-03-30T08:54:08.979Z</time></trkpt><trkpt lat="42.41277452486711" lon="14.235408464781063"><ele>97.00000000000001</ele><time>2026-03-30T08:54:19.979Z</time></trkpt><trkpt lat="42.41282154722014" lon="14.235322134827733"><ele>97.0</ele><time>2026-03-30T08:54:52.98Z</time></trkpt><trkpt lat="42.4129105872793" lon="14.23529149942793"><ele>97.0</ele><time>2026-03-30T08:54:53.98Z</time></trkpt><trkpt lat="42.41300290062574" lon="14.235255024904905"><ele>97.0</ele><time>2026-03-30T08:54:54.98Z</time></trkpt><trkpt lat="42.41308769408705" lon="14.235213360446917"><ele>97.00000000000001</ele><time>2026-03-30T08:54:55.98Z</time></trkpt><trkpt lat="42.41316912227213" lon="14.235185388999309"><ele>97.0</ele><time>2026-03-30T08:54:56.98Z</time></trkpt><trkpt lat="42.413294134296926" lon="14.235256768071771"><ele>97.00000000000001</ele><time>2026-03-30T08:54:58.98Z</time></trkpt><trkpt lat="42.41337565814283" lon="14.235310348432218"><ele>97.0</ele><time>2026-03-30T08:54:59.98Z</time></trkpt><trkpt lat="42.41344650047085" lon="14.23537665619804"><ele>97.0</ele><time>2026-03-30T08:55:00.98Z</time></trkpt><trkpt lat="42.41349657788301" lon="14.23546510481879"><ele>97.0</ele><time>2026-03-30T08:55:01.98Z</time></trkpt><trkpt lat="42.41355790056622" lon="14.235554063118526"><ele>97.00000000000001</ele><time>2026-03-30T08:55:02.98Z</time></trkpt><trkpt lat="42.413609292143725" lon="14.23562522652514"><ele>97.0</ele><time>2026-03-30T08:55:03.98Z</time></trkpt><trkpt lat="42.41367071119846" lon="14.23565367295007"><ele>97.00000000000001</ele><time>2026-03-30T08:55:04.978Z</time></trkpt><trkpt lat="42.41374304752497" lon="14.235644259852183"><ele>97.0</ele><time>2026-03-30T08:55:05.977Z</time></trkpt><trkpt lat="42.413795552910834" lon="14.235590851780453"><ele>97.0</ele><time>2026-03-30T08:55:11.977Z</time></trkpt><trkpt lat="42.413903407318465" lon="14.235551360053378"><ele>97.0</ele><time>2026-03-30T08:55:14.977Z</time></trkpt><trkpt lat="42.41400431930203" lon="14.235520214062298"><ele>97.00000000000001</ele><time>2026-03-30T08:55:16.977Z</time></trkpt><trkpt lat="42.414042760869435" lon="14.235440473543823"><ele>97.0</ele><time>2026-03-30T08:55:18.977Z</time></trkpt><trkpt lat="42.414082103584356" lon="14.23533647186293"><ele>101.39999999999999</ele><time>2026-03-30T08:55:20.977Z</time></trkpt><trkpt lat="42.41407828313479" lon="14.235190453837134"><ele>105.8</ele><time>2026-03-30T08:55:22.977Z</time></trkpt><trkpt lat="42.41406830041252" lon="14.235077345162514"><ele>110.2</ele><time>2026-03-30T08:55:23.977Z</time></trkpt><trkpt lat="42.414060934616465" lon="14.234932536887621"><ele>114.6</ele><time>2026-03-30T08:55:24.977Z</time></trkpt><trkpt lat="42.41406881920488" lon="14.234786197485368"><ele>119.0</ele><time>2026-03-30T08:55:25.977Z</time></trkpt><trkpt lat="42.41406441963633" lon="14.234636173748244"><ele>122.2</ele><time>2026-03-30T08:55:26.977Z</time></trkpt><trkpt lat="42.41406219828383" lon="14.234490254506403"><ele>125.4</ele><time>2026-03-30T08:55:27.977Z</time></trkpt><trkpt lat="42.414067145419864" lon="14.234346629037812"><ele>128.6</ele><time>2026-03-30T08:55:28.977Z</time></trkpt><trkpt lat="42.414064782891124" lon="14.234222647192063"><ele>131.8</ele><time>2026-03-30T08:55:29.977Z</time></trkpt><trkpt lat="42.41405121049341" lon="14.23407258210874"><ele>135.0</ele><time>2026-03-30T08:55:30.977Z</time></trkpt><trkpt lat="42.4140209308551" lon="14.233923248720938"><ele>137.8</ele><time>2026-03-30T08:55:31.977Z</time></trkpt><trkpt lat="42.4139877164459" lon="14.23379959387437"><ele>140.6</ele><time>2026-03-30T08:55:32.977Z</time></trkpt><trkpt lat="42.413944751167215" lon="14.233668273592622"><ele>143.4</ele><time>2026-03-30T08:55:33.977Z</time></trkpt><trkpt lat="42.413905268765205" lon="14.233543976835996"><ele>146.2</ele><time>2026-03-30T08:55:34.977Z</time></trkpt><trkpt lat="42.41387719558408" lon="14.233441808474327"><ele>149.0</ele><time>2026-03-30T08:55:35.977Z</time></trkpt><trkpt lat="42.413858720144454" lon="14.233308300045628"><ele>149.0</ele><time>2026-03-30T08:55:36.977Z</time></trkpt><trkpt lat="42.41383776408228" lon="14.233199394889285"><ele>149.0</ele><time>2026-03-30T08:55:37.977Z</time></trkpt><trkpt lat="42.41383796869266" lon="14.233098323057119"><ele>149.0</ele><time>2026-03-30T08:55:38.977Z</time></trkpt><trkpt lat="42.41385042233244" lon="14.232990914089948"><ele>149.0</ele><time>2026-03-30T08:55:39.977Z</time></trkpt><trkpt lat="42.41384945723788" lon="14.232882316209283"><ele>149.0</ele><time>2026-03-30T08:55:40.977Z</time></trkpt><trkpt lat="42.41385514873362" lon="14.23279349359759"><ele>149.0</ele><time>2026-03-30T08:55:41.977Z</time></trkpt><trkpt lat="42.413854130833684" lon="14.232668283073949"><ele>148.0</ele><time>2026-03-30T08:55:43.977Z</time></trkpt><trkpt lat="42.41385858451985" lon="14.232529545877327"><ele>147.0</ele><time>2026-03-30T08:55:47.977Z</time></trkpt><trkpt lat="42.41387569925084" lon="14.232377328725098"><ele>146.0</ele><time>2026-03-30T08:55:49.977Z</time></trkpt><trkpt lat="42.4138833684328" lon="14.232204870134105"><ele>145.0</ele><time>2026-03-30T08:55:51.977Z</time></trkpt><trkpt lat="42.413882988599305" lon="14.232116920573974"><ele>144.0</ele><time>2026-03-30T08:55:52.977Z</time></trkpt><trkpt lat="42.41389923698055" lon="14.23198736216305"><ele>143.16666666666666</ele><time>2026-03-30T08:55:54.977Z</time></trkpt><trkpt lat="42.413897021617075" lon="14.2318555587676"><ele>142.33333333333334</ele><time>2026-03-30T08:55:56.977Z</time></trkpt><trkpt lat="42.41390499746811" lon="14.231723385537396"><ele>141.5</ele><time>2026-03-30T08:55:58.977Z</time></trkpt><trkpt lat="42.4138997280782" lon="14.231606382821274"><ele>140.66666666666669</ele><time>2026-03-30T08:56:00.977Z</time></trkpt><trkpt lat="42.41390584799686" lon="14.231509697097955"><ele>139.83333333333334</ele><time>2026-03-30T08:56:02.977Z</time></trkpt><trkpt lat="42.4138962405862" lon="14.231392989290033"><ele>139.0</ele><time>2026-03-30T08:56:04.977Z</time></trkpt><trkpt lat="42.41389295222501" lon="14.231252467327266"><ele>139.0</ele><time>2026-03-30T08:56:05.977Z</time></trkpt><trkpt lat="42.41388636175159" lon="14.23110507514923"><ele>139.0</ele><time>2026-03-30T08:56:06.977Z</time></trkpt><trkpt lat="42.413884702174535" lon="14.23095223575888"><ele>139.0</ele><time>2026-03-30T08:56:07.977Z</time></trkpt><trkpt lat="42.41389817414019" lon="14.230814025439768"><ele>139.0</ele><time>2026-03-30T08:56:08.977Z</time></trkpt><trkpt lat="42.413899989058265" lon="14.23069127285637"><ele>139.0</ele><time>2026-03-30T08:56:09.977Z</time></trkpt><trkpt lat="42.41390124577862" lon="14.230560010880435"><ele>139.2</ele><time>2026-03-30T08:56:10.977Z</time></trkpt><trkpt lat="42.41389980353743" lon="14.230427185377318"><ele>139.4</ele><time>2026-03-30T08:56:11.977Z</time></trkpt><trkpt lat="42.413891521936726" lon="14.230286696791605"><ele>139.6</ele><time>2026-03-30T08:56:12.977Z</time></trkpt><trkpt lat="42.41386891882374" lon="14.230151319488458"><ele>139.8</ele><time>2026-03-30T08:56:13.977Z</time></trkpt><trkpt lat="42.41384868306873" lon="14.230017458224356"><ele>140.0</ele><time>2026-03-30T08:56:14.977Z</time></trkpt><trkpt lat="42.413825089973855" lon="14.229883822868475"><ele>142.33333333333331</ele><time>2026-03-30T08:56:15.977Z</time></trkpt><trkpt lat="42.41380443128558" lon="14.229763795272968"><ele>144.66666666666666</ele><time>2026-03-30T08:56:16.977Z</time></trkpt><trkpt lat="42.41379344814749" lon="14.229645151107047"><ele>147.0</ele><time>2026-03-30T08:56:17.977Z</time></trkpt><trkpt lat="42.413817108455696" lon="14.229533381988917"><ele>149.33333333333334</ele><time>2026-03-30T08:56:18.977Z</time></trkpt><trkpt lat="42.41388526763796" lon="14.229450820143661"><ele>151.66666666666669</ele><time>2026-03-30T08:56:20.977Z</time></trkpt><trkpt lat="42.41395059413682" lon="14.229454892085787"><ele>154.0</ele><time>2026-03-30T08:56:21.977Z</time></trkpt><trkpt lat="42.4140551204417" lon="14.229409980238081"><ele>154.0</ele><time>2026-03-30T08:56:22.977Z</time></trkpt><trkpt lat="42.414140003837836" lon="14.229364195275314"><ele>154.0</ele><time>2026-03-30T08:56:23.977Z</time></trkpt><trkpt lat="42.41420068190901" lon="14.22933218656787"><ele>154.0</ele><time>2026-03-30T08:56:24.977Z</time></trkpt><trkpt lat="42.414292093209774" lon="14.229270724028451"><ele>154.0</ele><time>2026-03-30T08:56:26.977Z</time></trkpt><trkpt lat="42.41443453180172" lon="14.229597181350034"><ele>154.0</ele><time>2026-03-30T08:56:29.977Z</time></trkpt><trkpt lat="42.41447763936415" lon="14.22975344761524"><ele>154.0</ele><time>2026-03-30T08:56:30.977Z</time></trkpt><trkpt lat="42.41451511395925" lon="14.229918480125344"><ele>154.0</ele><time>2026-03-30T08:56:31.977Z</time></trkpt><trkpt lat="42.41453874680743" lon="14.230109851611923"><ele>154.0</ele><time>2026-03-30T08:56:32.977Z</time></trkpt><trkpt lat="42.41456232467496" lon="14.230290107479389"><ele>151.2</ele><time>2026-03-30T08:56:33.977Z</time></trkpt><trkpt lat="42.414586264882374" lon="14.23045456077319"><ele>148.4</ele><time>2026-03-30T08:56:34.977Z</time></trkpt><trkpt lat="42.41459469557366" lon="14.230599199676556"><ele>145.6</ele><time>2026-03-30T08:56:35.977Z</time></trkpt><trkpt lat="42.41460071983557" lon="14.230710688447331"><ele>142.8</ele><time>2026-03-30T08:56:36.977Z</time></trkpt><trkpt lat="42.414603382952635" lon="14.230856665136093"><ele>140.0</ele><time>2026-03-30T08:56:38.977Z</time></trkpt><trkpt lat="42.414612616204735" lon="14.231010668330985"><ele>139.83333333333331</ele><time>2026-03-30T08:56:40.977Z</time></trkpt><trkpt lat="42.414614448330745" lon="14.231115557618624"><ele>139.66666666666666</ele><time>2026-03-30T08:56:41.978Z</time></trkpt><trkpt lat="42.41462682873829" lon="14.231224494604554"><ele>139.5</ele><time>2026-03-30T08:56:42.978Z</time></trkpt><trkpt lat="42.41463785508085" lon="14.231331025269439"><ele>139.33333333333334</ele><time>2026-03-30T08:56:43.978Z</time></trkpt><trkpt lat="42.41465465914998" lon="14.231434674661102"><ele>139.16666666666669</ele><time>2026-03-30T08:56:44.978Z</time></trkpt><trkpt lat="42.41467030946963" lon="14.23152273419364"><ele>139.0</ele><time>2026-03-30T08:56:45.978Z</time></trkpt><trkpt lat="42.41468725839164" lon="14.23161467052369"><ele>142.33333333333334</ele><time>2026-03-30T08:56:46.978Z</time></trkpt><trkpt lat="42.414695002047516" lon="14.231702879348607"><ele>145.66666666666669</ele><time>2026-03-30T08:56:47.978Z</time></trkpt><trkpt lat="42.41471654073507" lon="14.231818834178691"><ele>149.0</ele><time>2026-03-30T08:56:48.978Z</time></trkpt><trkpt lat="42.414754771995604" lon="14.231932114482094"><ele>152.33333333333334</ele><time>2026-03-30T08:56:49.978Z</time></trkpt><trkpt lat="42.41480010841666" lon="14.232023415707232"><ele>155.66666666666666</ele><time>2026-03-30T08:56:50.978Z</time></trkpt><trkpt lat="42.4148756338571" lon="14.232119135772285"><ele>159.0</ele><time>2026-03-30T08:56:51.978Z</time></trkpt><trkpt lat="42.414923570034105" lon="14.232195091807599"><ele>159.0</ele><time>2026-03-30T08:56:52.978Z</time></trkpt><trkpt lat="42.41493752652794" lon="14.232285599717013"><ele>159.0</ele><time>2026-03-30T08:56:53.978Z</time></trkpt><trkpt lat="42.41492093732595" lon="14.232403728381877"><ele>159.0</ele><time>2026-03-30T08:56:54.978Z</time></trkpt><trkpt lat="42.414891765913474" lon="14.23252026334652"><ele>159.0</ele><time>2026-03-30T08:56:55.978Z</time></trkpt><trkpt lat="42.414857446459784" lon="14.23262487604917"><ele>159.0</ele><time>2026-03-30T08:56:56.978Z</time></trkpt><trkpt lat="42.41480625084129" lon="14.23268165546998"><ele>159.0</ele><time>2026-03-30T08:56:57.978Z</time></trkpt><trkpt lat="42.414719707792656" lon="14.232737881163764"><ele>159.33333333333334</ele><time>2026-03-30T08:56:59.978Z</time></trkpt><trkpt lat="42.41481653047039" lon="14.23278404739753"><ele>159.66666666666666</ele><time>2026-03-30T08:57:02.978Z</time></trkpt><trkpt lat="42.41488647519562" lon="14.232752055604498"><ele>160.0</ele><time>2026-03-30T08:57:03.978Z</time></trkpt><trkpt lat="42.41497549957762" lon="14.232727501040975"><ele>160.33333333333331</ele><time>2026-03-30T08:57:04.978Z</time></trkpt><trkpt lat="42.415065246079955" lon="14.232692095874533"><ele>160.66666666666666</ele><time>2026-03-30T08:57:05.978Z</time></trkpt><trkpt lat="42.415139923381155" lon="14.232637684380071"><ele>161.0</ele><time>2026-03-30T08:57:06.978Z</time></trkpt><trkpt lat="42.41519840133125" lon="14.232568895309067"><ele>161.0</ele><time>2026-03-30T08:57:07.978Z</time></trkpt><trkpt lat="42.415267822000494" lon="14.232517917069254"><ele>161.0</ele><time>2026-03-30T08:57:08.978Z</time></trkpt><trkpt lat="42.41535673488058" lon="14.232512782470705"><ele>161.0</ele><time>2026-03-30T08:57:09.978Z</time></trkpt><trkpt lat="42.41542090337717" lon="14.232468224295351"><ele>161.0</ele><time>2026-03-30T08:57:10.975Z</time></trkpt><trkpt lat="42.415481269476324" lon="14.232411091563808"><ele>161.0</ele><time>2026-03-30T08:57:11.975Z</time></trkpt><trkpt lat="42.415587876498215" lon="14.232324687279075"><ele>161.0</ele><time>2026-03-30T08:57:13.974Z</time></trkpt><trkpt lat="42.415643463142594" lon="14.232284383835761"><ele>162.33333333333331</ele><time>2026-03-30T08:57:14.975Z</time></trkpt><trkpt lat="42.41570098586172" lon="14.232239888978608"><ele>163.66666666666666</ele><time>2026-03-30T08:57:15.975Z</time></trkpt><trkpt lat="42.415762916073184" lon="14.232196067244878"><ele>165.0</ele><time>2026-03-30T08:57:16.974Z</time></trkpt><trkpt lat="42.41582912162674" lon="14.232144390235362"><ele>166.33333333333334</ele><time>2026-03-30T08:57:17.975Z</time></trkpt><trkpt lat="42.41590055011607" lon="14.232092602894639"><ele>167.66666666666669</ele><time>2026-03-30T08:57:18.975Z</time></trkpt><trkpt lat="42.41598665792137" lon="14.232051426037453"><ele>169.0</ele><time>2026-03-30T08:57:19.974Z</time></trkpt><trkpt lat="42.41606148894557" lon="14.231973374615794"><ele>169.0</ele><time>2026-03-30T08:57:20.975Z</time></trkpt><trkpt lat="42.41614325819573" lon="14.231915060469003"><ele>169.0</ele><time>2026-03-30T08:57:21.975Z</time></trkpt><trkpt lat="42.41621681595707" lon="14.231855459150262"><ele>169.0</ele><time>2026-03-30T08:57:22.974Z</time></trkpt><trkpt lat="42.41628806162505" lon="14.231796720353197"><ele>169.0</ele><time>2026-03-30T08:57:23.974Z</time></trkpt><trkpt lat="42.41635897276946" lon="14.23174267386429"><ele>169.0</ele><time>2026-03-30T08:57:24.974Z</time></trkpt><trkpt lat="42.41643661091789" lon="14.231683371099622"><ele>169.0</ele><time>2026-03-30T08:57:25.974Z</time></trkpt><trkpt lat="42.41651137411533" lon="14.231626502419395"><ele>168.79999999999998</ele><time>2026-03-30T08:57:26.974Z</time></trkpt><trkpt lat="42.41658407074159" lon="14.231568320750053"><ele>168.6</ele><time>2026-03-30T08:57:27.974Z</time></trkpt><trkpt lat="42.4166491900341" lon="14.231518524479947"><ele>168.4</ele><time>2026-03-30T08:57:28.974Z</time></trkpt><trkpt lat="42.41675702824827" lon="14.231438947083282"><ele>168.2</ele><time>2026-03-30T08:57:30.974Z</time></trkpt><trkpt lat="42.41684858620743" lon="14.231387489026883"><ele>168.0</ele><time>2026-03-30T08:57:32.974Z</time></trkpt><trkpt lat="42.416920241279755" lon="14.23133215349476"><ele>168.0</ele><time>2026-03-30T08:57:34.974Z</time></trkpt><trkpt lat="42.41697731725545" lon="14.231288076928076"><ele>168.0</ele><time>2026-03-30T08:57:37.974Z</time></trkpt><trkpt lat="42.416983202146106" lon="14.231090849148325"><ele>168.0</ele><time>2026-03-30T08:57:42.974Z</time></trkpt><trkpt lat="42.41691042159379" lon="14.23095135261332"><ele>168.0</ele><time>2026-03-30T08:57:44.974Z</time></trkpt><trkpt lat="42.41686285665029" lon="14.230862746757333"><ele>168.0</ele><time>2026-03-30T08:57:45.974Z</time></trkpt><trkpt lat="42.416812000994355" lon="14.230778775102731"><ele>168.0</ele><time>2026-03-30T08:57:46.974Z</time></trkpt><trkpt lat="42.41675684894752" lon="14.230680613007682"><ele>168.0</ele><time>2026-03-30T08:57:47.974Z</time></trkpt><trkpt lat="42.41669755441616" lon="14.230577436519761"><ele>168.0</ele><time>2026-03-30T08:57:48.974Z</time></trkpt><trkpt lat="42.41662773758987" lon="14.230477829634978"><ele>168.0</ele><time>2026-03-30T08:57:49.974Z</time></trkpt><trkpt lat="42.416554246280505" lon="14.230376698568488"><ele>168.0</ele><time>2026-03-30T08:57:50.975Z</time></trkpt><trkpt lat="42.41647994777763" lon="14.230280560494663"><ele>168.0</ele><time>2026-03-30T08:57:51.975Z</time></trkpt><trkpt lat="42.41641065547963" lon="14.230197123194234"><ele>168.0</ele><time>2026-03-30T08:57:52.975Z</time></trkpt><trkpt lat="42.41636126791006" lon="14.230105109301297"><ele>168.0</ele><time>2026-03-30T08:57:53.975Z</time></trkpt><trkpt lat="42.416303920018784" lon="14.23003868185279"><ele>168.0</ele><time>2026-03-30T08:57:54.975Z</time></trkpt><trkpt lat="42.41625339310074" lon="14.229975181962322"><ele>168.0</ele><time>2026-03-30T08:57:55.975Z</time></trkpt><trkpt lat="42.41618445899694" lon="14.229873656402608"><ele>168.0</ele><time>2026-03-30T08:57:57.975Z</time></trkpt><trkpt lat="42.41624329802016" lon="14.229745413217499"><ele>168.0</ele><time>2026-03-30T08:57:59.976Z</time></trkpt><trkpt lat="42.41630987081427" lon="14.22963599379491"><ele>168.0</ele><time>2026-03-30T08:58:00.976Z</time></trkpt><trkpt lat="42.41638751427927" lon="14.229516448828958"><ele>168.0</ele><time>2026-03-30T08:58:01.976Z</time></trkpt><trkpt lat="42.41646183349768" lon="14.229372222907624"><ele>168.0</ele><time>2026-03-30T08:58:02.976Z</time></trkpt><trkpt lat="42.41654256174957" lon="14.229240562804991"><ele>167.60000000000002</ele><time>2026-03-30T08:58:03.976Z</time></trkpt><trkpt lat="42.416616397132856" lon="14.229120369458634"><ele>167.20000000000002</ele><time>2026-03-30T08:58:04.976Z</time></trkpt><trkpt lat="42.41668267874823" lon="14.229013607980916"><ele>166.8</ele><time>2026-03-30T08:58:05.976Z</time></trkpt><trkpt lat="42.41674874783107" lon="14.22891608743368"><ele>166.4</ele><time>2026-03-30T08:58:06.976Z</time></trkpt><trkpt lat="42.41681288012365" lon="14.228813522558061"><ele>166.0</ele><time>2026-03-30T08:58:07.976Z</time></trkpt><trkpt lat="42.416867802094224" lon="14.22871055579498"><ele>166.0</ele><time>2026-03-30T08:58:08.976Z</time></trkpt><trkpt lat="42.41693207114643" lon="14.228624304453518"><ele>166.0</ele><time>2026-03-30T08:58:09.976Z</time></trkpt><trkpt lat="42.41698278328656" lon="14.228513991458309"><ele>166.0</ele><time>2026-03-30T08:58:10.976Z</time></trkpt><trkpt lat="42.41702070094429" lon="14.22838822329037"><ele>166.0</ele><time>2026-03-30T08:58:11.976Z</time></trkpt><trkpt lat="42.41704119012622" lon="14.228248862812976"><ele>166.0</ele><time>2026-03-30T08:58:12.976Z</time></trkpt><trkpt lat="42.41706081787201" lon="14.22809287253003"><ele>166.4</ele><time>2026-03-30T08:58:13.976Z</time></trkpt><trkpt lat="42.4170821667883" lon="14.227940537911877"><ele>166.8</ele><time>2026-03-30T08:58:14.976Z</time></trkpt><trkpt lat="42.417104578236206" lon="14.227788451922093"><ele>167.20000000000002</ele><time>2026-03-30T08:58:15.976Z</time></trkpt><trkpt lat="42.41713049527081" lon="14.227661167365051"><ele>167.60000000000002</ele><time>2026-03-30T08:58:16.976Z</time></trkpt><trkpt lat="42.41716359036557" lon="14.227534709269621"><ele>168.0</ele><time>2026-03-30T08:58:17.976Z</time></trkpt><trkpt lat="42.41720097556927" lon="14.227414715958197"><ele>165.33333333333334</ele><time>2026-03-30T08:58:18.976Z</time></trkpt><trkpt lat="42.41722532389855" lon="14.227298477929946"><ele>162.66666666666666</ele><time>2026-03-30T08:58:19.976Z</time></trkpt><trkpt lat="42.417251736030735" lon="14.227196871418494"><ele>160.0</ele><time>2026-03-30T08:58:20.977Z</time></trkpt><trkpt lat="42.41728078687322" lon="14.227096455161728"><ele>157.33333333333331</ele><time>2026-03-30T08:58:21.977Z</time></trkpt><trkpt lat="42.417303874789425" lon="14.226999934822256"><ele>154.66666666666666</ele><time>2026-03-30T08:58:22.977Z</time></trkpt><trkpt lat="42.417331046563824" lon="14.226903736057405"><ele>152.0</ele><time>2026-03-30T08:58:23.977Z</time></trkpt><trkpt lat="42.41735392413198" lon="14.226805763944144"><ele>152.0</ele><time>2026-03-30T08:58:24.977Z</time></trkpt><trkpt lat="42.4173840334533" lon="14.22670636651285"><ele>152.0</ele><time>2026-03-30T08:58:25.977Z</time></trkpt><trkpt lat="42.417410247295294" lon="14.226598664708451"><ele>152.0</ele><time>2026-03-30T08:58:26.977Z</time></trkpt><trkpt lat="42.417436414515656" lon="14.226495206163861"><ele>152.0</ele><time>2026-03-30T08:58:27.977Z</time></trkpt><trkpt lat="42.41748350143332" lon="14.226398135008798"><ele>152.0</ele><time>2026-03-30T08:58:28.977Z</time></trkpt><trkpt lat="42.41750517581485" lon="14.226282410693969"><ele>152.0</ele><time>2026-03-30T08:58:29.977Z</time></trkpt><trkpt lat="42.417543537696005" lon="14.226174991770643"><ele>150.66666666666666</ele><time>2026-03-30T08:58:30.977Z</time></trkpt><trkpt lat="42.417569094748806" lon="14.226079721961748"><ele>149.33333333333331</ele><time>2026-03-30T08:58:31.977Z</time></trkpt><trkpt lat="42.41761300790267" lon="14.225991136937706"><ele>148.0</ele><time>2026-03-30T08:58:33.977Z</time></trkpt><trkpt lat="42.41765309156761" lon="14.225917533838249"><ele>146.66666666666666</ele><time>2026-03-30T08:58:45.977Z</time></trkpt><trkpt lat="42.41758153081343" lon="14.226003263974102"><ele>145.33333333333334</ele><time>2026-03-30T08:59:27.974Z</time></trkpt><trkpt lat="42.417558000270276" lon="14.226092832188378"><ele>144.0</ele><time>2026-03-30T08:59:28.975Z</time></trkpt><trkpt lat="42.41753973632275" lon="14.226226640987505"><ele>144.0</ele><time>2026-03-30T08:59:29.974Z</time></trkpt><trkpt lat="42.41748347515639" lon="14.226358676973783"><ele>144.0</ele><time>2026-03-30T08:59:30.974Z</time></trkpt><trkpt lat="42.41743781453907" lon="14.226513809376423"><ele>144.0</ele><time>2026-03-30T08:59:31.974Z</time></trkpt><trkpt lat="42.41739317703559" lon="14.226662700213929"><ele>144.0</ele><time>2026-03-30T08:59:32.974Z</time></trkpt><trkpt lat="42.417356745709405" lon="14.226794982462648"><ele>145.6</ele><time>2026-03-30T08:59:33.974Z</time></trkpt><trkpt lat="42.41732040719799" lon="14.226918705262625"><ele>147.2</ele><time>2026-03-30T08:59:34.974Z</time></trkpt><trkpt lat="42.41729847924691" lon="14.227047789781027"><ele>148.79999999999998</ele><time>2026-03-30T08:59:35.974Z</time></trkpt><trkpt lat="42.41727155752363" lon="14.227179722603008"><ele>150.4</ele><time>2026-03-30T08:59:36.974Z</time></trkpt><trkpt lat="42.4172364928513" lon="14.227312722932039"><ele>152.0</ele><time>2026-03-30T08:59:37.974Z</time></trkpt><trkpt lat="42.417201954556155" lon="14.227443724809802"><ele>152.4</ele><time>2026-03-30T08:59:38.974Z</time></trkpt><trkpt lat="42.417165797890384" lon="14.22757199200699"><ele>152.79999999999998</ele><time>2026-03-30T08:59:39.974Z</time></trkpt><trkpt lat="42.4171277659342" lon="14.22771430018824"><ele>153.2</ele><time>2026-03-30T08:59:40.974Z</time></trkpt><trkpt lat="42.41707484251751" lon="14.227860931164278"><ele>153.6</ele><time>2026-03-30T08:59:41.974Z</time></trkpt><trkpt lat="42.417021955932285" lon="14.227989058154824"><ele>154.0</ele><time>2026-03-30T08:59:42.974Z</time></trkpt><trkpt lat="42.416996165480825" lon="14.228123590043117"><ele>156.4</ele><time>2026-03-30T08:59:43.974Z</time></trkpt><trkpt lat="42.4169513775631" lon="14.228230867625665"><ele>158.8</ele><time>2026-03-30T08:59:44.974Z</time></trkpt><trkpt lat="42.41696997442435" lon="14.228365811512615"><ele>161.20000000000002</ele><time>2026-03-30T08:59:45.974Z</time></trkpt><trkpt lat="42.41697396583013" lon="14.228486379038811"><ele>163.60000000000002</ele><time>2026-03-30T08:59:46.974Z</time></trkpt><trkpt lat="42.41697688135212" lon="14.228603033936823"><ele>166.0</ele><time>2026-03-30T08:59:47.974Z</time></trkpt><trkpt lat="42.4168608004207" lon="14.2286903755568"><ele>166.0</ele><time>2026-03-30T08:59:48.974Z</time></trkpt><trkpt lat="42.41681090279154" lon="14.228783926006221"><ele>166.0</ele><time>2026-03-30T08:59:49.974Z</time></trkpt><trkpt lat="42.41675065523272" lon="14.228895538621467"><ele>166.0</ele><time>2026-03-30T08:59:50.974Z</time></trkpt><trkpt lat="42.416685336916" lon="14.229004947971692"><ele>166.0</ele><time>2026-03-30T08:59:51.974Z</time></trkpt><trkpt lat="42.41660179095691" lon="14.22913589495164"><ele>166.0</ele><time>2026-03-30T08:59:52.974Z</time></trkpt><trkpt lat="42.41651859360933" lon="14.229263406922724"><ele>166.4</ele><time>2026-03-30T08:59:53.974Z</time></trkpt><trkpt lat="42.41644860136794" lon="14.229375021545694"><ele>166.8</ele><time>2026-03-30T08:59:54.974Z</time></trkpt><trkpt lat="42.41638408672779" lon="14.229483765749015"><ele>167.20000000000002</ele><time>2026-03-30T08:59:55.974Z</time></trkpt><trkpt lat="42.41632703577384" lon="14.229573976635017"><ele>167.60000000000002</ele><time>2026-03-30T08:59:56.974Z</time></trkpt><trkpt lat="42.41627187837376" lon="14.229644001816462"><ele>168.0</ele><time>2026-03-30T08:59:57.974Z</time></trkpt><trkpt lat="42.416206204620785" lon="14.229753608189123"><ele>168.0</ele><time>2026-03-30T08:59:59.974Z</time></trkpt><trkpt lat="42.41613008539752" lon="14.229758462757523"><ele>168.0</ele><time>2026-03-30T09:00:01.974Z</time></trkpt><trkpt lat="42.416047344545774" lon="14.229713617868418"><ele>168.0</ele><time>2026-03-30T09:00:03.974Z</time></trkpt><trkpt lat="42.41597885493986" lon="14.2296683708879"><ele>168.0</ele><time>2026-03-30T09:00:05.974Z</time></trkpt><trkpt lat="42.41591333233935" lon="14.22960323957464"><ele>168.0</ele><time>2026-03-30T09:00:06.974Z</time></trkpt><trkpt lat="42.415837118585856" lon="14.22951470561179"><ele>168.0</ele><time>2026-03-30T09:00:07.974Z</time></trkpt><trkpt lat="42.41575997197615" lon="14.229422767411423"><ele>168.0</ele><time>2026-03-30T09:00:08.974Z</time></trkpt><trkpt lat="42.415678035460026" lon="14.229325584914877"><ele>168.0</ele><time>2026-03-30T09:00:09.974Z</time></trkpt><trkpt lat="42.41559237663398" lon="14.22923689818547"><ele>168.0</ele><time>2026-03-30T09:00:10.974Z</time></trkpt><trkpt lat="42.41550783359797" lon="14.229136410667014"><ele>168.0</ele><time>2026-03-30T09:00:11.974Z</time></trkpt><trkpt lat="42.41542149218029" lon="14.229044415140018"><ele>168.0</ele><time>2026-03-30T09:00:12.974Z</time></trkpt><trkpt lat="42.4153480196997" lon="14.22896356357435"><ele>168.4</ele><time>2026-03-30T09:00:13.974Z</time></trkpt><trkpt lat="42.41528263124676" lon="14.228895179856194"><ele>168.8</ele><time>2026-03-30T09:00:14.974Z</time></trkpt><trkpt lat="42.415215873215885" lon="14.228827888655719"><ele>169.2</ele><time>2026-03-30T09:00:15.974Z</time></trkpt><trkpt lat="42.415132102483334" lon="14.228750004599455"><ele>169.6</ele><time>2026-03-30T09:00:16.974Z</time></trkpt><trkpt lat="42.41504039525583" lon="14.22865842395562"><ele>170.0</ele><time>2026-03-30T09:00:17.974Z</time></trkpt><trkpt lat="42.41494939555863" lon="14.228564470849095"><ele>170.0</ele><time>2026-03-30T09:00:18.974Z</time></trkpt><trkpt lat="42.41485776033398" lon="14.228475336825182"><ele>170.0</ele><time>2026-03-30T09:00:19.974Z</time></trkpt><trkpt lat="42.414765031140874" lon="14.228384257997286"><ele>170.0</ele><time>2026-03-30T09:00:20.974Z</time></trkpt><trkpt lat="42.414665958927536" lon="14.22829578474562"><ele>170.0</ele><time>2026-03-30T09:00:21.974Z</time></trkpt><trkpt lat="42.414563678767806" lon="14.22821311858935"><ele>169.75</ele><time>2026-03-30T09:00:22.974Z</time></trkpt><trkpt lat="42.41445827937786" lon="14.228131951751243"><ele>169.5</ele><time>2026-03-30T09:00:23.974Z</time></trkpt><trkpt lat="42.41435410397834" lon="14.228056704923212"><ele>169.25</ele><time>2026-03-30T09:00:24.974Z</time></trkpt><trkpt lat="42.41424438081463" lon="14.22798409015569"><ele>169.0</ele><time>2026-03-30T09:00:25.974Z</time></trkpt><trkpt lat="42.414128195596675" lon="14.22791675276843"><ele>169.0</ele><time>2026-03-30T09:00:26.974Z</time></trkpt><trkpt lat="42.41400998428853" lon="14.227850916378515"><ele>169.0</ele><time>2026-03-30T09:00:27.974Z</time></trkpt><trkpt lat="42.413892102574025" lon="14.227785383380754"><ele>169.0</ele><time>2026-03-30T09:00:28.974Z</time></trkpt><trkpt lat="42.41377764487958" lon="14.227723032565443"><ele>169.0</ele><time>2026-03-30T09:00:29.974Z</time></trkpt><trkpt lat="42.41368030351333" lon="14.227668419432954"><ele>169.0</ele><time>2026-03-30T09:00:30.974Z</time></trkpt><trkpt lat="42.413602941849796" lon="14.227626382509243"><ele>169.0</ele><time>2026-03-30T09:00:31.974Z</time></trkpt><trkpt lat="42.413537125703634" lon="14.22758687283192"><ele>169.0</ele><time>2026-03-30T09:00:32.974Z</time></trkpt><trkpt lat="42.41347585605153" lon="14.227551767644837"><ele>169.0</ele><time>2026-03-30T09:00:33.974Z</time></trkpt><trkpt lat="42.41336269244539" lon="14.22750448124052"><ele>169.0</ele><time>2026-03-30T09:00:35.974Z</time></trkpt><trkpt lat="42.4132782438637" lon="14.227408932384463"><ele>169.0</ele><time>2026-03-30T09:00:37.974Z</time></trkpt><trkpt lat="42.413211081346574" lon="14.227349348866097"><ele>169.0</ele><time>2026-03-30T09:00:39.974Z</time></trkpt><trkpt lat="42.41314888094124" lon="14.227317537721166"><ele>169.0</ele><time>2026-03-30T09:00:42.974Z</time></trkpt><trkpt lat="42.41308076853906" lon="14.227282856220842"><ele>169.0</ele><time>2026-03-30T09:00:46.974Z</time></trkpt><trkpt lat="42.41316787783489" lon="14.22732847773549"><ele>169.0</ele><time>2026-03-30T09:03:02.973Z</time></trkpt><trkpt lat="42.41324517055358" lon="14.227408262185431"><ele>169.0</ele><time>2026-03-30T09:03:04.973Z</time></trkpt><trkpt lat="42.413327959701896" lon="14.227456798611728"><ele>169.0</ele><time>2026-03-30T09:03:07.973Z</time></trkpt><trkpt lat="42.41338111696582" lon="14.227526364589163"><ele>169.0</ele><time>2026-03-30T09:03:10.973Z</time></trkpt><trkpt lat="42.41350124802789" lon="14.227603587410977"><ele>169.0</ele><time>2026-03-30T09:03:12.973Z</time></trkpt><trkpt lat="42.413580598571386" lon="14.22763598423465"><ele>169.0</ele><time>2026-03-30T09:03:13.973Z</time></trkpt><trkpt lat="42.41366905653396" lon="14.227665761408515"><ele>169.0</ele><time>2026-03-30T09:03:14.973Z</time></trkpt><trkpt lat="42.413711041521694" lon="14.227733039570115"><ele>169.0</ele><time>2026-03-30T09:03:15.973Z</time></trkpt><trkpt lat="42.4138468698727" lon="14.22756457178691"><ele>169.0</ele><time>2026-03-30T09:03:19.973Z</time></trkpt><trkpt lat="42.41387483343091" lon="14.227459319832588"><ele>169.0</ele><time>2026-03-30T09:03:20.973Z</time></trkpt><trkpt lat="42.41390936415662" lon="14.227344985539618"><ele>169.0</ele><time>2026-03-30T09:03:21.973Z</time></trkpt><trkpt lat="42.41394828411262" lon="14.227220330035523"><ele>169.0</ele><time>2026-03-30T09:03:22.973Z</time></trkpt><trkpt lat="42.413981648388805" lon="14.227110944902574"><ele>169.0</ele><time>2026-03-30T09:03:23.973Z</time></trkpt><trkpt lat="42.41400784534101" lon="14.227027005602691"><ele>169.0</ele><time>2026-03-30T09:03:24.973Z</time></trkpt><trkpt lat="42.4140324995698" lon="14.226936406231642"><ele>168.6</ele><time>2026-03-30T09:03:25.973Z</time></trkpt><trkpt lat="42.41407987211098" lon="14.226789479096025"><ele>168.2</ele><time>2026-03-30T09:03:27.973Z</time></trkpt><trkpt lat="42.41412701363594" lon="14.226617889212028"><ele>167.79999999999998</ele><time>2026-03-30T09:03:29.97Z</time></trkpt><trkpt lat="42.414152621808185" lon="14.226538232729439"><ele>167.39999999999998</ele><time>2026-03-30T09:03:30.97Z</time></trkpt><trkpt lat="42.414188222759584" lon="14.226385129117434"><ele>167.0</ele><time>2026-03-30T09:03:32.971Z</time></trkpt><trkpt lat="42.414217804702325" lon="14.226244479793444"><ele>165.8</ele><time>2026-03-30T09:03:34.97Z</time></trkpt><trkpt lat="42.414253927600775" lon="14.226128018974443"><ele>164.6</ele><time>2026-03-30T09:03:36.971Z</time></trkpt><trkpt lat="42.41432650888083" lon="14.226048196106188"><ele>163.4</ele><time>2026-03-30T09:03:38.97Z</time></trkpt><trkpt lat="42.41445876844261" lon="14.226059299275096"><ele>162.20000000000002</ele><time>2026-03-30T09:03:40.971Z</time></trkpt><trkpt lat="42.41452793563001" lon="14.226076925003163"><ele>161.0</ele><time>2026-03-30T09:03:41.971Z</time></trkpt><trkpt lat="42.41460439520845" lon="14.226097165767142"><ele>161.0</ele><time>2026-03-30T09:03:42.971Z</time></trkpt><trkpt lat="42.41466815351556" lon="14.226113764383987"><ele>161.0</ele><time>2026-03-30T09:03:43.971Z</time></trkpt><trkpt lat="42.41470197257769" lon="14.22603119032152"><ele>161.0</ele><time>2026-03-30T09:03:45.971Z</time></trkpt><trkpt lat="42.414706734334146" lon="14.225935990589349"><ele>161.0</ele><time>2026-03-30T09:03:46.971Z</time></trkpt><trkpt lat="42.41469638103886" lon="14.225819891096995"><ele>161.0</ele><time>2026-03-30T09:03:47.971Z</time></trkpt><trkpt lat="42.414660499167475" lon="14.225732208090438"><ele>161.0</ele><time>2026-03-30T09:03:48.971Z</time></trkpt><trkpt lat="42.41462895610213" lon="14.225650909146315"><ele>161.0</ele><time>2026-03-30T09:03:49.971Z</time></trkpt><trkpt lat="42.414591302034225" lon="14.225567472535994"><ele>159.5</ele><time>2026-03-30T09:03:50.971Z</time></trkpt><trkpt lat="42.414535142821244" lon="14.225468743181024"><ele>158.0</ele><time>2026-03-30T09:03:52.971Z</time></trkpt><trkpt lat="42.414505290584216" lon="14.225369258100992"><ele>156.5</ele><time>2026-03-30T09:03:55.971Z</time></trkpt><trkpt lat="42.414488368604935" lon="14.225257627261637"><ele>155.0</ele><time>2026-03-30T09:03:57.971Z</time></trkpt><trkpt lat="42.41447952813553" lon="14.225134744859881"><ele>153.5</ele><time>2026-03-30T09:03:59.971Z</time></trkpt><trkpt lat="42.41448748064888" lon="14.225049020322883"><ele>152.0</ele><time>2026-03-30T09:04:00.971Z</time></trkpt><trkpt lat="42.414533730775766" lon="14.224916151999231"><ele>152.0</ele><time>2026-03-30T09:04:02.971Z</time></trkpt><trkpt lat="42.414616522676745" lon="14.22482313210073"><ele>152.0</ele><time>2026-03-30T09:04:04.971Z</time></trkpt><trkpt lat="42.41468285902941" lon="14.224778389506202"><ele>152.0</ele><time>2026-03-30T09:04:05.971Z</time></trkpt><trkpt lat="42.4147498390736" lon="14.224709343984765"><ele>152.0</ele><time>2026-03-30T09:04:06.971Z</time></trkpt><trkpt lat="42.41480750126124" lon="14.22464331629669"><ele>152.0</ele><time>2026-03-30T09:04:07.971Z</time></trkpt><trkpt lat="42.41486361226991" lon="14.224568584489703"><ele>152.0</ele><time>2026-03-30T09:04:08.971Z</time></trkpt><trkpt lat="42.41493554433027" lon="14.224477322837068"><ele>151.33333333333331</ele><time>2026-03-30T09:04:09.971Z</time></trkpt><trkpt lat="42.415003017767454" lon="14.224389971940056"><ele>150.66666666666666</ele><time>2026-03-30T09:04:10.971Z</time></trkpt><trkpt lat="42.41507197302986" lon="14.224319416552099"><ele>150.0</ele><time>2026-03-30T09:04:11.971Z</time></trkpt><trkpt lat="42.41512416185832" lon="14.224245324662922"><ele>149.33333333333334</ele><time>2026-03-30T09:04:12.971Z</time></trkpt><trkpt lat="42.41515774595733" lon="14.224171696848314"><ele>148.66666666666669</ele><time>2026-03-30T09:04:13.971Z</time></trkpt><trkpt lat="42.41518378759866" lon="14.224080677374529"><ele>148.0</ele><time>2026-03-30T09:04:14.971Z</time></trkpt><trkpt lat="42.415208978723285" lon="14.223967038784197"><ele>146.0</ele><time>2026-03-30T09:04:15.971Z</time></trkpt><trkpt lat="42.4152377619376" lon="14.223823783009196"><ele>144.0</ele><time>2026-03-30T09:04:16.971Z</time></trkpt><trkpt lat="42.41528201527613" lon="14.223712998782469"><ele>142.0</ele><time>2026-03-30T09:04:17.971Z</time></trkpt><trkpt lat="42.415326130084814" lon="14.223639435505147"><ele>140.0</ele><time>2026-03-30T09:04:18.971Z</time></trkpt><trkpt lat="42.415429963930386" lon="14.223534776650716"><ele>138.0</ele><time>2026-03-30T09:04:20.971Z</time></trkpt><trkpt lat="42.41550687326773" lon="14.223520450962464"><ele>138.0</ele><time>2026-03-30T09:04:21.971Z</time></trkpt><trkpt lat="42.41557432648154" lon="14.223503058484395"><ele>138.0</ele><time>2026-03-30T09:04:23.971Z</time></trkpt><trkpt lat="42.41557216013918" lon="14.223412318046103"><ele>138.0</ele><time>2026-03-30T09:04:26.971Z</time></trkpt><trkpt lat="42.41550568217181" lon="14.223363827863603"><ele>138.0</ele><time>2026-03-30T09:04:28.971Z</time></trkpt><trkpt lat="42.41543241441728" lon="14.223352405353971"><ele>138.0</ele><time>2026-03-30T09:04:30.971Z</time></trkpt><trkpt lat="42.41531901799713" lon="14.223382964184603"><ele>138.0</ele><time>2026-03-30T09:04:32.971Z</time></trkpt><trkpt lat="42.415234316686785" lon="14.223469164905902"><ele>139.66666666666666</ele><time>2026-03-30T09:04:34.971Z</time></trkpt><trkpt lat="42.41517104037059" lon="14.223560324809315"><ele>141.33333333333334</ele><time>2026-03-30T09:04:36.971Z</time></trkpt><trkpt lat="42.415102386690755" lon="14.223665814756295"><ele>143.0</ele><time>2026-03-30T09:04:38.971Z</time></trkpt><trkpt lat="42.41504344218633" lon="14.223781288804998"><ele>144.66666666666669</ele><time>2026-03-30T09:04:40.971Z</time></trkpt><trkpt lat="42.41499723874795" lon="14.223844742956773"><ele>146.33333333333334</ele><time>2026-03-30T09:04:41.971Z</time></trkpt><trkpt lat="42.41493421599462" lon="14.223898426879542"><ele>148.0</ele><time>2026-03-30T09:04:42.971Z</time></trkpt><trkpt lat="42.414829165936474" lon="14.223994564316564"><ele>148.0</ele><time>2026-03-30T09:04:44.971Z</time></trkpt><trkpt lat="42.4147599879079" lon="14.224029624704166"><ele>148.0</ele><time>2026-03-30T09:04:45.971Z</time></trkpt><trkpt lat="42.41468968072141" lon="14.224073653597117"><ele>148.0</ele><time>2026-03-30T09:04:46.971Z</time></trkpt><trkpt lat="42.41461747520337" lon="14.224104891879655"><ele>148.0</ele><time>2026-03-30T09:04:47.971Z</time></trkpt><trkpt lat="42.41451758444523" lon="14.224102840907593"><ele>148.0</ele><time>2026-03-30T09:04:48.971Z</time></trkpt><trkpt lat="42.41443967614184" lon="14.224092348372917"><ele>148.0</ele><time>2026-03-30T09:04:50.971Z</time></trkpt><trkpt lat="42.41437874991783" lon="14.223959541010776"><ele>142.20000000000002</ele><time>2026-03-30T09:04:53.971Z</time></trkpt><trkpt lat="42.41434649206251" lon="14.223863074966395"><ele>136.4</ele><time>2026-03-30T09:04:54.971Z</time></trkpt><trkpt lat="42.4142677356527" lon="14.223743580478812"><ele>130.60000000000002</ele><time>2026-03-30T09:04:56.971Z</time></trkpt><trkpt lat="42.414221155827576" lon="14.223658719224357"><ele>124.80000000000001</ele><time>2026-03-30T09:04:58.971Z</time></trkpt><trkpt lat="42.414279526727576" lon="14.223541493771576"><ele>119.0</ele><time>2026-03-30T09:05:00.971Z</time></trkpt><trkpt lat="42.41433243407912" lon="14.223477650537701"><ele>118.99999999999999</ele><time>2026-03-30T09:05:01.971Z</time></trkpt><trkpt lat="42.414373855898766" lon="14.22337237635488"><ele>119.0</ele><time>2026-03-30T09:05:03.971Z</time></trkpt><trkpt lat="42.4143955115001" lon="14.22328690325201"><ele>119.0</ele><time>2026-03-30T09:05:04.971Z</time></trkpt><trkpt lat="42.414420867214474" lon="14.223124205378518"><ele>119.0</ele><time>2026-03-30T09:05:06.971Z</time></trkpt><trkpt lat="42.41443876403617" lon="14.223042376024148"><ele>118.99999999999999</ele><time>2026-03-30T09:05:07.971Z</time></trkpt><trkpt lat="42.41445649496133" lon="14.222951379628299"><ele>119.0</ele><time>2026-03-30T09:05:08.971Z</time></trkpt><trkpt lat="42.41447692522249" lon="14.222777677900527"><ele>116.66666666666666</ele><time>2026-03-30T09:05:10.971Z</time></trkpt><trkpt lat="42.4144842491903" lon="14.222667972768685"><ele>114.33333333333333</ele><time>2026-03-30T09:05:12.971Z</time></trkpt><trkpt lat="42.414470685842026" lon="14.222569722595455"><ele>112.0</ele><time>2026-03-30T09:05:14.971Z</time></trkpt><trkpt lat="42.41442986982375" lon="14.22245661839909"><ele>109.66666666666666</ele><time>2026-03-30T09:05:16.971Z</time></trkpt><trkpt lat="42.414388158388036" lon="14.2223234929213"><ele>107.33333333333333</ele><time>2026-03-30T09:05:18.971Z</time></trkpt><trkpt lat="42.41431811481787" lon="14.22226282841954"><ele>105.0</ele><time>2026-03-30T09:05:20.971Z</time></trkpt><trkpt lat="42.414187504408616" lon="14.22227506791988"><ele>102.83333333333333</ele><time>2026-03-30T09:05:22.971Z</time></trkpt><trkpt lat="42.414087698720074" lon="14.22226448514015"><ele>100.66666666666667</ele><time>2026-03-30T09:05:24.971Z</time></trkpt><trkpt lat="42.414064063600875" lon="14.222176767829948"><ele>98.5</ele><time>2026-03-30T09:05:26.972Z</time></trkpt><trkpt lat="42.41406207678536" lon="14.222089667437196"><ele>96.33333333333334</ele><time>2026-03-30T09:05:28.972Z</time></trkpt><trkpt lat="42.41404576742921" lon="14.221989280836132"><ele>94.16666666666667</ele><time>2026-03-30T09:05:30.972Z</time></trkpt><trkpt lat="42.41400051559245" lon="14.221860795423053"><ele>92.0</ele><time>2026-03-30T09:05:32.972Z</time></trkpt><trkpt lat="42.41394369256471" lon="14.221761148713012"><ele>92.0</ele><time>2026-03-30T09:05:34.969Z</time></trkpt><trkpt lat="42.41384559256105" lon="14.221708717580988"><ele>92.0</ele><time>2026-03-30T09:05:36.969Z</time></trkpt><trkpt lat="42.41380148012994" lon="14.221625692595925"><ele>92.0</ele><time>2026-03-30T09:05:37.969Z</time></trkpt><trkpt lat="42.41374618296371" lon="14.221517699418987"><ele>92.0</ele><time>2026-03-30T09:05:38.968Z</time></trkpt><trkpt lat="42.41369017503621" lon="14.22143836446542"><ele>92.0</ele><time>2026-03-30T09:05:39.968Z</time></trkpt><trkpt lat="42.413634940073166" lon="14.221397041343078"><ele>92.0</ele><time>2026-03-30T09:05:40.968Z</time></trkpt><trkpt lat="42.41356313874475" lon="14.22140104854795"><ele>89.16666666666667</ele><time>2026-03-30T09:05:41.969Z</time></trkpt><trkpt lat="42.41348691504453" lon="14.221383965604357"><ele>86.33333333333334</ele><time>2026-03-30T09:05:42.969Z</time></trkpt><trkpt lat="42.413421792674356" lon="14.221367854215977"><ele>83.5</ele><time>2026-03-30T09:05:43.968Z</time></trkpt><trkpt lat="42.413360718172235" lon="14.221335039141561"><ele>80.66666666666667</ele><time>2026-03-30T09:05:44.968Z</time></trkpt><trkpt lat="42.41329127732084" lon="14.221242805778397"><ele>77.83333333333333</ele><time>2026-03-30T09:05:46.969Z</time></trkpt><trkpt lat="42.41330915782136" lon="14.221079436249223"><ele>75.0</ele><time>2026-03-30T09:05:48.969Z</time></trkpt><trkpt lat="42.413397270269606" lon="14.221037209677784"><ele>75.0</ele><time>2026-03-30T09:05:50.969Z</time></trkpt><trkpt lat="42.413458691863" lon="14.221059998054825"><ele>75.0</ele><time>2026-03-30T09:05:51.969Z</time></trkpt><trkpt lat="42.4135602227845" lon="14.221076924879892"><ele>75.0</ele><time>2026-03-30T09:05:53.969Z</time></trkpt><trkpt lat="42.41359548128446" lon="14.220950515481428"><ele>75.0</ele><time>2026-03-30T09:05:55.969Z</time></trkpt><trkpt lat="42.413601452254824" lon="14.220864560447946"><ele>75.0</ele><time>2026-03-30T09:05:56.969Z</time></trkpt><trkpt lat="42.41362165495178" lon="14.220743856847385"><ele>75.0</ele><time>2026-03-30T09:05:57.969Z</time></trkpt><trkpt lat="42.413621047184165" lon="14.220571818161764"><ele>74.8</ele><time>2026-03-30T09:05:58.969Z</time></trkpt><trkpt lat="42.41361613909865" lon="14.220439292742938"><ele>74.6</ele><time>2026-03-30T09:05:59.969Z</time></trkpt><trkpt lat="42.41361033191137" lon="14.22032198431606"><ele>74.4</ele><time>2026-03-30T09:06:00.969Z</time></trkpt><trkpt lat="42.41360277695625" lon="14.220230197210062"><ele>74.2</ele><time>2026-03-30T09:06:01.969Z</time></trkpt><trkpt lat="42.41358734493577" lon="14.220139482562193"><ele>74.0</ele><time>2026-03-30T09:06:03.969Z</time></trkpt><trkpt lat="42.41343721962771" lon="14.220182225751406"><ele>74.0</ele><time>2026-03-30T09:06:16.969Z</time></trkpt><trkpt lat="42.41332614673632" lon="14.220227258337411"><ele>74.0</ele><time>2026-03-30T09:06:18.969Z</time></trkpt><trkpt lat="42.413237671979374" lon="14.22023369241448"><ele>74.0</ele><time>2026-03-30T09:06:19.969Z</time></trkpt><trkpt lat="42.41316364821763" lon="14.22023959628836"><ele>74.0</ele><time>2026-03-30T09:06:20.969Z</time></trkpt><trkpt lat="42.41307800118662" lon="14.22024739291138"><ele>74.0</ele><time>2026-03-30T09:06:21.969Z</time></trkpt><trkpt lat="42.41296794633241" lon="14.220267798809626"><ele>74.33333333333334</ele><time>2026-03-30T09:06:22.969Z</time></trkpt><trkpt lat="42.412873883320195" lon="14.220301415658433"><ele>74.66666666666667</ele><time>2026-03-30T09:06:23.969Z</time></trkpt><trkpt lat="42.41280289889591" lon="14.220328758355404"><ele>75.0</ele><time>2026-03-30T09:06:24.969Z</time></trkpt><trkpt lat="42.41274122724769" lon="14.22034682520727"><ele>75.33333333333333</ele><time>2026-03-30T09:06:25.969Z</time></trkpt><trkpt lat="42.412618479496" lon="14.220396744213764"><ele>75.66666666666666</ele><time>2026-03-30T09:06:27.969Z</time></trkpt><trkpt lat="42.41256749225514" lon="14.220455768407332"><ele>76.0</ele><time>2026-03-30T09:06:28.969Z</time></trkpt><trkpt lat="42.41247210879036" lon="14.220554179238492"><ele>76.0</ele><time>2026-03-30T09:06:30.969Z</time></trkpt><trkpt lat="42.41237557276609" lon="14.220575445912516"><ele>76.0</ele><time>2026-03-30T09:06:32.969Z</time></trkpt><trkpt lat="42.41228296813116" lon="14.220586574700164"><ele>76.0</ele><time>2026-03-30T09:06:34.969Z</time></trkpt><trkpt lat="42.41219644443918" lon="14.220607053100672"><ele>76.0</ele><time>2026-03-30T09:06:36.969Z</time></trkpt><trkpt lat="42.41211644476546" lon="14.220587899644643"><ele>76.0</ele><time>2026-03-30T09:06:38.969Z</time></trkpt><trkpt lat="42.412003108991705" lon="14.22059456606874"><ele>76.0</ele><time>2026-03-30T09:06:42.969Z</time></trkpt><trkpt lat="42.41211807045425" lon="14.220661873011156"><ele>76.0</ele><time>2026-03-30T09:06:43.969Z</time></trkpt><trkpt lat="42.41218170627328" lon="14.220657036266568"><ele>76.0</ele><time>2026-03-30T09:06:47.969Z</time></trkpt><trkpt lat="42.412248518270786" lon="14.220644658031166"><ele>76.0</ele><time>2026-03-30T09:06:51.969Z</time></trkpt><trkpt lat="42.41231627219852" lon="14.220638128284124"><ele>76.0</ele><time>2026-03-30T09:11:11.966Z</time></trkpt><trkpt lat="42.41229271110105" lon="14.220723289897442"><ele>76.0</ele><time>2026-03-30T09:11:19.966Z</time></trkpt><trkpt lat="42.41230999527072" lon="14.220600939387284"><ele>76.0</ele><time>2026-03-30T09:12:06.964Z</time></trkpt><trkpt lat="42.41242154919541" lon="14.220557629695808"><ele>76.0</ele><time>2026-03-30T09:12:09.964Z</time></trkpt><trkpt lat="42.41252286337801" lon="14.220553226213887"><ele>76.0</ele><time>2026-03-30T09:12:11.964Z</time></trkpt><trkpt lat="42.41260491995835" lon="14.220492885879372"><ele>76.0</ele><time>2026-03-30T09:12:13.964Z</time></trkpt><trkpt lat="42.41268962076243" lon="14.220417047922165"><ele>76.0</ele><time>2026-03-30T09:12:15.964Z</time></trkpt><trkpt lat="42.41281715310732" lon="14.220378252070082"><ele>76.0</ele><time>2026-03-30T09:12:17.964Z</time></trkpt><trkpt lat="42.412892586238264" lon="14.220350319613473"><ele>76.0</ele><time>2026-03-30T09:12:18.964Z</time></trkpt><trkpt lat="42.41297246909733" lon="14.220328093990346"><ele>76.0</ele><time>2026-03-30T09:12:19.964Z</time></trkpt><trkpt lat="42.413041996665285" lon="14.22031214678225"><ele>76.0</ele><time>2026-03-30T09:12:20.964Z</time></trkpt><trkpt lat="42.41310881065902" lon="14.220291836914816"><ele>76.0</ele><time>2026-03-30T09:12:21.964Z</time></trkpt><trkpt lat="42.413172044716156" lon="14.220277881943897"><ele>76.0</ele><time>2026-03-30T09:12:22.964Z</time></trkpt><trkpt lat="42.413252245689804" lon="14.220268753289973"><ele>76.0</ele><time>2026-03-30T09:12:24.964Z</time></trkpt><trkpt lat="42.41333792386142" lon="14.220273849596664"><ele>75.6</ele><time>2026-03-30T09:12:26.964Z</time></trkpt><trkpt lat="42.41346767978949" lon="14.220211880985442"><ele>75.19999999999999</ele><time>2026-03-30T09:12:28.964Z</time></trkpt><trkpt lat="42.41355518592633" lon="14.220132836111686"><ele>74.80000000000001</ele><time>2026-03-30T09:12:30.964Z</time></trkpt><trkpt lat="42.41356027507488" lon="14.21997503792919"><ele>74.4</ele><time>2026-03-30T09:12:33.964Z</time></trkpt><trkpt lat="42.4135498453404" lon="14.2198751452005"><ele>74.0</ele><time>2026-03-30T09:12:34.964Z</time></trkpt><trkpt lat="42.41353954274987" lon="14.219781259460701"><ele>76.0</ele><time>2026-03-30T09:12:35.964Z</time></trkpt><trkpt lat="42.413535129786716" lon="14.219686675621345"><ele>78.0</ele><time>2026-03-30T09:12:36.964Z</time></trkpt><trkpt lat="42.41354007585432" lon="14.219567551779086"><ele>80.0</ele><time>2026-03-30T09:12:38.964Z</time></trkpt><trkpt lat="42.41357744259342" lon="14.219465801933495"><ele>82.0</ele><time>2026-03-30T09:12:42.964Z</time></trkpt><trkpt lat="42.41362095551087" lon="14.219400510251797"><ele>84.0</ele><time>2026-03-30T09:12:44.964Z</time></trkpt><trkpt lat="42.413668049922954" lon="14.219332970261032"><ele>86.0</ele><time>2026-03-30T09:12:45.964Z</time></trkpt><trkpt lat="42.413744182474154" lon="14.219220315251942"><ele>86.0</ele><time>2026-03-30T09:12:47.964Z</time></trkpt><trkpt lat="42.413814073505606" lon="14.21910002370299"><ele>86.0</ele><time>2026-03-30T09:12:49.964Z</time></trkpt><trkpt lat="42.413825591018096" lon="14.218988975779656"><ele>86.0</ele><time>2026-03-30T09:12:50.964Z</time></trkpt><trkpt lat="42.413839494259385" lon="14.218868735111425"><ele>86.0</ele><time>2026-03-30T09:12:51.964Z</time></trkpt><trkpt lat="42.41386548019995" lon="14.2187641555247"><ele>86.0</ele><time>2026-03-30T09:12:53.964Z</time></trkpt><trkpt lat="42.41376421311932" lon="14.21882185775677"><ele>89.5</ele><time>2026-03-30T09:12:57.964Z</time></trkpt><trkpt lat="42.41370117718383" lon="14.218876182119807"><ele>93.0</ele><time>2026-03-30T09:12:58.964Z</time></trkpt><trkpt lat="42.413605659058774" lon="14.218944362732149"><ele>96.5</ele><time>2026-03-30T09:12:59.964Z</time></trkpt><trkpt lat="42.413527550071194" lon="14.218977125594654"><ele>100.0</ele><time>2026-03-30T09:13:00.964Z</time></trkpt><trkpt lat="42.41344876372167" lon="14.21897616524294"><ele>103.49999999999999</ele><time>2026-03-30T09:13:01.964Z</time></trkpt><trkpt lat="42.41337456817972" lon="14.21894153301636"><ele>107.0</ele><time>2026-03-30T09:13:02.964Z</time></trkpt><trkpt lat="42.413282457815455" lon="14.218910294528527"><ele>107.0</ele><time>2026-03-30T09:13:03.964Z</time></trkpt><trkpt lat="42.41320906068496" lon="14.218875721737337"><ele>106.99999999999999</ele><time>2026-03-30T09:13:04.964Z</time></trkpt><trkpt lat="42.41313102476265" lon="14.218853123686907"><ele>106.99999999999999</ele><time>2026-03-30T09:13:05.964Z</time></trkpt><trkpt lat="42.41303644488245" lon="14.2188457191333"><ele>107.0</ele><time>2026-03-30T09:13:06.964Z</time></trkpt><trkpt lat="42.41293047760675" lon="14.218827540069556"><ele>107.0</ele><time>2026-03-30T09:13:07.964Z</time></trkpt><trkpt lat="42.41281897281996" lon="14.218805817181597"><ele>108.83333333333333</ele><time>2026-03-30T09:13:08.964Z</time></trkpt><trkpt lat="42.412718731547436" lon="14.218786197136955"><ele>110.66666666666666</ele><time>2026-03-30T09:13:09.964Z</time></trkpt><trkpt lat="42.41262586150556" lon="14.21876839212224"><ele>112.5</ele><time>2026-03-30T09:13:10.964Z</time></trkpt><trkpt lat="42.412537795224154" lon="14.2187623026661"><ele>114.33333333333334</ele><time>2026-03-30T09:13:11.964Z</time></trkpt><trkpt lat="42.41245128969193" lon="14.218757408073941"><ele>116.16666666666667</ele><time>2026-03-30T09:13:12.964Z</time></trkpt><trkpt lat="42.41238292516488" lon="14.218737823416008"><ele>118.0</ele><time>2026-03-30T09:13:13.964Z</time></trkpt><trkpt lat="42.412321948025365" lon="14.218638158450625"><ele>118.0</ele><time>2026-03-30T09:13:15.964Z</time></trkpt><trkpt lat="42.41224898674476" lon="14.218610546521994"><ele>118.00000000000001</ele><time>2026-03-30T09:13:20.964Z</time></trkpt><trkpt lat="42.412160574599895" lon="14.218554052648864"><ele>118.00000000000001</ele><time>2026-03-30T09:13:57.965Z</time></trkpt><trkpt lat="42.412040568423926" lon="14.218499688896259"><ele>118.0</ele><time>2026-03-30T09:13:59.962Z</time></trkpt><trkpt lat="42.41194898096036" lon="14.21847101827676"><ele>118.0</ele><time>2026-03-30T09:14:00.962Z</time></trkpt><trkpt lat="42.41185077910657" lon="14.218456566525026"><ele>116.66666666666667</ele><time>2026-03-30T09:14:01.961Z</time></trkpt><trkpt lat="42.41176833317582" lon="14.218427953112244"><ele>115.33333333333334</ele><time>2026-03-30T09:14:02.962Z</time></trkpt><trkpt lat="42.41169811891058" lon="14.218408087368996"><ele>114.0</ele><time>2026-03-30T09:14:03.962Z</time></trkpt><trkpt lat="42.411618716193786" lon="14.218380739798494"><ele>112.66666666666666</ele><time>2026-03-30T09:14:04.961Z</time></trkpt><trkpt lat="42.41154781724854" lon="14.218361379453249"><ele>111.33333333333333</ele><time>2026-03-30T09:14:05.961Z</time></trkpt><trkpt lat="42.41146712459409" lon="14.218340336287653"><ele>110.0</ele><time>2026-03-30T09:14:06.961Z</time></trkpt><trkpt lat="42.411390633017426" lon="14.218319070379005"><ele>109.8</ele><time>2026-03-30T09:14:07.961Z</time></trkpt><trkpt lat="42.41131052988406" lon="14.21829096206621"><ele>109.6</ele><time>2026-03-30T09:14:08.962Z</time></trkpt><trkpt lat="42.411228980676356" lon="14.21825423343176"><ele>109.4</ele><time>2026-03-30T09:14:09.962Z</time></trkpt><trkpt lat="42.411145957026434" lon="14.218219931474824"><ele>109.2</ele><time>2026-03-30T09:14:10.961Z</time></trkpt><trkpt lat="42.411031195235566" lon="14.218191339711966"><ele>109.0</ele><time>2026-03-30T09:14:11.961Z</time></trkpt><trkpt lat="42.41092852501664" lon="14.218151295965821"><ele>111.16666666666667</ele><time>2026-03-30T09:14:12.961Z</time></trkpt><trkpt lat="42.41083187765005" lon="14.218092223723033"><ele>113.33333333333334</ele><time>2026-03-30T09:14:13.961Z</time></trkpt><trkpt lat="42.41074412568916" lon="14.218050789760326"><ele>115.5</ele><time>2026-03-30T09:14:14.961Z</time></trkpt><trkpt lat="42.41068097854113" lon="14.218008749220383"><ele>117.66666666666666</ele><time>2026-03-30T09:14:15.961Z</time></trkpt><trkpt lat="42.41059882780437" lon="14.217958767113721"><ele>119.83333333333333</ele><time>2026-03-30T09:14:16.961Z</time></trkpt><trkpt lat="42.410520131551145" lon="14.21791276916747"><ele>122.0</ele><time>2026-03-30T09:14:17.961Z</time></trkpt><trkpt lat="42.41043928695604" lon="14.217881100282684"><ele>121.99999999999999</ele><time>2026-03-30T09:14:18.961Z</time></trkpt><trkpt lat="42.410350241387576" lon="14.217839307547928"><ele>122.0</ele><time>2026-03-30T09:14:19.961Z</time></trkpt><trkpt lat="42.41028454455364" lon="14.217810142989796"><ele>122.0</ele><time>2026-03-30T09:14:20.961Z</time></trkpt><trkpt lat="42.410193162774824" lon="14.217766051327628"><ele>122.0</ele><time>2026-03-30T09:14:22.961Z</time></trkpt><trkpt lat="42.410128247234624" lon="14.217750011447293"><ele>121.99999999999999</ele><time>2026-03-30T09:14:24.961Z</time></trkpt><trkpt lat="42.41010234727151" lon="14.21784251597595"><ele>122.0</ele><time>2026-03-30T09:14:27.961Z</time></trkpt><trkpt lat="42.4100935858367" lon="14.217993582351985"><ele>119.49999999999999</ele><time>2026-03-30T09:14:29.961Z</time></trkpt><trkpt lat="42.41006088588039" lon="14.218172375125278"><ele>117.0</ele><time>2026-03-30T09:14:31.961Z</time></trkpt><trkpt lat="42.410039908499" lon="14.218257584445288"><ele>114.5</ele><time>2026-03-30T09:14:32.961Z</time></trkpt><trkpt lat="42.41002055762816" lon="14.218342173974865"><ele>112.0</ele><time>2026-03-30T09:14:33.961Z</time></trkpt><trkpt lat="42.40999781626703" lon="14.218452589349518"><ele>109.49999999999999</ele><time>2026-03-30T09:14:35.961Z</time></trkpt><trkpt lat="42.40995922225589" lon="14.218536462566908"><ele>107.0</ele><time>2026-03-30T09:14:38.961Z</time></trkpt><trkpt lat="42.409939706727016" lon="14.21867441163167"><ele>106.99999999999999</ele><time>2026-03-30T09:14:40.961Z</time></trkpt><trkpt lat="42.40990977210221" lon="14.218767894506245"><ele>107.0</ele><time>2026-03-30T09:14:42.961Z</time></trkpt><trkpt lat="42.40987320881013" lon="14.218868139753727"><ele>107.0</ele><time>2026-03-30T09:14:44.961Z</time></trkpt><trkpt lat="42.409830169728586" lon="14.21895851091253"><ele>107.0</ele><time>2026-03-30T09:14:46.961Z</time></trkpt><trkpt lat="42.409777407197915" lon="14.219054249620104"><ele>106.99999999999999</ele><time>2026-03-30T09:14:48.961Z</time></trkpt><trkpt lat="42.40973458013695" lon="14.21913975881143"><ele>107.0</ele><time>2026-03-30T09:14:51.961Z</time></trkpt><trkpt lat="42.40968468113126" lon="14.21919754649445"><ele>105.16666666666666</ele><time>2026-03-30T09:14:54.962Z</time></trkpt><trkpt lat="42.40959152963783" lon="14.219164420943304"><ele>103.33333333333333</ele><time>2026-03-30T09:14:57.962Z</time></trkpt><trkpt lat="42.40954087315373" lon="14.219113030919559"><ele>101.5</ele><time>2026-03-30T09:14:58.962Z</time></trkpt><trkpt lat="42.40947817409478" lon="14.219063437991673"><ele>99.66666666666666</ele><time>2026-03-30T09:14:59.962Z</time></trkpt><trkpt lat="42.40938724834363" lon="14.218965498754917"><ele>97.83333333333333</ele><time>2026-03-30T09:15:01.962Z</time></trkpt><trkpt lat="42.40932087853352" lon="14.218875590809093"><ele>96.0</ele><time>2026-03-30T09:15:02.962Z</time></trkpt><trkpt lat="42.40926022760076" lon="14.218811355092724"><ele>96.0</ele><time>2026-03-30T09:15:03.962Z</time></trkpt><trkpt lat="42.409210720467264" lon="14.218750797824425"><ele>96.0</ele><time>2026-03-30T09:15:04.962Z</time></trkpt><trkpt lat="42.40916751138261" lon="14.218675814979242"><ele>96.0</ele><time>2026-03-30T09:15:05.962Z</time></trkpt><trkpt lat="42.40912315886527" lon="14.218578260407991"><ele>96.0</ele><time>2026-03-30T09:15:06.962Z</time></trkpt><trkpt lat="42.409081048660134" lon="14.218486382050873"><ele>96.0</ele><time>2026-03-30T09:15:07.962Z</time></trkpt><trkpt lat="42.40905203844923" lon="14.218408387069148"><ele>96.0</ele><time>2026-03-30T09:15:09.962Z</time></trkpt><trkpt lat="42.40903970679062" lon="14.218273117809954"><ele>96.0</ele><time>2026-03-30T09:15:12.962Z</time></trkpt><trkpt lat="42.4090163573227" lon="14.218159383478435"><ele>96.0</ele><time>2026-03-30T09:15:14.962Z</time></trkpt><trkpt lat="42.409007455160115" lon="14.218061737674084"><ele>96.0</ele><time>2026-03-30T09:15:16.962Z</time></trkpt><trkpt lat="42.408978459582855" lon="14.21794459600725"><ele>96.0</ele><time>2026-03-30T09:15:19.962Z</time></trkpt><trkpt lat="42.409003876253" lon="14.217800359999202"><ele>96.0</ele><time>2026-03-30T09:15:32.962Z</time></trkpt><trkpt lat="42.40900385598672" lon="14.217642045757017"><ele>98.16666666666667</ele><time>2026-03-30T09:15:34.962Z</time></trkpt><trkpt lat="42.408986266394216" lon="14.21751784028769"><ele>100.33333333333334</ele><time>2026-03-30T09:15:36.962Z</time></trkpt><trkpt lat="42.408980756740206" lon="14.217386735971603"><ele>102.5</ele><time>2026-03-30T09:15:38.962Z</time></trkpt><trkpt lat="42.4090288357855" lon="14.217289383788039"><ele>104.66666666666667</ele><time>2026-03-30T09:15:40.962Z</time></trkpt><trkpt lat="42.40911186909147" lon="14.217253545056051"><ele>106.83333333333334</ele><time>2026-03-30T09:15:42.962Z</time></trkpt><trkpt lat="42.409187714967196" lon="14.217255576113457"><ele>109.0</ele><time>2026-03-30T09:15:44.962Z</time></trkpt><trkpt lat="42.409265159982986" lon="14.217360298187879"><ele>109.0</ele><time>2026-03-30T09:15:46.962Z</time></trkpt><trkpt lat="42.40935872136175" lon="14.217404531367565"><ele>109.0</ele><time>2026-03-30T09:15:47.962Z</time></trkpt><trkpt lat="42.409427175707556" lon="14.217443225352548"><ele>109.0</ele><time>2026-03-30T09:15:48.962Z</time></trkpt><trkpt lat="42.40952801711229" lon="14.217511363472651"><ele>109.0</ele><time>2026-03-30T09:15:50.962Z</time></trkpt><trkpt lat="42.409597471453175" lon="14.217532690407396"><ele>109.0</ele><time>2026-03-30T09:15:51.962Z</time></trkpt><trkpt lat="42.409695961065715" lon="14.217519570973101"><ele>109.00000000000001</ele><time>2026-03-30T09:15:53.963Z</time></trkpt><trkpt lat="42.40965051467068" lon="14.217442760102562"><ele>109.0</ele><time>2026-03-30T09:16:12.958Z</time></trkpt><trkpt lat="42.40957402355627" lon="14.2173908818227"><ele>109.0</ele><time>2026-03-30T09:16:50.958Z</time></trkpt><trkpt lat="42.40949701513219" lon="14.21728997633975"><ele>109.0</ele><time>2026-03-30T09:16:52.958Z</time></trkpt><trkpt lat="42.40944265380552" lon="14.217225934411946"><ele>109.00000000000001</ele><time>2026-03-30T09:16:53.958Z</time></trkpt><trkpt lat="42.4093632487619" lon="14.217126146748795"><ele>109.0</ele><time>2026-03-30T09:16:55.958Z</time></trkpt><trkpt lat="42.40929236519584" lon="14.217015827110968"><ele>112.14285714285714</ele><time>2026-03-30T09:16:57.958Z</time></trkpt><trkpt lat="42.409232176685315" lon="14.216943864879873"><ele>115.28571428571429</ele><time>2026-03-30T09:16:58.958Z</time></trkpt><trkpt lat="42.40917557600935" lon="14.21688334280397"><ele>118.42857142857143</ele><time>2026-03-30T09:16:59.958Z</time></trkpt><trkpt lat="42.40912333454616" lon="14.216824498675296"><ele>121.57142857142858</ele><time>2026-03-30T09:17:00.958Z</time></trkpt><trkpt lat="42.40906563702724" lon="14.216777870845817"><ele>124.71428571428572</ele><time>2026-03-30T09:17:01.958Z</time></trkpt><trkpt lat="42.409006271957296" lon="14.216726074808424"><ele>127.85714285714286</ele><time>2026-03-30T09:17:02.958Z</time></trkpt><trkpt lat="42.408938400969326" lon="14.21667620467195"><ele>131.0</ele><time>2026-03-30T09:17:03.958Z</time></trkpt><trkpt lat="42.408870063723704" lon="14.216622414492686"><ele>131.33333333333331</ele><time>2026-03-30T09:17:04.958Z</time></trkpt><trkpt lat="42.408797996118636" lon="14.216569468044021"><ele>131.66666666666666</ele><time>2026-03-30T09:17:05.958Z</time></trkpt><trkpt lat="42.408723349102225" lon="14.216501851190246"><ele>132.0</ele><time>2026-03-30T09:17:06.958Z</time></trkpt><trkpt lat="42.408654441880294" lon="14.216448584181732"><ele>132.33333333333334</ele><time>2026-03-30T09:17:07.958Z</time></trkpt><trkpt lat="42.40859738269142" lon="14.21639550272134"><ele>132.66666666666669</ele><time>2026-03-30T09:17:08.958Z</time></trkpt><trkpt lat="42.40853514499239" lon="14.216340855890527"><ele>133.0</ele><time>2026-03-30T09:17:09.958Z</time></trkpt><trkpt lat="42.40847309494895" lon="14.216288503595322"><ele>133.0</ele><time>2026-03-30T09:17:10.958Z</time></trkpt><trkpt lat="42.40841085836174" lon="14.216221690455354"><ele>133.0</ele><time>2026-03-30T09:17:11.958Z</time></trkpt><trkpt lat="42.40835106767319" lon="14.216151877643869"><ele>133.0</ele><time>2026-03-30T09:17:12.958Z</time></trkpt><trkpt lat="42.408296178954906" lon="14.216088926683215"><ele>133.0</ele><time>2026-03-30T09:17:13.958Z</time></trkpt><trkpt lat="42.4082316342073" lon="14.216010815305978"><ele>133.0</ele><time>2026-03-30T09:17:14.958Z</time></trkpt><trkpt lat="42.408183773686844" lon="14.215927728887616"><ele>133.0</ele><time>2026-03-30T09:17:15.958Z</time></trkpt><trkpt lat="42.40814789672538" lon="14.215843762416311"><ele>133.0</ele><time>2026-03-30T09:17:16.958Z</time></trkpt><trkpt lat="42.4081083268289" lon="14.215739357364477"><ele>133.0</ele><time>2026-03-30T09:17:17.958Z</time></trkpt><trkpt lat="42.4080723169599" lon="14.215613669024409"><ele>133.0</ele><time>2026-03-30T09:17:18.958Z</time></trkpt><trkpt lat="42.40805468771589" lon="14.215480938643068"><ele>133.0</ele><time>2026-03-30T09:17:19.958Z</time></trkpt><trkpt lat="42.40803775654604" lon="14.215363359630615"><ele>133.0</ele><time>2026-03-30T09:17:20.958Z</time></trkpt><trkpt lat="42.407997502143274" lon="14.215247238160456"><ele>133.0</ele><time>2026-03-30T09:17:21.958Z</time></trkpt><trkpt lat="42.40794723070971" lon="14.21515229328635"><ele>133.0</ele><time>2026-03-30T09:17:22.958Z</time></trkpt><trkpt lat="42.407881011559866" lon="14.21504995476152"><ele>133.0</ele><time>2026-03-30T09:17:23.958Z</time></trkpt><trkpt lat="42.40781080075985" lon="14.214959369478128"><ele>133.0</ele><time>2026-03-30T09:17:24.958Z</time></trkpt><trkpt lat="42.40774601991534" lon="14.214895452073026"><ele>133.0</ele><time>2026-03-30T09:17:25.958Z</time></trkpt><trkpt lat="42.40767574557468" lon="14.214816717350065"><ele>136.0</ele><time>2026-03-30T09:17:26.958Z</time></trkpt><trkpt lat="42.40760417633808" lon="14.214719626222092"><ele>139.0</ele><time>2026-03-30T09:17:27.958Z</time></trkpt><trkpt lat="42.40753218283808" lon="14.21460885049531"><ele>142.0</ele><time>2026-03-30T09:17:28.958Z</time></trkpt><trkpt lat="42.40745129965223" lon="14.21449932784675"><ele>145.0</ele><time>2026-03-30T09:17:29.958Z</time></trkpt><trkpt lat="42.4073676769667" lon="14.214397463569776"><ele>148.0</ele><time>2026-03-30T09:17:30.958Z</time></trkpt><trkpt lat="42.40728426398412" lon="14.214293829013231"><ele>148.0</ele><time>2026-03-30T09:17:31.958Z</time></trkpt><trkpt lat="42.40720054103217" lon="14.21418208384366"><ele>148.0</ele><time>2026-03-30T09:17:32.958Z</time></trkpt><trkpt lat="42.40712375143844" lon="14.214073361246857"><ele>148.0</ele><time>2026-03-30T09:17:33.958Z</time></trkpt><trkpt lat="42.407039546060055" lon="14.213974248994313"><ele>148.0</ele><time>2026-03-30T09:17:34.958Z</time></trkpt><trkpt lat="42.40695626817728" lon="14.213871713150272"><ele>149.20000000000002</ele><time>2026-03-30T09:17:35.958Z</time></trkpt><trkpt lat="42.406872940895546" lon="14.213776084255006"><ele>150.4</ele><time>2026-03-30T09:17:36.958Z</time></trkpt><trkpt lat="42.40678685776504" lon="14.213696165423684"><ele>151.60000000000002</ele><time>2026-03-30T09:17:37.958Z</time></trkpt><trkpt lat="42.4066948825594" lon="14.213624409867952"><ele>152.8</ele><time>2026-03-30T09:17:38.958Z</time></trkpt><trkpt lat="42.40659321663073" lon="14.213547427043595"><ele>154.0</ele><time>2026-03-30T09:17:39.958Z</time></trkpt><trkpt lat="42.40648612108879" lon="14.21347494259142"><ele>154.0</ele><time>2026-03-30T09:17:40.958Z</time></trkpt><trkpt lat="42.406398840708704" lon="14.213407024442535"><ele>154.0</ele><time>2026-03-30T09:17:41.958Z</time></trkpt><trkpt lat="42.4063326550549" lon="14.213349403881933"><ele>154.0</ele><time>2026-03-30T09:17:42.958Z</time></trkpt><trkpt lat="42.406248833296424" lon="14.213249815110084"><ele>154.0</ele><time>2026-03-30T09:17:43.958Z</time></trkpt><trkpt lat="42.406140874504565" lon="14.213116319348455"><ele>154.0</ele><time>2026-03-30T09:17:44.958Z</time></trkpt><trkpt lat="42.40604812046048" lon="14.213001350863946"><ele>155.4</ele><time>2026-03-30T09:17:45.958Z</time></trkpt><trkpt lat="42.40596128798017" lon="14.21289755981154"><ele>156.8</ele><time>2026-03-30T09:17:46.958Z</time></trkpt><trkpt lat="42.40587734838127" lon="14.212796286835914"><ele>158.20000000000002</ele><time>2026-03-30T09:17:47.958Z</time></trkpt><trkpt lat="42.40579042351241" lon="14.212709694783486"><ele>159.60000000000002</ele><time>2026-03-30T09:17:48.958Z</time></trkpt><trkpt lat="42.40572442538773" lon="14.212624610338436"><ele>161.0</ele><time>2026-03-30T09:17:49.958Z</time></trkpt><trkpt lat="42.40567058258651" lon="14.212517882355183"><ele>161.0</ele><time>2026-03-30T09:17:50.958Z</time></trkpt><trkpt lat="42.405622499667004" lon="14.212392708201275"><ele>161.0</ele><time>2026-03-30T09:17:51.958Z</time></trkpt><trkpt lat="42.405574547546806" lon="14.212256035204412"><ele>161.0</ele><time>2026-03-30T09:17:52.959Z</time></trkpt><trkpt lat="42.40553466896986" lon="14.212130726708308"><ele>161.0</ele><time>2026-03-30T09:17:53.959Z</time></trkpt><trkpt lat="42.40549948012353" lon="14.212020132635926"><ele>161.0</ele><time>2026-03-30T09:17:54.959Z</time></trkpt><trkpt lat="42.40544102801277" lon="14.211912658677415"><ele>160.5</ele><time>2026-03-30T09:17:55.959Z</time></trkpt><trkpt lat="42.4053665280743" lon="14.211805926468715"><ele>160.0</ele><time>2026-03-30T09:17:56.959Z</time></trkpt><trkpt lat="42.40528367662071" lon="14.211700093637875"><ele>159.5</ele><time>2026-03-30T09:17:57.959Z</time></trkpt><trkpt lat="42.40519249357111" lon="14.211618304181993"><ele>159.0</ele><time>2026-03-30T09:17:58.959Z</time></trkpt><trkpt lat="42.40509155325077" lon="14.211534812173594"><ele>164.25</ele><time>2026-03-30T09:17:59.959Z</time></trkpt><trkpt lat="42.40498610525177" lon="14.211444898161757"><ele>169.5</ele><time>2026-03-30T09:18:00.959Z</time></trkpt><trkpt lat="42.40487169362275" lon="14.211362233658841"><ele>174.75</ele><time>2026-03-30T09:18:01.959Z</time></trkpt><trkpt lat="42.4047673582023" lon="14.211271542794314"><ele>180.0</ele><time>2026-03-30T09:18:02.959Z</time></trkpt><trkpt lat="42.40467719875335" lon="14.211199313316985"><ele>176.0</ele><time>2026-03-30T09:18:03.959Z</time></trkpt><trkpt lat="42.40458810997763" lon="14.211126652335615"><ele>172.0</ele><time>2026-03-30T09:18:04.959Z</time></trkpt><trkpt lat="42.40449160523453" lon="14.211040546894322"><ele>168.0</ele><time>2026-03-30T09:18:05.959Z</time></trkpt><trkpt lat="42.404394133506734" lon="14.210925620614907"><ele>164.0</ele><time>2026-03-30T09:18:06.959Z</time></trkpt><trkpt lat="42.404296790342165" lon="14.21080088496788"><ele>169.25</ele><time>2026-03-30T09:18:07.959Z</time></trkpt><trkpt lat="42.40419854875983" lon="14.210656163883266"><ele>174.5</ele><time>2026-03-30T09:18:08.959Z</time></trkpt><trkpt lat="42.40412141450844" lon="14.210510077797442"><ele>179.75</ele><time>2026-03-30T09:18:09.959Z</time></trkpt><trkpt lat="42.40404056434533" lon="14.210379504215025"><ele>185.0</ele><time>2026-03-30T09:18:10.954Z</time></trkpt><trkpt lat="42.403963651590125" lon="14.210255250436067"><ele>185.0</ele><time>2026-03-30T09:18:11.954Z</time></trkpt><trkpt lat="42.40389043960677" lon="14.210122036644155"><ele>185.0</ele><time>2026-03-30T09:18:12.954Z</time></trkpt><trkpt lat="42.403811954059385" lon="14.209976139811804"><ele>185.0</ele><time>2026-03-30T09:18:13.954Z</time></trkpt><trkpt lat="42.40375469297773" lon="14.209821892399347"><ele>185.0</ele><time>2026-03-30T09:18:14.954Z</time></trkpt><trkpt lat="42.403705973782486" lon="14.209714365014035"><ele>184.0</ele><time>2026-03-30T09:18:15.954Z</time></trkpt><trkpt lat="42.40365377337356" lon="14.209544996197373"><ele>183.0</ele><time>2026-03-30T09:18:17.954Z</time></trkpt><trkpt lat="42.40362328749844" lon="14.209436694002472"><ele>182.0</ele><time>2026-03-30T09:18:18.954Z</time></trkpt><trkpt lat="42.403580299338884" lon="14.209287676704507"><ele>181.0</ele><time>2026-03-30T09:18:19.954Z</time></trkpt><trkpt lat="42.40352550304897" lon="14.209136679556945"><ele>183.0</ele><time>2026-03-30T09:18:20.954Z</time></trkpt><trkpt lat="42.40348125943814" lon="14.208983680112885"><ele>185.0</ele><time>2026-03-30T09:18:21.954Z</time></trkpt><trkpt lat="42.40343147101202" lon="14.208827580236639"><ele>187.0</ele><time>2026-03-30T09:18:22.954Z</time></trkpt><trkpt lat="42.40338471729111" lon="14.208683161169944"><ele>189.0</ele><time>2026-03-30T09:18:23.954Z</time></trkpt><trkpt lat="42.403331544599816" lon="14.208552997968546"><ele>189.0</ele><time>2026-03-30T09:18:24.954Z</time></trkpt><trkpt lat="42.40327781279225" lon="14.2084377180189"><ele>189.0</ele><time>2026-03-30T09:18:25.954Z</time></trkpt><trkpt lat="42.40328373303098" lon="14.208292862156613"><ele>189.0</ele><time>2026-03-30T09:18:26.954Z</time></trkpt><trkpt lat="42.40322595062744" lon="14.20819766368241"><ele>189.0</ele><time>2026-03-30T09:18:29.954Z</time></trkpt><trkpt lat="42.403130363107984" lon="14.208147801630073"><ele>189.0</ele><time>2026-03-30T09:18:31.954Z</time></trkpt><trkpt lat="42.40307272449391" lon="14.208057061978042"><ele>187.16666666666666</ele><time>2026-03-30T09:18:33.954Z</time></trkpt><trkpt lat="42.40300318816002" lon="14.207924060553252"><ele>185.33333333333334</ele><time>2026-03-30T09:18:35.954Z</time></trkpt><trkpt lat="42.40295626293665" lon="14.207854675341922"><ele>183.5</ele><time>2026-03-30T09:18:36.954Z</time></trkpt><trkpt lat="42.40291233450939" lon="14.207777514709377"><ele>181.66666666666669</ele><time>2026-03-30T09:18:37.954Z</time></trkpt><trkpt lat="42.402869556966756" lon="14.207694176263425"><ele>179.83333333333334</ele><time>2026-03-30T09:18:38.954Z</time></trkpt><trkpt lat="42.402810369982916" lon="14.207617505664745"><ele>178.0</ele><time>2026-03-30T09:18:39.954Z</time></trkpt><trkpt lat="42.40274749024718" lon="14.207526813449277"><ele>177.5</ele><time>2026-03-30T09:18:40.954Z</time></trkpt><trkpt lat="42.40268385902279" lon="14.20744360214143"><ele>177.0</ele><time>2026-03-30T09:18:41.954Z</time></trkpt><trkpt lat="42.40261558262507" lon="14.207355025641098"><ele>176.5</ele><time>2026-03-30T09:18:42.954Z</time></trkpt><trkpt lat="42.40255181918451" lon="14.207270124788971"><ele>176.0</ele><time>2026-03-30T09:18:43.954Z</time></trkpt><trkpt lat="42.40249233576083" lon="14.207185520354656"><ele>175.5</ele><time>2026-03-30T09:18:44.954Z</time></trkpt><trkpt lat="42.40243652634278" lon="14.207095224372587"><ele>175.0</ele><time>2026-03-30T09:18:45.954Z</time></trkpt><trkpt lat="42.40238317158424" lon="14.207009289853918"><ele>174.5</ele><time>2026-03-30T09:18:46.954Z</time></trkpt><trkpt lat="42.40233225227861" lon="14.206923916084973"><ele>174.0</ele><time>2026-03-30T09:18:47.954Z</time></trkpt><trkpt lat="42.40227786353453" lon="14.206837217235824"><ele>173.5</ele><time>2026-03-30T09:18:48.954Z</time></trkpt><trkpt lat="42.40222126441554" lon="14.20675957223712"><ele>173.0</ele><time>2026-03-30T09:18:49.954Z</time></trkpt><trkpt lat="42.40217816051226" lon="14.20668889024096"><ele>172.5</ele><time>2026-03-30T09:18:50.954Z</time></trkpt><trkpt lat="42.40209170380017" lon="14.206562517837707"><ele>172.0</ele><time>2026-03-30T09:18:52.954Z</time></trkpt><trkpt lat="42.402044241395224" lon="14.206505554363876"><ele>171.5</ele><time>2026-03-30T09:18:53.954Z</time></trkpt><trkpt lat="42.4019827662123" lon="14.206446452816717"><ele>171.0</ele><time>2026-03-30T09:18:54.954Z</time></trkpt><trkpt lat="42.40190376410734" lon="14.20638336490105"><ele>170.5</ele><time>2026-03-30T09:18:55.954Z</time></trkpt><trkpt lat="42.40181583060378" lon="14.206308599668851"><ele>170.0</ele><time>2026-03-30T09:18:56.954Z</time></trkpt><trkpt lat="42.401733039341835" lon="14.206244706190786"><ele>169.5</ele><time>2026-03-30T09:18:57.954Z</time></trkpt><trkpt lat="42.401668257786696" lon="14.20619170834008"><ele>169.0</ele><time>2026-03-30T09:18:58.954Z</time></trkpt><trkpt lat="42.40159030354967" lon="14.206149567938771"><ele>169.0</ele><time>2026-03-30T09:18:59.954Z</time></trkpt><trkpt lat="42.40152663994449" lon="14.20611630588132"><ele>169.0</ele><time>2026-03-30T09:19:00.954Z</time></trkpt><trkpt lat="42.4014640844117" lon="14.206088704475508"><ele>169.0</ele><time>2026-03-30T09:19:01.954Z</time></trkpt><trkpt lat="42.401406693873284" lon="14.206049139319111"><ele>169.0</ele><time>2026-03-30T09:19:02.954Z</time></trkpt><trkpt lat="42.401345596888234" lon="14.206005283530112"><ele>169.0</ele><time>2026-03-30T09:19:03.954Z</time></trkpt><trkpt lat="42.40128324954683" lon="14.205971194775703"><ele>169.0</ele><time>2026-03-30T09:19:04.954Z</time></trkpt><trkpt lat="42.40117518066674" lon="14.20590181248425"><ele>169.5</ele><time>2026-03-30T09:19:06.954Z</time></trkpt><trkpt lat="42.401080146914545" lon="14.205840084152097"><ele>170.0</ele><time>2026-03-30T09:19:08.954Z</time></trkpt><trkpt lat="42.40097243391795" lon="14.205791973545333"><ele>170.5</ele><time>2026-03-30T09:19:10.954Z</time></trkpt><trkpt lat="42.40091907894031" lon="14.205735166256233"><ele>171.0</ele><time>2026-03-30T09:19:11.954Z</time></trkpt><trkpt lat="42.40074899323595" lon="14.205808211778146"><ele>171.0</ele><time>2026-03-30T09:19:13.954Z</time></trkpt><trkpt lat="42.40064170736078" lon="14.205824527358013"><ele>171.0</ele><time>2026-03-30T09:19:14.954Z</time></trkpt><trkpt lat="42.40053355705198" lon="14.205852683562256"><ele>171.0</ele><time>2026-03-30T09:19:15.954Z</time></trkpt><trkpt lat="42.40044127816757" lon="14.205854104583025"><ele>171.0</ele><time>2026-03-30T09:19:16.954Z</time></trkpt><trkpt lat="42.400384006375226" lon="14.20580740074955"><ele>171.0</ele><time>2026-03-30T09:19:17.954Z</time></trkpt><trkpt lat="42.400288586954915" lon="14.205796960686063"><ele>171.60000000000002</ele><time>2026-03-30T09:19:20.954Z</time></trkpt><trkpt lat="42.40021778097673" lon="14.205779274661893"><ele>172.2</ele><time>2026-03-30T09:19:23.954Z</time></trkpt><trkpt lat="42.400127768027076" lon="14.205708628301622"><ele>172.8</ele><time>2026-03-30T09:19:27.954Z</time></trkpt><trkpt lat="42.40004789609388" lon="14.205648622718629"><ele>173.39999999999998</ele><time>2026-03-30T09:19:29.954Z</time></trkpt><trkpt lat="42.399951010803406" lon="14.20556592171933"><ele>174.0</ele><time>2026-03-30T09:19:31.954Z</time></trkpt><trkpt lat="42.39987252817011" lon="14.2054983241677"><ele>173.66666666666666</ele><time>2026-03-30T09:19:33.954Z</time></trkpt><trkpt lat="42.39965985861622" lon="14.20586484107976"><ele>173.33333333333331</ele><time>2026-03-30T09:19:36.954Z</time></trkpt><trkpt lat="42.39963413773517" lon="14.20600160317052"><ele>173.0</ele><time>2026-03-30T09:19:37.954Z</time></trkpt><trkpt lat="42.39962187616184" lon="14.206093988628282"><ele>173.0</ele><time>2026-03-30T09:19:38.954Z</time></trkpt><trkpt lat="42.39955581400402" lon="14.206126024244474"><ele>173.0</ele><time>2026-03-30T09:19:40.954Z</time></trkpt><trkpt lat="42.399487010668004" lon="14.206091470326179"><ele>173.0</ele><time>2026-03-30T09:19:41.954Z</time></trkpt><trkpt lat="42.39937796158086" lon="14.206043538331668"><ele>173.0</ele><time>2026-03-30T09:19:42.954Z</time></trkpt><trkpt lat="42.399267773723324" lon="14.206005083740834"><ele>173.0</ele><time>2026-03-30T09:19:43.954Z</time></trkpt><trkpt lat="42.39917625386847" lon="14.205969880699584"><ele>173.0</ele><time>2026-03-30T09:19:44.954Z</time></trkpt><trkpt lat="42.3990903607975" lon="14.20592054635203"><ele>173.0</ele><time>2026-03-30T09:19:45.954Z</time></trkpt><trkpt lat="42.39899564791833" lon="14.205863983809612"><ele>173.0</ele><time>2026-03-30T09:19:46.954Z</time></trkpt><trkpt lat="42.398909867194114" lon="14.205809931335237"><ele>173.0</ele><time>2026-03-30T09:19:47.954Z</time></trkpt><trkpt lat="42.39883595164293" lon="14.205758474712619"><ele>173.0</ele><time>2026-03-30T09:19:48.954Z</time></trkpt><trkpt lat="42.398769636057345" lon="14.205701455991687"><ele>174.0</ele><time>2026-03-30T09:19:49.954Z</time></trkpt><trkpt lat="42.39871156749269" lon="14.205652770162885"><ele>175.0</ele><time>2026-03-30T09:19:50.954Z</time></trkpt><trkpt lat="42.398609041134975" lon="14.20557098821175"><ele>176.0</ele><time>2026-03-30T09:19:52.955Z</time></trkpt><trkpt lat="42.398523964127456" lon="14.205610318789102"><ele>177.0</ele><time>2026-03-30T09:19:54.955Z</time></trkpt><trkpt lat="42.398425698570506" lon="14.20561213849101"><ele>178.0</ele><time>2026-03-30T09:19:56.955Z</time></trkpt><trkpt lat="42.39836241633191" lon="14.205640643730469"><ele>179.0</ele><time>2026-03-30T09:19:57.955Z</time></trkpt><trkpt lat="42.398269453489974" lon="14.205634049256892"><ele>179.0</ele><time>2026-03-30T09:19:59.955Z</time></trkpt><trkpt lat="42.3981673805945" lon="14.205523212708567"><ele>179.0</ele><time>2026-03-30T09:20:01.955Z</time></trkpt><trkpt lat="42.39809781886376" lon="14.205476278675247"><ele>179.0</ele><time>2026-03-30T09:20:02.955Z</time></trkpt><trkpt lat="42.39801615359065" lon="14.20541238402137"><ele>179.0</ele><time>2026-03-30T09:20:03.955Z</time></trkpt><trkpt lat="42.39793726381518" lon="14.20534369410334"><ele>179.0</ele><time>2026-03-30T09:20:04.955Z</time></trkpt><trkpt lat="42.397859243088206" lon="14.205289556042157"><ele>180.39999999999998</ele><time>2026-03-30T09:20:06.955Z</time></trkpt><trkpt lat="42.39776982555762" lon="14.205336857838988"><ele>181.8</ele><time>2026-03-30T09:20:08.955Z</time></trkpt><trkpt lat="42.39770090532895" lon="14.205400312526539"><ele>183.2</ele><time>2026-03-30T09:20:09.955Z</time></trkpt><trkpt lat="42.39757491109691" lon="14.205472207121053"><ele>184.60000000000002</ele><time>2026-03-30T09:20:11.955Z</time></trkpt><trkpt lat="42.397504681618926" lon="14.20552260314791"><ele>186.0</ele><time>2026-03-30T09:20:12.955Z</time></trkpt><trkpt lat="42.39745184815456" lon="14.205605711185589"><ele>187.33333333333334</ele><time>2026-03-30T09:20:13.955Z</time></trkpt><trkpt lat="42.397403837760024" lon="14.205702606913082"><ele>188.66666666666669</ele><time>2026-03-30T09:20:14.955Z</time></trkpt><trkpt lat="42.397350943677004" lon="14.20579487369892"><ele>190.0</ele><time>2026-03-30T09:20:15.955Z</time></trkpt><trkpt lat="42.39729412846765" lon="14.205852656312445"><ele>191.33333333333334</ele><time>2026-03-30T09:20:16.95Z</time></trkpt><trkpt lat="42.39724503772751" lon="14.205911925430804"><ele>192.66666666666669</ele><time>2026-03-30T09:20:17.951Z</time></trkpt><trkpt lat="42.397202791920115" lon="14.206021292535617"><ele>194.0</ele><time>2026-03-30T09:20:19.95Z</time></trkpt><trkpt lat="42.3972397174405" lon="14.206124258233553"><ele>194.0</ele><time>2026-03-30T09:20:21.95Z</time></trkpt><trkpt lat="42.39729336781193" lon="14.206174746344747"><ele>194.0</ele><time>2026-03-30T09:20:22.95Z</time></trkpt><trkpt lat="42.39734300674205" lon="14.206234144860098"><ele>194.0</ele><time>2026-03-30T09:20:23.95Z</time></trkpt><trkpt lat="42.397392211398156" lon="14.206349783184471"><ele>194.0</ele><time>2026-03-30T09:20:25.95Z</time></trkpt><trkpt lat="42.39730337658203" lon="14.206451296758342"><ele>194.0</ele><time>2026-03-30T09:20:27.95Z</time></trkpt><trkpt lat="42.397206449112176" lon="14.20650589137544"><ele>196.83333333333334</ele><time>2026-03-30T09:20:29.95Z</time></trkpt><trkpt lat="42.397193152751164" lon="14.206613418615074"><ele>199.66666666666669</ele><time>2026-03-30T09:20:31.95Z</time></trkpt><trkpt lat="42.39725115840267" lon="14.206697991973371"><ele>202.5</ele><time>2026-03-30T09:20:33.95Z</time></trkpt><trkpt lat="42.39725498916873" lon="14.206801478910517"><ele>205.33333333333331</ele><time>2026-03-30T09:20:35.95Z</time></trkpt><trkpt lat="42.39717231961453" lon="14.206948387580038"><ele>208.16666666666666</ele><time>2026-03-30T09:20:37.95Z</time></trkpt><trkpt lat="42.39712305073581" lon="14.207014792223358"><ele>211.0</ele><time>2026-03-30T09:20:38.95Z</time></trkpt><trkpt lat="42.39706996365038" lon="14.207102104899981"><ele>211.60000000000002</ele><time>2026-03-30T09:20:40.95Z</time></trkpt><trkpt lat="42.39702078636483" lon="14.207183787818801"><ele>212.2</ele><time>2026-03-30T09:20:42.95Z</time></trkpt><trkpt lat="42.39695353968534" lon="14.207262187236372"><ele>212.79999999999998</ele><time>2026-03-30T09:20:44.95Z</time></trkpt><trkpt lat="42.39688799926913" lon="14.207320899657093"><ele>213.39999999999998</ele><time>2026-03-30T09:20:46.95Z</time></trkpt><trkpt lat="42.39679487249021" lon="14.207314585467396"><ele>214.0</ele><time>2026-03-30T09:20:51.95Z</time></trkpt><trkpt lat="42.39671759566986" lon="14.207168961769412"><ele>213.99999999999997</ele><time>2026-03-30T09:20:53.95Z</time></trkpt><trkpt lat="42.396678571678635" lon="14.20708788201926"><ele>214.0</ele><time>2026-03-30T09:20:54.95Z</time></trkpt><trkpt lat="42.39662929357849" lon="14.207002328265583"><ele>214.0</ele><time>2026-03-30T09:20:55.95Z</time></trkpt><trkpt lat="42.3965792571334" lon="14.206925207606673"><ele>214.0</ele><time>2026-03-30T09:20:56.95Z</time></trkpt><trkpt lat="42.39652952841191" lon="14.206841720932053"><ele>213.99999999999997</ele><time>2026-03-30T09:20:57.95Z</time></trkpt><trkpt lat="42.396480416891535" lon="14.206763728000606"><ele>214.0</ele><time>2026-03-30T09:20:58.95Z</time></trkpt><trkpt lat="42.39643720632547" lon="14.206684192107419"><ele>213.99999999999997</ele><time>2026-03-30T09:20:59.95Z</time></trkpt><trkpt lat="42.39638558501017" lon="14.206595365753682"><ele>214.0</ele><time>2026-03-30T09:21:00.95Z</time></trkpt><trkpt lat="42.396334063647565" lon="14.206512081152566"><ele>214.0</ele><time>2026-03-30T09:21:01.95Z</time></trkpt><trkpt lat="42.39628061719468" lon="14.206427421920656"><ele>214.0</ele><time>2026-03-30T09:21:02.95Z</time></trkpt><trkpt lat="42.39622710502458" lon="14.20634080387481"><ele>213.99999999999997</ele><time>2026-03-30T09:21:03.95Z</time></trkpt><trkpt lat="42.39617576324866" lon="14.206253653795123"><ele>214.0</ele><time>2026-03-30T09:21:04.95Z</time></trkpt><trkpt lat="42.39612259706064" lon="14.206164283105513"><ele>213.99999999999997</ele><time>2026-03-30T09:21:05.95Z</time></trkpt><trkpt lat="42.39606331469371" lon="14.206076788063784"><ele>214.0</ele><time>2026-03-30T09:21:06.95Z</time></trkpt><trkpt lat="42.396014751240266" lon="14.20599116774556"><ele>214.0</ele><time>2026-03-30T09:21:07.95Z</time></trkpt><trkpt lat="42.39595395984224" lon="14.205907766046344"><ele>214.0</ele><time>2026-03-30T09:21:08.95Z</time></trkpt><trkpt lat="42.39589730373705" lon="14.20581756112522"><ele>213.99999999999997</ele><time>2026-03-30T09:21:09.95Z</time></trkpt><trkpt lat="42.395837900523816" lon="14.205730425593824"><ele>214.0</ele><time>2026-03-30T09:21:10.95Z</time></trkpt><trkpt lat="42.39578663777397" lon="14.205634956509364"><ele>214.0</ele><time>2026-03-30T09:21:11.95Z</time></trkpt><trkpt lat="42.39572380942631" lon="14.20554606506875"><ele>213.99999999999997</ele><time>2026-03-30T09:21:12.95Z</time></trkpt><trkpt lat="42.395664052251306" lon="14.20544646919926"><ele>213.99999999999997</ele><time>2026-03-30T09:21:13.95Z</time></trkpt><trkpt lat="42.39559660080696" lon="14.205350498212413"><ele>214.0</ele><time>2026-03-30T09:21:14.95Z</time></trkpt><trkpt lat="42.39553375150326" lon="14.205247186861598"><ele>214.0</ele><time>2026-03-30T09:21:15.95Z</time></trkpt><trkpt lat="42.39545731019558" lon="14.205138243725816"><ele>214.5</ele><time>2026-03-30T09:21:16.95Z</time></trkpt><trkpt lat="42.39538252969414" lon="14.205032095962737"><ele>215.0</ele><time>2026-03-30T09:21:17.95Z</time></trkpt><trkpt lat="42.39529628056697" lon="14.204901454767523"><ele>215.5</ele><time>2026-03-30T09:21:18.95Z</time></trkpt><trkpt lat="42.39520534460805" lon="14.204773727315082"><ele>216.0</ele><time>2026-03-30T09:21:19.95Z</time></trkpt><trkpt lat="42.395115072199744" lon="14.204629477057798"><ele>216.0</ele><time>2026-03-30T09:21:20.95Z</time></trkpt><trkpt lat="42.39502331930148" lon="14.204499190190104"><ele>216.00000000000003</ele><time>2026-03-30T09:21:21.95Z</time></trkpt><trkpt lat="42.39496990119328" lon="14.204409408798412"><ele>216.00000000000003</ele><time>2026-03-30T09:21:22.95Z</time></trkpt><trkpt lat="42.39492381254128" lon="14.204348869482327"><ele>216.0</ele><time>2026-03-30T09:21:23.95Z</time></trkpt><trkpt lat="42.394861264724426" lon="14.20428489382625"><ele>216.0</ele><time>2026-03-30T09:21:26.95Z</time></trkpt><trkpt lat="42.39475163402781" lon="14.204423143280636"><ele>216.0</ele><time>2026-03-30T09:21:27.95Z</time></trkpt><trkpt lat="42.39467621583831" lon="14.204495867514702"><ele>216.00000000000003</ele><time>2026-03-30T09:21:28.95Z</time></trkpt><trkpt lat="42.39461309645109" lon="14.204597572869108"><ele>216.00000000000003</ele><time>2026-03-30T09:21:29.95Z</time></trkpt><trkpt lat="42.394527843468694" lon="14.204672031848876"><ele>216.0</ele><time>2026-03-30T09:21:30.95Z</time></trkpt><trkpt lat="42.39445581459888" lon="14.20475990713195"><ele>216.0</ele><time>2026-03-30T09:21:31.95Z</time></trkpt><trkpt lat="42.3943911672859" lon="14.204859183911388"><ele>216.5</ele><time>2026-03-30T09:21:32.95Z</time></trkpt><trkpt lat="42.394327923250124" lon="14.204930264666608"><ele>217.0</ele><time>2026-03-30T09:21:33.95Z</time></trkpt><trkpt lat="42.39426595425337" lon="14.20498058966949"><ele>217.5</ele><time>2026-03-30T09:21:34.95Z</time></trkpt><trkpt lat="42.394203987078654" lon="14.205028988071401"><ele>218.0</ele><time>2026-03-30T09:21:35.95Z</time></trkpt><trkpt lat="42.39414879704505" lon="14.205078291372823"><ele>218.5</ele><time>2026-03-30T09:21:36.95Z</time></trkpt><trkpt lat="42.394081795022636" lon="14.205069589583589"><ele>219.0</ele><time>2026-03-30T09:21:37.95Z</time></trkpt><trkpt lat="42.39399520574958" lon="14.20513506929385"><ele>219.0</ele><time>2026-03-30T09:21:39.95Z</time></trkpt><trkpt lat="42.39396684767647" lon="14.205307511441017"><ele>218.99999999999997</ele><time>2026-03-30T09:21:41.95Z</time></trkpt><trkpt lat="42.394015592402944" lon="14.205418281105434"><ele>218.99999999999997</ele><time>2026-03-30T09:21:42.95Z</time></trkpt><trkpt lat="42.39404309015597" lon="14.205513331062392"><ele>219.0</ele><time>2026-03-30T09:21:43.95Z</time></trkpt><trkpt lat="42.39404339838409" lon="14.205601744966433"><ele>219.0</ele><time>2026-03-30T09:21:44.95Z</time></trkpt><trkpt lat="42.39407985326039" lon="14.205736894679859"><ele>218.2</ele><time>2026-03-30T09:21:46.95Z</time></trkpt><trkpt lat="42.39411839730587" lon="14.205847858450086"><ele>217.39999999999998</ele><time>2026-03-30T09:21:48.95Z</time></trkpt><trkpt lat="42.39416622863193" lon="14.205972033734193"><ele>216.6</ele><time>2026-03-30T09:21:50.95Z</time></trkpt><trkpt lat="42.39418410504443" lon="14.206058728846822"><ele>215.8</ele><time>2026-03-30T09:21:51.95Z</time></trkpt><trkpt lat="42.39422925471989" lon="14.206243529107969"><ele>215.0</ele><time>2026-03-30T09:21:53.95Z</time></trkpt><trkpt lat="42.394271187341346" lon="14.206342726763616"><ele>215.00000000000003</ele><time>2026-03-30T09:21:54.95Z</time></trkpt><trkpt lat="42.394286984871286" lon="14.206453258203645"><ele>215.0</ele><time>2026-03-30T09:21:55.95Z</time></trkpt><trkpt lat="42.394325555267685" lon="14.206556105118414"><ele>215.0</ele><time>2026-03-30T09:21:56.95Z</time></trkpt><trkpt lat="42.394374526849504" lon="14.206657462087048"><ele>215.0</ele><time>2026-03-30T09:21:57.95Z</time></trkpt><trkpt lat="42.39442285707595" lon="14.206754473668827"><ele>215.00000000000003</ele><time>2026-03-30T09:21:58.95Z</time></trkpt><trkpt lat="42.394480225030456" lon="14.206826408383424"><ele>215.0</ele><time>2026-03-30T09:21:59.95Z</time></trkpt><trkpt lat="42.39452726695161" lon="14.206918246623086"><ele>214.4</ele><time>2026-03-30T09:22:00.95Z</time></trkpt><trkpt lat="42.39456126945087" lon="14.207027817916783"><ele>213.8</ele><time>2026-03-30T09:22:01.951Z</time></trkpt><trkpt lat="42.394610199491524" lon="14.207127892509902"><ele>213.2</ele><time>2026-03-30T09:22:02.951Z</time></trkpt><trkpt lat="42.39467477345756" lon="14.207228186345345"><ele>212.6</ele><time>2026-03-30T09:22:03.951Z</time></trkpt><trkpt lat="42.394731976232435" lon="14.207347008833864"><ele>212.0</ele><time>2026-03-30T09:22:04.951Z</time></trkpt><trkpt lat="42.39480142286693" lon="14.207460582848105"><ele>210.0</ele><time>2026-03-30T09:22:05.951Z</time></trkpt><trkpt lat="42.39487350730419" lon="14.207552951391262"><ele>208.0</ele><time>2026-03-30T09:22:06.951Z</time></trkpt><trkpt lat="42.39492740283696" lon="14.20766812352263"><ele>206.0</ele><time>2026-03-30T09:22:07.951Z</time></trkpt><trkpt lat="42.39495843741774" lon="14.207788220531363"><ele>204.0</ele><time>2026-03-30T09:22:08.951Z</time></trkpt><trkpt lat="42.39501201934306" lon="14.207886273509585"><ele>202.0</ele><time>2026-03-30T09:22:09.951Z</time></trkpt><trkpt lat="42.395045019332244" lon="14.207991029863845"><ele>202.0</ele><time>2026-03-30T09:22:10.951Z</time></trkpt><trkpt lat="42.39508501422133" lon="14.20811898701526"><ele>202.0</ele><time>2026-03-30T09:22:11.951Z</time></trkpt><trkpt lat="42.395117980391866" lon="14.208238573568098"><ele>202.0</ele><time>2026-03-30T09:22:12.951Z</time></trkpt><trkpt lat="42.39514775790438" lon="14.20837049596366"><ele>202.0</ele><time>2026-03-30T09:22:13.951Z</time></trkpt><trkpt lat="42.39518272318043" lon="14.208492553170585"><ele>202.0</ele><time>2026-03-30T09:22:14.951Z</time></trkpt><trkpt lat="42.395222199139184" lon="14.208608702392368"><ele>199.2</ele><time>2026-03-30T09:22:15.951Z</time></trkpt><trkpt lat="42.39527276179578" lon="14.208734228043028"><ele>196.39999999999998</ele><time>2026-03-30T09:22:16.951Z</time></trkpt><trkpt lat="42.39533565697889" lon="14.208850569320083"><ele>193.60000000000002</ele><time>2026-03-30T09:22:17.951Z</time></trkpt><trkpt lat="42.395403431476524" lon="14.208979261967185"><ele>190.8</ele><time>2026-03-30T09:22:18.951Z</time></trkpt><trkpt lat="42.395495992834505" lon="14.209053436243586"><ele>188.0</ele><time>2026-03-30T09:22:19.951Z</time></trkpt><trkpt lat="42.39556427618291" lon="14.209151084588841"><ele>188.0</ele><time>2026-03-30T09:22:20.951Z</time></trkpt><trkpt lat="42.39564056164753" lon="14.20922823932606"><ele>188.0</ele><time>2026-03-30T09:22:21.951Z</time></trkpt><trkpt lat="42.39571403244634" lon="14.209302981707884"><ele>188.0</ele><time>2026-03-30T09:22:22.948Z</time></trkpt><trkpt lat="42.39576886724932" lon="14.209385068830006"><ele>188.0</ele><time>2026-03-30T09:22:23.947Z</time></trkpt><trkpt lat="42.395805314024926" lon="14.209474931540745"><ele>188.0</ele><time>2026-03-30T09:22:24.947Z</time></trkpt><trkpt lat="42.39580183157194" lon="14.209599861915187"><ele>188.0</ele><time>2026-03-30T09:22:26.947Z</time></trkpt><trkpt lat="42.39580934946026" lon="14.209739785591736"><ele>185.0</ele><time>2026-03-30T09:22:28.947Z</time></trkpt><trkpt lat="42.39581655967417" lon="14.20987398281721"><ele>182.0</ele><time>2026-03-30T09:22:30.947Z</time></trkpt><trkpt lat="42.39595071994061" lon="14.210013504457255"><ele>179.0</ele><time>2026-03-30T09:22:32.947Z</time></trkpt><trkpt lat="42.39593166745321" lon="14.21013624541367"><ele>176.0</ele><time>2026-03-30T09:22:36.946Z</time></trkpt><trkpt lat="42.39595628458044" lon="14.210295159364108"><ele>176.0</ele><time>2026-03-30T09:22:38.946Z</time></trkpt><trkpt lat="42.395984301231024" lon="14.210385254921029"><ele>176.0</ele><time>2026-03-30T09:22:39.946Z</time></trkpt><trkpt lat="42.39599199037443" lon="14.210471314632127"><ele>176.0</ele><time>2026-03-30T09:22:40.946Z</time></trkpt><trkpt lat="42.3960066877612" lon="14.210610313786043"><ele>176.0</ele><time>2026-03-30T09:22:42.946Z</time></trkpt><trkpt lat="42.39601149539566" lon="14.210707251248374"><ele>176.0</ele><time>2026-03-30T09:22:44.946Z</time></trkpt><trkpt lat="42.395963818443626" lon="14.210768848765277"><ele>176.0</ele><time>2026-03-30T09:22:46.946Z</time></trkpt><trkpt lat="42.395874324348014" lon="14.210885829724166"><ele>173.60000000000002</ele><time>2026-03-30T09:22:48.947Z</time></trkpt><trkpt lat="42.39580231946126" lon="14.211018429360498"><ele>171.2</ele><time>2026-03-30T09:22:50.947Z</time></trkpt><trkpt lat="42.395752777272165" lon="14.211088427240673"><ele>168.8</ele><time>2026-03-30T09:22:51.947Z</time></trkpt><trkpt lat="42.39566551407673" lon="14.211172899527687"><ele>166.39999999999998</ele><time>2026-03-30T09:22:53.947Z</time></trkpt><trkpt lat="42.39556582123188" lon="14.211176312005978"><ele>164.0</ele><time>2026-03-30T09:22:55.947Z</time></trkpt><trkpt lat="42.39550809449275" lon="14.211122264316769"><ele>162.5</ele><time>2026-03-30T09:22:56.947Z</time></trkpt><trkpt lat="42.39545271250276" lon="14.211062176782228"><ele>161.0</ele><time>2026-03-30T09:22:57.947Z</time></trkpt><trkpt lat="42.39536149151574" lon="14.21099216341611"><ele>159.5</ele><time>2026-03-30T09:22:59.947Z</time></trkpt><trkpt lat="42.39530098410478" lon="14.211086363017577"><ele>158.0</ele><time>2026-03-30T09:23:01.947Z</time></trkpt><trkpt lat="42.395263464182" lon="14.211168904688959"><ele>156.5</ele><time>2026-03-30T09:23:02.947Z</time></trkpt><trkpt lat="42.395212276805445" lon="14.21125507744766"><ele>155.0</ele><time>2026-03-30T09:23:03.947Z</time></trkpt><trkpt lat="42.39515392691237" lon="14.21134672443186"><ele>155.0</ele><time>2026-03-30T09:23:04.947Z</time></trkpt><trkpt lat="42.39509875035823" lon="14.211413148686448"><ele>155.0</ele><time>2026-03-30T09:23:05.947Z</time></trkpt><trkpt lat="42.395022520714924" lon="14.211449361143695"><ele>155.0</ele><time>2026-03-30T09:23:06.947Z</time></trkpt><trkpt lat="42.39494874458005" lon="14.211451663941947"><ele>155.0</ele><time>2026-03-30T09:23:07.947Z</time></trkpt><trkpt lat="42.39487952951909" lon="14.211464821554099"><ele>155.0</ele><time>2026-03-30T09:23:08.947Z</time></trkpt><trkpt lat="42.39478927827969" lon="14.211576765680253"><ele>155.0</ele><time>2026-03-30T09:23:10.947Z</time></trkpt><trkpt lat="42.39475328861424" lon="14.211656442197551"><ele>156.6</ele><time>2026-03-30T09:23:11.947Z</time></trkpt><trkpt lat="42.39471409354351" lon="14.21173177295273"><ele>158.2</ele><time>2026-03-30T09:23:12.947Z</time></trkpt><trkpt lat="42.39462852331403" lon="14.211852926174847"><ele>159.8</ele><time>2026-03-30T09:23:14.947Z</time></trkpt><trkpt lat="42.394547889400165" lon="14.211987858896633"><ele>161.4</ele><time>2026-03-30T09:23:16.947Z</time></trkpt><trkpt lat="42.394542900243664" lon="14.21208522700162"><ele>163.0</ele><time>2026-03-30T09:23:18.947Z</time></trkpt><trkpt lat="42.39465355394241" lon="14.212113519018008"><ele>169.0</ele><time>2026-03-30T09:23:20.947Z</time></trkpt><trkpt lat="42.394667310577184" lon="14.21220840285073"><ele>175.0</ele><time>2026-03-30T09:23:25.947Z</time></trkpt><trkpt lat="42.39457224653552" lon="14.212215265178928"><ele>181.0</ele><time>2026-03-30T09:23:33.947Z</time></trkpt><trkpt lat="42.39446162848352" lon="14.2120680493045"><ele>187.0</ele><time>2026-03-30T09:23:35.947Z</time></trkpt><trkpt lat="42.394385004978574" lon="14.211980745558503"><ele>193.0</ele><time>2026-03-30T09:23:36.947Z</time></trkpt><trkpt lat="42.394289621394215" lon="14.211900813162789"><ele>192.99999999999997</ele><time>2026-03-30T09:23:37.947Z</time></trkpt><trkpt lat="42.394226901885794" lon="14.21183914016181"><ele>193.0</ele><time>2026-03-30T09:23:38.947Z</time></trkpt><trkpt lat="42.39416620084227" lon="14.211796770473757"><ele>193.0</ele><time>2026-03-30T09:23:39.947Z</time></trkpt><trkpt lat="42.394086006632" lon="14.211755315310677"><ele>193.0</ele><time>2026-03-30T09:23:40.947Z</time></trkpt><trkpt lat="42.3940040170315" lon="14.211696183327726"><ele>192.99999999999997</ele><time>2026-03-30T09:23:41.947Z</time></trkpt><trkpt lat="42.393911354266486" lon="14.211601479095588"><ele>193.0</ele><time>2026-03-30T09:23:42.947Z</time></trkpt><trkpt lat="42.393849557512056" lon="14.211540238891528"><ele>194.83333333333331</ele><time>2026-03-30T09:23:43.947Z</time></trkpt><trkpt lat="42.393819419230915" lon="14.211405948194725"><ele>196.66666666666666</ele><time>2026-03-30T09:23:46.947Z</time></trkpt><trkpt lat="42.39381125488407" lon="14.211316582126944"><ele>198.5</ele><time>2026-03-30T09:23:47.947Z</time></trkpt><trkpt lat="42.39380819714467" lon="14.211206523144972"><ele>200.33333333333331</ele><time>2026-03-30T09:23:48.947Z</time></trkpt><trkpt lat="42.39377249459762" lon="14.211077825008676"><ele>202.16666666666666</ele><time>2026-03-30T09:23:49.947Z</time></trkpt><trkpt lat="42.39374122569899" lon="14.210962061794191"><ele>204.0</ele><time>2026-03-30T09:23:50.947Z</time></trkpt><trkpt lat="42.39369002493794" lon="14.210854494170734"><ele>204.0</ele><time>2026-03-30T09:23:51.947Z</time></trkpt><trkpt lat="42.3936202852586" lon="14.210738115183561"><ele>204.0</ele><time>2026-03-30T09:23:52.947Z</time></trkpt><trkpt lat="42.393564921398806" lon="14.210647426605815"><ele>204.0</ele><time>2026-03-30T09:23:53.947Z</time></trkpt><trkpt lat="42.3935051524136" lon="14.210555397704363"><ele>204.0</ele><time>2026-03-30T09:23:56.947Z</time></trkpt><trkpt lat="42.39350321336941" lon="14.210434946612935"><ele>204.0</ele><time>2026-03-30T09:23:58.947Z</time></trkpt><trkpt lat="42.393486997951335" lon="14.210333510639764"><ele>199.0</ele><time>2026-03-30T09:24:00.947Z</time></trkpt><trkpt lat="42.39338083271797" lon="14.210241105475275"><ele>194.0</ele><time>2026-03-30T09:24:02.947Z</time></trkpt><trkpt lat="42.39328960598544" lon="14.210153854910876"><ele>189.0</ele><time>2026-03-30T09:24:03.947Z</time></trkpt><trkpt lat="42.39321924175843" lon="14.210036085459919"><ele>184.0</ele><time>2026-03-30T09:24:04.947Z</time></trkpt><trkpt lat="42.39315415761892" lon="14.209931451256642"><ele>184.0</ele><time>2026-03-30T09:24:05.947Z</time></trkpt><trkpt lat="42.393090191743056" lon="14.209825687534954"><ele>184.0</ele><time>2026-03-30T09:24:06.947Z</time></trkpt><trkpt lat="42.393013780867086" lon="14.20973524710456"><ele>184.0</ele><time>2026-03-30T09:24:07.947Z</time></trkpt><trkpt lat="42.392948079162174" lon="14.209667217227018"><ele>184.0</ele><time>2026-03-30T09:24:08.947Z</time></trkpt><trkpt lat="42.39287011226911" lon="14.209594236056535"><ele>184.0</ele><time>2026-03-30T09:24:09.947Z</time></trkpt><trkpt lat="42.39278728322696" lon="14.209522912839704"><ele>186.16666666666669</ele><time>2026-03-30T09:24:10.947Z</time></trkpt><trkpt lat="42.39270949494997" lon="14.2094378876964"><ele>188.33333333333334</ele><time>2026-03-30T09:24:11.947Z</time></trkpt><trkpt lat="42.392650714510815" lon="14.209345066294865"><ele>190.5</ele><time>2026-03-30T09:24:12.947Z</time></trkpt><trkpt lat="42.39261076773781" lon="14.209273203044846"><ele>192.66666666666669</ele><time>2026-03-30T09:24:13.947Z</time></trkpt><trkpt lat="42.39256033586535" lon="14.209195473120232"><ele>194.83333333333334</ele><time>2026-03-30T09:24:14.947Z</time></trkpt><trkpt lat="42.39250260289249" lon="14.209141989109774"><ele>197.0</ele><time>2026-03-30T09:24:15.947Z</time></trkpt><trkpt lat="42.39236358774437" lon="14.209114484368637"><ele>197.0</ele><time>2026-03-30T09:24:17.947Z</time></trkpt><trkpt lat="42.392273322976976" lon="14.209094400871793"><ele>197.0</ele><time>2026-03-30T09:24:18.947Z</time></trkpt><trkpt lat="42.392181415047794" lon="14.209065369858251"><ele>197.0</ele><time>2026-03-30T09:24:19.947Z</time></trkpt><trkpt lat="42.392078089782274" lon="14.20901933226135"><ele>197.0</ele><time>2026-03-30T09:24:20.947Z</time></trkpt><trkpt lat="42.39197865725946" lon="14.208957147247583"><ele>197.0</ele><time>2026-03-30T09:24:21.947Z</time></trkpt><trkpt lat="42.391874658698626" lon="14.208888193727072"><ele>197.8</ele><time>2026-03-30T09:24:22.947Z</time></trkpt><trkpt lat="42.39176884176946" lon="14.208839864343561"><ele>198.6</ele><time>2026-03-30T09:24:23.947Z</time></trkpt><trkpt lat="42.39169202922899" lon="14.208794753584234"><ele>199.4</ele><time>2026-03-30T09:24:24.947Z</time></trkpt><trkpt lat="42.391604548794" lon="14.208765175439705"><ele>200.20000000000002</ele><time>2026-03-30T09:24:25.947Z</time></trkpt><trkpt lat="42.39152009922357" lon="14.208685843612209"><ele>201.0</ele><time>2026-03-30T09:24:26.947Z</time></trkpt><trkpt lat="42.391453391318784" lon="14.208619947260559"><ele>201.0</ele><time>2026-03-30T09:24:27.947Z</time></trkpt><trkpt lat="42.391398772192794" lon="14.208543644344333"><ele>201.0</ele><time>2026-03-30T09:24:28.944Z</time></trkpt><trkpt lat="42.391319082772284" lon="14.208448906537235"><ele>201.0</ele><time>2026-03-30T09:24:30.943Z</time></trkpt><trkpt lat="42.39124723302983" lon="14.208321840455579"><ele>201.0</ele><time>2026-03-30T09:24:32.944Z</time></trkpt><trkpt lat="42.391204332249465" lon="14.208214210490208"><ele>201.0</ele><time>2026-03-30T09:24:33.944Z</time></trkpt><trkpt lat="42.3911788076053" lon="14.208105158032566"><ele>203.33333333333334</ele><time>2026-03-30T09:24:34.944Z</time></trkpt><trkpt lat="42.39114699165635" lon="14.208007048750998"><ele>205.66666666666669</ele><time>2026-03-30T09:24:35.943Z</time></trkpt><trkpt lat="42.3911259422992" lon="14.207914023203225"><ele>208.0</ele><time>2026-03-30T09:24:36.943Z</time></trkpt><trkpt lat="42.391109791064515" lon="14.207794004136149"><ele>210.33333333333334</ele><time>2026-03-30T09:24:37.943Z</time></trkpt><trkpt lat="42.39110718048244" lon="14.207680161664978"><ele>212.66666666666669</ele><time>2026-03-30T09:24:38.944Z</time></trkpt><trkpt lat="42.39107138597369" lon="14.207591350431983"><ele>215.0</ele><time>2026-03-30T09:24:39.944Z</time></trkpt><trkpt lat="42.391048801313204" lon="14.207431021910846"><ele>213.00000000000003</ele><time>2026-03-30T09:24:41.943Z</time></trkpt><trkpt lat="42.391014033500134" lon="14.207270503135101"><ele>211.0</ele><time>2026-03-30T09:24:43.943Z</time></trkpt><trkpt lat="42.390997415927934" lon="14.20716968738145"><ele>209.0</ele><time>2026-03-30T09:24:44.943Z</time></trkpt><trkpt lat="42.39099439255154" lon="14.207053853548771"><ele>207.0</ele><time>2026-03-30T09:24:45.943Z</time></trkpt><trkpt lat="42.39099557845761" lon="14.206951691659349"><ele>205.00000000000003</ele><time>2026-03-30T09:24:46.943Z</time></trkpt><trkpt lat="42.390972785265014" lon="14.206853189701478"><ele>203.0</ele><time>2026-03-30T09:24:47.943Z</time></trkpt><trkpt lat="42.390940406356" lon="14.20676112862847"><ele>203.00000000000003</ele><time>2026-03-30T09:24:48.943Z</time></trkpt><trkpt lat="42.390916997903055" lon="14.206656818131485"><ele>203.0</ele><time>2026-03-30T09:24:49.943Z</time></trkpt><trkpt lat="42.39089523476318" lon="14.206542226963867"><ele>203.0</ele><time>2026-03-30T09:24:50.943Z</time></trkpt><trkpt lat="42.39088084338338" lon="14.206427737083395"><ele>203.0</ele><time>2026-03-30T09:24:51.943Z</time></trkpt><trkpt lat="42.39085989303596" lon="14.206337523026427"><ele>203.00000000000003</ele><time>2026-03-30T09:24:52.943Z</time></trkpt><trkpt lat="42.39084309512199" lon="14.206252070810887"><ele>203.0</ele><time>2026-03-30T09:24:53.943Z</time></trkpt><trkpt lat="42.390805980721616" lon="14.206161582771122"><ele>200.71428571428572</ele><time>2026-03-30T09:24:54.943Z</time></trkpt><trkpt lat="42.39076195604182" lon="14.2060814207454"><ele>198.42857142857144</ele><time>2026-03-30T09:24:55.943Z</time></trkpt><trkpt lat="42.390712279403225" lon="14.206018795098547"><ele>196.14285714285714</ele><time>2026-03-30T09:24:56.943Z</time></trkpt><trkpt lat="42.39066793601295" lon="14.20595233512636"><ele>193.85714285714286</ele><time>2026-03-30T09:24:57.943Z</time></trkpt><trkpt lat="42.39060510747249" lon="14.205907635277935"><ele>191.57142857142858</ele><time>2026-03-30T09:24:58.943Z</time></trkpt><trkpt lat="42.39055505552966" lon="14.20584598479761"><ele>189.28571428571428</ele><time>2026-03-30T09:24:59.943Z</time></trkpt><trkpt lat="42.39050328147652" lon="14.205729926363931"><ele>187.0</ele><time>2026-03-30T09:25:01.943Z</time></trkpt><trkpt lat="42.39044371643687" lon="14.205550363871556"><ele>185.83333333333334</ele><time>2026-03-30T09:25:03.943Z</time></trkpt><trkpt lat="42.390393577338486" lon="14.205430115522754"><ele>184.66666666666669</ele><time>2026-03-30T09:25:04.943Z</time></trkpt><trkpt lat="42.39036235294375" lon="14.205355226362157"><ele>183.5</ele><time>2026-03-30T09:25:05.943Z</time></trkpt><trkpt lat="42.39027760379322" lon="14.20524904751609"><ele>182.33333333333334</ele><time>2026-03-30T09:25:07.943Z</time></trkpt><trkpt lat="42.39021335823466" lon="14.20524456422962"><ele>181.16666666666666</ele><time>2026-03-30T09:25:08.943Z</time></trkpt><trkpt lat="42.39014498836408" lon="14.20527214299901"><ele>180.0</ele><time>2026-03-30T09:25:09.943Z</time></trkpt><trkpt lat="42.39005944266259" lon="14.2053204968238"><ele>180.0</ele><time>2026-03-30T09:25:10.943Z</time></trkpt><trkpt lat="42.389965323681196" lon="14.205372350136907"><ele>180.0</ele><time>2026-03-30T09:25:11.943Z</time></trkpt><trkpt lat="42.38988029819796" lon="14.205424302395246"><ele>180.0</ele><time>2026-03-30T09:25:12.943Z</time></trkpt><trkpt lat="42.389804743515654" lon="14.20548344620941"><ele>180.0</ele><time>2026-03-30T09:25:13.943Z</time></trkpt><trkpt lat="42.38972303195104" lon="14.205555193722276"><ele>180.0</ele><time>2026-03-30T09:25:14.943Z</time></trkpt><trkpt lat="42.38963966401164" lon="14.205627621951582"><ele>181.8</ele><time>2026-03-30T09:25:15.943Z</time></trkpt><trkpt lat="42.38954742307506" lon="14.2056882173697"><ele>183.6</ele><time>2026-03-30T09:25:16.943Z</time></trkpt><trkpt lat="42.38944764636369" lon="14.20574716512015"><ele>185.39999999999998</ele><time>2026-03-30T09:25:17.943Z</time></trkpt><trkpt lat="42.38935833232398" lon="14.205780739581227"><ele>187.2</ele><time>2026-03-30T09:25:18.943Z</time></trkpt><trkpt lat="42.389267130566964" lon="14.20577638876514"><ele>189.0</ele><time>2026-03-30T09:25:20.943Z</time></trkpt><trkpt lat="42.38920063332273" lon="14.205746451554228"><ele>189.0</ele><time>2026-03-30T09:25:24.943Z</time></trkpt><trkpt lat="42.38908249385729" lon="14.205712602954561"><ele>189.0</ele><time>2026-03-30T09:25:27.943Z</time></trkpt><trkpt lat="42.389016705048775" lon="14.205700968990781"><ele>189.0</ele><time>2026-03-30T09:25:28.943Z</time></trkpt><trkpt lat="42.388932848456015" lon="14.20570423027855"><ele>189.0</ele><time>2026-03-30T09:25:29.943Z</time></trkpt><trkpt lat="42.3888350943272" lon="14.205713519370022"><ele>189.0</ele><time>2026-03-30T09:25:30.943Z</time></trkpt><trkpt lat="42.38874154982342" lon="14.205738056769647"><ele>189.39999999999998</ele><time>2026-03-30T09:25:31.943Z</time></trkpt><trkpt lat="42.38864208380954" lon="14.205731817846114"><ele>189.8</ele><time>2026-03-30T09:25:32.943Z</time></trkpt><trkpt lat="42.388572036634194" lon="14.205698014954862"><ele>190.2</ele><time>2026-03-30T09:25:33.943Z</time></trkpt><trkpt lat="42.38847492340829" lon="14.2056545341887"><ele>190.60000000000002</ele><time>2026-03-30T09:25:34.943Z</time></trkpt><trkpt lat="42.388368470810036" lon="14.205631762953981"><ele>191.0</ele><time>2026-03-30T09:25:35.943Z</time></trkpt><trkpt lat="42.388247115186665" lon="14.205602214312286"><ele>191.60000000000002</ele><time>2026-03-30T09:25:36.943Z</time></trkpt><trkpt lat="42.38813336622363" lon="14.205561808481443"><ele>192.2</ele><time>2026-03-30T09:25:37.943Z</time></trkpt><trkpt lat="42.38803593302905" lon="14.205528991943837"><ele>192.8</ele><time>2026-03-30T09:25:38.943Z</time></trkpt><trkpt lat="42.38795793774214" lon="14.205522059434058"><ele>193.39999999999998</ele><time>2026-03-30T09:25:39.943Z</time></trkpt><trkpt lat="42.38784750187266" lon="14.205536103322805"><ele>194.0</ele><time>2026-03-30T09:25:41.943Z</time></trkpt><trkpt lat="42.387789710034504" lon="14.205489414029783"><ele>194.00000000000003</ele><time>2026-03-30T09:25:43.944Z</time></trkpt><trkpt lat="42.38773374347418" lon="14.205568717939245"><ele>194.0</ele><time>2026-03-30T09:25:46.944Z</time></trkpt><trkpt lat="42.38769492165933" lon="14.205670919089156"><ele>194.0</ele><time>2026-03-30T09:25:47.944Z</time></trkpt><trkpt lat="42.38766683648933" lon="14.2057679427413"><ele>194.0</ele><time>2026-03-30T09:25:48.944Z</time></trkpt><trkpt lat="42.3876248226153" lon="14.205870086236976"><ele>194.00000000000003</ele><time>2026-03-30T09:25:49.944Z</time></trkpt><trkpt lat="42.38753402975127" lon="14.20595472016046"><ele>194.0</ele><time>2026-03-30T09:25:51.944Z</time></trkpt><trkpt lat="42.38749051062889" lon="14.20609334190236"><ele>196.0</ele><time>2026-03-30T09:25:53.944Z</time></trkpt><trkpt lat="42.38745206575948" lon="14.20619193623534"><ele>198.0</ele><time>2026-03-30T09:25:54.944Z</time></trkpt><trkpt lat="42.387435652516885" lon="14.20628086823794"><ele>200.0</ele><time>2026-03-30T09:25:55.944Z</time></trkpt><trkpt lat="42.38753607564741" lon="14.206387232563904"><ele>202.0</ele><time>2026-03-30T09:25:57.944Z</time></trkpt><trkpt lat="42.38761042367414" lon="14.206470072709266"><ele>204.0</ele><time>2026-03-30T09:25:58.944Z</time></trkpt><trkpt lat="42.38768958626006" lon="14.206551412255612"><ele>204.83333333333334</ele><time>2026-03-30T09:25:59.944Z</time></trkpt><trkpt lat="42.38776977994467" lon="14.206652668120205"><ele>205.66666666666669</ele><time>2026-03-30T09:26:00.944Z</time></trkpt><trkpt lat="42.387836531873496" lon="14.206742038993784"><ele>206.5</ele><time>2026-03-30T09:26:01.944Z</time></trkpt><trkpt lat="42.38790233318326" lon="14.206800812051831"><ele>207.33333333333334</ele><time>2026-03-30T09:26:02.944Z</time></trkpt><trkpt lat="42.38796755182989" lon="14.206848800011153"><ele>208.16666666666669</ele><time>2026-03-30T09:26:03.944Z</time></trkpt><trkpt lat="42.388032452433976" lon="14.206863215862272"><ele>209.0</ele><time>2026-03-30T09:26:05.944Z</time></trkpt><trkpt lat="42.38812020213546" lon="14.206950684109483"><ele>209.0</ele><time>2026-03-30T09:26:07.944Z</time></trkpt><trkpt lat="42.38818533055924" lon="14.207003813506645"><ele>209.0</ele><time>2026-03-30T09:26:10.944Z</time></trkpt><trkpt lat="42.38831469771825" lon="14.207013363416658"><ele>209.0</ele><time>2026-03-30T09:26:12.944Z</time></trkpt><trkpt lat="42.388410039524786" lon="14.206990031124686"><ele>209.0</ele><time>2026-03-30T09:26:13.944Z</time></trkpt><trkpt lat="42.3884874160124" lon="14.206943946183323"><ele>209.0</ele><time>2026-03-30T09:26:14.944Z</time></trkpt><trkpt lat="42.38854369383737" lon="14.206888976037467"><ele>209.00000000000003</ele><time>2026-03-30T09:26:15.944Z</time></trkpt><trkpt lat="42.38859473770775" lon="14.206835615284636"><ele>209.0</ele><time>2026-03-30T09:26:16.944Z</time></trkpt><trkpt lat="42.388690126983555" lon="14.20678800856931"><ele>209.0</ele><time>2026-03-30T09:26:18.944Z</time></trkpt><trkpt lat="42.38875650592044" lon="14.206774770189607"><ele>209.0</ele><time>2026-03-30T09:26:19.944Z</time></trkpt><trkpt lat="42.38882365027786" lon="14.206773910474663"><ele>209.00000000000003</ele><time>2026-03-30T09:26:20.944Z</time></trkpt><trkpt lat="42.38888643489519" lon="14.206782816536887"><ele>209.0</ele><time>2026-03-30T09:26:21.944Z</time></trkpt><trkpt lat="42.38899782552707" lon="14.20683268095007"><ele>208.50000000000003</ele><time>2026-03-30T09:26:23.944Z</time></trkpt><trkpt lat="42.38906645602417" lon="14.20685248088789"><ele>208.0</ele><time>2026-03-30T09:26:24.944Z</time></trkpt><trkpt lat="42.38913184970916" lon="14.206881491969265"><ele>207.5</ele><time>2026-03-30T09:26:25.944Z</time></trkpt><trkpt lat="42.38919515200472" lon="14.206920510997186"><ele>207.0</ele><time>2026-03-30T09:26:26.944Z</time></trkpt><trkpt lat="42.38930542267815" lon="14.206987613275125"><ele>206.50000000000003</ele><time>2026-03-30T09:26:28.944Z</time></trkpt><trkpt lat="42.38940412143286" lon="14.206967220508155"><ele>206.0</ele><time>2026-03-30T09:26:30.944Z</time></trkpt><trkpt lat="42.38946397726391" lon="14.206862899677262"><ele>206.0</ele><time>2026-03-30T09:26:32.944Z</time></trkpt><trkpt lat="42.3895069883333" lon="14.206732297223397"><ele>206.0</ele><time>2026-03-30T09:26:34.941Z</time></trkpt><trkpt lat="42.389564006545974" lon="14.206593291635793"><ele>206.0</ele><time>2026-03-30T09:26:36.94Z</time></trkpt><trkpt lat="42.389609257206736" lon="14.206507778589952"><ele>206.0</ele><time>2026-03-30T09:26:38.941Z</time></trkpt><trkpt lat="42.38963635508908" lon="14.206417868128742"><ele>206.0</ele><time>2026-03-30T09:26:43.941Z</time></trkpt><trkpt lat="42.38956487175411" lon="14.206363338596894"><ele>206.00000000000003</ele><time>2026-03-30T09:26:46.94Z</time></trkpt><trkpt lat="42.3894860442432" lon="14.206326376876861"><ele>206.0</ele><time>2026-03-30T09:26:48.941Z</time></trkpt><trkpt lat="42.38940324455776" lon="14.206319346481658"><ele>206.0</ele><time>2026-03-30T09:26:50.941Z</time></trkpt><trkpt lat="42.389322858764004" lon="14.206364266234822"><ele>206.0</ele><time>2026-03-30T09:26:53.941Z</time></trkpt><trkpt lat="42.38924799454499" lon="14.206410671385443"><ele>206.00000000000003</ele><time>2026-03-30T09:26:57.941Z</time></trkpt><trkpt lat="42.389219566747514" lon="14.206491072039288"><ele>206.0</ele><time>2026-03-30T09:26:59.941Z</time></trkpt><trkpt lat="42.38918643842316" lon="14.206569063704688"><ele>206.00000000000003</ele><time>2026-03-30T09:27:01.941Z</time></trkpt><trkpt lat="42.38916502478455" lon="14.206704470171484"><ele>206.0</ele><time>2026-03-30T09:27:03.941Z</time></trkpt><trkpt lat="42.38911223283623" lon="14.206787134211911"><ele>206.0</ele><time>2026-03-30T09:27:06.941Z</time></trkpt><trkpt lat="42.38903676574398" lon="14.206752357936972"><ele>206.0</ele><time>2026-03-30T09:27:08.941Z</time></trkpt><trkpt lat="42.388965849760375" lon="14.206751342768019"><ele>206.00000000000003</ele><time>2026-03-30T09:27:10.941Z</time></trkpt><trkpt lat="42.38885593201087" lon="14.20677184598915"><ele>206.0</ele><time>2026-03-30T09:27:12.941Z</time></trkpt><trkpt lat="42.38876508587185" lon="14.206851609213782"><ele>206.60000000000002</ele><time>2026-03-30T09:27:14.941Z</time></trkpt><trkpt lat="42.388632489174555" lon="14.20693076789741"><ele>207.2</ele><time>2026-03-30T09:27:16.941Z</time></trkpt><trkpt lat="42.38852106889183" lon="14.206962644490213"><ele>207.8</ele><time>2026-03-30T09:27:17.941Z</time></trkpt><trkpt lat="42.38844974395653" lon="14.206972864174352"><ele>208.39999999999998</ele><time>2026-03-30T09:27:18.941Z</time></trkpt><trkpt lat="42.38836532804302" lon="14.206911165140475"><ele>209.0</ele><time>2026-03-30T09:27:20.941Z</time></trkpt><trkpt lat="42.38829357680337" lon="14.206820852695927"><ele>209.0</ele><time>2026-03-30T09:27:22.941Z</time></trkpt><trkpt lat="42.38822892319949" lon="14.206805525941386"><ele>209.0</ele><time>2026-03-30T09:27:23.941Z</time></trkpt><trkpt lat="42.38810270175667" lon="14.206791781049702"><ele>209.0</ele><time>2026-03-30T09:27:25.941Z</time></trkpt><trkpt lat="42.38804170255802" lon="14.206769886659005"><ele>209.0</ele><time>2026-03-30T09:27:26.941Z</time></trkpt><trkpt lat="42.38796424135525" lon="14.206738397750154"><ele>209.0</ele><time>2026-03-30T09:27:27.941Z</time></trkpt><trkpt lat="42.38785677316837" lon="14.206649045239647"><ele>207.75</ele><time>2026-03-30T09:27:29.941Z</time></trkpt><trkpt lat="42.38779318412664" lon="14.206588232894706"><ele>206.5</ele><time>2026-03-30T09:27:31.941Z</time></trkpt><trkpt lat="42.38765257668617" lon="14.206442403617789"><ele>205.25</ele><time>2026-03-30T09:27:56.941Z</time></trkpt><trkpt lat="42.38757287212104" lon="14.206350169013765"><ele>204.0</ele><time>2026-03-30T09:27:57.941Z</time></trkpt><trkpt lat="42.387498991212915" lon="14.206274915889134"><ele>204.0</ele><time>2026-03-30T09:27:58.941Z</time></trkpt><trkpt lat="42.387499174075934" lon="14.206159887716792"><ele>204.0</ele><time>2026-03-30T09:28:00.941Z</time></trkpt><trkpt lat="42.38752931044885" lon="14.206082178928282"><ele>204.0</ele><time>2026-03-30T09:28:01.941Z</time></trkpt><trkpt lat="42.38756799191202" lon="14.205989596148644"><ele>204.0</ele><time>2026-03-30T09:28:02.941Z</time></trkpt><trkpt lat="42.3875890793412" lon="14.205904829764517"><ele>204.0</ele><time>2026-03-30T09:28:03.941Z</time></trkpt><trkpt lat="42.387643080109214" lon="14.20581926501569"><ele>204.0</ele><time>2026-03-30T09:28:05.941Z</time></trkpt><trkpt lat="42.387703137864406" lon="14.205720476685881"><ele>202.33333333333334</ele><time>2026-03-30T09:28:07.941Z</time></trkpt><trkpt lat="42.38776387040485" lon="14.205562508752"><ele>200.66666666666669</ele><time>2026-03-30T09:28:09.941Z</time></trkpt><trkpt lat="42.38777588357844" lon="14.205475196247134"><ele>199.0</ele><time>2026-03-30T09:28:11.941Z</time></trkpt><trkpt lat="42.38772294091607" lon="14.205393217588972"><ele>197.33333333333334</ele><time>2026-03-30T09:28:14.941Z</time></trkpt><trkpt lat="42.38766006045696" lon="14.205324408699859"><ele>195.66666666666669</ele><time>2026-03-30T09:28:15.941Z</time></trkpt><trkpt lat="42.387590807121974" lon="14.205269653819242"><ele>194.0</ele><time>2026-03-30T09:28:16.941Z</time></trkpt><trkpt lat="42.38751288178426" lon="14.205177726934526"><ele>194.0</ele><time>2026-03-30T09:28:17.941Z</time></trkpt><trkpt lat="42.387465212239306" lon="14.205077187348978"><ele>194.0</ele><time>2026-03-30T09:28:18.941Z</time></trkpt><trkpt lat="42.38742997214761" lon="14.204965316536656"><ele>194.0</ele><time>2026-03-30T09:28:19.941Z</time></trkpt><trkpt lat="42.38736887186732" lon="14.204856672578261"><ele>194.0</ele><time>2026-03-30T09:28:20.941Z</time></trkpt><trkpt lat="42.38727912841332" lon="14.204754685754432"><ele>194.0</ele><time>2026-03-30T09:28:21.941Z</time></trkpt><trkpt lat="42.387172560476834" lon="14.204637699380012"><ele>196.0</ele><time>2026-03-30T09:28:22.941Z</time></trkpt><trkpt lat="42.38707688836876" lon="14.20448926264641"><ele>198.0</ele><time>2026-03-30T09:28:23.941Z</time></trkpt><trkpt lat="42.3869869053132" lon="14.204367302020414"><ele>200.0</ele><time>2026-03-30T09:28:24.941Z</time></trkpt><trkpt lat="42.38690250926832" lon="14.204271075050647"><ele>202.0</ele><time>2026-03-30T09:28:25.941Z</time></trkpt><trkpt lat="42.386837352078814" lon="14.20415592299367"><ele>202.0</ele><time>2026-03-30T09:28:26.941Z</time></trkpt><trkpt lat="42.386784046499216" lon="14.20401803451495"><ele>202.0</ele><time>2026-03-30T09:28:27.941Z</time></trkpt><trkpt lat="42.38671796571708" lon="14.203862442096314"><ele>202.0</ele><time>2026-03-30T09:28:28.941Z</time></trkpt><trkpt lat="42.386658772041734" lon="14.203700760911987"><ele>202.0</ele><time>2026-03-30T09:28:29.941Z</time></trkpt><trkpt lat="42.38657172792787" lon="14.203560449479468"><ele>202.0</ele><time>2026-03-30T09:28:30.941Z</time></trkpt><trkpt lat="42.386478456022026" lon="14.203451742912263"><ele>202.0</ele><time>2026-03-30T09:28:31.941Z</time></trkpt><trkpt lat="42.38641770705841" lon="14.20334014646695"><ele>202.0</ele><time>2026-03-30T09:28:32.941Z</time></trkpt><trkpt lat="42.386358207687486" lon="14.203243822432263"><ele>202.0</ele><time>2026-03-30T09:28:33.941Z</time></trkpt><trkpt lat="42.38631645733946" lon="14.2031254261774"><ele>202.0</ele><time>2026-03-30T09:28:34.942Z</time></trkpt><trkpt lat="42.38627731971752" lon="14.202982315079923"><ele>203.33333333333331</ele><time>2026-03-30T09:28:35.942Z</time></trkpt><trkpt lat="42.38622494124127" lon="14.202834789331792"><ele>204.66666666666666</ele><time>2026-03-30T09:28:36.942Z</time></trkpt><trkpt lat="42.386175400022374" lon="14.202741672201249"><ele>206.0</ele><time>2026-03-30T09:28:37.942Z</time></trkpt><trkpt lat="42.386144329564715" lon="14.202650831615971"><ele>207.33333333333331</ele><time>2026-03-30T09:28:40.938Z</time></trkpt><trkpt lat="42.38616857123275" lon="14.202736227440198"><ele>208.66666666666666</ele><time>2026-03-30T09:28:50.938Z</time></trkpt><trkpt lat="42.38621995036404" lon="14.202817233944144"><ele>210.0</ele><time>2026-03-30T09:28:51.938Z</time></trkpt><trkpt lat="42.386316508915584" lon="14.202749317563518"><ele>210.2</ele><time>2026-03-30T09:28:57.938Z</time></trkpt><trkpt lat="42.38636587994841" lon="14.202658230486348"><ele>210.4</ele><time>2026-03-30T09:28:58.938Z</time></trkpt><trkpt lat="42.38640286726226" lon="14.202545143102736"><ele>210.60000000000002</ele><time>2026-03-30T09:28:59.938Z</time></trkpt><trkpt lat="42.3864358193684" lon="14.202412959966614"><ele>210.8</ele><time>2026-03-30T09:29:00.938Z</time></trkpt><trkpt lat="42.386453793426654" lon="14.202254765389236"><ele>211.0</ele><time>2026-03-30T09:29:01.938Z</time></trkpt><trkpt lat="42.386458168313816" lon="14.202070772487522"><ele>211.4</ele><time>2026-03-30T09:29:02.938Z</time></trkpt><trkpt lat="42.38646174961883" lon="14.20189348638316"><ele>211.8</ele><time>2026-03-30T09:29:03.938Z</time></trkpt><trkpt lat="42.3864736580472" lon="14.201751374815647"><ele>212.20000000000002</ele><time>2026-03-30T09:29:04.938Z</time></trkpt><trkpt lat="42.38648283121793" lon="14.20163120347264"><ele>212.60000000000002</ele><time>2026-03-30T09:29:05.938Z</time></trkpt><trkpt lat="42.386477954492705" lon="14.201535710569802"><ele>213.0</ele><time>2026-03-30T09:29:06.938Z</time></trkpt><trkpt lat="42.386449991456345" lon="14.201425422268667"><ele>213.0</ele><time>2026-03-30T09:29:10.938Z</time></trkpt><trkpt lat="42.386414366614105" lon="14.20132136414287"><ele>213.0</ele><time>2026-03-30T09:29:12.938Z</time></trkpt><trkpt lat="42.38645504326459" lon="14.201242034225013"><ele>213.0</ele><time>2026-03-30T09:29:14.938Z</time></trkpt><trkpt lat="42.386569719008506" lon="14.2011513707675"><ele>213.0</ele><time>2026-03-30T09:29:16.938Z</time></trkpt><trkpt lat="42.386620325151306" lon="14.201081278151491"><ele>213.0</ele><time>2026-03-30T09:29:17.938Z</time></trkpt><trkpt lat="42.38667909257773" lon="14.20101554564548"><ele>213.0</ele><time>2026-03-30T09:29:18.938Z</time></trkpt><trkpt lat="42.38673756627299" lon="14.20094509248351"><ele>212.99999999999997</ele><time>2026-03-30T09:29:19.938Z</time></trkpt><trkpt lat="42.38680193480817" lon="14.200886214233854"><ele>213.0</ele><time>2026-03-30T09:29:20.938Z</time></trkpt><trkpt lat="42.38686647962401" lon="14.200831671921526"><ele>213.0</ele><time>2026-03-30T09:29:21.938Z</time></trkpt><trkpt lat="42.38692045602158" lon="14.200782988359471"><ele>213.0</ele><time>2026-03-30T09:29:22.938Z</time></trkpt><trkpt lat="42.38697754623677" lon="14.200722611215745"><ele>213.0</ele><time>2026-03-30T09:29:23.938Z</time></trkpt><trkpt lat="42.3870347313134" lon="14.200666453308958"><ele>212.99999999999997</ele><time>2026-03-30T09:29:24.938Z</time></trkpt><trkpt lat="42.38710216381934" lon="14.200648509829023"><ele>213.0</ele><time>2026-03-30T09:29:25.938Z</time></trkpt><trkpt lat="42.387169352888144" lon="14.200654536634893"><ele>212.0</ele><time>2026-03-30T09:29:26.938Z</time></trkpt><trkpt lat="42.387235008093626" lon="14.200670524354422"><ele>211.0</ele><time>2026-03-30T09:29:27.938Z</time></trkpt><trkpt lat="42.38731557503818" lon="14.200668180564197"><ele>210.0</ele><time>2026-03-30T09:29:28.938Z</time></trkpt><trkpt lat="42.387430981443096" lon="14.200620005113496"><ele>209.0</ele><time>2026-03-30T09:29:29.938Z</time></trkpt><trkpt lat="42.38751223911119" lon="14.200578580126926"><ele>208.0</ele><time>2026-03-30T09:29:30.938Z</time></trkpt><trkpt lat="42.387612525739016" lon="14.200541342417651"><ele>208.0</ele><time>2026-03-30T09:29:32.938Z</time></trkpt><trkpt lat="42.38764206249604" lon="14.200435627236276"><ele>208.0</ele><time>2026-03-30T09:29:35.938Z</time></trkpt><trkpt lat="42.387638352381444" lon="14.200346178525761"><ele>208.0</ele><time>2026-03-30T09:29:36.938Z</time></trkpt><trkpt lat="42.38762448588701" lon="14.200232826695183"><ele>208.0</ele><time>2026-03-30T09:29:37.938Z</time></trkpt><trkpt lat="42.38759741780581" lon="14.200094348078752"><ele>208.0</ele><time>2026-03-30T09:29:38.938Z</time></trkpt><trkpt lat="42.387575014121936" lon="14.199923855246352"><ele>210.75</ele><time>2026-03-30T09:29:39.938Z</time></trkpt><trkpt lat="42.38755983287091" lon="14.199744902747288"><ele>213.5</ele><time>2026-03-30T09:29:40.938Z</time></trkpt><trkpt lat="42.38751930898317" lon="14.199601756925219"><ele>216.25</ele><time>2026-03-30T09:29:41.938Z</time></trkpt><trkpt lat="42.3874574980624" lon="14.199469921100102"><ele>219.0</ele><time>2026-03-30T09:29:42.938Z</time></trkpt><trkpt lat="42.387391650286396" lon="14.199318013023834"><ele>219.0</ele><time>2026-03-30T09:29:43.938Z</time></trkpt><trkpt lat="42.38733753493817" lon="14.199182620934854"><ele>218.99999999999997</ele><time>2026-03-30T09:29:44.938Z</time></trkpt><trkpt lat="42.38731042836062" lon="14.199084429084207"><ele>218.99999999999997</ele><time>2026-03-30T09:29:45.938Z</time></trkpt><trkpt lat="42.387340970882185" lon="14.198999209861393"><ele>219.0</ele><time>2026-03-30T09:29:48.938Z</time></trkpt><trkpt lat="42.38745117331638" lon="14.199035083708408"><ele>219.0</ele><time>2026-03-30T09:29:50.938Z</time></trkpt><trkpt lat="42.38753355880244" lon="14.199068228935552"><ele>219.0</ele><time>2026-03-30T09:29:51.938Z</time></trkpt><trkpt lat="42.387630616941706" lon="14.199087591830201"><ele>219.0</ele><time>2026-03-30T09:29:52.938Z</time></trkpt><trkpt lat="42.387726464450196" lon="14.199014901110795"><ele>219.0</ele><time>2026-03-30T09:29:54.938Z</time></trkpt><trkpt lat="42.38779959390354" lon="14.198905519043716"><ele>219.0</ele><time>2026-03-30T09:29:56.938Z</time></trkpt><trkpt lat="42.38790580788053" lon="14.19877364683153"><ele>220.5</ele><time>2026-03-30T09:29:58.938Z</time></trkpt><trkpt lat="42.38798347573682" lon="14.198664019566179"><ele>222.0</ele><time>2026-03-30T09:29:59.938Z</time></trkpt><trkpt lat="42.388072689547116" lon="14.198520366346704"><ele>223.5</ele><time>2026-03-30T09:30:00.938Z</time></trkpt><trkpt lat="42.38816262444248" lon="14.198368452554062"><ele>225.0</ele><time>2026-03-30T09:30:01.938Z</time></trkpt><trkpt lat="42.38823825407728" lon="14.198243571764701"><ele>226.8</ele><time>2026-03-30T09:30:02.938Z</time></trkpt><trkpt lat="42.388312057699466" lon="14.198130211587356"><ele>228.6</ele><time>2026-03-30T09:30:03.938Z</time></trkpt><trkpt lat="42.388382958681376" lon="14.198027865948374"><ele>230.39999999999998</ele><time>2026-03-30T09:30:04.938Z</time></trkpt><trkpt lat="42.38844033633783" lon="14.197911356285656"><ele>232.2</ele><time>2026-03-30T09:30:05.938Z</time></trkpt><trkpt lat="42.38849185974508" lon="14.19781100068345"><ele>234.0</ele><time>2026-03-30T09:30:06.938Z</time></trkpt><trkpt lat="42.388537546197654" lon="14.197715019058883"><ele>234.0</ele><time>2026-03-30T09:30:07.938Z</time></trkpt><trkpt lat="42.388589995297565" lon="14.197615609351086"><ele>234.0</ele><time>2026-03-30T09:30:08.938Z</time></trkpt><trkpt lat="42.388641122015784" lon="14.197514592971892"><ele>234.0</ele><time>2026-03-30T09:30:09.938Z</time></trkpt><trkpt lat="42.38869688844352" lon="14.197410292038759"><ele>234.0</ele><time>2026-03-30T09:30:10.938Z</time></trkpt><trkpt lat="42.388733920742006" lon="14.197319031448506"><ele>234.0</ele><time>2026-03-30T09:30:11.938Z</time></trkpt><trkpt lat="42.38877361797174" lon="14.197239129585554"><ele>234.0</ele><time>2026-03-30T09:30:12.938Z</time></trkpt><trkpt lat="42.38881782018304" lon="14.197151652952577"><ele>234.16666666666666</ele><time>2026-03-30T09:30:13.938Z</time></trkpt><trkpt lat="42.38887545306222" lon="14.197072313111713"><ele>234.33333333333331</ele><time>2026-03-30T09:30:14.938Z</time></trkpt><trkpt lat="42.3889173710831" lon="14.196996944737148"><ele>234.5</ele><time>2026-03-30T09:30:15.938Z</time></trkpt><trkpt lat="42.388957651882414" lon="14.196925252494088"><ele>234.66666666666666</ele><time>2026-03-30T09:30:17.938Z</time></trkpt><trkpt lat="42.389002217055854" lon="14.196826798488727"><ele>234.83333333333331</ele><time>2026-03-30T09:30:20.938Z</time></trkpt><trkpt lat="42.3890517431968" lon="14.19675778359136"><ele>235.0</ele><time>2026-03-30T09:30:26.938Z</time></trkpt><trkpt lat="42.38914051375714" lon="14.196830094165172"><ele>235.0</ele><time>2026-03-30T09:30:27.938Z</time></trkpt><trkpt lat="42.38921857441698" lon="14.196905272358684"><ele>235.0</ele><time>2026-03-30T09:30:28.938Z</time></trkpt><trkpt lat="42.389311261607446" lon="14.196956109982947"><ele>235.0</ele><time>2026-03-30T09:30:29.938Z</time></trkpt><trkpt lat="42.3894100544599" lon="14.196997259975793"><ele>235.0</ele><time>2026-03-30T09:30:30.938Z</time></trkpt><trkpt lat="42.3895184563808" lon="14.197053797851206"><ele>235.0</ele><time>2026-03-30T09:30:31.938Z</time></trkpt><trkpt lat="42.389626152860934" lon="14.19711273527563"><ele>235.6</ele><time>2026-03-30T09:30:32.938Z</time></trkpt><trkpt lat="42.38973346319815" lon="14.197173981825584"><ele>236.2</ele><time>2026-03-30T09:30:33.938Z</time></trkpt><trkpt lat="42.38983773531449" lon="14.197227253624895"><ele>236.8</ele><time>2026-03-30T09:30:34.938Z</time></trkpt><trkpt lat="42.38994169667022" lon="14.197281131025717"><ele>237.4</ele><time>2026-03-30T09:30:35.938Z</time></trkpt><trkpt lat="42.390042339870064" lon="14.197331886224147"><ele>238.0</ele><time>2026-03-30T09:30:36.938Z</time></trkpt><trkpt lat="42.39013750677588" lon="14.197383569827357"><ele>237.0</ele><time>2026-03-30T09:30:37.938Z</time></trkpt><trkpt lat="42.390227462862725" lon="14.197436745298019"><ele>236.0</ele><time>2026-03-30T09:30:38.939Z</time></trkpt><trkpt lat="42.390315768921305" lon="14.197489640153377"><ele>235.0</ele><time>2026-03-30T09:30:39.939Z</time></trkpt><trkpt lat="42.390410975084244" lon="14.197542209428375"><ele>234.0</ele><time>2026-03-30T09:30:40.939Z</time></trkpt><trkpt lat="42.39049735000258" lon="14.197583081059724"><ele>233.0</ele><time>2026-03-30T09:30:41.939Z</time></trkpt><trkpt lat="42.39056810891436" lon="14.197612764949763"><ele>233.0</ele><time>2026-03-30T09:30:42.939Z</time></trkpt><trkpt lat="42.39066755164081" lon="14.197662250836808"><ele>233.0</ele><time>2026-03-30T09:30:44.939Z</time></trkpt><trkpt lat="42.390759267843734" lon="14.197539068421316"><ele>233.0</ele><time>2026-03-30T09:30:47.936Z</time></trkpt><trkpt lat="42.39079095147011" lon="14.197445923136884"><ele>233.0</ele><time>2026-03-30T09:30:48.936Z</time></trkpt><trkpt lat="42.39080999491588" lon="14.197328938659634"><ele>233.0</ele><time>2026-03-30T09:30:49.935Z</time></trkpt><trkpt lat="42.39083258416625" lon="14.197190171883992"><ele>233.8</ele><time>2026-03-30T09:30:50.935Z</time></trkpt><trkpt lat="42.39084041681494" lon="14.197051128390626"><ele>234.60000000000002</ele><time>2026-03-30T09:30:51.935Z</time></trkpt><trkpt lat="42.390879247133654" lon="14.196912438346237"><ele>235.39999999999998</ele><time>2026-03-30T09:30:52.936Z</time></trkpt><trkpt lat="42.390906442046294" lon="14.196758777751436"><ele>236.2</ele><time>2026-03-30T09:30:53.935Z</time></trkpt><trkpt lat="42.39092815342456" lon="14.196616278314492"><ele>237.0</ele><time>2026-03-30T09:30:54.935Z</time></trkpt><trkpt lat="42.39095062708617" lon="14.19647003671286"><ele>238.6</ele><time>2026-03-30T09:30:55.935Z</time></trkpt><trkpt lat="42.3909762585489" lon="14.196344270825419"><ele>240.2</ele><time>2026-03-30T09:30:56.935Z</time></trkpt><trkpt lat="42.39100119377887" lon="14.196244669617641"><ele>241.8</ele><time>2026-03-30T09:30:57.935Z</time></trkpt><trkpt lat="42.39101450354103" lon="14.196151593092532"><ele>243.4</ele><time>2026-03-30T09:30:58.935Z</time></trkpt><trkpt lat="42.39104567274094" lon="14.196019834231327"><ele>245.0</ele><time>2026-03-30T09:31:00.935Z</time></trkpt><trkpt lat="42.39107603114812" lon="14.19583797707887"><ele>245.00000000000003</ele><time>2026-03-30T09:31:02.935Z</time></trkpt><trkpt lat="42.3911091501628" lon="14.195721991124369"><ele>245.0</ele><time>2026-03-30T09:31:03.935Z</time></trkpt><trkpt lat="42.39113663083302" lon="14.195616310508461"><ele>245.0</ele><time>2026-03-30T09:31:04.935Z</time></trkpt><trkpt lat="42.39117042623194" lon="14.19550459479564"><ele>245.0</ele><time>2026-03-30T09:31:05.935Z</time></trkpt><trkpt lat="42.391209972409904" lon="14.195399205111785"><ele>245.00000000000003</ele><time>2026-03-30T09:31:06.935Z</time></trkpt><trkpt lat="42.39125313436535" lon="14.195281234216027"><ele>245.0</ele><time>2026-03-30T09:31:07.935Z</time></trkpt><trkpt lat="42.39128821676976" lon="14.19517070751226"><ele>245.16666666666669</ele><time>2026-03-30T09:31:08.935Z</time></trkpt><trkpt lat="42.391324200033274" lon="14.195074937459642"><ele>245.33333333333334</ele><time>2026-03-30T09:31:09.935Z</time></trkpt><trkpt lat="42.39136302200969" lon="14.194976819663411"><ele>245.5</ele><time>2026-03-30T09:31:10.935Z</time></trkpt><trkpt lat="42.391382105059584" lon="14.194895284825689"><ele>245.66666666666669</ele><time>2026-03-30T09:31:11.935Z</time></trkpt><trkpt lat="42.39142414308743" lon="14.194821815401943"><ele>245.83333333333334</ele><time>2026-03-30T09:31:12.935Z</time></trkpt><trkpt lat="42.39144670701988" lon="14.194670410560166"><ele>246.0</ele><time>2026-03-30T09:31:14.935Z</time></trkpt><trkpt lat="42.391490055481974" lon="14.194518656547304"><ele>246.20000000000002</ele><time>2026-03-30T09:31:16.935Z</time></trkpt><trkpt lat="42.3915475732631" lon="14.194393512757511"><ele>246.40000000000003</ele><time>2026-03-30T09:31:18.935Z</time></trkpt><trkpt lat="42.39155844220348" lon="14.194212779855695"><ele>246.6</ele><time>2026-03-30T09:31:20.935Z</time></trkpt><trkpt lat="42.39153202332431" lon="14.194098812191951"><ele>246.8</ele><time>2026-03-30T09:31:21.935Z</time></trkpt><trkpt lat="42.39149145246534" lon="14.193987893128543"><ele>247.0</ele><time>2026-03-30T09:31:22.935Z</time></trkpt><trkpt lat="42.391460532285684" lon="14.193884342874428"><ele>246.49999999999997</ele><time>2026-03-30T09:31:23.935Z</time></trkpt><trkpt lat="42.39142549595939" lon="14.193798794889677"><ele>246.0</ele><time>2026-03-30T09:31:24.935Z</time></trkpt><trkpt lat="42.39141122397922" lon="14.193699236285521"><ele>245.5</ele><time>2026-03-30T09:31:25.935Z</time></trkpt><trkpt lat="42.39138346096954" lon="14.193607453931216"><ele>245.0</ele><time>2026-03-30T09:31:26.935Z</time></trkpt><trkpt lat="42.391353984779464" lon="14.193519053811267"><ele>244.49999999999997</ele><time>2026-03-30T09:31:27.935Z</time></trkpt><trkpt lat="42.39131108149995" lon="14.193373072218781"><ele>244.0</ele><time>2026-03-30T09:31:29.935Z</time></trkpt><trkpt lat="42.39124444803717" lon="14.19324354958409"><ele>243.85714285714283</ele><time>2026-03-30T09:31:31.935Z</time></trkpt><trkpt lat="42.391200117651586" lon="14.193178506631229"><ele>243.71428571428572</ele><time>2026-03-30T09:31:32.935Z</time></trkpt><trkpt lat="42.39115231744295" lon="14.19311635879928"><ele>243.57142857142856</ele><time>2026-03-30T09:31:33.935Z</time></trkpt><trkpt lat="42.39110663225262" lon="14.193055580712668"><ele>243.42857142857142</ele><time>2026-03-30T09:31:34.936Z</time></trkpt><trkpt lat="42.39105454801085" lon="14.192991147139917"><ele>243.28571428571428</ele><time>2026-03-30T09:31:35.936Z</time></trkpt><trkpt lat="42.390999639268415" lon="14.19292323210439"><ele>243.14285714285714</ele><time>2026-03-30T09:31:36.936Z</time></trkpt><trkpt lat="42.39095313080365" lon="14.192865641967098"><ele>243.0</ele><time>2026-03-30T09:31:37.937Z</time></trkpt><trkpt lat="42.39087836585154" lon="14.192760089757947"><ele>241.5</ele><time>2026-03-30T09:31:39.938Z</time></trkpt><trkpt lat="42.39078849118497" lon="14.19268459113481"><ele>240.0</ele><time>2026-03-30T09:31:41.938Z</time></trkpt><trkpt lat="42.39073190859016" lon="14.192641257045143"><ele>238.5</ele><time>2026-03-30T09:31:42.939Z</time></trkpt><trkpt lat="42.390687140386525" lon="14.192497110275553"><ele>237.0</ele><time>2026-03-30T09:31:44.939Z</time></trkpt><trkpt lat="42.39076038409426" lon="14.192459595212881"><ele>235.5</ele><time>2026-03-30T09:31:51.941Z</time></trkpt><trkpt lat="42.390820927069946" lon="14.19250081288305"><ele>234.0</ele><time>2026-03-30T09:31:52.941Z</time></trkpt><trkpt lat="42.3909175408774" lon="14.192493097590324"><ele>234.0</ele><time>2026-03-30T09:31:54.941Z</time></trkpt><trkpt lat="42.39098862733991" lon="14.192454145917445"><ele>233.99999999999997</ele><time>2026-03-30T09:31:55.941Z</time></trkpt><trkpt lat="42.39108174276704" lon="14.19237431339742"><ele>233.99999999999997</ele><time>2026-03-30T09:31:57.941Z</time></trkpt><trkpt lat="42.39114853304732" lon="14.192227582580971"><ele>234.0</ele><time>2026-03-30T09:31:59.942Z</time></trkpt><trkpt lat="42.39120693401831" lon="14.192150960373242"><ele>234.0</ele><time>2026-03-30T09:32:00.942Z</time></trkpt><trkpt lat="42.391267017141836" lon="14.192059271771958"><ele>230.2</ele><time>2026-03-30T09:32:01.942Z</time></trkpt><trkpt lat="42.3913089025032" lon="14.191955137760067"><ele>226.39999999999998</ele><time>2026-03-30T09:32:02.942Z</time></trkpt><trkpt lat="42.39133945967666" lon="14.19187171635751"><ele>222.6</ele><time>2026-03-30T09:32:03.942Z</time></trkpt><trkpt lat="42.391386359087605" lon="14.191733084841955"><ele>218.8</ele><time>2026-03-30T09:32:05.942Z</time></trkpt><trkpt lat="42.39144031446133" lon="14.19159942694368"><ele>215.0</ele><time>2026-03-30T09:32:07.942Z</time></trkpt><trkpt lat="42.39147523165584" lon="14.191466215177762"><ele>209.75</ele><time>2026-03-30T09:32:09.942Z</time></trkpt><trkpt lat="42.39153691659334" lon="14.19134925035524"><ele>204.5</ele><time>2026-03-30T09:32:11.942Z</time></trkpt><trkpt lat="42.391644211928" lon="14.191279175834152"><ele>199.25</ele><time>2026-03-30T09:32:13.943Z</time></trkpt><trkpt lat="42.39176395505913" lon="14.191291065434443"><ele>194.0</ele><time>2026-03-30T09:32:15.943Z</time></trkpt><trkpt lat="42.39185354717624" lon="14.191399372885206"><ele>194.00000000000003</ele><time>2026-03-30T09:32:17.943Z</time></trkpt><trkpt lat="42.391900034219304" lon="14.191462637263484"><ele>194.0</ele><time>2026-03-30T09:32:18.943Z</time></trkpt><trkpt lat="42.3919604943796" lon="14.191572744523627"><ele>194.0</ele><time>2026-03-30T09:32:20.943Z</time></trkpt><trkpt lat="42.39204044995345" lon="14.191567404542308"><ele>194.0</ele><time>2026-03-30T09:32:23.943Z</time></trkpt><trkpt lat="42.39205380215365" lon="14.191473185997475"><ele>194.00000000000003</ele><time>2026-03-30T09:32:25.943Z</time></trkpt><trkpt lat="42.39205755207229" lon="14.191377945082808"><ele>194.0</ele><time>2026-03-30T09:32:26.943Z</time></trkpt><trkpt lat="42.39206425693854" lon="14.191257267130313"><ele>194.00000000000003</ele><time>2026-03-30T09:32:27.943Z</time></trkpt><trkpt lat="42.39206519127853" lon="14.191138043742075"><ele>194.0</ele><time>2026-03-30T09:32:28.943Z</time></trkpt><trkpt lat="42.39205264417091" lon="14.191034397128549"><ele>194.0</ele><time>2026-03-30T09:32:29.943Z</time></trkpt><trkpt lat="42.39203285421885" lon="14.19095112627911"><ele>194.0</ele><time>2026-03-30T09:32:30.943Z</time></trkpt><trkpt lat="42.391999068122026" lon="14.190793750293851"><ele>194.00000000000003</ele><time>2026-03-30T09:32:32.943Z</time></trkpt><trkpt lat="42.391994723629324" lon="14.190699752100414"><ele>194.0</ele><time>2026-03-30T09:32:33.943Z</time></trkpt><trkpt lat="42.39199572262978" lon="14.190576683442426"><ele>190.66666666666669</ele><time>2026-03-30T09:32:34.943Z</time></trkpt><trkpt lat="42.392004214090335" lon="14.19045846865545"><ele>187.33333333333334</ele><time>2026-03-30T09:32:35.943Z</time></trkpt><trkpt lat="42.39200815698625" lon="14.190344296407417"><ele>184.0</ele><time>2026-03-30T09:32:36.943Z</time></trkpt><trkpt lat="42.392007293850305" lon="14.190211304210282"><ele>180.66666666666669</ele><time>2026-03-30T09:32:37.943Z</time></trkpt><trkpt lat="42.39201757153599" lon="14.190080698071224"><ele>177.33333333333334</ele><time>2026-03-30T09:32:38.943Z</time></trkpt><trkpt lat="42.39202853768171" lon="14.189984452518903"><ele>174.0</ele><time>2026-03-30T09:32:39.943Z</time></trkpt><trkpt lat="42.39199192276118" lon="14.18986434457076"><ele>171.0</ele><time>2026-03-30T09:32:41.943Z</time></trkpt><trkpt lat="42.39195624640893" lon="14.189790651210444"><ele>168.0</ele><time>2026-03-30T09:32:42.943Z</time></trkpt><trkpt lat="42.391956026124355" lon="14.189651091759075"><ele>165.0</ele><time>2026-03-30T09:32:44.943Z</time></trkpt><trkpt lat="42.39191525956699" lon="14.18948338044595"><ele>162.0</ele><time>2026-03-30T09:32:46.943Z</time></trkpt><trkpt lat="42.391889971624934" lon="14.189385942427375"><ele>159.0</ele><time>2026-03-30T09:32:47.943Z</time></trkpt><trkpt lat="42.39184375502154" lon="14.189288251094172"><ele>159.0</ele><time>2026-03-30T09:32:48.943Z</time></trkpt><trkpt lat="42.391816376019136" lon="14.189188310621685"><ele>159.0</ele><time>2026-03-30T09:32:49.943Z</time></trkpt><trkpt lat="42.391785308927936" lon="14.189112606255545"><ele>159.0</ele><time>2026-03-30T09:32:50.944Z</time></trkpt><trkpt lat="42.39175789949365" lon="14.18903504574581"><ele>159.0</ele><time>2026-03-30T09:32:51.944Z</time></trkpt><trkpt lat="42.39172918247905" lon="14.188946309240198"><ele>159.0</ele><time>2026-03-30T09:32:52.94Z</time></trkpt><trkpt lat="42.391722937993514" lon="14.188860467554022"><ele>159.0</ele><time>2026-03-30T09:32:53.94Z</time></trkpt><trkpt lat="42.391713518306595" lon="14.188745850543997"><ele>159.0</ele><time>2026-03-30T09:32:55.94Z</time></trkpt><trkpt lat="42.391728512816286" lon="14.188660430099262"><ele>157.2</ele><time>2026-03-30T09:32:59.939Z</time></trkpt><trkpt lat="42.391903085629636" lon="14.188683128709123"><ele>155.4</ele><time>2026-03-30T09:33:01.94Z</time></trkpt><trkpt lat="42.391986617013615" lon="14.188715108701581"><ele>153.6</ele><time>2026-03-30T09:33:02.94Z</time></trkpt><trkpt lat="42.39206292980968" lon="14.188733159565594"><ele>151.8</ele><time>2026-03-30T09:33:03.94Z</time></trkpt><trkpt lat="42.39215012209141" lon="14.188723712430775"><ele>150.0</ele><time>2026-03-30T09:33:04.94Z</time></trkpt><trkpt lat="42.392229057612965" lon="14.188696428848338"><ele>148.33333333333334</ele><time>2026-03-30T09:33:05.94Z</time></trkpt><trkpt lat="42.39231556482082" lon="14.188655252638302"><ele>146.66666666666666</ele><time>2026-03-30T09:33:06.94Z</time></trkpt><trkpt lat="42.392404031984476" lon="14.188624346101113"><ele>145.0</ele><time>2026-03-30T09:33:07.94Z</time></trkpt><trkpt lat="42.392473300351945" lon="14.188588368479703"><ele>143.33333333333331</ele><time>2026-03-30T09:33:08.94Z</time></trkpt><trkpt lat="42.39254538255506" lon="14.18855681618377"><ele>141.66666666666666</ele><time>2026-03-30T09:33:09.94Z</time></trkpt><trkpt lat="42.39261809302796" lon="14.188549243786357"><ele>140.0</ele><time>2026-03-30T09:33:10.94Z</time></trkpt><trkpt lat="42.392688089509264" lon="14.188571325708704"><ele>140.0</ele><time>2026-03-30T09:33:11.94Z</time></trkpt><trkpt lat="42.392751952281465" lon="14.188613349612346"><ele>140.0</ele><time>2026-03-30T09:33:12.94Z</time></trkpt><trkpt lat="42.392823702693605" lon="14.188669423073495"><ele>140.0</ele><time>2026-03-30T09:33:13.94Z</time></trkpt><trkpt lat="42.3929045902605" lon="14.188730592621114"><ele>140.0</ele><time>2026-03-30T09:33:14.94Z</time></trkpt><trkpt lat="42.39299014470817" lon="14.188786952596018"><ele>140.0</ele><time>2026-03-30T09:33:15.94Z</time></trkpt><trkpt lat="42.39307738581987" lon="14.188851627596659"><ele>140.0</ele><time>2026-03-30T09:33:16.94Z</time></trkpt><trkpt lat="42.393169962279885" lon="14.188907159900173"><ele>139.4</ele><time>2026-03-30T09:33:17.94Z</time></trkpt><trkpt lat="42.3932608815522" lon="14.188978939010711"><ele>138.8</ele><time>2026-03-30T09:33:18.94Z</time></trkpt><trkpt lat="42.39334708335117" lon="14.189052686139387"><ele>138.2</ele><time>2026-03-30T09:33:19.94Z</time></trkpt><trkpt lat="42.39342709475096" lon="14.18912024463867"><ele>137.6</ele><time>2026-03-30T09:33:20.94Z</time></trkpt><trkpt lat="42.3935050701844" lon="14.189184195765353"><ele>137.0</ele><time>2026-03-30T09:33:21.94Z</time></trkpt><trkpt lat="42.39356950131929" lon="14.189243090186524"><ele>137.0</ele><time>2026-03-30T09:33:22.94Z</time></trkpt><trkpt lat="42.39362025304128" lon="14.189308460490409"><ele>137.0</ele><time>2026-03-30T09:33:23.94Z</time></trkpt><trkpt lat="42.39366919320194" lon="14.189372668193442"><ele>137.0</ele><time>2026-03-30T09:33:24.94Z</time></trkpt><trkpt lat="42.39372003818051" lon="14.189456221510694"><ele>137.0</ele><time>2026-03-30T09:33:25.94Z</time></trkpt><trkpt lat="42.39375041578836" lon="14.18957582763148"><ele>137.0</ele><time>2026-03-30T09:33:26.94Z</time></trkpt><trkpt lat="42.39376468823852" lon="14.189685922959324"><ele>137.0</ele><time>2026-03-30T09:33:27.94Z</time></trkpt><trkpt lat="42.39379162683664" lon="14.189813242668773"><ele>136.75</ele><time>2026-03-30T09:33:28.94Z</time></trkpt><trkpt lat="42.39382788748864" lon="14.189947964274593"><ele>136.5</ele><time>2026-03-30T09:33:29.94Z</time></trkpt><trkpt lat="42.393872653536654" lon="14.190106647614687"><ele>136.25</ele><time>2026-03-30T09:33:30.94Z</time></trkpt><trkpt lat="42.3939193412128" lon="14.190245428855292"><ele>136.0</ele><time>2026-03-30T09:33:31.94Z</time></trkpt><trkpt lat="42.39397109390545" lon="14.190385007611084"><ele>136.0</ele><time>2026-03-30T09:33:32.94Z</time></trkpt><trkpt lat="42.394018268495856" lon="14.19052122339153"><ele>136.0</ele><time>2026-03-30T09:33:33.94Z</time></trkpt><trkpt lat="42.39406151690247" lon="14.1906550905262"><ele>136.0</ele><time>2026-03-30T09:33:34.94Z</time></trkpt><trkpt lat="42.39408537575678" lon="14.190771703377209"><ele>136.0</ele><time>2026-03-30T09:33:35.94Z</time></trkpt><trkpt lat="42.394116110130504" lon="14.190889118830556"><ele>136.0</ele><time>2026-03-30T09:33:36.94Z</time></trkpt><trkpt lat="42.39414457996279" lon="14.191011190180603"><ele>137.0</ele><time>2026-03-30T09:33:37.94Z</time></trkpt><trkpt lat="42.39417397727076" lon="14.19115836536948"><ele>138.0</ele><time>2026-03-30T09:33:38.94Z</time></trkpt><trkpt lat="42.39421647110986" lon="14.191300900196595"><ele>139.0</ele><time>2026-03-30T09:33:39.94Z</time></trkpt><trkpt lat="42.39427497649896" lon="14.191433208741133"><ele>140.0</ele><time>2026-03-30T09:33:40.94Z</time></trkpt><trkpt lat="42.39434627932086" lon="14.191553763784507"><ele>141.2</ele><time>2026-03-30T09:33:41.94Z</time></trkpt><trkpt lat="42.39440517199789" lon="14.19167591665052"><ele>142.4</ele><time>2026-03-30T09:33:42.94Z</time></trkpt><trkpt lat="42.39446004485387" lon="14.19178485073781"><ele>143.6</ele><time>2026-03-30T09:33:43.94Z</time></trkpt><trkpt lat="42.39450371229619" lon="14.191890480417504"><ele>144.8</ele><time>2026-03-30T09:33:44.94Z</time></trkpt><trkpt lat="42.3945581829494" lon="14.19198334132527"><ele>146.0</ele><time>2026-03-30T09:33:45.94Z</time></trkpt><trkpt lat="42.39463464059598" lon="14.192043704867153"><ele>146.0</ele><time>2026-03-30T09:33:46.94Z</time></trkpt><trkpt lat="42.394726305130796" lon="14.192081718021559"><ele>146.0</ele><time>2026-03-30T09:33:47.94Z</time></trkpt><trkpt lat="42.39482606189539" lon="14.192121640765443"><ele>146.0</ele><time>2026-03-30T09:33:48.94Z</time></trkpt><trkpt lat="42.394945481587705" lon="14.192164857152935"><ele>146.0</ele><time>2026-03-30T09:33:49.94Z</time></trkpt><trkpt lat="42.39507037953526" lon="14.192227344057052"><ele>146.0</ele><time>2026-03-30T09:33:50.94Z</time></trkpt><trkpt lat="42.39517454747029" lon="14.192281984084604"><ele>146.0</ele><time>2026-03-30T09:33:51.94Z</time></trkpt><trkpt lat="42.39525411786095" lon="14.192319220871195"><ele>146.0</ele><time>2026-03-30T09:33:52.94Z</time></trkpt><trkpt lat="42.39531813152341" lon="14.19236163304457"><ele>146.0</ele><time>2026-03-30T09:33:53.94Z</time></trkpt><trkpt lat="42.395376350387174" lon="14.192443839989265"><ele>146.0</ele><time>2026-03-30T09:33:55.94Z</time></trkpt><trkpt lat="42.395399449221266" lon="14.192524760961415"><ele>146.0</ele><time>2026-03-30T09:33:56.94Z</time></trkpt><trkpt lat="42.39540470570882" lon="14.19265320381018"><ele>148.4</ele><time>2026-03-30T09:33:57.94Z</time></trkpt><trkpt lat="42.395418299801825" lon="14.192778997112514"><ele>150.8</ele><time>2026-03-30T09:33:58.94Z</time></trkpt><trkpt lat="42.39542588463306" lon="14.192910724250119"><ele>153.20000000000002</ele><time>2026-03-30T09:33:59.94Z</time></trkpt><trkpt lat="42.39543120085309" lon="14.193037630476153"><ele>155.6</ele><time>2026-03-30T09:34:00.94Z</time></trkpt><trkpt lat="42.39543408640316" lon="14.193152661285728"><ele>158.0</ele><time>2026-03-30T09:34:01.94Z</time></trkpt><trkpt lat="42.395440194624825" lon="14.193264057717128"><ele>159.33333333333331</ele><time>2026-03-30T09:34:02.941Z</time></trkpt><trkpt lat="42.39543264015234" lon="14.193375688713653"><ele>160.66666666666666</ele><time>2026-03-30T09:34:03.941Z</time></trkpt><trkpt lat="42.39544796818948" lon="14.193508228288714"><ele>162.0</ele><time>2026-03-30T09:34:04.941Z</time></trkpt><trkpt lat="42.39544572304779" lon="14.19363012592561"><ele>163.33333333333334</ele><time>2026-03-30T09:34:05.941Z</time></trkpt><trkpt lat="42.39544935160918" lon="14.193741344303827"><ele>164.66666666666669</ele><time>2026-03-30T09:34:06.941Z</time></trkpt><trkpt lat="42.39545178062218" lon="14.193857910399627"><ele>166.0</ele><time>2026-03-30T09:34:07.941Z</time></trkpt><trkpt lat="42.395454728648794" lon="14.19398539209864"><ele>168.16666666666669</ele><time>2026-03-30T09:34:08.941Z</time></trkpt><trkpt lat="42.395462036602645" lon="14.194105772650934"><ele>170.33333333333334</ele><time>2026-03-30T09:34:09.941Z</time></trkpt><trkpt lat="42.39546695113358" lon="14.194213561444627"><ele>172.5</ele><time>2026-03-30T09:34:10.941Z</time></trkpt><trkpt lat="42.39546763266903" lon="14.194331772111589"><ele>174.66666666666666</ele><time>2026-03-30T09:34:11.941Z</time></trkpt><trkpt lat="42.395470708442154" lon="14.194452714168229"><ele>176.83333333333331</ele><time>2026-03-30T09:34:12.941Z</time></trkpt><trkpt lat="42.395473639559626" lon="14.194559469582213"><ele>179.0</ele><time>2026-03-30T09:34:13.941Z</time></trkpt><trkpt lat="42.395479770963455" lon="14.194663206467826"><ele>179.0</ele><time>2026-03-30T09:34:14.941Z</time></trkpt><trkpt lat="42.395478369236194" lon="14.194758734843145"><ele>179.0</ele><time>2026-03-30T09:34:15.941Z</time></trkpt><trkpt lat="42.3954810996501" lon="14.194874912291436"><ele>179.0</ele><time>2026-03-30T09:34:16.941Z</time></trkpt><trkpt lat="42.39548010565186" lon="14.19498424534027"><ele>179.0</ele><time>2026-03-30T09:34:17.941Z</time></trkpt><trkpt lat="42.395477636087364" lon="14.195081977545629"><ele>179.0</ele><time>2026-03-30T09:34:18.941Z</time></trkpt><trkpt lat="42.395479027756295" lon="14.195174607955865"><ele>179.0</ele><time>2026-03-30T09:34:19.941Z</time></trkpt><trkpt lat="42.395479654041395" lon="14.195310400575783"><ele>181.66666666666666</ele><time>2026-03-30T09:34:21.941Z</time></trkpt><trkpt lat="42.395482779317746" lon="14.195470221714592"><ele>184.33333333333331</ele><time>2026-03-30T09:34:23.941Z</time></trkpt><trkpt lat="42.39547495273671" lon="14.195585131437666"><ele>187.0</ele><time>2026-03-30T09:34:24.941Z</time></trkpt><trkpt lat="42.39546660131167" lon="14.195692738716811"><ele>189.66666666666666</ele><time>2026-03-30T09:34:25.941Z</time></trkpt><trkpt lat="42.39546714109439" lon="14.195808930161922"><ele>192.33333333333334</ele><time>2026-03-30T09:34:26.941Z</time></trkpt><trkpt lat="42.39546417953769" lon="14.195903755544437"><ele>195.0</ele><time>2026-03-30T09:34:27.941Z</time></trkpt><trkpt lat="42.395452352865355" lon="14.196006874729678"><ele>198.2</ele><time>2026-03-30T09:34:28.941Z</time></trkpt><trkpt lat="42.3954571294923" lon="14.196131995442773"><ele>201.4</ele><time>2026-03-30T09:34:30.941Z</time></trkpt><trkpt lat="42.39548590156361" lon="14.196266557954772"><ele>204.60000000000002</ele><time>2026-03-30T09:34:32.941Z</time></trkpt><trkpt lat="42.39549524197229" lon="14.196356939392823"><ele>207.8</ele><time>2026-03-30T09:34:33.941Z</time></trkpt><trkpt lat="42.395476749314476" lon="14.196470784162535"><ele>211.0</ele><time>2026-03-30T09:34:35.941Z</time></trkpt><trkpt lat="42.39546590648179" lon="14.196623682073552"><ele>209.66666666666666</ele><time>2026-03-30T09:34:37.941Z</time></trkpt><trkpt lat="42.39551281787797" lon="14.196745562017956"><ele>208.33333333333331</ele><time>2026-03-30T09:34:38.941Z</time></trkpt><trkpt lat="42.39556124352382" lon="14.19683988231235"><ele>207.0</ele><time>2026-03-30T09:34:39.941Z</time></trkpt><trkpt lat="42.39561021803303" lon="14.196913967508069"><ele>205.66666666666669</ele><time>2026-03-30T09:34:40.941Z</time></trkpt><trkpt lat="42.395680422666224" lon="14.19701305328536"><ele>204.33333333333334</ele><time>2026-03-30T09:34:42.941Z</time></trkpt><trkpt lat="42.39572589394416" lon="14.197092787644529"><ele>203.0</ele><time>2026-03-30T09:34:44.941Z</time></trkpt><trkpt lat="42.39578752776784" lon="14.197194296066163"><ele>203.00000000000003</ele><time>2026-03-30T09:34:46.941Z</time></trkpt><trkpt lat="42.39583549065505" lon="14.19730605946522"><ele>203.0</ele><time>2026-03-30T09:34:48.941Z</time></trkpt><trkpt lat="42.395873817822036" lon="14.197417880297273"><ele>203.0</ele><time>2026-03-30T09:34:50.941Z</time></trkpt><trkpt lat="42.39591765075489" lon="14.197523585472592"><ele>203.0</ele><time>2026-03-30T09:34:52.941Z</time></trkpt><trkpt lat="42.395948307564915" lon="14.197623473040839"><ele>203.00000000000003</ele><time>2026-03-30T09:34:54.941Z</time></trkpt><trkpt lat="42.39597455188829" lon="14.197715321853162"><ele>203.0</ele><time>2026-03-30T09:34:55.941Z</time></trkpt><trkpt lat="42.396004953913256" lon="14.197804957244049"><ele>205.14285714285714</ele><time>2026-03-30T09:34:56.941Z</time></trkpt><trkpt lat="42.396027925032186" lon="14.197904021782449"><ele>207.28571428571428</ele><time>2026-03-30T09:34:57.941Z</time></trkpt><trkpt lat="42.3960579204618" lon="14.197994675404967"><ele>209.42857142857144</ele><time>2026-03-30T09:34:58.937Z</time></trkpt><trkpt lat="42.39608086414018" lon="14.198077052188562"><ele>211.57142857142856</ele><time>2026-03-30T09:34:59.936Z</time></trkpt><trkpt lat="42.396110629217965" lon="14.198189873296455"><ele>213.71428571428572</ele><time>2026-03-30T09:35:01.938Z</time></trkpt><trkpt lat="42.39613978101507" lon="14.198266761548746"><ele>215.85714285714286</ele><time>2026-03-30T09:35:04.937Z</time></trkpt><trkpt lat="42.39615147069073" lon="14.19836157470654"><ele>218.0</ele><time>2026-03-30T09:35:14.937Z</time></trkpt><trkpt lat="42.3962041851148" lon="14.198510298330074"><ele>219.5</ele><time>2026-03-30T09:35:16.937Z</time></trkpt><trkpt lat="42.39621596028235" lon="14.198673854263637"><ele>221.0</ele><time>2026-03-30T09:35:18.937Z</time></trkpt><trkpt lat="42.39620926994868" lon="14.198821679809642"><ele>222.5</ele><time>2026-03-30T09:35:20.937Z</time></trkpt><trkpt lat="42.39619405265285" lon="14.198967925929272"><ele>224.0</ele><time>2026-03-30T09:35:22.937Z</time></trkpt><trkpt lat="42.39617471683672" lon="14.199119154071306"><ele>224.0</ele><time>2026-03-30T09:35:24.937Z</time></trkpt><trkpt lat="42.396177826492895" lon="14.199204706243279"><ele>224.0</ele><time>2026-03-30T09:35:26.937Z</time></trkpt><trkpt lat="42.396164000379166" lon="14.199327277748305"><ele>224.0</ele><time>2026-03-30T09:35:29.937Z</time></trkpt><trkpt lat="42.39614650081155" lon="14.199409441452916"><ele>224.0</ele><time>2026-03-30T09:35:30.937Z</time></trkpt><trkpt lat="42.396130928553056" lon="14.199500505219747"><ele>224.0</ele><time>2026-03-30T09:35:31.937Z</time></trkpt><trkpt lat="42.39612127111058" lon="14.199607227734486"><ele>224.0</ele><time>2026-03-30T09:35:32.937Z</time></trkpt><trkpt lat="42.396108900998264" lon="14.199704959493634"><ele>224.0</ele><time>2026-03-30T09:35:33.937Z</time></trkpt><trkpt lat="42.39608953891275" lon="14.199814014555127"><ele>223.79999999999998</ele><time>2026-03-30T09:35:34.937Z</time></trkpt><trkpt lat="42.39607073676508" lon="14.199923793619432"><ele>223.59999999999997</ele><time>2026-03-30T09:35:35.937Z</time></trkpt><trkpt lat="42.39605182237998" lon="14.200022502374429"><ele>223.4</ele><time>2026-03-30T09:35:36.937Z</time></trkpt><trkpt lat="42.3960179869578" lon="14.20014159619689"><ele>223.2</ele><time>2026-03-30T09:35:38.937Z</time></trkpt><trkpt lat="42.396027136597205" lon="14.200227012916363"><ele>223.0</ele><time>2026-03-30T09:35:41.937Z</time></trkpt><trkpt lat="42.396164627279944" lon="14.200311636864662"><ele>222.99999999999997</ele><time>2026-03-30T09:35:46.937Z</time></trkpt><trkpt lat="42.396211589517335" lon="14.20037136795699"><ele>223.0</ele><time>2026-03-30T09:35:49.937Z</time></trkpt><trkpt lat="42.396142463678736" lon="14.200422843173035"><ele>223.0</ele><time>2026-03-30T09:35:52.937Z</time></trkpt><trkpt lat="42.39608310823867" lon="14.200387767147944"><ele>223.0</ele><time>2026-03-30T09:35:54.937Z</time></trkpt><trkpt lat="42.39605305308841" lon="14.200270913328346"><ele>222.99999999999997</ele><time>2026-03-30T09:35:58.938Z</time></trkpt><trkpt lat="42.395919398203304" lon="14.2002113635121"><ele>223.0</ele><time>2026-03-30T09:36:00.938Z</time></trkpt><trkpt lat="42.395820297620645" lon="14.200193025613327"><ele>223.0</ele><time>2026-03-30T09:36:01.938Z</time></trkpt><trkpt lat="42.3957142977784" lon="14.200177553195225"><ele>223.0</ele><time>2026-03-30T09:36:02.938Z</time></trkpt><trkpt lat="42.39560930288338" lon="14.200151383818874"><ele>223.0</ele><time>2026-03-30T09:36:03.938Z</time></trkpt><trkpt lat="42.39550593313638" lon="14.200126299606215"><ele>223.0</ele><time>2026-03-30T09:36:04.938Z</time></trkpt><trkpt lat="42.39539557422876" lon="14.200092836339392"><ele>223.0</ele><time>2026-03-30T09:36:05.938Z</time></trkpt><trkpt lat="42.39528809730903" lon="14.200073996575489"><ele>222.75</ele><time>2026-03-30T09:36:06.938Z</time></trkpt><trkpt lat="42.39517639397229" lon="14.200028282891283"><ele>222.5</ele><time>2026-03-30T09:36:07.938Z</time></trkpt><trkpt lat="42.395065509112115" lon="14.19997492818734"><ele>222.25</ele><time>2026-03-30T09:36:08.938Z</time></trkpt><trkpt lat="42.39495620593563" lon="14.199931171401094"><ele>222.0</ele><time>2026-03-30T09:36:09.938Z</time></trkpt><trkpt lat="42.394845719408764" lon="14.199885386293367"><ele>222.0</ele><time>2026-03-30T09:36:10.938Z</time></trkpt><trkpt lat="42.39473380371576" lon="14.199835607804143"><ele>222.0</ele><time>2026-03-30T09:36:11.938Z</time></trkpt><trkpt lat="42.39462633986515" lon="14.19976572090805"><ele>222.0</ele><time>2026-03-30T09:36:12.938Z</time></trkpt><trkpt lat="42.394520361141275" lon="14.199671829715191"><ele>222.0</ele><time>2026-03-30T09:36:13.938Z</time></trkpt><trkpt lat="42.39440999265039" lon="14.199571485468882"><ele>221.75</ele><time>2026-03-30T09:36:14.938Z</time></trkpt><trkpt lat="42.394308090918216" lon="14.19948149246501"><ele>221.5</ele><time>2026-03-30T09:36:15.938Z</time></trkpt><trkpt lat="42.39420381588901" lon="14.199380922398282"><ele>221.25</ele><time>2026-03-30T09:36:16.938Z</time></trkpt><trkpt lat="42.39410000392648" lon="14.199275796584033"><ele>221.0</ele><time>2026-03-30T09:36:17.938Z</time></trkpt><trkpt lat="42.39399259139007" lon="14.199188509271696"><ele>221.0</ele><time>2026-03-30T09:36:18.938Z</time></trkpt><trkpt lat="42.39389163480801" lon="14.199089489973753"><ele>221.0</ele><time>2026-03-30T09:36:19.938Z</time></trkpt><trkpt lat="42.393785736213886" lon="14.198995415786346"><ele>221.0</ele><time>2026-03-30T09:36:20.938Z</time></trkpt><trkpt lat="42.39367504268493" lon="14.198904519588746"><ele>221.0</ele><time>2026-03-30T09:36:21.938Z</time></trkpt><trkpt lat="42.393567020862896" lon="14.198823405763266"><ele>222.0</ele><time>2026-03-30T09:36:22.938Z</time></trkpt><trkpt lat="42.393456393970595" lon="14.198762543782326"><ele>223.0</ele><time>2026-03-30T09:36:23.938Z</time></trkpt><trkpt lat="42.39334230222622" lon="14.198730707317177"><ele>224.0</ele><time>2026-03-30T09:36:24.938Z</time></trkpt><trkpt lat="42.39322931304163" lon="14.198725149626442"><ele>225.0</ele><time>2026-03-30T09:36:25.938Z</time></trkpt><trkpt lat="42.39312073940387" lon="14.198728393403691"><ele>225.0</ele><time>2026-03-30T09:36:26.938Z</time></trkpt><trkpt lat="42.393017172057455" lon="14.198707128714396"><ele>225.0</ele><time>2026-03-30T09:36:27.938Z</time></trkpt><trkpt lat="42.39292298510404" lon="14.19870874643191"><ele>225.0</ele><time>2026-03-30T09:36:28.938Z</time></trkpt><trkpt lat="42.39283378779784" lon="14.198745371278097"><ele>225.0</ele><time>2026-03-30T09:36:29.938Z</time></trkpt><trkpt lat="42.39273889368144" lon="14.19877428867942"><ele>225.0</ele><time>2026-03-30T09:36:30.938Z</time></trkpt><trkpt lat="42.39242916201097" lon="14.198401291580364"><ele>225.25</ele><time>2026-03-30T09:36:32.938Z</time></trkpt><trkpt lat="42.392301891855936" lon="14.198343631586619"><ele>225.5</ele><time>2026-03-30T09:36:33.938Z</time></trkpt><trkpt lat="42.392185161056936" lon="14.198285181511874"><ele>225.75</ele><time>2026-03-30T09:36:34.938Z</time></trkpt><trkpt lat="42.39207212871641" lon="14.198238113107859"><ele>226.0</ele><time>2026-03-30T09:36:35.938Z</time></trkpt><trkpt lat="42.3919581993113" lon="14.198195666871207"><ele>227.5</ele><time>2026-03-30T09:36:36.938Z</time></trkpt><trkpt lat="42.39184308773848" lon="14.198159082117817"><ele>229.0</ele><time>2026-03-30T09:36:37.938Z</time></trkpt><trkpt lat="42.39173166867269" lon="14.198134567094279"><ele>230.5</ele><time>2026-03-30T09:36:38.938Z</time></trkpt><trkpt lat="42.39162818459251" lon="14.19809932879786"><ele>232.0</ele><time>2026-03-30T09:36:39.938Z</time></trkpt><trkpt lat="42.3915109158102" lon="14.198080221411985"><ele>232.0</ele><time>2026-03-30T09:36:40.938Z</time></trkpt><trkpt lat="42.39140161212519" lon="14.198051885554072"><ele>232.0</ele><time>2026-03-30T09:36:41.938Z</time></trkpt><trkpt lat="42.39129909101543" lon="14.19802937776268"><ele>232.0</ele><time>2026-03-30T09:36:42.938Z</time></trkpt><trkpt lat="42.39121405963833" lon="14.197995135342346"><ele>232.0</ele><time>2026-03-30T09:36:43.938Z</time></trkpt><trkpt lat="42.39114427041016" lon="14.197965025535824"><ele>232.0</ele><time>2026-03-30T09:36:44.938Z</time></trkpt><trkpt lat="42.391055910218974" lon="14.197938000788264"><ele>232.2</ele><time>2026-03-30T09:36:46.938Z</time></trkpt><trkpt lat="42.39100554433952" lon="14.197882596105535"><ele>232.39999999999998</ele><time>2026-03-30T09:36:47.938Z</time></trkpt><trkpt lat="42.390943160360266" lon="14.19782437990244"><ele>232.60000000000002</ele><time>2026-03-30T09:36:48.938Z</time></trkpt><trkpt lat="42.39086555833246" lon="14.197755419270058"><ele>232.8</ele><time>2026-03-30T09:36:49.938Z</time></trkpt><trkpt lat="42.39077975947989" lon="14.197680004389014"><ele>233.0</ele><time>2026-03-30T09:36:50.938Z</time></trkpt><trkpt lat="42.39067263761298" lon="14.197609185575455"><ele>233.0</ele><time>2026-03-30T09:36:51.938Z</time></trkpt><trkpt lat="42.39056993710177" lon="14.19755855305851"><ele>233.0</ele><time>2026-03-30T09:36:52.938Z</time></trkpt><trkpt lat="42.39046582081119" lon="14.197509363825365"><ele>233.0</ele><time>2026-03-30T09:36:53.938Z</time></trkpt><trkpt lat="42.39035905229497" lon="14.197443541390944"><ele>233.0</ele><time>2026-03-30T09:36:54.938Z</time></trkpt><trkpt lat="42.39025245499503" lon="14.19738610802531"><ele>234.25</ele><time>2026-03-30T09:36:55.938Z</time></trkpt><trkpt lat="42.390149238699834" lon="14.1973241004846"><ele>235.5</ele><time>2026-03-30T09:36:56.938Z</time></trkpt><trkpt lat="42.390043099519986" lon="14.19726592233169"><ele>236.75</ele><time>2026-03-30T09:36:57.938Z</time></trkpt><trkpt lat="42.38993413716683" lon="14.197216533030002"><ele>238.0</ele><time>2026-03-30T09:36:58.938Z</time></trkpt><trkpt lat="42.389836527892065" lon="14.197154726591151"><ele>238.0</ele><time>2026-03-30T09:36:59.938Z</time></trkpt><trkpt lat="42.38973857164771" lon="14.197095762214062"><ele>238.0</ele><time>2026-03-30T09:37:00.938Z</time></trkpt><trkpt lat="42.38964602283797" lon="14.197027209547619"><ele>238.0</ele><time>2026-03-30T09:37:01.938Z</time></trkpt><trkpt lat="42.389546226033666" lon="14.196972741870404"><ele>238.0</ele><time>2026-03-30T09:37:02.938Z</time></trkpt><trkpt lat="42.389443334726515" lon="14.196927623908202"><ele>238.0</ele><time>2026-03-30T09:37:03.938Z</time></trkpt><trkpt lat="42.389345855744864" lon="14.196872101847816"><ele>237.25</ele><time>2026-03-30T09:37:04.934Z</time></trkpt><trkpt lat="42.38924285236985" lon="14.196814244081033"><ele>236.5</ele><time>2026-03-30T09:37:05.934Z</time></trkpt><trkpt lat="42.38913650224525" lon="14.196756492515714"><ele>235.75</ele><time>2026-03-30T09:37:06.934Z</time></trkpt><trkpt lat="42.38902236228074" lon="14.19671250564136"><ele>235.0</ele><time>2026-03-30T09:37:07.934Z</time></trkpt><trkpt lat="42.38891508815048" lon="14.19665457287515"><ele>235.5</ele><time>2026-03-30T09:37:08.934Z</time></trkpt><trkpt lat="42.38880024379446" lon="14.196597126762699"><ele>236.0</ele><time>2026-03-30T09:37:09.934Z</time></trkpt><trkpt lat="42.38868174862356" lon="14.19653386644944"><ele>236.5</ele><time>2026-03-30T09:37:10.934Z</time></trkpt><trkpt lat="42.38855778157657" lon="14.196474492294293"><ele>237.0</ele><time>2026-03-30T09:37:11.933Z</time></trkpt><trkpt lat="42.38843023664155" lon="14.196415006732918"><ele>237.5</ele><time>2026-03-30T09:37:12.933Z</time></trkpt><trkpt lat="42.38830088878957" lon="14.196356161068634"><ele>238.0</ele><time>2026-03-30T09:37:13.934Z</time></trkpt><trkpt lat="42.38816945828753" lon="14.196286973828919"><ele>238.5</ele><time>2026-03-30T09:37:14.934Z</time></trkpt><trkpt lat="42.3880424182514" lon="14.196209317053725"><ele>239.0</ele><time>2026-03-30T09:37:15.934Z</time></trkpt><trkpt lat="42.387909934439286" lon="14.196135353702214"><ele>239.0</ele><time>2026-03-30T09:37:16.934Z</time></trkpt><trkpt lat="42.387780206338114" lon="14.196071834026498"><ele>239.0</ele><time>2026-03-30T09:37:17.934Z</time></trkpt><trkpt lat="42.38764859070615" lon="14.196011686061569"><ele>239.0</ele><time>2026-03-30T09:37:18.934Z</time></trkpt><trkpt lat="42.38752783785367" lon="14.195926374571565"><ele>239.0</ele><time>2026-03-30T09:37:19.934Z</time></trkpt><trkpt lat="42.38738969504535" lon="14.195857217305386"><ele>239.0</ele><time>2026-03-30T09:37:20.934Z</time></trkpt><trkpt lat="42.3872755502133" lon="14.195766882534379"><ele>239.0</ele><time>2026-03-30T09:37:21.934Z</time></trkpt><trkpt lat="42.387136353071845" lon="14.195689432161084"><ele>239.0</ele><time>2026-03-30T09:37:22.934Z</time></trkpt><trkpt lat="42.387001367065515" lon="14.195614466547706"><ele>239.0</ele><time>2026-03-30T09:37:23.934Z</time></trkpt><trkpt lat="42.38687496678363" lon="14.19553407442877"><ele>239.5</ele><time>2026-03-30T09:37:24.934Z</time></trkpt><trkpt lat="42.38675804481673" lon="14.195460470447522"><ele>240.0</ele><time>2026-03-30T09:37:25.934Z</time></trkpt><trkpt lat="42.38663616508649" lon="14.195393937785186"><ele>240.5</ele><time>2026-03-30T09:37:26.934Z</time></trkpt><trkpt lat="42.386508601727435" lon="14.195322620252957"><ele>241.0</ele><time>2026-03-30T09:37:27.934Z</time></trkpt><trkpt lat="42.38639163636475" lon="14.195246360120422"><ele>241.5</ele><time>2026-03-30T09:37:28.934Z</time></trkpt><trkpt lat="42.386271166612936" lon="14.19517161938452"><ele>242.0</ele><time>2026-03-30T09:37:29.934Z</time></trkpt><trkpt lat="42.386146993578045" lon="14.195089014796652"><ele>242.5</ele><time>2026-03-30T09:37:30.934Z</time></trkpt><trkpt lat="42.3860278660455" lon="14.19499493085357"><ele>243.0</ele><time>2026-03-30T09:37:31.934Z</time></trkpt><trkpt lat="42.385909326226816" lon="14.194910400119962"><ele>243.5</ele><time>2026-03-30T09:37:32.934Z</time></trkpt><trkpt lat="42.38578943454995" lon="14.194824265821813"><ele>244.0</ele><time>2026-03-30T09:37:33.934Z</time></trkpt><trkpt lat="42.38567006734978" lon="14.194737669110847"><ele>244.5</ele><time>2026-03-30T09:37:34.934Z</time></trkpt><trkpt lat="42.38555018003997" lon="14.194655996796728"><ele>245.0</ele><time>2026-03-30T09:37:35.934Z</time></trkpt><trkpt lat="42.385433641883644" lon="14.194570145849198"><ele>245.5</ele><time>2026-03-30T09:37:36.934Z</time></trkpt><trkpt lat="42.385312297655304" lon="14.194485558129076"><ele>246.0</ele><time>2026-03-30T09:37:37.934Z</time></trkpt><trkpt lat="42.385190914305646" lon="14.194398369718462"><ele>246.5</ele><time>2026-03-30T09:37:38.934Z</time></trkpt><trkpt lat="42.38506952329041" lon="14.194310556701797"><ele>247.0</ele><time>2026-03-30T09:37:39.934Z</time></trkpt><trkpt lat="42.38495108427738" lon="14.194224109672223"><ele>247.0</ele><time>2026-03-30T09:37:40.934Z</time></trkpt><trkpt lat="42.384840279997015" lon="14.194148391859885"><ele>247.0</ele><time>2026-03-30T09:37:41.934Z</time></trkpt><trkpt lat="42.38473561732959" lon="14.19409071088128"><ele>247.0</ele><time>2026-03-30T09:37:42.934Z</time></trkpt><trkpt lat="42.38464062258135" lon="14.194027262960162"><ele>247.0</ele><time>2026-03-30T09:37:43.934Z</time></trkpt><trkpt lat="42.384561101957516" lon="14.193951596819533"><ele>247.0</ele><time>2026-03-30T09:37:44.934Z</time></trkpt><trkpt lat="42.38448566998711" lon="14.19390738392809"><ele>247.16666666666666</ele><time>2026-03-30T09:37:45.934Z</time></trkpt><trkpt lat="42.38442824217314" lon="14.193856488637769"><ele>247.33333333333331</ele><time>2026-03-30T09:37:47.934Z</time></trkpt><trkpt lat="42.384372198157415" lon="14.193810916337481"><ele>247.5</ele><time>2026-03-30T09:37:51.934Z</time></trkpt><trkpt lat="42.38430650578122" lon="14.193752021562592"><ele>247.66666666666669</ele><time>2026-03-30T09:37:53.934Z</time></trkpt><trkpt lat="42.38425175903816" lon="14.193699624371709"><ele>247.83333333333334</ele><time>2026-03-30T09:37:54.934Z</time></trkpt><trkpt lat="42.38416267690165" lon="14.193610385139976"><ele>248.0</ele><time>2026-03-30T09:37:56.934Z</time></trkpt><trkpt lat="42.384057237842285" lon="14.193503691098703"><ele>248.0</ele><time>2026-03-30T09:37:58.934Z</time></trkpt><trkpt lat="42.38396818350752" lon="14.193411276483475"><ele>248.0</ele><time>2026-03-30T09:38:00.934Z</time></trkpt><trkpt lat="42.38388595582111" lon="14.193328614791692"><ele>248.0</ele><time>2026-03-30T09:38:02.934Z</time></trkpt><trkpt lat="42.38382288887238" lon="14.19325838768425"><ele>248.0</ele><time>2026-03-30T09:38:04.934Z</time></trkpt><trkpt lat="42.38376373929177" lon="14.19316733964503"><ele>248.0</ele><time>2026-03-30T09:38:06.934Z</time></trkpt><trkpt lat="42.38370865736491" lon="14.19310399093297"><ele>248.16666666666669</ele><time>2026-03-30T09:38:07.934Z</time></trkpt><trkpt lat="42.383637441431965" lon="14.193030593969654"><ele>248.33333333333334</ele><time>2026-03-30T09:38:08.934Z</time></trkpt><trkpt lat="42.3835761692195" lon="14.192970829839938"><ele>248.5</ele><time>2026-03-30T09:38:09.934Z</time></trkpt><trkpt lat="42.383514512808205" lon="14.192920261129165"><ele>248.66666666666669</ele><time>2026-03-30T09:38:10.935Z</time></trkpt><trkpt lat="42.38344725051717" lon="14.192838158061265"><ele>248.83333333333334</ele><time>2026-03-30T09:38:13.935Z</time></trkpt><trkpt lat="42.38339259570206" lon="14.192788489953701"><ele>249.0</ele><time>2026-03-30T09:38:14.935Z</time></trkpt><trkpt lat="42.38334381527101" lon="14.192720662075555"><ele>249.0</ele><time>2026-03-30T09:38:15.935Z</time></trkpt><trkpt lat="42.383279940244144" lon="14.19265634817152"><ele>249.0</ele><time>2026-03-30T09:38:16.935Z</time></trkpt><trkpt lat="42.38322456045349" lon="14.192592069102455"><ele>249.0</ele><time>2026-03-30T09:38:17.935Z</time></trkpt><trkpt lat="42.38315533962229" lon="14.192518804584793"><ele>249.0</ele><time>2026-03-30T09:38:18.935Z</time></trkpt><trkpt lat="42.383081224315" lon="14.192445268245205"><ele>249.0</ele><time>2026-03-30T09:38:19.935Z</time></trkpt><trkpt lat="42.382997272187154" lon="14.192359301699444"><ele>249.0</ele><time>2026-03-30T09:38:20.935Z</time></trkpt><trkpt lat="42.3829124608976" lon="14.19224435653034"><ele>250.39999999999998</ele><time>2026-03-30T09:38:21.935Z</time></trkpt><trkpt lat="42.38281577146319" lon="14.19214044075677"><ele>251.79999999999998</ele><time>2026-03-30T09:38:22.935Z</time></trkpt><trkpt lat="42.38273823665886" lon="14.192059448009918"><ele>253.20000000000002</ele><time>2026-03-30T09:38:23.935Z</time></trkpt><trkpt lat="42.38267023942106" lon="14.19199128431194"><ele>254.60000000000002</ele><time>2026-03-30T09:38:24.935Z</time></trkpt><trkpt lat="42.382603257998085" lon="14.191924579455891"><ele>256.0</ele><time>2026-03-30T09:38:25.935Z</time></trkpt><trkpt lat="42.382540161766" lon="14.191855512015866"><ele>255.99999999999997</ele><time>2026-03-30T09:38:26.935Z</time></trkpt><trkpt lat="42.382494513251146" lon="14.191783200436923"><ele>256.0</ele><time>2026-03-30T09:38:27.935Z</time></trkpt><trkpt lat="42.38244088682926" lon="14.191730501033046"><ele>256.0</ele><time>2026-03-30T09:38:28.935Z</time></trkpt><trkpt lat="42.38236987362665" lon="14.191653943434384"><ele>256.0</ele><time>2026-03-30T09:38:30.935Z</time></trkpt><trkpt lat="42.38229239565109" lon="14.191541721202679"><ele>255.99999999999997</ele><time>2026-03-30T09:38:33.935Z</time></trkpt><trkpt lat="42.38223502596836" lon="14.191449233072039"><ele>256.0</ele><time>2026-03-30T09:38:34.935Z</time></trkpt><trkpt lat="42.38216253798856" lon="14.19134971576143"><ele>255.5</ele><time>2026-03-30T09:38:35.935Z</time></trkpt><trkpt lat="42.382087785615255" lon="14.191250085323137"><ele>255.0</ele><time>2026-03-30T09:38:36.935Z</time></trkpt><trkpt lat="42.38200423457718" lon="14.191134229229354"><ele>254.5</ele><time>2026-03-30T09:38:37.935Z</time></trkpt><trkpt lat="42.381906831231994" lon="14.191004428340422"><ele>254.0</ele><time>2026-03-30T09:38:38.935Z</time></trkpt><trkpt lat="42.38182664034048" lon="14.19088038023419"><ele>254.0</ele><time>2026-03-30T09:38:39.935Z</time></trkpt><trkpt lat="42.38174519990214" lon="14.190753498096067"><ele>254.0</ele><time>2026-03-30T09:38:40.935Z</time></trkpt><trkpt lat="42.38166589394592" lon="14.190637423781721"><ele>254.0</ele><time>2026-03-30T09:38:41.935Z</time></trkpt><trkpt lat="42.381595946500084" lon="14.190521101144228"><ele>254.0</ele><time>2026-03-30T09:38:42.935Z</time></trkpt><trkpt lat="42.38151856121503" lon="14.190405387447594"><ele>254.0</ele><time>2026-03-30T09:38:43.935Z</time></trkpt><trkpt lat="42.3814413224953" lon="14.190286021248065"><ele>254.0</ele><time>2026-03-30T09:38:44.935Z</time></trkpt><trkpt lat="42.38135987277772" lon="14.190158480243104"><ele>254.0</ele><time>2026-03-30T09:38:45.935Z</time></trkpt><trkpt lat="42.381277257464234" lon="14.190039285259813"><ele>254.0</ele><time>2026-03-30T09:38:46.935Z</time></trkpt><trkpt lat="42.38119287000974" lon="14.189923236124049"><ele>255.0</ele><time>2026-03-30T09:38:47.935Z</time></trkpt><trkpt lat="42.3811123983596" lon="14.189800361761945"><ele>256.0</ele><time>2026-03-30T09:38:48.935Z</time></trkpt><trkpt lat="42.38103345614505" lon="14.189678468176819"><ele>257.0</ele><time>2026-03-30T09:38:49.935Z</time></trkpt><trkpt lat="42.38095398753692" lon="14.18955405122429"><ele>258.0</ele><time>2026-03-30T09:38:50.935Z</time></trkpt><trkpt lat="42.38088239852543" lon="14.189434762045122"><ele>258.0</ele><time>2026-03-30T09:38:51.935Z</time></trkpt><trkpt lat="42.38080330332677" lon="14.189309551986602"><ele>258.0</ele><time>2026-03-30T09:38:52.935Z</time></trkpt><trkpt lat="42.380722722087015" lon="14.189182984018185"><ele>258.0</ele><time>2026-03-30T09:38:53.935Z</time></trkpt><trkpt lat="42.38064288516823" lon="14.189064844126444"><ele>258.0</ele><time>2026-03-30T09:38:54.935Z</time></trkpt><trkpt lat="42.38056196073659" lon="14.188937106365909"><ele>259.0</ele><time>2026-03-30T09:38:55.935Z</time></trkpt><trkpt lat="42.380482034456044" lon="14.18881389970612"><ele>260.0</ele><time>2026-03-30T09:38:56.935Z</time></trkpt><trkpt lat="42.380398204264225" lon="14.188686502177314"><ele>261.0</ele><time>2026-03-30T09:38:57.935Z</time></trkpt><trkpt lat="42.380305953983154" lon="14.188567198337378"><ele>262.0</ele><time>2026-03-30T09:38:58.935Z</time></trkpt><trkpt lat="42.38022008700544" lon="14.188441291713655"><ele>262.0</ele><time>2026-03-30T09:38:59.935Z</time></trkpt><trkpt lat="42.38013478972758" lon="14.188318875834499"><ele>262.0</ele><time>2026-03-30T09:39:00.935Z</time></trkpt><trkpt lat="42.380050987839546" lon="14.188191602766945"><ele>262.0</ele><time>2026-03-30T09:39:01.935Z</time></trkpt><trkpt lat="42.379970351023886" lon="14.188059884252548"><ele>262.0</ele><time>2026-03-30T09:39:02.935Z</time></trkpt><trkpt lat="42.37988139049307" lon="14.187910911622147"><ele>261.75</ele><time>2026-03-30T09:39:03.935Z</time></trkpt><trkpt lat="42.379787001930815" lon="14.187759759305292"><ele>261.5</ele><time>2026-03-30T09:39:04.935Z</time></trkpt><trkpt lat="42.379686015684314" lon="14.187611529121916"><ele>261.25</ele><time>2026-03-30T09:39:05.935Z</time></trkpt><trkpt lat="42.379586809649325" lon="14.187459840470773"><ele>261.0</ele><time>2026-03-30T09:39:06.935Z</time></trkpt><trkpt lat="42.37948453666115" lon="14.187307844537209"><ele>262.6666666666667</ele><time>2026-03-30T09:39:07.935Z</time></trkpt><trkpt lat="42.3793790735463" lon="14.187145293273904"><ele>264.33333333333337</ele><time>2026-03-30T09:39:08.935Z</time></trkpt><trkpt lat="42.37927373808616" lon="14.186985408000517"><ele>266.0</ele><time>2026-03-30T09:39:09.935Z</time></trkpt><trkpt lat="42.37916442567297" lon="14.18681430926219"><ele>266.0</ele><time>2026-03-30T09:39:10.931Z</time></trkpt><trkpt lat="42.379059716247305" lon="14.18665155808326"><ele>266.0</ele><time>2026-03-30T09:39:11.931Z</time></trkpt><trkpt lat="42.37895389880624" lon="14.186486870520008"><ele>266.0</ele><time>2026-03-30T09:39:12.931Z</time></trkpt><trkpt lat="42.378854053080886" lon="14.186324009838716"><ele>266.0</ele><time>2026-03-30T09:39:13.931Z</time></trkpt><trkpt lat="42.37875458235077" lon="14.186162691797165"><ele>266.0</ele><time>2026-03-30T09:39:14.931Z</time></trkpt><trkpt lat="42.37865055334661" lon="14.186005067703727"><ele>266.0</ele><time>2026-03-30T09:39:15.931Z</time></trkpt><trkpt lat="42.37855365024835" lon="14.185848645383578"><ele>266.0</ele><time>2026-03-30T09:39:16.931Z</time></trkpt><trkpt lat="42.378453832520385" lon="14.185689282364782"><ele>266.0</ele><time>2026-03-30T09:39:17.931Z</time></trkpt><trkpt lat="42.378351208326585" lon="14.185526919737175"><ele>266.0</ele><time>2026-03-30T09:39:18.931Z</time></trkpt><trkpt lat="42.378260490206216" lon="14.185377754210172"><ele>266.0</ele><time>2026-03-30T09:39:19.931Z</time></trkpt><trkpt lat="42.37818068790932" lon="14.185224188534852"><ele>266.0</ele><time>2026-03-30T09:39:20.931Z</time></trkpt><trkpt lat="42.37810584808432" lon="14.185055503629075"><ele>266.0</ele><time>2026-03-30T09:39:21.931Z</time></trkpt><trkpt lat="42.378038964876936" lon="14.184885335701633"><ele>266.0</ele><time>2026-03-30T09:39:22.931Z</time></trkpt><trkpt lat="42.37796482742296" lon="14.184711362541366"><ele>269.33333333333337</ele><time>2026-03-30T09:39:23.93Z</time></trkpt><trkpt lat="42.37789213937964" lon="14.184527598061656"><ele>272.6666666666667</ele><time>2026-03-30T09:39:24.93Z</time></trkpt><trkpt lat="42.377814229981915" lon="14.184321739645027"><ele>276.0</ele><time>2026-03-30T09:39:25.93Z</time></trkpt><trkpt lat="42.37772499624314" lon="14.184100664555007"><ele>277.3333333333333</ele><time>2026-03-30T09:39:26.93Z</time></trkpt><trkpt lat="42.3776415385376" lon="14.183886088311851"><ele>278.66666666666663</ele><time>2026-03-30T09:39:27.93Z</time></trkpt><trkpt lat="42.37756493131259" lon="14.183703925466283"><ele>280.0</ele><time>2026-03-30T09:39:28.93Z</time></trkpt><trkpt lat="42.377500079651455" lon="14.183538297426004"><ele>280.0</ele><time>2026-03-30T09:39:29.93Z</time></trkpt><trkpt lat="42.377432640945" lon="14.18337322237212"><ele>280.0</ele><time>2026-03-30T09:39:30.93Z</time></trkpt><trkpt lat="42.37736551842948" lon="14.183210593964604"><ele>280.0</ele><time>2026-03-30T09:39:31.93Z</time></trkpt><trkpt lat="42.37730635856168" lon="14.183037298095677"><ele>280.0</ele><time>2026-03-30T09:39:32.93Z</time></trkpt><trkpt lat="42.37723817544572" lon="14.182856711098053"><ele>279.66666666666663</ele><time>2026-03-30T09:39:33.93Z</time></trkpt><trkpt lat="42.377173197130716" lon="14.182673554973649"><ele>279.3333333333333</ele><time>2026-03-30T09:39:34.93Z</time></trkpt><trkpt lat="42.37710911653227" lon="14.182467652004533"><ele>279.0</ele><time>2026-03-30T09:39:35.93Z</time></trkpt><trkpt lat="42.377046629923655" lon="14.182273155428488"><ele>279.0</ele><time>2026-03-30T09:39:36.93Z</time></trkpt><trkpt lat="42.37700861993101" lon="14.182068205803052"><ele>279.0</ele><time>2026-03-30T09:39:37.93Z</time></trkpt><trkpt lat="42.376973324483586" lon="14.181850517900676"><ele>279.0</ele><time>2026-03-30T09:39:38.93Z</time></trkpt><trkpt lat="42.3769295736827" lon="14.181630779795018"><ele>277.6666666666667</ele><time>2026-03-30T09:39:39.93Z</time></trkpt><trkpt lat="42.37688710155853" lon="14.18141218797615"><ele>276.33333333333337</ele><time>2026-03-30T09:39:40.93Z</time></trkpt><trkpt lat="42.37684867762072" lon="14.181196368110266"><ele>275.0</ele><time>2026-03-30T09:39:41.93Z</time></trkpt><trkpt lat="42.37680242316447" lon="14.180985355263047"><ele>275.0</ele><time>2026-03-30T09:39:42.93Z</time></trkpt><trkpt lat="42.37675460153716" lon="14.180777595645917"><ele>275.0</ele><time>2026-03-30T09:39:43.93Z</time></trkpt><trkpt lat="42.37670992410296" lon="14.180566414009336"><ele>275.0</ele><time>2026-03-30T09:39:44.93Z</time></trkpt><trkpt lat="42.376659059006464" lon="14.180364287233315"><ele>274.33333333333337</ele><time>2026-03-30T09:39:45.93Z</time></trkpt><trkpt lat="42.37660132436857" lon="14.180164373112628"><ele>273.6666666666667</ele><time>2026-03-30T09:39:46.93Z</time></trkpt><trkpt lat="42.37652620982532" lon="14.179958082547952"><ele>273.0</ele><time>2026-03-30T09:39:47.93Z</time></trkpt><trkpt lat="42.37644712957061" lon="14.179762991994167"><ele>272.6666666666667</ele><time>2026-03-30T09:39:48.93Z</time></trkpt><trkpt lat="42.37636635419796" lon="14.179562824595942"><ele>272.33333333333337</ele><time>2026-03-30T09:39:49.93Z</time></trkpt><trkpt lat="42.37628561646244" lon="14.179367865157712"><ele>272.0</ele><time>2026-03-30T09:39:50.93Z</time></trkpt><trkpt lat="42.37619537607893" lon="14.17917059963092"><ele>273.0</ele><time>2026-03-30T09:39:51.93Z</time></trkpt><trkpt lat="42.3761041151417" lon="14.17896838741269"><ele>274.0</ele><time>2026-03-30T09:39:52.93Z</time></trkpt><trkpt lat="42.3760170874888" lon="14.17876913432"><ele>275.0</ele><time>2026-03-30T09:39:53.931Z</time></trkpt><trkpt lat="42.3759318285445" lon="14.178567354817675"><ele>275.0</ele><time>2026-03-30T09:39:54.931Z</time></trkpt><trkpt lat="42.37584987858999" lon="14.17838415352756"><ele>275.0</ele><time>2026-03-30T09:39:55.931Z</time></trkpt><trkpt lat="42.37574618586186" lon="14.178202287890572"><ele>275.0</ele><time>2026-03-30T09:39:56.931Z</time></trkpt><trkpt lat="42.37562820101996" lon="14.178045301067606"><ele>273.33333333333337</ele><time>2026-03-30T09:39:57.931Z</time></trkpt><trkpt lat="42.37550590846179" lon="14.17787727404496"><ele>271.6666666666667</ele><time>2026-03-30T09:39:58.931Z</time></trkpt><trkpt lat="42.37536490190248" lon="14.177711241320027"><ele>270.0</ele><time>2026-03-30T09:39:59.931Z</time></trkpt><trkpt lat="42.37524796127235" lon="14.177569704657516"><ele>270.0</ele><time>2026-03-30T09:40:00.931Z</time></trkpt><trkpt lat="42.37515784208429" lon="14.17743853374546"><ele>270.0</ele><time>2026-03-30T09:40:01.931Z</time></trkpt><trkpt lat="42.375083294571496" lon="14.177302307895975"><ele>270.0</ele><time>2026-03-30T09:40:02.931Z</time></trkpt><trkpt lat="42.375033582161215" lon="14.177170826954113"><ele>270.0</ele><time>2026-03-30T09:40:03.931Z</time></trkpt><trkpt lat="42.37500356023798" lon="14.177068556321176"><ele>270.0</ele><time>2026-03-30T09:40:04.931Z</time></trkpt><trkpt lat="42.374971606957196" lon="14.176940444011915"><ele>271.0</ele><time>2026-03-30T09:40:06.931Z</time></trkpt><trkpt lat="42.37493736011716" lon="14.176809750971607"><ele>272.0</ele><time>2026-03-30T09:40:08.931Z</time></trkpt><trkpt lat="42.374763930759684" lon="14.176943647243252"><ele>273.0</ele><time>2026-03-30T09:40:09.931Z</time></trkpt><trkpt lat="42.374646187409425" lon="14.176916663376232"><ele>274.0</ele><time>2026-03-30T09:40:10.931Z</time></trkpt><trkpt lat="42.374549054091595" lon="14.176863547941931"><ele>274.75</ele><time>2026-03-30T09:40:11.931Z</time></trkpt><trkpt lat="42.374438901788984" lon="14.176828184884773"><ele>275.5</ele><time>2026-03-30T09:40:12.931Z</time></trkpt><trkpt lat="42.374348870817826" lon="14.176721863132991"><ele>276.25</ele><time>2026-03-30T09:40:13.931Z</time></trkpt><trkpt lat="42.37424526393059" lon="14.176648124598248"><ele>277.0</ele><time>2026-03-30T09:40:14.931Z</time></trkpt><trkpt lat="42.374152970078704" lon="14.17654371524372"><ele>278.0</ele><time>2026-03-30T09:40:15.931Z</time></trkpt><trkpt lat="42.37404651341212" lon="14.176442984219443"><ele>279.0</ele><time>2026-03-30T09:40:16.931Z</time></trkpt><trkpt lat="42.37393744127588" lon="14.176350727948225"><ele>280.0</ele><time>2026-03-30T09:40:17.931Z</time></trkpt><trkpt lat="42.37381599494474" lon="14.176261560348589"><ele>281.0</ele><time>2026-03-30T09:40:18.931Z</time></trkpt><trkpt lat="42.37368855204802" lon="14.176181445264408"><ele>281.0</ele><time>2026-03-30T09:40:19.931Z</time></trkpt><trkpt lat="42.373557708889095" lon="14.176105770759525"><ele>281.0</ele><time>2026-03-30T09:40:20.931Z</time></trkpt><trkpt lat="42.37342745225759" lon="14.176035304532368"><ele>281.0</ele><time>2026-03-30T09:40:21.931Z</time></trkpt><trkpt lat="42.37329115663949" lon="14.175975369152598"><ele>281.0</ele><time>2026-03-30T09:40:22.931Z</time></trkpt><trkpt lat="42.373159638466994" lon="14.175924213570685"><ele>282.0</ele><time>2026-03-30T09:40:23.931Z</time></trkpt><trkpt lat="42.37301978691362" lon="14.175871409950194"><ele>283.0</ele><time>2026-03-30T09:40:24.931Z</time></trkpt><trkpt lat="42.37287971740665" lon="14.175818454964006"><ele>284.0</ele><time>2026-03-30T09:40:25.931Z</time></trkpt><trkpt lat="42.37274235471132" lon="14.17576273293214"><ele>285.0</ele><time>2026-03-30T09:40:26.931Z</time></trkpt><trkpt lat="42.37260386375467" lon="14.175701642368685"><ele>286.25</ele><time>2026-03-30T09:40:27.931Z</time></trkpt><trkpt lat="42.372469308374974" lon="14.175651535238023"><ele>287.5</ele><time>2026-03-30T09:40:28.931Z</time></trkpt><trkpt lat="42.372333027081574" lon="14.17561937654789"><ele>288.75</ele><time>2026-03-30T09:40:29.931Z</time></trkpt><trkpt lat="42.37220850309215" lon="14.175612377123043"><ele>290.0</ele><time>2026-03-30T09:40:30.931Z</time></trkpt><trkpt lat="42.37207978679703" lon="14.17563758787719"><ele>290.25</ele><time>2026-03-30T09:40:31.931Z</time></trkpt><trkpt lat="42.37196295751798" lon="14.175689157323761"><ele>290.5</ele><time>2026-03-30T09:40:32.931Z</time></trkpt><trkpt lat="42.37187768670717" lon="14.175811461967038"><ele>290.75</ele><time>2026-03-30T09:40:33.931Z</time></trkpt><trkpt lat="42.37179772626073" lon="14.175946702885302"><ele>291.0</ele><time>2026-03-30T09:40:34.931Z</time></trkpt><trkpt lat="42.37171598585029" lon="14.176098379371746"><ele>291.0</ele><time>2026-03-30T09:40:35.931Z</time></trkpt><trkpt lat="42.37163553002627" lon="14.17625848713727"><ele>291.0</ele><time>2026-03-30T09:40:36.931Z</time></trkpt><trkpt lat="42.371550208303496" lon="14.176421046859224"><ele>291.0</ele><time>2026-03-30T09:40:37.931Z</time></trkpt><trkpt lat="42.371452957829" lon="14.176587427137044"><ele>291.0</ele><time>2026-03-30T09:40:38.931Z</time></trkpt><trkpt lat="42.371354733120285" lon="14.176759074148249"><ele>292.5</ele><time>2026-03-30T09:40:39.931Z</time></trkpt><trkpt lat="42.37126984031479" lon="14.17691900890701"><ele>294.0</ele><time>2026-03-30T09:40:40.931Z</time></trkpt><trkpt lat="42.37117967995825" lon="14.177073373435864"><ele>295.5</ele><time>2026-03-30T09:40:41.931Z</time></trkpt><trkpt lat="42.37108103698204" lon="14.17720521804258"><ele>297.0</ele><time>2026-03-30T09:40:42.931Z</time></trkpt><trkpt lat="42.37100126184732" lon="14.177338746250387"><ele>296.8</ele><time>2026-03-30T09:40:43.931Z</time></trkpt><trkpt lat="42.37092580961456" lon="14.177465039719245"><ele>296.6</ele><time>2026-03-30T09:40:44.931Z</time></trkpt><trkpt lat="42.37085636204245" lon="14.177580451626303"><ele>296.40000000000003</ele><time>2026-03-30T09:40:45.931Z</time></trkpt><trkpt lat="42.37078173688331" lon="14.177686850270105"><ele>296.2</ele><time>2026-03-30T09:40:46.931Z</time></trkpt><trkpt lat="42.370720607400294" lon="14.177783135346804"><ele>296.0</ele><time>2026-03-30T09:40:47.931Z</time></trkpt><trkpt lat="42.37068516883047" lon="14.177863301380505"><ele>296.0</ele><time>2026-03-30T09:40:48.931Z</time></trkpt><trkpt lat="42.37062539108009" lon="14.177978707917038"><ele>296.0</ele><time>2026-03-30T09:40:50.931Z</time></trkpt><trkpt lat="42.37056930721843" lon="14.178031407268143"><ele>296.0</ele><time>2026-03-30T09:41:25.927Z</time></trkpt><trkpt lat="42.37064401839018" lon="14.177945960568351"><ele>296.0</ele><time>2026-03-30T09:43:29.926Z</time></trkpt><trkpt lat="42.37073101086482" lon="14.177831535768995"><ele>296.0</ele><time>2026-03-30T09:43:31.927Z</time></trkpt><trkpt lat="42.37079888825235" lon="14.177713971527234"><ele>296.0</ele><time>2026-03-30T09:43:33.926Z</time></trkpt><trkpt lat="42.37088040012075" lon="14.17757628489079"><ele>296.0</ele><time>2026-03-30T09:43:35.926Z</time></trkpt><trkpt lat="42.3709290787741" lon="14.177501180651939"><ele>296.0</ele><time>2026-03-30T09:43:36.926Z</time></trkpt><trkpt lat="42.37098423880243" lon="14.177412513037622"><ele>296.0</ele><time>2026-03-30T09:43:37.926Z</time></trkpt><trkpt lat="42.37103992344376" lon="14.177323462135323"><ele>296.0</ele><time>2026-03-30T09:43:38.926Z</time></trkpt><trkpt lat="42.371090817894284" lon="14.177231695586737"><ele>296.1666666666667</ele><time>2026-03-30T09:43:39.926Z</time></trkpt><trkpt lat="42.37113865408502" lon="14.177136187711081"><ele>296.33333333333337</ele><time>2026-03-30T09:43:40.926Z</time></trkpt><trkpt lat="42.37118260169282" lon="14.177053809255796"><ele>296.5</ele><time>2026-03-30T09:43:41.926Z</time></trkpt><trkpt lat="42.37122591600492" lon="14.176984214833105"><ele>296.6666666666667</ele><time>2026-03-30T09:43:42.926Z</time></trkpt><trkpt lat="42.37126159256955" lon="14.176911725155742"><ele>296.8333333333333</ele><time>2026-03-30T09:43:43.926Z</time></trkpt><trkpt lat="42.37127980475255" lon="14.176744018711906"><ele>297.0</ele><time>2026-03-30T09:43:45.926Z</time></trkpt><trkpt lat="42.371254747895065" lon="14.176657790928106"><ele>297.0</ele><time>2026-03-30T09:43:46.926Z</time></trkpt><trkpt lat="42.37120950843147" lon="14.176572598377538"><ele>297.0</ele><time>2026-03-30T09:43:47.926Z</time></trkpt><trkpt lat="42.37115363497346" lon="14.17653320865077"><ele>297.0</ele><time>2026-03-30T09:43:48.926Z</time></trkpt><trkpt lat="42.371036930722894" lon="14.176527170533051"><ele>297.0</ele><time>2026-03-30T09:43:50.926Z</time></trkpt><trkpt lat="42.37097600177804" lon="14.176582498866988"><ele>297.0</ele><time>2026-03-30T09:43:51.926Z</time></trkpt><trkpt lat="42.370910834478934" lon="14.176655676805032"><ele>297.0</ele><time>2026-03-30T09:43:52.926Z</time></trkpt><trkpt lat="42.37085508833176" lon="14.176734899507531"><ele>297.0</ele><time>2026-03-30T09:43:53.926Z</time></trkpt><trkpt lat="42.37079052421569" lon="14.17679339529874"><ele>297.0</ele><time>2026-03-30T09:43:54.926Z</time></trkpt><trkpt lat="42.37071850667014" lon="14.17679909302298"><ele>297.0</ele><time>2026-03-30T09:43:55.926Z</time></trkpt><trkpt lat="42.37063556493572" lon="14.176768419939034"><ele>297.0</ele><time>2026-03-30T09:43:56.926Z</time></trkpt><trkpt lat="42.370558372445956" lon="14.176730426832332"><ele>297.0</ele><time>2026-03-30T09:43:57.926Z</time></trkpt><trkpt lat="42.370494870904054" lon="14.176705348536236"><ele>297.0</ele><time>2026-03-30T09:43:58.926Z</time></trkpt><trkpt lat="42.3704319546746" lon="14.176677387472747"><ele>296.2</ele><time>2026-03-30T09:43:59.926Z</time></trkpt><trkpt lat="42.37036438368456" lon="14.17666220062737"><ele>295.4</ele><time>2026-03-30T09:44:00.926Z</time></trkpt><trkpt lat="42.37024999327498" lon="14.176570506678416"><ele>294.6</ele><time>2026-03-30T09:44:02.926Z</time></trkpt><trkpt lat="42.37019991616752" lon="14.17649538687139"><ele>293.8</ele><time>2026-03-30T09:44:03.926Z</time></trkpt><trkpt lat="42.37016164116767" lon="14.176414861268244"><ele>293.0</ele><time>2026-03-30T09:44:04.926Z</time></trkpt><trkpt lat="42.370117691492375" lon="14.176277875838519"><ele>293.0</ele><time>2026-03-30T09:44:06.926Z</time></trkpt><trkpt lat="42.37011140930454" lon="14.17619124787843"><ele>293.0</ele><time>2026-03-30T09:44:07.926Z</time></trkpt><trkpt lat="42.37009557931871" lon="14.176035250748559"><ele>293.0</ele><time>2026-03-30T09:44:09.926Z</time></trkpt><trkpt lat="42.37009055326008" lon="14.175915098079045"><ele>293.0</ele><time>2026-03-30T09:44:11.926Z</time></trkpt><trkpt lat="42.37007471830026" lon="14.175794489651917"><ele>293.0</ele><time>2026-03-30T09:44:13.926Z</time></trkpt><trkpt lat="42.37006732897116" lon="14.17565744944114"><ele>292.99999999999994</ele><time>2026-03-30T09:44:15.926Z</time></trkpt><trkpt lat="42.370053660652516" lon="14.175566439931437"><ele>293.0</ele><time>2026-03-30T09:44:17.926Z</time></trkpt><trkpt lat="42.36997734967155" lon="14.175565534393558"><ele>293.0</ele><time>2026-03-30T09:44:21.926Z</time></trkpt><trkpt lat="42.36992481040065" lon="14.175614844742952"><ele>293.0</ele><time>2026-03-30T09:44:25.926Z</time></trkpt><trkpt lat="42.369910070530715" lon="14.175700903013063"><ele>293.0</ele><time>2026-03-30T09:44:28.926Z</time></trkpt><trkpt lat="42.369909336689076" lon="14.175816778166894"><ele>292.99999999999994</ele><time>2026-03-30T09:44:31.926Z</time></trkpt><trkpt lat="42.369921266202375" lon="14.17590888433964"><ele>293.0</ele><time>2026-03-30T09:44:34.926Z</time></trkpt><trkpt lat="42.36992293188568" lon="14.175995555051513"><ele>292.99999999999994</ele><time>2026-03-30T09:44:45.927Z</time></trkpt><trkpt lat="42.36995652208185" lon="14.176084491318033"><ele>293.0</ele><time>2026-03-30T09:49:10.956Z</time></trkpt><trkpt lat="42.36999853300268" lon="14.176151126064227"><ele>293.0</ele><time>2026-03-30T09:49:11.956Z</time></trkpt><trkpt lat="42.370033106173146" lon="14.17622736183474"><ele>293.0</ele><time>2026-03-30T09:49:12.956Z</time></trkpt><trkpt lat="42.370068336810476" lon="14.176313024916958"><ele>293.0</ele><time>2026-03-30T09:49:13.956Z</time></trkpt><trkpt lat="42.37010513702891" lon="14.176399430620156"><ele>292.99999999999994</ele><time>2026-03-30T09:49:14.957Z</time></trkpt><trkpt lat="42.37013926405636" lon="14.176487884382219"><ele>293.0</ele><time>2026-03-30T09:49:15.957Z</time></trkpt><trkpt lat="42.370179103695826" lon="14.176566793494489"><ele>293.0</ele><time>2026-03-30T09:49:16.957Z</time></trkpt><trkpt lat="42.37028632755655" lon="14.176654271896144"><ele>293.0</ele><time>2026-03-30T09:49:18.957Z</time></trkpt><trkpt lat="42.37035547259409" lon="14.176668349517564"><ele>293.0</ele><time>2026-03-30T09:49:19.957Z</time></trkpt><trkpt lat="42.37042765917578" lon="14.1766816985428"><ele>293.0</ele><time>2026-03-30T09:49:20.957Z</time></trkpt><trkpt lat="42.37049074942267" lon="14.176693814525352"><ele>293.0</ele><time>2026-03-30T09:49:21.957Z</time></trkpt><trkpt lat="42.3705924707564" lon="14.176728417526036"><ele>293.0</ele><time>2026-03-30T09:49:23.957Z</time></trkpt><trkpt lat="42.37071493387004" lon="14.176736408221661"><ele>293.6666666666667</ele><time>2026-03-30T09:49:25.957Z</time></trkpt><trkpt lat="42.37078243832063" lon="14.176727827920391"><ele>294.33333333333337</ele><time>2026-03-30T09:49:26.957Z</time></trkpt><trkpt lat="42.370847002908974" lon="14.176716806357321"><ele>295.0</ele><time>2026-03-30T09:49:27.957Z</time></trkpt><trkpt lat="42.37095659277627" lon="14.176646651066763"><ele>295.6666666666667</ele><time>2026-03-30T09:49:29.957Z</time></trkpt><trkpt lat="42.37100296254218" lon="14.176582536674127"><ele>296.3333333333333</ele><time>2026-03-30T09:49:30.957Z</time></trkpt><trkpt lat="42.371084647356746" lon="14.176512511729262"><ele>297.0</ele><time>2026-03-30T09:49:32.957Z</time></trkpt><trkpt lat="42.37117287528768" lon="14.176588008769777"><ele>297.0</ele><time>2026-03-30T09:49:34.957Z</time></trkpt><trkpt lat="42.371261340307484" lon="14.176593827831292"><ele>297.0</ele><time>2026-03-30T09:49:36.957Z</time></trkpt><trkpt lat="42.371313975285574" lon="14.176496856510958"><ele>297.0</ele><time>2026-03-30T09:49:39.957Z</time></trkpt><trkpt lat="42.37129242390342" lon="14.176344436826286"><ele>297.0</ele><time>2026-03-30T09:49:41.955Z</time></trkpt><trkpt lat="42.37128605878359" lon="14.17625078624431"><ele>297.0</ele><time>2026-03-30T09:49:42.955Z</time></trkpt><trkpt lat="42.37127595536958" lon="14.176120636479054"><ele>296.8</ele><time>2026-03-30T09:49:43.954Z</time></trkpt><trkpt lat="42.37126690520807" lon="14.175976478578006"><ele>296.6</ele><time>2026-03-30T09:49:44.954Z</time></trkpt><trkpt lat="42.37124887721105" lon="14.175853166269109"><ele>296.40000000000003</ele><time>2026-03-30T09:49:45.954Z</time></trkpt><trkpt lat="42.37123933429679" lon="14.175749300996173"><ele>296.2</ele><time>2026-03-30T09:49:46.954Z</time></trkpt><trkpt lat="42.37122689783099" lon="14.175641401395403"><ele>296.0</ele><time>2026-03-30T09:49:47.955Z</time></trkpt><trkpt lat="42.37120330222115" lon="14.17551691662788"><ele>296.0</ele><time>2026-03-30T09:49:48.955Z</time></trkpt><trkpt lat="42.371169707260165" lon="14.175394874430015"><ele>296.0</ele><time>2026-03-30T09:49:49.955Z</time></trkpt><trkpt lat="42.37112948849335" lon="14.175280712634043"><ele>296.0</ele><time>2026-03-30T09:49:50.954Z</time></trkpt><trkpt lat="42.37106877057468" lon="14.17517606356363"><ele>296.0</ele><time>2026-03-30T09:49:51.954Z</time></trkpt><trkpt lat="42.37101438186146" lon="14.175075048999316"><ele>296.0</ele><time>2026-03-30T09:49:52.955Z</time></trkpt><trkpt lat="42.37096585603329" lon="14.174960861997466"><ele>296.0</ele><time>2026-03-30T09:49:53.954Z</time></trkpt><trkpt lat="42.37091910187382" lon="14.17485658538286"><ele>296.0</ele><time>2026-03-30T09:49:54.954Z</time></trkpt><trkpt lat="42.37087817190599" lon="14.174767078397032"><ele>296.0</ele><time>2026-03-30T09:49:55.954Z</time></trkpt><trkpt lat="42.370852387491155" lon="14.174675986915595"><ele>296.0</ele><time>2026-03-30T09:49:56.954Z</time></trkpt><trkpt lat="42.370833886798366" lon="14.174590519824399"><ele>296.0</ele><time>2026-03-30T09:49:57.954Z</time></trkpt><trkpt lat="42.37079040384297" lon="14.174456389286917"><ele>296.0</ele><time>2026-03-30T09:49:59.955Z</time></trkpt><trkpt lat="42.37072092601622" lon="14.17437369758691"><ele>296.0</ele><time>2026-03-30T09:50:01.955Z</time></trkpt><trkpt lat="42.37065495985372" lon="14.174321351669505"><ele>296.0</ele><time>2026-03-30T09:50:02.955Z</time></trkpt><trkpt lat="42.37055137535253" lon="14.174276099424137"><ele>296.0</ele><time>2026-03-30T09:50:04.955Z</time></trkpt><trkpt lat="42.37045503232168" lon="14.174260379669454"><ele>296.0</ele><time>2026-03-30T09:50:07.955Z</time></trkpt><trkpt lat="42.3703945903466" lon="14.174223275576093"><ele>296.0</ele><time>2026-03-30T09:50:08.955Z</time></trkpt><trkpt lat="42.37032170381898" lon="14.174172634579152"><ele>296.0</ele><time>2026-03-30T09:50:09.955Z</time></trkpt><trkpt lat="42.37024021704485" lon="14.174128681520436"><ele>294.5</ele><time>2026-03-30T09:50:10.955Z</time></trkpt><trkpt lat="42.37014568670615" lon="14.17407974870742"><ele>293.0</ele><time>2026-03-30T09:50:11.955Z</time></trkpt><trkpt lat="42.37006435172976" lon="14.17404115619604"><ele>291.5</ele><time>2026-03-30T09:50:12.955Z</time></trkpt><trkpt lat="42.369985987194624" lon="14.174006470655081"><ele>290.0</ele><time>2026-03-30T09:50:13.955Z</time></trkpt><trkpt lat="42.3699060107313" lon="14.173977137955404"><ele>288.5</ele><time>2026-03-30T09:50:14.955Z</time></trkpt><trkpt lat="42.369824258338994" lon="14.17395869106629"><ele>287.0</ele><time>2026-03-30T09:50:15.955Z</time></trkpt><trkpt lat="42.36974080508286" lon="14.173933260195588"><ele>283.6666666666667</ele><time>2026-03-30T09:50:16.955Z</time></trkpt><trkpt lat="42.36964552542981" lon="14.173912691800933"><ele>280.33333333333337</ele><time>2026-03-30T09:50:17.955Z</time></trkpt><trkpt lat="42.369556226982894" lon="14.173878080114847"><ele>277.0</ele><time>2026-03-30T09:50:18.955Z</time></trkpt><trkpt lat="42.36947819701014" lon="14.173851628471668"><ele>273.6666666666667</ele><time>2026-03-30T09:50:19.955Z</time></trkpt><trkpt lat="42.36939783530653" lon="14.173833160706868"><ele>270.3333333333333</ele><time>2026-03-30T09:50:20.955Z</time></trkpt><trkpt lat="42.369315394034686" lon="14.173801107089256"><ele>267.0</ele><time>2026-03-30T09:50:21.955Z</time></trkpt><trkpt lat="42.36923617880945" lon="14.17377644734654"><ele>267.0</ele><time>2026-03-30T09:50:22.955Z</time></trkpt><trkpt lat="42.36914883521817" lon="14.173771020163617"><ele>267.0</ele><time>2026-03-30T09:50:23.955Z</time></trkpt><trkpt lat="42.36906134538078" lon="14.17379261042491"><ele>267.0</ele><time>2026-03-30T09:50:24.955Z</time></trkpt><trkpt lat="42.36898761031463" lon="14.173848997112332"><ele>267.0</ele><time>2026-03-30T09:50:25.955Z</time></trkpt><trkpt lat="42.36891959758631" lon="14.173914327375499"><ele>267.0</ele><time>2026-03-30T09:50:26.955Z</time></trkpt><trkpt lat="42.36884976694985" lon="14.173954289333219"><ele>267.0</ele><time>2026-03-30T09:50:27.955Z</time></trkpt><trkpt lat="42.36877856871502" lon="14.173958751701914"><ele>264.4</ele><time>2026-03-30T09:50:28.955Z</time></trkpt><trkpt lat="42.36869007697163" lon="14.173907436729339"><ele>261.79999999999995</ele><time>2026-03-30T09:50:30.955Z</time></trkpt><trkpt lat="42.36864743814466" lon="14.173831222601072"><ele>259.2</ele><time>2026-03-30T09:50:31.955Z</time></trkpt><trkpt lat="42.3686141344253" lon="14.173754538916638"><ele>256.59999999999997</ele><time>2026-03-30T09:50:32.955Z</time></trkpt><trkpt lat="42.36854927020504" lon="14.173635862833269"><ele>254.0</ele><time>2026-03-30T09:50:34.955Z</time></trkpt><trkpt lat="42.36843161034329" lon="14.173621266394512"><ele>254.00000000000003</ele><time>2026-03-30T09:50:36.955Z</time></trkpt><trkpt lat="42.36835911445293" lon="14.173653350808411"><ele>254.0</ele><time>2026-03-30T09:50:37.955Z</time></trkpt><trkpt lat="42.36830185670111" lon="14.173708302424457"><ele>254.0</ele><time>2026-03-30T09:50:38.955Z</time></trkpt><trkpt lat="42.368262379539935" lon="14.173776647974297"><ele>254.0</ele><time>2026-03-30T09:50:39.955Z</time></trkpt><trkpt lat="42.368253424571236" lon="14.173874695588603"><ele>254.00000000000003</ele><time>2026-03-30T09:50:40.955Z</time></trkpt><trkpt lat="42.36831735373749" lon="14.174022400996554"><ele>254.0</ele><time>2026-03-30T09:50:42.955Z</time></trkpt><trkpt lat="42.368374126493876" lon="14.174096105171039"><ele>255.16666666666669</ele><time>2026-03-30T09:50:43.955Z</time></trkpt><trkpt lat="42.36841765295842" lon="14.174162261667414"><ele>256.33333333333337</ele><time>2026-03-30T09:50:44.955Z</time></trkpt><trkpt lat="42.36847565932493" lon="14.174229193261713"><ele>257.5</ele><time>2026-03-30T09:50:45.955Z</time></trkpt><trkpt lat="42.368577214843995" lon="14.174318506430733"><ele>258.6666666666667</ele><time>2026-03-30T09:50:47.955Z</time></trkpt><trkpt lat="42.36863885765841" lon="14.17441521996054"><ele>259.8333333333333</ele><time>2026-03-30T09:50:49.955Z</time></trkpt><trkpt lat="42.36861891396112" lon="14.174504549560366"><ele>261.0</ele><time>2026-03-30T09:50:51.955Z</time></trkpt><trkpt lat="42.368552057422995" lon="14.174505910674167"><ele>261.0</ele><time>2026-03-30T09:50:53.955Z</time></trkpt><trkpt lat="42.36846937779783" lon="14.174455560379219"><ele>261.0</ele><time>2026-03-30T09:50:55.956Z</time></trkpt><trkpt lat="42.36840206517506" lon="14.174421540682726"><ele>261.0</ele><time>2026-03-30T09:50:57.956Z</time></trkpt><trkpt lat="42.3683407394493" lon="14.174379114231034"><ele>261.0</ele><time>2026-03-30T09:50:59.956Z</time></trkpt><trkpt lat="42.368268003688016" lon="14.174279743157784"><ele>261.0</ele><time>2026-03-30T09:51:01.956Z</time></trkpt><trkpt lat="42.368212646556344" lon="14.17419337545678"><ele>261.0</ele><time>2026-03-30T09:51:02.956Z</time></trkpt><trkpt lat="42.36816102460164" lon="14.174119417221371"><ele>261.0</ele><time>2026-03-30T09:51:03.956Z</time></trkpt><trkpt lat="42.3681166112356" lon="14.174039408126248"><ele>261.0</ele><time>2026-03-30T09:51:04.956Z</time></trkpt><trkpt lat="42.36805588846336" lon="14.173938223451321"><ele>261.0</ele><time>2026-03-30T09:51:06.956Z</time></trkpt><trkpt lat="42.368016682840945" lon="14.173865096076982"><ele>261.0</ele><time>2026-03-30T09:51:09.956Z</time></trkpt><trkpt lat="42.367939624670015" lon="14.173842015899774"><ele>261.0</ele><time>2026-03-30T09:51:11.956Z</time></trkpt><trkpt lat="42.36787542848426" lon="14.173806091535267"><ele>261.0</ele><time>2026-03-30T09:51:12.956Z</time></trkpt><trkpt lat="42.367804321838776" lon="14.173766742149079"><ele>257.0</ele><time>2026-03-30T09:51:13.956Z</time></trkpt><trkpt lat="42.367751167206634" lon="14.173718513901997"><ele>253.0</ele><time>2026-03-30T09:51:14.956Z</time></trkpt><trkpt lat="42.3676901583823" lon="14.173674699479818"><ele>249.0</ele><time>2026-03-30T09:51:15.956Z</time></trkpt><trkpt lat="42.36763015152418" lon="14.173633566439557"><ele>245.0</ele><time>2026-03-30T09:51:16.956Z</time></trkpt><trkpt lat="42.36755784659075" lon="14.173577226922362"><ele>241.0</ele><time>2026-03-30T09:51:17.956Z</time></trkpt><trkpt lat="42.3674770485298" lon="14.173517247557447"><ele>237.0</ele><time>2026-03-30T09:51:18.956Z</time></trkpt><trkpt lat="42.36740205089547" lon="14.173461037054052"><ele>237.0</ele><time>2026-03-30T09:51:19.956Z</time></trkpt><trkpt lat="42.36733947248634" lon="14.173415554617026"><ele>237.0</ele><time>2026-03-30T09:51:20.956Z</time></trkpt><trkpt lat="42.36728354706205" lon="14.17336330689835"><ele>237.0</ele><time>2026-03-30T09:51:21.956Z</time></trkpt><trkpt lat="42.36723456032371" lon="14.173308975799632"><ele>237.0</ele><time>2026-03-30T09:51:22.956Z</time></trkpt><trkpt lat="42.367140716298195" lon="14.173195338506856"><ele>237.0</ele><time>2026-03-30T09:51:24.956Z</time></trkpt><trkpt lat="42.36707228638471" lon="14.173166754980345"><ele>237.0</ele><time>2026-03-30T09:51:25.956Z</time></trkpt><trkpt lat="42.367006672667706" lon="14.173142672597868"><ele>233.66666666666666</ele><time>2026-03-30T09:51:26.956Z</time></trkpt><trkpt lat="42.36693340112289" lon="14.173115007508704"><ele>230.33333333333331</ele><time>2026-03-30T09:51:27.956Z</time></trkpt><trkpt lat="42.36686475179508" lon="14.17309813956767"><ele>227.0</ele><time>2026-03-30T09:51:28.956Z</time></trkpt><trkpt lat="42.3667899210743" lon="14.173079960197805"><ele>223.66666666666666</ele><time>2026-03-30T09:51:29.956Z</time></trkpt><trkpt lat="42.366716013536994" lon="14.17305223161377"><ele>220.33333333333331</ele><time>2026-03-30T09:51:30.956Z</time></trkpt><trkpt lat="42.36664410768953" lon="14.173025138004238"><ele>217.0</ele><time>2026-03-30T09:51:31.956Z</time></trkpt><trkpt lat="42.366566950726316" lon="14.173003377705983"><ele>216.99999999999997</ele><time>2026-03-30T09:51:32.956Z</time></trkpt><trkpt lat="42.36648767072607" lon="14.172979723836654"><ele>217.0</ele><time>2026-03-30T09:51:33.956Z</time></trkpt><trkpt lat="42.366427024334236" lon="14.172953837443744"><ele>217.0</ele><time>2026-03-30T09:51:34.956Z</time></trkpt><trkpt lat="42.36636424016927" lon="14.172943045131037"><ele>217.0</ele><time>2026-03-30T09:51:35.956Z</time></trkpt><trkpt lat="42.366270940138115" lon="14.172935722772376"><ele>216.99999999999997</ele><time>2026-03-30T09:51:37.956Z</time></trkpt><trkpt lat="42.36620317412059" lon="14.172825291020692"><ele>217.0</ele><time>2026-03-30T09:51:40.956Z</time></trkpt><trkpt lat="42.36608813415436" lon="14.172737744846508"><ele>215.33333333333331</ele><time>2026-03-30T09:51:42.956Z</time></trkpt><trkpt lat="42.366007503936544" lon="14.1726788887343"><ele>213.66666666666666</ele><time>2026-03-30T09:51:44.956Z</time></trkpt><trkpt lat="42.36593387144372" lon="14.172602182009744"><ele>212.0</ele><time>2026-03-30T09:51:46.955Z</time></trkpt><trkpt lat="42.36586241446286" lon="14.172549480888362"><ele>210.33333333333331</ele><time>2026-03-30T09:51:48.955Z</time></trkpt><trkpt lat="42.365762874274886" lon="14.172478196382235"><ele>208.66666666666666</ele><time>2026-03-30T09:51:50.954Z</time></trkpt><trkpt lat="42.36571173556027" lon="14.172420025171993"><ele>207.0</ele><time>2026-03-30T09:51:51.954Z</time></trkpt><trkpt lat="42.36564321079767" lon="14.172372455055143"><ele>205.66666666666666</ele><time>2026-03-30T09:51:52.955Z</time></trkpt><trkpt lat="42.36558768647136" lon="14.172329606134872"><ele>204.33333333333331</ele><time>2026-03-30T09:51:53.954Z</time></trkpt><trkpt lat="42.3654935558259" lon="14.172233778647811"><ele>203.0</ele><time>2026-03-30T09:51:55.955Z</time></trkpt><trkpt lat="42.36543364772357" lon="14.172186026505617"><ele>201.66666666666666</ele><time>2026-03-30T09:51:56.954Z</time></trkpt><trkpt lat="42.365371692790895" lon="14.172138138060463"><ele>200.33333333333331</ele><time>2026-03-30T09:51:57.954Z</time></trkpt><trkpt lat="42.365272442336064" lon="14.1720659671273"><ele>199.0</ele><time>2026-03-30T09:51:59.955Z</time></trkpt><trkpt lat="42.36516983957005" lon="14.172032637754478"><ele>197.66666666666666</ele><time>2026-03-30T09:52:01.955Z</time></trkpt><trkpt lat="42.36506617617735" lon="14.171985037235668"><ele>196.33333333333331</ele><time>2026-03-30T09:52:03.955Z</time></trkpt><trkpt lat="42.364961635402544" lon="14.1719305813287"><ele>195.0</ele><time>2026-03-30T09:52:05.956Z</time></trkpt><trkpt lat="42.36487828177282" lon="14.171905301759145"><ele>193.66666666666666</ele><time>2026-03-30T09:52:07.956Z</time></trkpt><trkpt lat="42.36482528841689" lon="14.171834248993294"><ele>192.33333333333331</ele><time>2026-03-30T09:52:09.956Z</time></trkpt><trkpt lat="42.364808980321115" lon="14.171745469316797"><ele>191.0</ele><time>2026-03-30T09:52:11.956Z</time></trkpt><trkpt lat="42.36481695492342" lon="14.171643406783415"><ele>190.60000000000002</ele><time>2026-03-30T09:52:13.956Z</time></trkpt><trkpt lat="42.36480604243623" lon="14.171505620423616"><ele>190.2</ele><time>2026-03-30T09:52:15.956Z</time></trkpt><trkpt lat="42.36480932109143" lon="14.171398445450134"><ele>189.8</ele><time>2026-03-30T09:52:17.956Z</time></trkpt><trkpt lat="42.36480142479427" lon="14.171286983233337"><ele>189.39999999999998</ele><time>2026-03-30T09:52:24.956Z</time></trkpt><trkpt lat="42.36483205969858" lon="14.171181723299483"><ele>189.0</ele><time>2026-03-30T09:52:26.956Z</time></trkpt><trkpt lat="42.36480617826795" lon="14.171045098756196"><ele>189.0</ele><time>2026-03-30T09:52:28.956Z</time></trkpt><trkpt lat="42.36474750080867" lon="14.171090202603745"><ele>189.0</ele><time>2026-03-30T09:52:30.956Z</time></trkpt><trkpt lat="42.36477774850129" lon="14.171216168262797"><ele>189.0</ele><time>2026-03-30T09:52:32.956Z</time></trkpt><trkpt lat="42.36480774572383" lon="14.17130890597747"><ele>189.0</ele><time>2026-03-30T09:52:33.956Z</time></trkpt><trkpt lat="42.36482371514614" lon="14.171472158452113"><ele>189.0</ele><time>2026-03-30T09:52:35.956Z</time></trkpt><trkpt lat="42.36481227499032" lon="14.171632585966755"><ele>189.33333333333334</ele><time>2026-03-30T09:52:37.956Z</time></trkpt><trkpt lat="42.36479299454836" lon="14.171772235671524"><ele>189.66666666666666</ele><time>2026-03-30T09:52:39.956Z</time></trkpt><trkpt lat="42.36483230999598" lon="14.171847719438981"><ele>190.0</ele><time>2026-03-30T09:52:40.956Z</time></trkpt><trkpt lat="42.364890226137554" lon="14.171887634851165"><ele>190.33333333333331</ele><time>2026-03-30T09:52:41.956Z</time></trkpt><trkpt lat="42.3649629451464" lon="14.171897236706574"><ele>190.66666666666666</ele><time>2026-03-30T09:52:42.956Z</time></trkpt><trkpt lat="42.365056270032184" lon="14.171908574047604"><ele>191.0</ele><time>2026-03-30T09:52:43.956Z</time></trkpt><trkpt lat="42.36514440637265" lon="14.17195445344645"><ele>191.0</ele><time>2026-03-30T09:52:44.956Z</time></trkpt><trkpt lat="42.36525629650838" lon="14.172015994156698"><ele>191.0</ele><time>2026-03-30T09:52:45.956Z</time></trkpt><trkpt lat="42.36536955552333" lon="14.172071817147776"><ele>191.0</ele><time>2026-03-30T09:52:46.956Z</time></trkpt><trkpt lat="42.36547331310953" lon="14.172144696471712"><ele>191.0</ele><time>2026-03-30T09:52:47.956Z</time></trkpt><trkpt lat="42.365554411420376" lon="14.17224073209074"><ele>192.33333333333331</ele><time>2026-03-30T09:52:48.956Z</time></trkpt><trkpt lat="42.36564121504298" lon="14.17230494609007"><ele>193.66666666666666</ele><time>2026-03-30T09:52:49.956Z</time></trkpt><trkpt lat="42.36570639879994" lon="14.172367862297346"><ele>195.0</ele><time>2026-03-30T09:52:50.956Z</time></trkpt><trkpt lat="42.36577733499969" lon="14.172418909605758"><ele>196.33333333333331</ele><time>2026-03-30T09:52:51.956Z</time></trkpt><trkpt lat="42.365868826091976" lon="14.17251226641373"><ele>197.66666666666666</ele><time>2026-03-30T09:52:53.956Z</time></trkpt><trkpt lat="42.36593568446234" lon="14.172540127883071"><ele>199.0</ele><time>2026-03-30T09:52:54.956Z</time></trkpt><trkpt lat="42.3659947012792" lon="14.17258216158857"><ele>200.33333333333331</ele><time>2026-03-30T09:52:55.956Z</time></trkpt><trkpt lat="42.36606830329816" lon="14.172715226884108"><ele>201.66666666666666</ele><time>2026-03-30T09:52:57.956Z</time></trkpt><trkpt lat="42.36613820857696" lon="14.172754599266542"><ele>203.0</ele><time>2026-03-30T09:52:58.956Z</time></trkpt><trkpt lat="42.36619523653345" lon="14.172793109885783"><ele>204.33333333333331</ele><time>2026-03-30T09:52:59.956Z</time></trkpt><trkpt lat="42.36625707867957" lon="14.172886674294832"><ele>205.66666666666666</ele><time>2026-03-30T09:53:01.957Z</time></trkpt><trkpt lat="42.36632919438755" lon="14.172884318382426"><ele>207.0</ele><time>2026-03-30T09:53:03.957Z</time></trkpt><trkpt lat="42.3664042807973" lon="14.172898558629045"><ele>209.0</ele><time>2026-03-30T09:53:04.957Z</time></trkpt><trkpt lat="42.366490461539364" lon="14.172926311722472"><ele>211.0</ele><time>2026-03-30T09:53:05.957Z</time></trkpt><trkpt lat="42.3665820518883" lon="14.172962410573357"><ele>213.0</ele><time>2026-03-30T09:53:06.957Z</time></trkpt><trkpt lat="42.36667507077687" lon="14.172998272429622"><ele>215.0</ele><time>2026-03-30T09:53:07.957Z</time></trkpt><trkpt lat="42.36677751817808" lon="14.173040879719865"><ele>217.0</ele><time>2026-03-30T09:53:08.957Z</time></trkpt><trkpt lat="42.36687519905415" lon="14.173077338063328"><ele>216.99999999999997</ele><time>2026-03-30T09:53:09.957Z</time></trkpt><trkpt lat="42.3669691885824" lon="14.173096381556949"><ele>217.0</ele><time>2026-03-30T09:53:10.957Z</time></trkpt><trkpt lat="42.36706528819147" lon="14.173127779773969"><ele>217.0</ele><time>2026-03-30T09:53:11.957Z</time></trkpt><trkpt lat="42.367148705842716" lon="14.173170946646502"><ele>217.0</ele><time>2026-03-30T09:53:12.957Z</time></trkpt><trkpt lat="42.36721006501582" lon="14.173229179673097"><ele>216.99999999999997</ele><time>2026-03-30T09:53:13.957Z</time></trkpt><trkpt lat="42.36726237226145" lon="14.173300241344002"><ele>217.0</ele><time>2026-03-30T09:53:14.957Z</time></trkpt><trkpt lat="42.36732245256397" lon="14.173380937955956"><ele>221.0</ele><time>2026-03-30T09:53:15.957Z</time></trkpt><trkpt lat="42.367399671298955" lon="14.173445637066145"><ele>225.0</ele><time>2026-03-30T09:53:16.957Z</time></trkpt><trkpt lat="42.36748783027587" lon="14.173498723738499"><ele>229.0</ele><time>2026-03-30T09:53:17.957Z</time></trkpt><trkpt lat="42.36757185817972" lon="14.173558758614204"><ele>233.0</ele><time>2026-03-30T09:53:18.957Z</time></trkpt><trkpt lat="42.36767617258626" lon="14.173629657098898"><ele>237.0</ele><time>2026-03-30T09:53:19.957Z</time></trkpt><trkpt lat="42.36776602446277" lon="14.173702698179211"><ele>237.0</ele><time>2026-03-30T09:53:20.957Z</time></trkpt><trkpt lat="42.367838668743175" lon="14.173750019648674"><ele>237.0</ele><time>2026-03-30T09:53:21.957Z</time></trkpt><trkpt lat="42.36789987291872" lon="14.173784496524862"><ele>237.0</ele><time>2026-03-30T09:53:22.957Z</time></trkpt><trkpt lat="42.3680012994096" lon="14.173803457629608"><ele>237.0</ele><time>2026-03-30T09:53:24.957Z</time></trkpt><trkpt lat="42.3680478098257" lon="14.173909868779837"><ele>237.0</ele><time>2026-03-30T09:53:28.957Z</time></trkpt><trkpt lat="42.36807581982615" lon="14.173989521617473"><ele>237.0</ele><time>2026-03-30T09:53:29.957Z</time></trkpt><trkpt lat="42.36814395668828" lon="14.17408784771974"><ele>241.0</ele><time>2026-03-30T09:53:31.957Z</time></trkpt><trkpt lat="42.368201309264876" lon="14.174180488226206"><ele>245.0</ele><time>2026-03-30T09:53:33.957Z</time></trkpt><trkpt lat="42.368240453076304" lon="14.174249529637148"><ele>249.0</ele><time>2026-03-30T09:53:34.957Z</time></trkpt><trkpt lat="42.368289089009764" lon="14.174346784199821"><ele>253.0</ele><time>2026-03-30T09:53:36.957Z</time></trkpt><trkpt lat="42.36836001710858" lon="14.17437539806402"><ele>257.0</ele><time>2026-03-30T09:53:39.957Z</time></trkpt><trkpt lat="42.368489550062236" lon="14.174425090256399"><ele>261.0</ele><time>2026-03-30T09:53:41.957Z</time></trkpt><trkpt lat="42.36854161278067" lon="14.174501472284911"><ele>261.0</ele><time>2026-03-30T09:53:43.957Z</time></trkpt><trkpt lat="42.36860627403973" lon="14.174512075746994"><ele>261.0</ele><time>2026-03-30T09:53:53.955Z</time></trkpt><trkpt lat="42.36863466043201" lon="14.174419046519667"><ele>261.0</ele><time>2026-03-30T09:53:55.956Z</time></trkpt><trkpt lat="42.36857520673555" lon="14.174266211351663"><ele>261.0</ele><time>2026-03-30T09:53:57.955Z</time></trkpt><trkpt lat="42.36850002177046" lon="14.174205084992709"><ele>261.0</ele><time>2026-03-30T09:53:58.956Z</time></trkpt><trkpt lat="42.36841630706859" lon="14.174133054783198"><ele>261.0</ele><time>2026-03-30T09:53:59.955Z</time></trkpt><trkpt lat="42.36833947625331" lon="14.174049108803802"><ele>261.0</ele><time>2026-03-30T09:54:00.955Z</time></trkpt><trkpt lat="42.368294422896106" lon="14.173949504472953"><ele>261.0</ele><time>2026-03-30T09:54:01.955Z</time></trkpt><trkpt lat="42.36826722812608" lon="14.173862852688492"><ele>261.0</ele><time>2026-03-30T09:54:02.956Z</time></trkpt><trkpt lat="42.36825574488557" lon="14.173763093709168"><ele>261.0</ele><time>2026-03-30T09:54:03.956Z</time></trkpt><trkpt lat="42.36829355724307" lon="14.173670460748596"><ele>261.0</ele><time>2026-03-30T09:54:04.956Z</time></trkpt><trkpt lat="42.3683445920577" lon="14.173600124021075"><ele>259.8333333333333</ele><time>2026-03-30T09:54:05.956Z</time></trkpt><trkpt lat="42.36843691982341" lon="14.173558596106153"><ele>258.6666666666667</ele><time>2026-03-30T09:54:06.956Z</time></trkpt><trkpt lat="42.368536360374875" lon="14.173570575686554"><ele>257.5</ele><time>2026-03-30T09:54:07.956Z</time></trkpt><trkpt lat="42.36860173180341" lon="14.173626157110597"><ele>256.33333333333337</ele><time>2026-03-30T09:54:08.956Z</time></trkpt><trkpt lat="42.368631738104675" lon="14.173710050642669"><ele>255.16666666666669</ele><time>2026-03-30T09:54:09.956Z</time></trkpt><trkpt lat="42.36867367246917" lon="14.173798791891162"><ele>254.0</ele><time>2026-03-30T09:54:10.956Z</time></trkpt><trkpt lat="42.368717066226175" lon="14.17392662121743"><ele>254.0</ele><time>2026-03-30T09:54:11.956Z</time></trkpt><trkpt lat="42.36883619495955" lon="14.173947166149095"><ele>253.99999999999997</ele><time>2026-03-30T09:54:13.956Z</time></trkpt><trkpt lat="42.36891281422281" lon="14.173900351478126"><ele>253.99999999999997</ele><time>2026-03-30T09:54:14.956Z</time></trkpt><trkpt lat="42.368998893576624" lon="14.173845435763582"><ele>254.0</ele><time>2026-03-30T09:54:15.956Z</time></trkpt><trkpt lat="42.36907396612209" lon="14.173787228551678"><ele>254.0</ele><time>2026-03-30T09:54:16.956Z</time></trkpt><trkpt lat="42.36914213990257" lon="14.173736666824828"><ele>257.25</ele><time>2026-03-30T09:54:17.956Z</time></trkpt><trkpt lat="42.3692381048311" lon="14.17373126376939"><ele>260.5</ele><time>2026-03-30T09:54:18.956Z</time></trkpt><trkpt lat="42.36933860776402" lon="14.173759525795065"><ele>263.75</ele><time>2026-03-30T09:54:19.956Z</time></trkpt><trkpt lat="42.369479749693525" lon="14.173814449689491"><ele>267.0</ele><time>2026-03-30T09:54:20.956Z</time></trkpt><trkpt lat="42.369627714321574" lon="14.173856152800212"><ele>269.75</ele><time>2026-03-30T09:54:21.956Z</time></trkpt><trkpt lat="42.369742954119886" lon="14.173882118238689"><ele>272.5</ele><time>2026-03-30T09:54:22.956Z</time></trkpt><trkpt lat="42.36986803744891" lon="14.173918387362365"><ele>275.25</ele><time>2026-03-30T09:54:23.956Z</time></trkpt><trkpt lat="42.36998678541763" lon="14.17395395705499"><ele>278.0</ele><time>2026-03-30T09:54:24.956Z</time></trkpt><trkpt lat="42.37008416321111" lon="14.173986931944704"><ele>279.8</ele><time>2026-03-30T09:54:25.956Z</time></trkpt><trkpt lat="42.370170036478164" lon="14.17402423986262"><ele>281.6</ele><time>2026-03-30T09:54:26.956Z</time></trkpt><trkpt lat="42.37024370542449" lon="14.174078796202949"><ele>283.4</ele><time>2026-03-30T09:54:27.956Z</time></trkpt><trkpt lat="42.37033662705887" lon="14.17412907841169"><ele>285.2</ele><time>2026-03-30T09:54:28.956Z</time></trkpt><trkpt lat="42.37043521520456" lon="14.1741717039459"><ele>287.0</ele><time>2026-03-30T09:54:29.956Z</time></trkpt><trkpt lat="42.37053378420798" lon="14.174215403160046"><ele>288.5</ele><time>2026-03-30T09:54:30.956Z</time></trkpt><trkpt lat="42.37062177459354" lon="14.174254668303924"><ele>290.0</ele><time>2026-03-30T09:54:31.956Z</time></trkpt><trkpt lat="42.37070516393746" lon="14.174281213463404"><ele>291.5</ele><time>2026-03-30T09:54:32.956Z</time></trkpt><trkpt lat="42.3707822298725" lon="14.174315223028342"><ele>293.0</ele><time>2026-03-30T09:54:33.956Z</time></trkpt><trkpt lat="42.37083081528904" lon="14.174398684656632"><ele>294.5</ele><time>2026-03-30T09:54:35.956Z</time></trkpt><trkpt lat="42.37089698750105" lon="14.174473293652559"><ele>296.0</ele><time>2026-03-30T09:54:36.956Z</time></trkpt><trkpt lat="42.37097097089958" lon="14.174554620064498"><ele>296.0</ele><time>2026-03-30T09:54:37.956Z</time></trkpt><trkpt lat="42.37103965254735" lon="14.174633855825242"><ele>296.0</ele><time>2026-03-30T09:54:38.956Z</time></trkpt><trkpt lat="42.371114208567334" lon="14.17470460287574"><ele>296.0</ele><time>2026-03-30T09:54:39.956Z</time></trkpt><trkpt lat="42.371169136507" lon="14.174785173255499"><ele>296.0</ele><time>2026-03-30T09:54:40.956Z</time></trkpt><trkpt lat="42.37122129113824" lon="14.174870858709614"><ele>296.0</ele><time>2026-03-30T09:54:41.956Z</time></trkpt><trkpt lat="42.371281871158175" lon="14.174940577724415"><ele>296.0</ele><time>2026-03-30T09:54:42.956Z</time></trkpt><trkpt lat="42.37133343590958" lon="14.175015173518371"><ele>294.8</ele><time>2026-03-30T09:54:43.956Z</time></trkpt><trkpt lat="42.37140618963783" lon="14.175106716026153"><ele>293.6</ele><time>2026-03-30T09:54:44.956Z</time></trkpt><trkpt lat="42.37148839457931" lon="14.175201487645554"><ele>292.4</ele><time>2026-03-30T09:54:45.956Z</time></trkpt><trkpt lat="42.37157985130097" lon="14.175276655378847"><ele>291.2</ele><time>2026-03-30T09:54:46.956Z</time></trkpt><trkpt lat="42.37166433067887" lon="14.175347615544501"><ele>290.0</ele><time>2026-03-30T09:54:47.956Z</time></trkpt><trkpt lat="42.3717427641195" lon="14.175412411515813"><ele>290.0</ele><time>2026-03-30T09:54:48.956Z</time></trkpt><trkpt lat="42.371817835146295" lon="14.175469308680826"><ele>290.0</ele><time>2026-03-30T09:54:49.956Z</time></trkpt><trkpt lat="42.371884373341096" lon="14.175515732708146"><ele>290.0</ele><time>2026-03-30T09:54:50.956Z</time></trkpt><trkpt lat="42.371943270467945" lon="14.175560976920355"><ele>290.0</ele><time>2026-03-30T09:54:51.956Z</time></trkpt><trkpt lat="42.3720035558236" lon="14.175585872559877"><ele>290.0</ele><time>2026-03-30T09:54:52.956Z</time></trkpt><trkpt lat="42.372105390591535" lon="14.175605295391565"><ele>290.0</ele><time>2026-03-30T09:54:54.957Z</time></trkpt><trkpt lat="42.37218263685559" lon="14.175622219927195"><ele>290.25</ele><time>2026-03-30T09:54:55.957Z</time></trkpt><trkpt lat="42.37228844763052" lon="14.17564402736273"><ele>290.5</ele><time>2026-03-30T09:54:56.957Z</time></trkpt><trkpt lat="42.37240219564884" lon="14.175674662822107"><ele>290.75</ele><time>2026-03-30T09:54:57.957Z</time></trkpt><trkpt lat="42.37251625416352" lon="14.175701338687022"><ele>291.0</ele><time>2026-03-30T09:54:58.957Z</time></trkpt><trkpt lat="42.37263059544491" lon="14.175740584612917"><ele>289.5</ele><time>2026-03-30T09:54:59.957Z</time></trkpt><trkpt lat="42.37274004945955" lon="14.175789988422274"><ele>288.0</ele><time>2026-03-30T09:55:00.957Z</time></trkpt><trkpt lat="42.37285071257852" lon="14.175844407438776"><ele>286.5</ele><time>2026-03-30T09:55:01.957Z</time></trkpt><trkpt lat="42.372959586521304" lon="14.17588976100468"><ele>285.0</ele><time>2026-03-30T09:55:02.957Z</time></trkpt><trkpt lat="42.373069386713276" lon="14.175932284391816"><ele>284.0</ele><time>2026-03-30T09:55:03.957Z</time></trkpt><trkpt lat="42.373176242635594" lon="14.175976565893684"><ele>283.0</ele><time>2026-03-30T09:55:04.957Z</time></trkpt><trkpt lat="42.373289785667474" lon="14.176022442930714"><ele>282.0</ele><time>2026-03-30T09:55:05.957Z</time></trkpt><trkpt lat="42.37339621271593" lon="14.1760735193388"><ele>281.0</ele><time>2026-03-30T09:55:06.957Z</time></trkpt><trkpt lat="42.373501016206625" lon="14.176124885303274"><ele>281.0</ele><time>2026-03-30T09:55:07.957Z</time></trkpt><trkpt lat="42.37360634046575" lon="14.176169420250849"><ele>281.0</ele><time>2026-03-30T09:55:08.957Z</time></trkpt><trkpt lat="42.37370802024558" lon="14.176229818211244"><ele>281.0</ele><time>2026-03-30T09:55:09.957Z</time></trkpt><trkpt lat="42.37380631618655" lon="14.176294505159365"><ele>281.0</ele><time>2026-03-30T09:55:10.957Z</time></trkpt><trkpt lat="42.37389980045698" lon="14.176376216322744"><ele>281.0</ele><time>2026-03-30T09:55:11.957Z</time></trkpt><trkpt lat="42.37399352164874" lon="14.176465539761141"><ele>280.0</ele><time>2026-03-30T09:55:12.957Z</time></trkpt><trkpt lat="42.37408414508447" lon="14.176565301811348"><ele>279.0</ele><time>2026-03-30T09:55:13.957Z</time></trkpt><trkpt lat="42.37417533789511" lon="14.176654123470309"><ele>278.0</ele><time>2026-03-30T09:55:14.957Z</time></trkpt><trkpt lat="42.3742721883241" lon="14.176748901627892"><ele>277.0</ele><time>2026-03-30T09:55:15.957Z</time></trkpt><trkpt lat="42.37437341566369" lon="14.176850255280149"><ele>277.0</ele><time>2026-03-30T09:55:16.957Z</time></trkpt><trkpt lat="42.37446696524177" lon="14.176941388353269"><ele>277.0</ele><time>2026-03-30T09:55:17.957Z</time></trkpt><trkpt lat="42.37455829743638" lon="14.17703336567244"><ele>277.0</ele><time>2026-03-30T09:55:18.957Z</time></trkpt><trkpt lat="42.37465156442757" lon="14.177105767840903"><ele>277.0</ele><time>2026-03-30T09:55:19.957Z</time></trkpt><trkpt lat="42.37473901520206" lon="14.177184415297228"><ele>277.0</ele><time>2026-03-30T09:55:20.957Z</time></trkpt><trkpt lat="42.37482101443821" lon="14.177266880363378"><ele>276.4</ele><time>2026-03-30T09:55:21.957Z</time></trkpt><trkpt lat="42.37489711341848" lon="14.177345024343456"><ele>275.79999999999995</ele><time>2026-03-30T09:55:22.957Z</time></trkpt><trkpt lat="42.374972135520686" lon="14.177418386267577"><ele>275.2</ele><time>2026-03-30T09:55:23.957Z</time></trkpt><trkpt lat="42.375052081109224" lon="14.177501434521325"><ele>274.59999999999997</ele><time>2026-03-30T09:55:24.957Z</time></trkpt><trkpt lat="42.3751333006484" lon="14.177581226142816"><ele>274.0</ele><time>2026-03-30T09:55:25.957Z</time></trkpt><trkpt lat="42.375220469770305" lon="14.177665635241024"><ele>273.4</ele><time>2026-03-30T09:55:26.957Z</time></trkpt><trkpt lat="42.375291285472656" lon="14.17774801534784"><ele>272.79999999999995</ele><time>2026-03-30T09:55:27.957Z</time></trkpt><trkpt lat="42.37533773722665" lon="14.177835335116097"><ele>272.20000000000005</ele><time>2026-03-30T09:55:28.957Z</time></trkpt><trkpt lat="42.375419128600775" lon="14.177921757099032"><ele>271.6</ele><time>2026-03-30T09:55:29.957Z</time></trkpt><trkpt lat="42.37551132506561" lon="14.178031335714445"><ele>271.0</ele><time>2026-03-30T09:55:30.957Z</time></trkpt><trkpt lat="42.37559191763951" lon="14.178139757999505"><ele>272.0</ele><time>2026-03-30T09:55:31.957Z</time></trkpt><trkpt lat="42.375671601851714" lon="14.178240051024163"><ele>273.0</ele><time>2026-03-30T09:55:32.957Z</time></trkpt><trkpt lat="42.37575430060823" lon="14.178351368162483"><ele>274.0</ele><time>2026-03-30T09:55:33.957Z</time></trkpt><trkpt lat="42.375822577579285" lon="14.178490020978243"><ele>275.0</ele><time>2026-03-30T09:55:34.957Z</time></trkpt><trkpt lat="42.37588767703699" lon="14.178638927949791"><ele>275.0</ele><time>2026-03-30T09:55:35.957Z</time></trkpt><trkpt lat="42.37594878853932" lon="14.178783550596025"><ele>275.0</ele><time>2026-03-30T09:55:36.957Z</time></trkpt><trkpt lat="42.37601289033705" lon="14.178936894276088"><ele>275.0</ele><time>2026-03-30T09:55:37.957Z</time></trkpt><trkpt lat="42.37608267179633" lon="14.179072930454744"><ele>275.0</ele><time>2026-03-30T09:55:38.957Z</time></trkpt><trkpt lat="42.37614854546722" lon="14.179234682697006"><ele>274.5</ele><time>2026-03-30T09:55:39.957Z</time></trkpt><trkpt lat="42.37622075490937" lon="14.179396389352439"><ele>274.0</ele><time>2026-03-30T09:55:40.957Z</time></trkpt><trkpt lat="42.37628882455072" lon="14.179550711183927"><ele>273.5</ele><time>2026-03-30T09:55:41.957Z</time></trkpt><trkpt lat="42.376351499434556" lon="14.179712088025347"><ele>273.0</ele><time>2026-03-30T09:55:42.957Z</time></trkpt><trkpt lat="42.376411689412095" lon="14.179859833646173"><ele>273.0</ele><time>2026-03-30T09:55:43.957Z</time></trkpt><trkpt lat="42.376472429356035" lon="14.180008102457151"><ele>273.0</ele><time>2026-03-30T09:55:44.957Z</time></trkpt><trkpt lat="42.37653207689977" lon="14.180155907812258"><ele>273.0</ele><time>2026-03-30T09:55:45.957Z</time></trkpt><trkpt lat="42.37657901024833" lon="14.18031235159937"><ele>273.0</ele><time>2026-03-30T09:55:46.957Z</time></trkpt><trkpt lat="42.376622541719506" lon="14.180468527368506"><ele>273.0</ele><time>2026-03-30T09:55:47.957Z</time></trkpt><trkpt lat="42.37666334068245" lon="14.180627576881733"><ele>273.0</ele><time>2026-03-30T09:55:48.957Z</time></trkpt><trkpt lat="42.376700595247684" lon="14.180798830281821"><ele>273.0</ele><time>2026-03-30T09:55:49.957Z</time></trkpt><trkpt lat="42.37673402680743" lon="14.180974764553424"><ele>273.0</ele><time>2026-03-30T09:55:50.958Z</time></trkpt><trkpt lat="42.3767697271007" lon="14.181146380792802"><ele>273.5</ele><time>2026-03-30T09:55:51.958Z</time></trkpt><trkpt lat="42.376806351717406" lon="14.181322788983612"><ele>274.0</ele><time>2026-03-30T09:55:52.958Z</time></trkpt><trkpt lat="42.376841216236755" lon="14.181502268216875"><ele>274.5</ele><time>2026-03-30T09:55:53.958Z</time></trkpt><trkpt lat="42.37687509647994" lon="14.181680878334689"><ele>275.0</ele><time>2026-03-30T09:55:54.958Z</time></trkpt><trkpt lat="42.37690849623301" lon="14.181849349669399"><ele>276.0</ele><time>2026-03-30T09:55:55.958Z</time></trkpt><trkpt lat="42.37694548752582" lon="14.182021501016116"><ele>277.0</ele><time>2026-03-30T09:55:56.958Z</time></trkpt><trkpt lat="42.376983425244106" lon="14.182194942701628"><ele>278.0</ele><time>2026-03-30T09:55:57.958Z</time></trkpt><trkpt lat="42.37702247610871" lon="14.182365680721546"><ele>279.0</ele><time>2026-03-30T09:55:58.957Z</time></trkpt><trkpt lat="42.37707372880943" lon="14.18253609670252"><ele>279.0</ele><time>2026-03-30T09:55:59.956Z</time></trkpt><trkpt lat="42.37712615728848" lon="14.182703342062947"><ele>279.0</ele><time>2026-03-30T09:56:00.956Z</time></trkpt><trkpt lat="42.37718638808333" lon="14.182866226025956"><ele>279.0</ele><time>2026-03-30T09:56:01.957Z</time></trkpt><trkpt lat="42.37724311112423" lon="14.183011248932823"><ele>279.0</ele><time>2026-03-30T09:56:02.957Z</time></trkpt><trkpt lat="42.37729722675422" lon="14.183151378979684"><ele>279.2</ele><time>2026-03-30T09:56:03.957Z</time></trkpt><trkpt lat="42.377338955947415" lon="14.183279544079399"><ele>279.4</ele><time>2026-03-30T09:56:04.957Z</time></trkpt><trkpt lat="42.37738606446304" lon="14.183394168874122"><ele>279.6</ele><time>2026-03-30T09:56:05.956Z</time></trkpt><trkpt lat="42.377429302464165" lon="14.183509111592949"><ele>279.8</ele><time>2026-03-30T09:56:06.956Z</time></trkpt><trkpt lat="42.37747128967529" lon="14.183618506587822"><ele>280.0</ele><time>2026-03-30T09:56:07.957Z</time></trkpt><trkpt lat="42.37750538186644" lon="14.18369136591069"><ele>280.0</ele><time>2026-03-30T09:56:08.956Z</time></trkpt><trkpt lat="42.3775566479669" lon="14.183780236852327"><ele>280.0</ele><time>2026-03-30T09:56:10.956Z</time></trkpt><trkpt lat="42.37769726827452" lon="14.1837216122912"><ele>280.0</ele><time>2026-03-30T09:56:12.956Z</time></trkpt><trkpt lat="42.37777134241871" lon="14.183651450469045"><ele>280.0</ele><time>2026-03-30T09:56:13.956Z</time></trkpt><trkpt lat="42.37783245864031" lon="14.183594304013354"><ele>280.0</ele><time>2026-03-30T09:56:14.956Z</time></trkpt><trkpt lat="42.377902991646614" lon="14.183541633368247"><ele>280.0</ele><time>2026-03-30T09:56:16.956Z</time></trkpt><trkpt lat="42.377877757995115" lon="14.18333964404228"><ele>280.0</ele><time>2026-03-30T09:56:18.956Z</time></trkpt><trkpt lat="42.377904697687704" lon="14.18342862233263"><ele>280.0</ele><time>2026-03-30T09:56:48.957Z</time></trkpt></trkseg></trk></gpx>